<?xml version='1.0' encoding='UTF-8'?><gpx version="1.1" creator="JPX - https://github.com/jenetics/jpx" xmlns="http://www.topografix.com/GPX/1/1"><trk><trkseg><trkpt lat="42.0370399" lon="11.9657738"><ele>39.0</ele><time>2026-04-21T10:08:05.332Z</time></trkpt><trkpt lat="42.0371295" lon="11.9657086"><ele>39.0</ele><time>2026-04-21T10:08:07.332Z</time></trkpt><trkpt lat="42.0371718" lon="11.9656452"><ele>39.0</ele><time>2026-04-21T10:08:08.331Z</time></trkpt><trkpt lat="42.0372153" lon="11.9655735"><ele>39.0</ele><time>2026-04-21T10:08:09.331Z</time></trkpt><trkpt lat="42.0372652" lon="11.9655033"><ele>39.0</ele><time>2026-04-21T10:08:10.331Z</time></trkpt><trkpt lat="42.0373596" lon="11.9654086"><ele>39.0</ele><time>2026-04-21T10:08:12.332Z</time></trkpt><trkpt lat="42.0374265" lon="11.9652963"><ele>39.0</ele><time>2026-04-21T10:08:14.333Z</time></trkpt><trkpt lat="42.0374681" lon="11.9651956"><ele>39.0</ele><time>2026-04-21T10:08:16.332Z</time></trkpt><trkpt lat="42.0375234" lon="11.9650488"><ele>39.0</ele><time>2026-04-21T10:08:18.331Z</time></trkpt><trkpt lat="42.0375941" lon="11.9649434"><ele>39.0</ele><time>2026-04-21T10:08:20.331Z</time></trkpt><trkpt lat="42.0376699" lon="11.9649194"><ele>39.0</ele><time>2026-04-21T10:08:22.332Z</time></trkpt><trkpt lat="42.0377606" lon="11.9649484"><ele>40.833333333333336</ele><time>2026-04-21T10:08:24.332Z</time></trkpt><trkpt lat="42.0378792" lon="11.9650207"><ele>42.66666666666667</ele><time>2026-04-21T10:08:26.331Z</time></trkpt><trkpt lat="42.03794" lon="11.9650622"><ele>44.5</ele><time>2026-04-21T10:08:27.331Z</time></trkpt><trkpt lat="42.0379989" lon="11.9650941"><ele>46.333333333333336</ele><time>2026-04-21T10:08:28.331Z</time></trkpt><trkpt lat="42.0380658" lon="11.9651312"><ele>48.16666666666667</ele><time>2026-04-21T10:08:29.332Z</time></trkpt><trkpt lat="42.0381381" lon="11.9651746"><ele>50.0</ele><time>2026-04-21T10:08:30.332Z</time></trkpt><trkpt lat="42.0381982" lon="11.9652307"><ele>50.00000000000001</ele><time>2026-04-21T10:08:31.332Z</time></trkpt><trkpt lat="42.0382616" lon="11.9652884"><ele>50.0</ele><time>2026-04-21T10:08:32.331Z</time></trkpt><trkpt lat="42.0383268" lon="11.965342"><ele>50.0</ele><time>2026-04-21T10:08:33.332Z</time></trkpt><trkpt lat="42.0383908" lon="11.9654035"><ele>50.0</ele><time>2026-04-21T10:08:34.331Z</time></trkpt><trkpt lat="42.0384502" lon="11.9654759"><ele>50.00000000000001</ele><time>2026-04-21T10:08:35.33Z</time></trkpt><trkpt lat="42.0385223" lon="11.965537"><ele>50.0</ele><time>2026-04-21T10:08:36.33Z</time></trkpt><trkpt lat="42.0386065" lon="11.9655887"><ele>52.2</ele><time>2026-04-21T10:08:37.33Z</time></trkpt><trkpt lat="42.0386955" lon="11.9656357"><ele>54.4</ele><time>2026-04-21T10:08:38.33Z</time></trkpt><trkpt lat="42.0387866" lon="11.965665"><ele>56.599999999999994</ele><time>2026-04-21T10:08:39.33Z</time></trkpt><trkpt lat="42.0388747" lon="11.9656895"><ele>58.8</ele><time>2026-04-21T10:08:40.33Z</time></trkpt><trkpt lat="42.0389668" lon="11.9657123"><ele>61.0</ele><time>2026-04-21T10:08:41.33Z</time></trkpt><trkpt lat="42.0390463" lon="11.9657145"><ele>61.0</ele><time>2026-04-21T10:08:42.33Z</time></trkpt><trkpt lat="42.0391244" lon="11.9656989"><ele>60.99999999999999</ele><time>2026-04-21T10:08:43.332Z</time></trkpt><trkpt lat="42.039216" lon="11.9656647"><ele>60.99999999999999</ele><time>2026-04-21T10:08:44.33Z</time></trkpt><trkpt lat="42.0393136" lon="11.9656259"><ele>61.0</ele><time>2026-04-21T10:08:45.33Z</time></trkpt><trkpt lat="42.0394076" lon="11.9655939"><ele>61.0</ele><time>2026-04-21T10:08:46.332Z</time></trkpt><trkpt lat="42.0394922" lon="11.9655668"><ele>63.666666666666664</ele><time>2026-04-21T10:08:47.33Z</time></trkpt><trkpt lat="42.0395657" lon="11.9655543"><ele>66.33333333333333</ele><time>2026-04-21T10:08:48.33Z</time></trkpt><trkpt lat="42.0396306" lon="11.9655435"><ele>69.0</ele><time>2026-04-21T10:08:49.33Z</time></trkpt><trkpt lat="42.0397468" lon="11.9655542"><ele>71.66666666666667</ele><time>2026-04-21T10:08:51.33Z</time></trkpt><trkpt lat="42.0398169" lon="11.9655827"><ele>74.33333333333334</ele><time>2026-04-21T10:08:52.33Z</time></trkpt><trkpt lat="42.0398985" lon="11.9656109"><ele>77.0</ele><time>2026-04-21T10:08:53.33Z</time></trkpt><trkpt lat="42.0399881" lon="11.9656348"><ele>78.4</ele><time>2026-04-21T10:08:54.33Z</time></trkpt><trkpt lat="42.0400755" lon="11.9656688"><ele>79.80000000000001</ele><time>2026-04-21T10:08:55.33Z</time></trkpt><trkpt lat="42.0401646" lon="11.9657112"><ele>81.2</ele><time>2026-04-21T10:08:56.33Z</time></trkpt><trkpt lat="42.0402625" lon="11.9657416"><ele>82.60000000000001</ele><time>2026-04-21T10:08:57.331Z</time></trkpt><trkpt lat="42.0403603" lon="11.9657578"><ele>84.0</ele><time>2026-04-21T10:08:58.33Z</time></trkpt><trkpt lat="42.0404589" lon="11.9657785"><ele>84.0</ele><time>2026-04-21T10:08:59.33Z</time></trkpt><trkpt lat="42.0405599" lon="11.965811"><ele>84.0</ele><time>2026-04-21T10:09:00.33Z</time></trkpt><trkpt lat="42.0406607" lon="11.9658463"><ele>84.0</ele><time>2026-04-21T10:09:01.332Z</time></trkpt><trkpt lat="42.0407612" lon="11.9658715"><ele>84.0</ele><time>2026-04-21T10:09:02.332Z</time></trkpt><trkpt lat="42.0408643" lon="11.9659055"><ele>84.0</ele><time>2026-04-21T10:09:03.33Z</time></trkpt><trkpt lat="42.0409666" lon="11.9659323"><ele>81.8</ele><time>2026-04-21T10:09:04.331Z</time></trkpt><trkpt lat="42.0410737" lon="11.9659465"><ele>79.60000000000001</ele><time>2026-04-21T10:09:05.331Z</time></trkpt><trkpt lat="42.0411834" lon="11.9659547"><ele>77.4</ele><time>2026-04-21T10:09:06.332Z</time></trkpt><trkpt lat="42.0412958" lon="11.9659575"><ele>75.2</ele><time>2026-04-21T10:09:07.331Z</time></trkpt><trkpt lat="42.0414032" lon="11.9659641"><ele>73.0</ele><time>2026-04-21T10:09:08.332Z</time></trkpt><trkpt lat="42.0415041" lon="11.9659784"><ele>73.0</ele><time>2026-04-21T10:09:09.331Z</time></trkpt><trkpt lat="42.0415949" lon="11.9659973"><ele>73.0</ele><time>2026-04-21T10:09:10.331Z</time></trkpt><trkpt lat="42.0416769" lon="11.966014"><ele>73.0</ele><time>2026-04-21T10:09:11.33Z</time></trkpt><trkpt lat="42.0417495" lon="11.9660497"><ele>73.0</ele><time>2026-04-21T10:09:12.33Z</time></trkpt><trkpt lat="42.041838" lon="11.9661082"><ele>73.0</ele><time>2026-04-21T10:09:13.331Z</time></trkpt><trkpt lat="42.0419386" lon="11.9661808"><ele>74.75</ele><time>2026-04-21T10:09:14.331Z</time></trkpt><trkpt lat="42.0420405" lon="11.9662694"><ele>76.5</ele><time>2026-04-21T10:09:15.331Z</time></trkpt><trkpt lat="42.0421474" lon="11.9663671"><ele>78.25</ele><time>2026-04-21T10:09:16.331Z</time></trkpt><trkpt lat="42.0422561" lon="11.9664596"><ele>80.0</ele><time>2026-04-21T10:09:17.33Z</time></trkpt><trkpt lat="42.0423625" lon="11.966553"><ele>81.0</ele><time>2026-04-21T10:09:18.331Z</time></trkpt><trkpt lat="42.0424671" lon="11.966644"><ele>82.0</ele><time>2026-04-21T10:09:19.33Z</time></trkpt><trkpt lat="42.0425752" lon="11.9667328"><ele>83.0</ele><time>2026-04-21T10:09:20.331Z</time></trkpt><trkpt lat="42.0426872" lon="11.9668285"><ele>84.0</ele><time>2026-04-21T10:09:21.331Z</time></trkpt><trkpt lat="42.0427981" lon="11.9669286"><ele>84.0</ele><time>2026-04-21T10:09:22.33Z</time></trkpt><trkpt lat="42.0429048" lon="11.9670287"><ele>84.0</ele><time>2026-04-21T10:09:23.33Z</time></trkpt><trkpt lat="42.0430048" lon="11.9671266"><ele>84.0</ele><time>2026-04-21T10:09:24.33Z</time></trkpt><trkpt lat="42.0430961" lon="11.9672172"><ele>84.0</ele><time>2026-04-21T10:09:25.33Z</time></trkpt><trkpt lat="42.0431748" lon="11.9672982"><ele>84.0</ele><time>2026-04-21T10:09:26.33Z</time></trkpt><trkpt lat="42.0432357" lon="11.9673725"><ele>84.0</ele><time>2026-04-21T10:09:27.331Z</time></trkpt><trkpt lat="42.0432882" lon="11.9674543"><ele>84.0</ele><time>2026-04-21T10:09:28.33Z</time></trkpt><trkpt lat="42.043331" lon="11.9675402"><ele>84.0</ele><time>2026-04-21T10:09:29.331Z</time></trkpt><trkpt lat="42.0433704" lon="11.967634"><ele>84.0</ele><time>2026-04-21T10:09:30.33Z</time></trkpt><trkpt lat="42.0434113" lon="11.9677236"><ele>84.0</ele><time>2026-04-21T10:09:31.331Z</time></trkpt><trkpt lat="42.0434624" lon="11.9678099"><ele>85.0</ele><time>2026-04-21T10:09:32.331Z</time></trkpt><trkpt lat="42.043526" lon="11.9678784"><ele>86.0</ele><time>2026-04-21T10:09:33.33Z</time></trkpt><trkpt lat="42.0435983" lon="11.9679256"><ele>87.0</ele><time>2026-04-21T10:09:34.33Z</time></trkpt><trkpt lat="42.043681" lon="11.9679561"><ele>88.0</ele><time>2026-04-21T10:09:35.33Z</time></trkpt><trkpt lat="42.0437646" lon="11.9679677"><ele>89.0</ele><time>2026-04-21T10:09:36.33Z</time></trkpt><trkpt lat="42.0438431" lon="11.9679632"><ele>90.0</ele><time>2026-04-21T10:09:37.33Z</time></trkpt><trkpt lat="42.0439274" lon="11.9679448"><ele>90.0</ele><time>2026-04-21T10:09:38.331Z</time></trkpt><trkpt lat="42.0440158" lon="11.967914"><ele>90.0</ele><time>2026-04-21T10:09:39.331Z</time></trkpt><trkpt lat="42.044106" lon="11.9678743"><ele>90.0</ele><time>2026-04-21T10:09:40.33Z</time></trkpt><trkpt lat="42.0441869" lon="11.9678379"><ele>90.0</ele><time>2026-04-21T10:09:41.331Z</time></trkpt><trkpt lat="42.0442511" lon="11.9678096"><ele>90.0</ele><time>2026-04-21T10:09:42.331Z</time></trkpt><trkpt lat="42.0443375" lon="11.967773"><ele>90.0</ele><time>2026-04-21T10:09:44.332Z</time></trkpt><trkpt lat="42.044399" lon="11.9677399"><ele>91.0</ele><time>2026-04-21T10:10:06.33Z</time></trkpt><trkpt lat="42.0444767" lon="11.9676952"><ele>92.0</ele><time>2026-04-21T10:10:21.331Z</time></trkpt><trkpt lat="42.044546" lon="11.967697"><ele>93.0</ele><time>2026-04-21T10:11:10.33Z</time></trkpt><trkpt lat="42.0446257" lon="11.9677119"><ele>94.0</ele><time>2026-04-21T10:11:12.33Z</time></trkpt><trkpt lat="42.0446833" lon="11.9677605"><ele>95.0</ele><time>2026-04-21T10:11:14.33Z</time></trkpt><trkpt lat="42.0447127" lon="11.9678816"><ele>96.0</ele><time>2026-04-21T10:11:17.33Z</time></trkpt><trkpt lat="42.044649" lon="11.9679951"><ele>96.0</ele><time>2026-04-21T10:11:19.332Z</time></trkpt><trkpt lat="42.0445871" lon="11.9680725"><ele>96.0</ele><time>2026-04-21T10:11:20.33Z</time></trkpt><trkpt lat="42.0445306" lon="11.9681482"><ele>96.0</ele><time>2026-04-21T10:11:21.331Z</time></trkpt><trkpt lat="42.0444886" lon="11.9682247"><ele>96.0</ele><time>2026-04-21T10:11:22.332Z</time></trkpt><trkpt lat="42.044435" lon="11.9683586"><ele>96.0</ele><time>2026-04-21T10:11:24.332Z</time></trkpt><trkpt lat="42.0444407" lon="11.9684676"><ele>96.0</ele><time>2026-04-21T10:11:26.33Z</time></trkpt><trkpt lat="42.0444949" lon="11.9685382"><ele>97.4</ele><time>2026-04-21T10:11:28.33Z</time></trkpt><trkpt lat="42.0445818" lon="11.9685789"><ele>98.8</ele><time>2026-04-21T10:11:30.331Z</time></trkpt><trkpt lat="42.044694" lon="11.968585"><ele>100.2</ele><time>2026-04-21T10:11:32.331Z</time></trkpt><trkpt lat="42.0448144" lon="11.9686231"><ele>101.60000000000001</ele><time>2026-04-21T10:11:34.331Z</time></trkpt><trkpt lat="42.0448812" lon="11.9686401"><ele>103.0</ele><time>2026-04-21T10:11:35.33Z</time></trkpt><trkpt lat="42.0449447" lon="11.968657"><ele>105.75</ele><time>2026-04-21T10:11:36.33Z</time></trkpt><trkpt lat="42.0450598" lon="11.9686989"><ele>108.5</ele><time>2026-04-21T10:11:38.332Z</time></trkpt><trkpt lat="42.0451531" lon="11.9687608"><ele>111.25</ele><time>2026-04-21T10:11:40.331Z</time></trkpt><trkpt lat="42.0452311" lon="11.968853"><ele>114.0</ele><time>2026-04-21T10:11:42.33Z</time></trkpt><trkpt lat="42.045327" lon="11.9689731"><ele>114.0</ele><time>2026-04-21T10:11:44.33Z</time></trkpt><trkpt lat="42.0453855" lon="11.9690469"><ele>114.0</ele><time>2026-04-21T10:11:45.33Z</time></trkpt><trkpt lat="42.0454409" lon="11.9691128"><ele>114.0</ele><time>2026-04-21T10:11:46.33Z</time></trkpt><trkpt lat="42.0454984" lon="11.9691736"><ele>114.0</ele><time>2026-04-21T10:11:47.33Z</time></trkpt><trkpt lat="42.0455597" lon="11.969224"><ele>114.0</ele><time>2026-04-21T10:11:48.33Z</time></trkpt><trkpt lat="42.0456269" lon="11.9692642"><ele>114.0</ele><time>2026-04-21T10:11:49.331Z</time></trkpt><trkpt lat="42.04574" lon="11.9693224"><ele>115.0</ele><time>2026-04-21T10:11:51.331Z</time></trkpt><trkpt lat="42.0458032" lon="11.9693465"><ele>116.0</ele><time>2026-04-21T10:11:52.331Z</time></trkpt><trkpt lat="42.0458833" lon="11.9693655"><ele>117.0</ele><time>2026-04-21T10:11:53.33Z</time></trkpt><trkpt lat="42.0459639" lon="11.9693831"><ele>118.0</ele><time>2026-04-21T10:11:54.331Z</time></trkpt><trkpt lat="42.0460501" lon="11.9694112"><ele>119.0</ele><time>2026-04-21T10:11:55.33Z</time></trkpt><trkpt lat="42.0461402" lon="11.9694478"><ele>120.0</ele><time>2026-04-21T10:11:56.33Z</time></trkpt><trkpt lat="42.0462282" lon="11.9694919"><ele>120.0</ele><time>2026-04-21T10:11:57.33Z</time></trkpt><trkpt lat="42.0463097" lon="11.9695348"><ele>120.0</ele><time>2026-04-21T10:11:58.331Z</time></trkpt><trkpt lat="42.0463836" lon="11.9695822"><ele>120.0</ele><time>2026-04-21T10:11:59.331Z</time></trkpt><trkpt lat="42.0464575" lon="11.9696328"><ele>120.0</ele><time>2026-04-21T10:12:00.33Z</time></trkpt><trkpt lat="42.0465375" lon="11.9696696"><ele>120.0</ele><time>2026-04-21T10:12:01.33Z</time></trkpt><trkpt lat="42.0466215" lon="11.9697015"><ele>120.0</ele><time>2026-04-21T10:12:02.33Z</time></trkpt><trkpt lat="42.0466997" lon="11.9697309"><ele>121.28571428571429</ele><time>2026-04-21T10:12:03.33Z</time></trkpt><trkpt lat="42.0467696" lon="11.9697467"><ele>122.57142857142856</ele><time>2026-04-21T10:12:04.331Z</time></trkpt><trkpt lat="42.0468347" lon="11.9697519"><ele>123.85714285714285</ele><time>2026-04-21T10:12:05.331Z</time></trkpt><trkpt lat="42.0469004" lon="11.9697569"><ele>125.14285714285714</ele><time>2026-04-21T10:12:06.331Z</time></trkpt><trkpt lat="42.0469647" lon="11.9697782"><ele>126.42857142857142</ele><time>2026-04-21T10:12:07.33Z</time></trkpt><trkpt lat="42.0470317" lon="11.9698127"><ele>127.7142857142857</ele><time>2026-04-21T10:12:08.33Z</time></trkpt><trkpt lat="42.0470924" lon="11.9698584"><ele>129.0</ele><time>2026-04-21T10:12:09.33Z</time></trkpt><trkpt lat="42.047151" lon="11.9699175"><ele>129.0</ele><time>2026-04-21T10:12:10.33Z</time></trkpt><trkpt lat="42.0472046" lon="11.9699867"><ele>129.0</ele><time>2026-04-21T10:12:11.331Z</time></trkpt><trkpt lat="42.0472552" lon="11.9700501"><ele>129.0</ele><time>2026-04-21T10:12:12.331Z</time></trkpt><trkpt lat="42.0473459" lon="11.9701476"><ele>129.0</ele><time>2026-04-21T10:12:14.33Z</time></trkpt><trkpt lat="42.0474076" lon="11.9702199"><ele>129.0</ele><time>2026-04-21T10:12:15.33Z</time></trkpt><trkpt lat="42.0474727" lon="11.9702992"><ele>129.0</ele><time>2026-04-21T10:12:16.33Z</time></trkpt><trkpt lat="42.0475377" lon="11.9703669"><ele>131.83333333333334</ele><time>2026-04-21T10:12:17.331Z</time></trkpt><trkpt lat="42.0476054" lon="11.9704157"><ele>134.66666666666666</ele><time>2026-04-21T10:12:18.331Z</time></trkpt><trkpt lat="42.047675" lon="11.9704568"><ele>137.5</ele><time>2026-04-21T10:12:19.331Z</time></trkpt><trkpt lat="42.0477461" lon="11.9705027"><ele>140.33333333333331</ele><time>2026-04-21T10:12:20.331Z</time></trkpt><trkpt lat="42.0478202" lon="11.9705565"><ele>143.16666666666666</ele><time>2026-04-21T10:12:21.33Z</time></trkpt><trkpt lat="42.0478978" lon="11.9706093"><ele>146.0</ele><time>2026-04-21T10:12:22.331Z</time></trkpt><trkpt lat="42.0479763" lon="11.9706474"><ele>146.0</ele><time>2026-04-21T10:12:23.33Z</time></trkpt><trkpt lat="42.0480556" lon="11.970683"><ele>146.0</ele><time>2026-04-21T10:12:24.331Z</time></trkpt><trkpt lat="42.0481342" lon="11.9707144"><ele>146.0</ele><time>2026-04-21T10:12:25.331Z</time></trkpt><trkpt lat="42.0482146" lon="11.9707469"><ele>146.0</ele><time>2026-04-21T10:12:26.33Z</time></trkpt><trkpt lat="42.0482936" lon="11.9707739"><ele>146.0</ele><time>2026-04-21T10:12:27.33Z</time></trkpt><trkpt lat="42.0483707" lon="11.9708058"><ele>146.0</ele><time>2026-04-21T10:12:28.33Z</time></trkpt><trkpt lat="42.0484468" lon="11.9708433"><ele>147.83333333333331</ele><time>2026-04-21T10:12:29.33Z</time></trkpt><trkpt lat="42.0485187" lon="11.9708867"><ele>149.66666666666666</ele><time>2026-04-21T10:12:30.331Z</time></trkpt><trkpt lat="42.0485815" lon="11.9709326"><ele>151.5</ele><time>2026-04-21T10:12:31.33Z</time></trkpt><trkpt lat="42.0486379" lon="11.970983"><ele>153.33333333333334</ele><time>2026-04-21T10:12:32.331Z</time></trkpt><trkpt lat="42.048722" lon="11.9710797"><ele>155.16666666666669</ele><time>2026-04-21T10:12:34.33Z</time></trkpt><trkpt lat="42.0488022" lon="11.9712013"><ele>157.0</ele><time>2026-04-21T10:12:36.331Z</time></trkpt><trkpt lat="42.0488436" lon="11.9712701"><ele>157.0</ele><time>2026-04-21T10:12:37.331Z</time></trkpt><trkpt lat="42.0488718" lon="11.9713551"><ele>157.0</ele><time>2026-04-21T10:12:38.33Z</time></trkpt><trkpt lat="42.048901" lon="11.9714454"><ele>157.0</ele><time>2026-04-21T10:12:39.33Z</time></trkpt><trkpt lat="42.0489366" lon="11.9715365"><ele>157.0</ele><time>2026-04-21T10:12:40.331Z</time></trkpt><trkpt lat="42.0489811" lon="11.9716305"><ele>157.0</ele><time>2026-04-21T10:12:41.332Z</time></trkpt><trkpt lat="42.0490252" lon="11.9717307"><ele>157.0</ele><time>2026-04-21T10:12:42.331Z</time></trkpt><trkpt lat="42.0490644" lon="11.9718489"><ele>156.79999999999998</ele><time>2026-04-21T10:12:43.331Z</time></trkpt><trkpt lat="42.0491042" lon="11.9719582"><ele>156.6</ele><time>2026-04-21T10:12:44.331Z</time></trkpt><trkpt lat="42.0491327" lon="11.972067"><ele>156.39999999999998</ele><time>2026-04-21T10:12:45.331Z</time></trkpt><trkpt lat="42.0491489" lon="11.972189"><ele>156.2</ele><time>2026-04-21T10:12:46.33Z</time></trkpt><trkpt lat="42.0491537" lon="11.9723269"><ele>156.0</ele><time>2026-04-21T10:12:47.33Z</time></trkpt><trkpt lat="42.0491473" lon="11.9724711"><ele>157.8</ele><time>2026-04-21T10:12:48.33Z</time></trkpt><trkpt lat="42.0491423" lon="11.9726149"><ele>159.6</ele><time>2026-04-21T10:12:49.331Z</time></trkpt><trkpt lat="42.0491409" lon="11.9727505"><ele>161.4</ele><time>2026-04-21T10:12:50.33Z</time></trkpt><trkpt lat="42.0491525" lon="11.9728917"><ele>163.2</ele><time>2026-04-21T10:12:51.33Z</time></trkpt><trkpt lat="42.0491752" lon="11.9730283"><ele>165.0</ele><time>2026-04-21T10:12:52.33Z</time></trkpt><trkpt lat="42.0492006" lon="11.973162"><ele>165.0</ele><time>2026-04-21T10:12:53.33Z</time></trkpt><trkpt lat="42.0492304" lon="11.9732872"><ele>165.0</ele><time>2026-04-21T10:12:54.332Z</time></trkpt><trkpt lat="42.0492761" lon="11.9733929"><ele>165.0</ele><time>2026-04-21T10:12:55.331Z</time></trkpt><trkpt lat="42.0493328" lon="11.9734745"><ele>165.0</ele><time>2026-04-21T10:12:56.331Z</time></trkpt><trkpt lat="42.0494006" lon="11.973545"><ele>165.0</ele><time>2026-04-21T10:12:57.33Z</time></trkpt><trkpt lat="42.0494631" lon="11.9736033"><ele>165.0</ele><time>2026-04-21T10:12:58.331Z</time></trkpt><trkpt lat="42.0495206" lon="11.973643"><ele>165.66666666666666</ele><time>2026-04-21T10:12:59.332Z</time></trkpt><trkpt lat="42.0495885" lon="11.9736799"><ele>166.33333333333334</ele><time>2026-04-21T10:13:00.33Z</time></trkpt><trkpt lat="42.0496615" lon="11.9737116"><ele>167.0</ele><time>2026-04-21T10:13:01.331Z</time></trkpt><trkpt lat="42.049744" lon="11.973751"><ele>167.66666666666669</ele><time>2026-04-21T10:13:02.33Z</time></trkpt><trkpt lat="42.0498286" lon="11.9738082"><ele>168.33333333333334</ele><time>2026-04-21T10:13:03.331Z</time></trkpt><trkpt lat="42.0499068" lon="11.973886"><ele>169.0</ele><time>2026-04-21T10:13:04.33Z</time></trkpt><trkpt lat="42.0499811" lon="11.9739837"><ele>169.0</ele><time>2026-04-21T10:13:05.331Z</time></trkpt><trkpt lat="42.0500462" lon="11.9740947"><ele>169.0</ele><time>2026-04-21T10:13:06.33Z</time></trkpt><trkpt lat="42.0501056" lon="11.9742139"><ele>169.0</ele><time>2026-04-21T10:13:07.331Z</time></trkpt><trkpt lat="42.0501665" lon="11.9743282"><ele>169.0</ele><time>2026-04-21T10:13:08.33Z</time></trkpt><trkpt lat="42.0502302" lon="11.9744377"><ele>169.0</ele><time>2026-04-21T10:13:09.331Z</time></trkpt><trkpt lat="42.0502941" lon="11.974537"><ele>168.2</ele><time>2026-04-21T10:13:10.33Z</time></trkpt><trkpt lat="42.050367" lon="11.9746323"><ele>167.39999999999998</ele><time>2026-04-21T10:13:11.33Z</time></trkpt><trkpt lat="42.0504441" lon="11.9747205"><ele>166.6</ele><time>2026-04-21T10:13:12.33Z</time></trkpt><trkpt lat="42.050525" lon="11.9748085"><ele>165.8</ele><time>2026-04-21T10:13:13.332Z</time></trkpt><trkpt lat="42.0506008" lon="11.9748984"><ele>165.0</ele><time>2026-04-21T10:13:14.332Z</time></trkpt><trkpt lat="42.0506736" lon="11.9749805"><ele>165.2</ele><time>2026-04-21T10:13:15.331Z</time></trkpt><trkpt lat="42.0507495" lon="11.9750534"><ele>165.4</ele><time>2026-04-21T10:13:16.33Z</time></trkpt><trkpt lat="42.0508251" lon="11.9751236"><ele>165.60000000000002</ele><time>2026-04-21T10:13:17.331Z</time></trkpt><trkpt lat="42.0509117" lon="11.9751915"><ele>165.8</ele><time>2026-04-21T10:13:18.33Z</time></trkpt><trkpt lat="42.0510087" lon="11.9752537"><ele>166.0</ele><time>2026-04-21T10:13:19.331Z</time></trkpt><trkpt lat="42.0511135" lon="11.9753005"><ele>167.25</ele><time>2026-04-21T10:13:20.33Z</time></trkpt><trkpt lat="42.051224" lon="11.9753349"><ele>168.5</ele><time>2026-04-21T10:13:21.33Z</time></trkpt><trkpt lat="42.0513391" lon="11.9753696"><ele>169.75</ele><time>2026-04-21T10:13:22.33Z</time></trkpt><trkpt lat="42.0514518" lon="11.9754157"><ele>171.0</ele><time>2026-04-21T10:13:23.33Z</time></trkpt><trkpt lat="42.0515616" lon="11.975468"><ele>172.4</ele><time>2026-04-21T10:13:24.331Z</time></trkpt><trkpt lat="42.0516635" lon="11.9755285"><ele>173.8</ele><time>2026-04-21T10:13:25.331Z</time></trkpt><trkpt lat="42.0517609" lon="11.9755795"><ele>175.20000000000002</ele><time>2026-04-21T10:13:26.33Z</time></trkpt><trkpt lat="42.0518519" lon="11.975618"><ele>176.60000000000002</ele><time>2026-04-21T10:13:27.33Z</time></trkpt><trkpt lat="42.0519374" lon="11.9756386"><ele>178.0</ele><time>2026-04-21T10:13:28.331Z</time></trkpt><trkpt lat="42.0520219" lon="11.9756618"><ele>178.0</ele><time>2026-04-21T10:13:29.331Z</time></trkpt><trkpt lat="42.0521054" lon="11.9756902"><ele>178.0</ele><time>2026-04-21T10:13:30.33Z</time></trkpt><trkpt lat="42.0521869" lon="11.9757318"><ele>178.0</ele><time>2026-04-21T10:13:31.331Z</time></trkpt><trkpt lat="42.0522689" lon="11.9757781"><ele>178.0</ele><time>2026-04-21T10:13:32.331Z</time></trkpt><trkpt lat="42.0523524" lon="11.9758159"><ele>178.0</ele><time>2026-04-21T10:13:33.33Z</time></trkpt><trkpt lat="42.0524252" lon="11.9758423"><ele>178.0</ele><time>2026-04-21T10:13:34.331Z</time></trkpt><trkpt lat="42.0524859" lon="11.9758656"><ele>177.66666666666669</ele><time>2026-04-21T10:13:35.33Z</time></trkpt><trkpt lat="42.052558" lon="11.9759004"><ele>177.33333333333334</ele><time>2026-04-21T10:13:37.33Z</time></trkpt><trkpt lat="42.0526264" lon="11.9759388"><ele>177.0</ele><time>2026-04-21T10:14:09.331Z</time></trkpt><trkpt lat="42.0526976" lon="11.9759914"><ele>176.66666666666666</ele><time>2026-04-21T10:14:11.332Z</time></trkpt><trkpt lat="42.052776" lon="11.9760712"><ele>176.33333333333331</ele><time>2026-04-21T10:14:13.33Z</time></trkpt><trkpt lat="42.0528532" lon="11.9761374"><ele>176.0</ele><time>2026-04-21T10:14:15.33Z</time></trkpt><trkpt lat="42.0529275" lon="11.9762165"><ele>176.0</ele><time>2026-04-21T10:14:17.33Z</time></trkpt><trkpt lat="42.0529827" lon="11.976329"><ele>176.0</ele><time>2026-04-21T10:14:19.331Z</time></trkpt><trkpt lat="42.0530331" lon="11.9764569"><ele>176.0</ele><time>2026-04-21T10:14:21.33Z</time></trkpt><trkpt lat="42.0531033" lon="11.9765714"><ele>176.0</ele><time>2026-04-21T10:14:23.33Z</time></trkpt><trkpt lat="42.0531842" lon="11.9766744"><ele>176.0</ele><time>2026-04-21T10:14:25.33Z</time></trkpt><trkpt lat="42.0532775" lon="11.976774"><ele>176.0</ele><time>2026-04-21T10:14:27.33Z</time></trkpt><trkpt lat="42.0533738" lon="11.9768562"><ele>176.0</ele><time>2026-04-21T10:14:29.331Z</time></trkpt><trkpt lat="42.053479" lon="11.9769264"><ele>176.0</ele><time>2026-04-21T10:14:31.33Z</time></trkpt><trkpt lat="42.0535897" lon="11.9769958"><ele>176.0</ele><time>2026-04-21T10:14:33.33Z</time></trkpt><trkpt lat="42.0537" lon="11.9770591"><ele>176.0</ele><time>2026-04-21T10:14:35.33Z</time></trkpt><trkpt lat="42.0538072" lon="11.9771145"><ele>176.0</ele><time>2026-04-21T10:14:37.33Z</time></trkpt><trkpt lat="42.0539044" lon="11.9771629"><ele>176.0</ele><time>2026-04-21T10:14:39.331Z</time></trkpt><trkpt lat="42.053973" lon="11.9771712"><ele>176.0</ele><time>2026-04-21T10:14:41.33Z</time></trkpt><trkpt lat="42.0540489" lon="11.97715"><ele>176.0</ele><time>2026-04-21T10:14:54.33Z</time></trkpt><trkpt lat="42.0541433" lon="11.9770836"><ele>175.83333333333331</ele><time>2026-04-21T10:14:56.33Z</time></trkpt><trkpt lat="42.0542236" lon="11.9769953"><ele>175.66666666666666</ele><time>2026-04-21T10:14:58.33Z</time></trkpt><trkpt lat="42.0542731" lon="11.9769373"><ele>175.5</ele><time>2026-04-21T10:14:59.33Z</time></trkpt><trkpt lat="42.0543273" lon="11.9768783"><ele>175.33333333333334</ele><time>2026-04-21T10:15:00.331Z</time></trkpt><trkpt lat="42.0543787" lon="11.9768246"><ele>175.16666666666669</ele><time>2026-04-21T10:15:01.33Z</time></trkpt><trkpt lat="42.0544591" lon="11.9767484"><ele>175.0</ele><time>2026-04-21T10:15:03.33Z</time></trkpt><trkpt lat="42.0545159" lon="11.9767045"><ele>175.16666666666669</ele><time>2026-04-21T10:15:31.331Z</time></trkpt><trkpt lat="42.0545764" lon="11.9766673"><ele>175.33333333333334</ele><time>2026-04-21T10:15:47.331Z</time></trkpt><trkpt lat="42.0546491" lon="11.9766586"><ele>175.5</ele><time>2026-04-21T10:15:53.33Z</time></trkpt><trkpt lat="42.0547568" lon="11.9766529"><ele>175.66666666666666</ele><time>2026-04-21T10:15:55.331Z</time></trkpt><trkpt lat="42.0548528" lon="11.976629"><ele>175.83333333333331</ele><time>2026-04-21T10:15:57.331Z</time></trkpt><trkpt lat="42.0549217" lon="11.9765838"><ele>176.0</ele><time>2026-04-21T10:15:59.331Z</time></trkpt><trkpt lat="42.054973" lon="11.976533"><ele>176.0</ele><time>2026-04-21T10:16:01.331Z</time></trkpt><trkpt lat="42.0550324" lon="11.9764815"><ele>176.0</ele><time>2026-04-21T10:16:12.33Z</time></trkpt><trkpt lat="42.0550954" lon="11.9764367"><ele>176.0</ele><time>2026-04-21T10:16:17.329Z</time></trkpt><trkpt lat="42.0551541" lon="11.9763574"><ele>176.0</ele><time>2026-04-21T10:16:19.33Z</time></trkpt><trkpt lat="42.0551956" lon="11.9762677"><ele>176.0</ele><time>2026-04-21T10:16:21.329Z</time></trkpt><trkpt lat="42.0552426" lon="11.976175"><ele>176.0</ele><time>2026-04-21T10:16:23.329Z</time></trkpt><trkpt lat="42.0552948" lon="11.9761009"><ele>176.0</ele><time>2026-04-21T10:16:25.33Z</time></trkpt><trkpt lat="42.0553732" lon="11.9760195"><ele>176.0</ele><time>2026-04-21T10:17:13.331Z</time></trkpt><trkpt lat="42.0554379" lon="11.9759453"><ele>176.0</ele><time>2026-04-21T10:17:22.329Z</time></trkpt><trkpt lat="42.0554945" lon="11.975869"><ele>176.0</ele><time>2026-04-21T10:17:25.329Z</time></trkpt><trkpt lat="42.055508" lon="11.9757815"><ele>176.0</ele><time>2026-04-21T10:17:40.329Z</time></trkpt><trkpt lat="42.0555136" lon="11.975696"><ele>176.0</ele><time>2026-04-21T10:18:20.33Z</time></trkpt><trkpt lat="42.0554973" lon="11.9756096"><ele>176.0</ele><time>2026-04-21T10:18:51.33Z</time></trkpt><trkpt lat="42.0554879" lon="11.9755251"><ele>176.0</ele><time>2026-04-21T10:18:54.331Z</time></trkpt><trkpt lat="42.0554972" lon="11.9754361"><ele>176.0</ele><time>2026-04-21T10:19:10.329Z</time></trkpt><trkpt lat="42.0554946" lon="11.9755214"><ele>176.0</ele><time>2026-04-21T10:20:59.329Z</time></trkpt><trkpt lat="42.0554988" lon="11.9756194"><ele>176.0</ele><time>2026-04-21T10:22:18.33Z</time></trkpt><trkpt lat="42.0555194" lon="11.975721"><ele>176.0</ele><time>2026-04-21T10:23:33.328Z</time></trkpt><trkpt lat="42.055511" lon="11.975807"><ele>176.0</ele><time>2026-04-21T10:23:45.329Z</time></trkpt><trkpt lat="42.0554841" lon="11.9758901"><ele>176.0</ele><time>2026-04-21T10:23:55.328Z</time></trkpt><trkpt lat="42.0554252" lon="11.9759743"><ele>176.0</ele><time>2026-04-21T10:23:58.328Z</time></trkpt><trkpt lat="42.0553719" lon="11.9760328"><ele>176.0</ele><time>2026-04-21T10:24:07.328Z</time></trkpt><trkpt lat="42.0553131" lon="11.976088"><ele>176.0</ele><time>2026-04-21T10:24:31.329Z</time></trkpt><trkpt lat="42.0552622" lon="11.9761448"><ele>176.0</ele><time>2026-04-21T10:24:34.328Z</time></trkpt><trkpt lat="42.0552135" lon="11.9762079"><ele>176.0</ele><time>2026-04-21T10:24:36.329Z</time></trkpt><trkpt lat="42.0551796" lon="11.9762847"><ele>176.0</ele><time>2026-04-21T10:24:38.328Z</time></trkpt><trkpt lat="42.0551489" lon="11.9763648"><ele>176.0</ele><time>2026-04-21T10:24:40.329Z</time></trkpt><trkpt lat="42.0551048" lon="11.9764366"><ele>176.0</ele><time>2026-04-21T10:24:42.328Z</time></trkpt><trkpt lat="42.055051" lon="11.976482"><ele>176.0</ele><time>2026-04-21T10:24:44.328Z</time></trkpt><trkpt lat="42.054991" lon="11.9765244"><ele>176.0</ele><time>2026-04-21T10:24:59.328Z</time></trkpt><trkpt lat="42.0549319" lon="11.9765824"><ele>176.0</ele><time>2026-04-21T10:25:04.328Z</time></trkpt><trkpt lat="42.0548726" lon="11.9766314"><ele>176.0</ele><time>2026-04-21T10:25:06.329Z</time></trkpt><trkpt lat="42.0548095" lon="11.9766581"><ele>176.0</ele><time>2026-04-21T10:25:08.329Z</time></trkpt><trkpt lat="42.0547473" lon="11.9766712"><ele>175.83333333333331</ele><time>2026-04-21T10:25:10.329Z</time></trkpt><trkpt lat="42.0546571" lon="11.9766744"><ele>175.66666666666666</ele><time>2026-04-21T10:25:16.328Z</time></trkpt><trkpt lat="42.0545849" lon="11.9766813"><ele>175.5</ele><time>2026-04-21T10:25:18.328Z</time></trkpt><trkpt lat="42.054498" lon="11.9767215"><ele>175.33333333333334</ele><time>2026-04-21T10:25:35.329Z</time></trkpt><trkpt lat="42.0543909" lon="11.9768153"><ele>175.16666666666669</ele><time>2026-04-21T10:25:37.329Z</time></trkpt><trkpt lat="42.0543387" lon="11.9768676"><ele>175.0</ele><time>2026-04-21T10:25:38.328Z</time></trkpt><trkpt lat="42.0542555" lon="11.9769563"><ele>175.0</ele><time>2026-04-21T10:25:40.328Z</time></trkpt><trkpt lat="42.0541931" lon="11.9770236"><ele>175.0</ele><time>2026-04-21T10:25:42.328Z</time></trkpt><trkpt lat="42.0541388" lon="11.9770881"><ele>175.0</ele><time>2026-04-21T10:25:44.329Z</time></trkpt><trkpt lat="42.0540674" lon="11.9771481"><ele>175.0</ele><time>2026-04-21T10:25:46.328Z</time></trkpt><trkpt lat="42.0539877" lon="11.9771794"><ele>175.0</ele><time>2026-04-21T10:25:48.33Z</time></trkpt><trkpt lat="42.0539099" lon="11.9771547"><ele>175.0</ele><time>2026-04-21T10:25:51.329Z</time></trkpt><trkpt lat="42.0538124" lon="11.9771241"><ele>175.16666666666669</ele><time>2026-04-21T10:25:56.328Z</time></trkpt><trkpt lat="42.0537502" lon="11.9770886"><ele>175.33333333333334</ele><time>2026-04-21T10:25:57.329Z</time></trkpt><trkpt lat="42.0536768" lon="11.9770504"><ele>175.5</ele><time>2026-04-21T10:25:58.329Z</time></trkpt><trkpt lat="42.0535992" lon="11.9770106"><ele>175.66666666666666</ele><time>2026-04-21T10:25:59.328Z</time></trkpt><trkpt lat="42.0535228" lon="11.9769618"><ele>175.83333333333331</ele><time>2026-04-21T10:26:00.328Z</time></trkpt><trkpt lat="42.0534389" lon="11.9769111"><ele>176.0</ele><time>2026-04-21T10:26:01.328Z</time></trkpt><trkpt lat="42.0533685" lon="11.9768609"><ele>176.0</ele><time>2026-04-21T10:26:02.329Z</time></trkpt><trkpt lat="42.0532991" lon="11.9768107"><ele>176.0</ele><time>2026-04-21T10:26:03.328Z</time></trkpt><trkpt lat="42.0532482" lon="11.9767551"><ele>176.0</ele><time>2026-04-21T10:26:04.328Z</time></trkpt><trkpt lat="42.0532044" lon="11.9766936"><ele>176.0</ele><time>2026-04-21T10:26:05.328Z</time></trkpt><trkpt lat="42.0531612" lon="11.976628"><ele>176.0</ele><time>2026-04-21T10:26:06.329Z</time></trkpt><trkpt lat="42.0530746" lon="11.9765042"><ele>176.0</ele><time>2026-04-21T10:26:08.328Z</time></trkpt><trkpt lat="42.0530334" lon="11.976432"><ele>176.0</ele><time>2026-04-21T10:26:09.329Z</time></trkpt><trkpt lat="42.0529923" lon="11.9763562"><ele>176.0</ele><time>2026-04-21T10:26:10.329Z</time></trkpt><trkpt lat="42.0529507" lon="11.9762705"><ele>176.0</ele><time>2026-04-21T10:26:11.328Z</time></trkpt><trkpt lat="42.0528621" lon="11.9761647"><ele>176.0</ele><time>2026-04-21T10:26:13.328Z</time></trkpt><trkpt lat="42.0527993" lon="11.9761132"><ele>176.0</ele><time>2026-04-21T10:26:14.328Z</time></trkpt><trkpt lat="42.0526991" lon="11.9760343"><ele>176.0</ele><time>2026-04-21T10:26:16.328Z</time></trkpt><trkpt lat="42.0526247" lon="11.9759607"><ele>176.0</ele><time>2026-04-21T10:26:18.328Z</time></trkpt><trkpt lat="42.0525886" lon="11.9758875"><ele>176.0</ele><time>2026-04-21T10:26:25.328Z</time></trkpt><trkpt lat="42.0526674" lon="11.9758846"><ele>176.0</ele><time>2026-04-21T10:26:30.329Z</time></trkpt><trkpt lat="42.0528002" lon="11.9758759"><ele>176.0</ele><time>2026-04-21T10:26:32.328Z</time></trkpt><trkpt lat="42.0528815" lon="11.9758671"><ele>177.83333333333331</ele><time>2026-04-21T10:26:33.328Z</time></trkpt><trkpt lat="42.0529677" lon="11.9758497"><ele>179.66666666666666</ele><time>2026-04-21T10:26:34.328Z</time></trkpt><trkpt lat="42.0530455" lon="11.9758256"><ele>181.5</ele><time>2026-04-21T10:26:35.328Z</time></trkpt><trkpt lat="42.0531104" lon="11.9758034"><ele>183.33333333333334</ele><time>2026-04-21T10:26:36.328Z</time></trkpt><trkpt lat="42.0532016" lon="11.9757825"><ele>185.16666666666669</ele><time>2026-04-21T10:26:38.329Z</time></trkpt><trkpt lat="42.0532707" lon="11.9757583"><ele>187.0</ele><time>2026-04-21T10:27:24.328Z</time></trkpt><trkpt lat="42.0533356" lon="11.9757386"><ele>188.0</ele><time>2026-04-21T10:27:25.328Z</time></trkpt><trkpt lat="42.0534178" lon="11.9757151"><ele>189.0</ele><time>2026-04-21T10:27:26.328Z</time></trkpt><trkpt lat="42.0535082" lon="11.9756752"><ele>190.0</ele><time>2026-04-21T10:27:27.328Z</time></trkpt><trkpt lat="42.0535996" lon="11.9756216"><ele>191.0</ele><time>2026-04-21T10:27:28.328Z</time></trkpt><trkpt lat="42.0536909" lon="11.975557"><ele>192.0</ele><time>2026-04-21T10:27:29.327Z</time></trkpt><trkpt lat="42.0537718" lon="11.9754843"><ele>192.0</ele><time>2026-04-21T10:27:30.327Z</time></trkpt><trkpt lat="42.0538417" lon="11.9754092"><ele>192.0</ele><time>2026-04-21T10:27:31.327Z</time></trkpt><trkpt lat="42.0539072" lon="11.9753378"><ele>192.0</ele><time>2026-04-21T10:27:32.328Z</time></trkpt><trkpt lat="42.0539671" lon="11.9752666"><ele>192.0</ele><time>2026-04-21T10:27:33.328Z</time></trkpt><trkpt lat="42.0540266" lon="11.9751882"><ele>192.0</ele><time>2026-04-21T10:27:34.328Z</time></trkpt><trkpt lat="42.0540888" lon="11.9750993"><ele>192.0</ele><time>2026-04-21T10:27:35.328Z</time></trkpt><trkpt lat="42.0541511" lon="11.9750029"><ele>192.8</ele><time>2026-04-21T10:27:36.327Z</time></trkpt><trkpt lat="42.0542135" lon="11.9749018"><ele>193.6</ele><time>2026-04-21T10:27:37.327Z</time></trkpt><trkpt lat="42.0542819" lon="11.9748163"><ele>194.4</ele><time>2026-04-21T10:27:38.327Z</time></trkpt><trkpt lat="42.0543548" lon="11.9747497"><ele>195.20000000000002</ele><time>2026-04-21T10:27:39.327Z</time></trkpt><trkpt lat="42.0544314" lon="11.974693"><ele>196.0</ele><time>2026-04-21T10:27:40.329Z</time></trkpt><trkpt lat="42.0545161" lon="11.974637"><ele>196.0</ele><time>2026-04-21T10:27:41.327Z</time></trkpt><trkpt lat="42.0546098" lon="11.9745985"><ele>196.0</ele><time>2026-04-21T10:27:42.328Z</time></trkpt><trkpt lat="42.0547104" lon="11.9745628"><ele>196.0</ele><time>2026-04-21T10:27:43.328Z</time></trkpt><trkpt lat="42.0548021" lon="11.9745194"><ele>196.0</ele><time>2026-04-21T10:27:44.327Z</time></trkpt><trkpt lat="42.0548892" lon="11.9744709"><ele>196.0</ele><time>2026-04-21T10:27:45.327Z</time></trkpt><trkpt lat="42.0549697" lon="11.9744181"><ele>195.49999999999997</ele><time>2026-04-21T10:27:46.327Z</time></trkpt><trkpt lat="42.0550449" lon="11.9743607"><ele>195.0</ele><time>2026-04-21T10:27:47.327Z</time></trkpt><trkpt lat="42.0551144" lon="11.9742989"><ele>194.5</ele><time>2026-04-21T10:27:48.327Z</time></trkpt><trkpt lat="42.0551837" lon="11.9742319"><ele>194.0</ele><time>2026-04-21T10:27:49.328Z</time></trkpt><trkpt lat="42.0552587" lon="11.9741639"><ele>193.49999999999997</ele><time>2026-04-21T10:27:50.328Z</time></trkpt><trkpt lat="42.0553422" lon="11.974104"><ele>193.0</ele><time>2026-04-21T10:27:51.328Z</time></trkpt><trkpt lat="42.055434" lon="11.9740508"><ele>194.60000000000002</ele><time>2026-04-21T10:27:52.327Z</time></trkpt><trkpt lat="42.0555288" lon="11.9740066"><ele>196.20000000000002</ele><time>2026-04-21T10:27:53.327Z</time></trkpt><trkpt lat="42.0556306" lon="11.9739645"><ele>197.8</ele><time>2026-04-21T10:27:54.327Z</time></trkpt><trkpt lat="42.0557337" lon="11.9739245"><ele>199.4</ele><time>2026-04-21T10:27:55.327Z</time></trkpt><trkpt lat="42.0558391" lon="11.9738878"><ele>201.0</ele><time>2026-04-21T10:27:56.329Z</time></trkpt><trkpt lat="42.0559471" lon="11.9738627"><ele>201.0</ele><time>2026-04-21T10:27:57.327Z</time></trkpt><trkpt lat="42.0560565" lon="11.973851"><ele>201.0</ele><time>2026-04-21T10:27:58.327Z</time></trkpt><trkpt lat="42.0561669" lon="11.973842"><ele>201.0</ele><time>2026-04-21T10:27:59.329Z</time></trkpt><trkpt lat="42.0562734" lon="11.9738269"><ele>201.0</ele><time>2026-04-21T10:28:00.327Z</time></trkpt><trkpt lat="42.056369" lon="11.9738033"><ele>201.0</ele><time>2026-04-21T10:28:01.327Z</time></trkpt><trkpt lat="42.0564515" lon="11.9737685"><ele>201.0</ele><time>2026-04-21T10:28:02.327Z</time></trkpt><trkpt lat="42.0565195" lon="11.9737354"><ele>201.0</ele><time>2026-04-21T10:28:03.327Z</time></trkpt><trkpt lat="42.0565748" lon="11.9736873"><ele>201.0</ele><time>2026-04-21T10:28:04.327Z</time></trkpt><trkpt lat="42.0566254" lon="11.9736341"><ele>201.0</ele><time>2026-04-21T10:28:05.327Z</time></trkpt><trkpt lat="42.056711" lon="11.9735085"><ele>201.0</ele><time>2026-04-21T10:28:07.327Z</time></trkpt><trkpt lat="42.05676" lon="11.9734524"><ele>201.0</ele><time>2026-04-21T10:28:08.327Z</time></trkpt><trkpt lat="42.0568137" lon="11.9734036"><ele>200.83333333333334</ele><time>2026-04-21T10:28:09.327Z</time></trkpt><trkpt lat="42.0568743" lon="11.9733614"><ele>200.66666666666669</ele><time>2026-04-21T10:28:10.328Z</time></trkpt><trkpt lat="42.056944" lon="11.9733228"><ele>200.5</ele><time>2026-04-21T10:28:11.327Z</time></trkpt><trkpt lat="42.0570189" lon="11.9732841"><ele>200.33333333333334</ele><time>2026-04-21T10:28:12.328Z</time></trkpt><trkpt lat="42.0570899" lon="11.9732384"><ele>200.16666666666669</ele><time>2026-04-21T10:28:13.328Z</time></trkpt><trkpt lat="42.0571538" lon="11.9731783"><ele>200.0</ele><time>2026-04-21T10:28:14.327Z</time></trkpt><trkpt lat="42.0572208" lon="11.973103"><ele>201.6</ele><time>2026-04-21T10:28:15.328Z</time></trkpt><trkpt lat="42.0572895" lon="11.9730237"><ele>203.2</ele><time>2026-04-21T10:28:16.327Z</time></trkpt><trkpt lat="42.0573649" lon="11.9729472"><ele>204.8</ele><time>2026-04-21T10:28:17.328Z</time></trkpt><trkpt lat="42.0574481" lon="11.9728702"><ele>206.4</ele><time>2026-04-21T10:28:18.327Z</time></trkpt><trkpt lat="42.057536" lon="11.9728016"><ele>208.0</ele><time>2026-04-21T10:28:19.329Z</time></trkpt><trkpt lat="42.057631" lon="11.9727528"><ele>208.0</ele><time>2026-04-21T10:28:20.327Z</time></trkpt><trkpt lat="42.0577238" lon="11.9726942"><ele>208.0</ele><time>2026-04-21T10:28:21.327Z</time></trkpt><trkpt lat="42.0578034" lon="11.9726723"><ele>208.0</ele><time>2026-04-21T10:28:22.327Z</time></trkpt><trkpt lat="42.0578957" lon="11.972603"><ele>208.0</ele><time>2026-04-21T10:28:23.329Z</time></trkpt><trkpt lat="42.0579841" lon="11.9725353"><ele>208.0</ele><time>2026-04-21T10:28:24.328Z</time></trkpt><trkpt lat="42.0580777" lon="11.9724621"><ele>209.2</ele><time>2026-04-21T10:28:25.327Z</time></trkpt><trkpt lat="42.0581627" lon="11.9723706"><ele>210.4</ele><time>2026-04-21T10:28:26.327Z</time></trkpt><trkpt lat="42.0582427" lon="11.9722698"><ele>211.59999999999997</ele><time>2026-04-21T10:28:27.327Z</time></trkpt><trkpt lat="42.0583303" lon="11.9721792"><ele>212.79999999999998</ele><time>2026-04-21T10:28:28.327Z</time></trkpt><trkpt lat="42.058426" lon="11.9721032"><ele>214.0</ele><time>2026-04-21T10:28:29.328Z</time></trkpt><trkpt lat="42.0585126" lon="11.9720289"><ele>214.0</ele><time>2026-04-21T10:28:30.328Z</time></trkpt><trkpt lat="42.0586043" lon="11.9719323"><ele>213.99999999999997</ele><time>2026-04-21T10:28:31.328Z</time></trkpt><trkpt lat="42.0586883" lon="11.9718383"><ele>213.99999999999997</ele><time>2026-04-21T10:28:32.327Z</time></trkpt><trkpt lat="42.058773" lon="11.9717581"><ele>214.0</ele><time>2026-04-21T10:28:33.327Z</time></trkpt><trkpt lat="42.0588658" lon="11.9716841"><ele>214.0</ele><time>2026-04-21T10:28:34.327Z</time></trkpt><trkpt lat="42.0589581" lon="11.9716204"><ele>214.5</ele><time>2026-04-21T10:28:35.327Z</time></trkpt><trkpt lat="42.0590596" lon="11.9715747"><ele>215.0</ele><time>2026-04-21T10:28:36.327Z</time></trkpt><trkpt lat="42.0591732" lon="11.9715441"><ele>215.5</ele><time>2026-04-21T10:28:37.327Z</time></trkpt><trkpt lat="42.0592955" lon="11.9715118"><ele>216.0</ele><time>2026-04-21T10:28:38.328Z</time></trkpt><trkpt lat="42.0594167" lon="11.9714781"><ele>216.0</ele><time>2026-04-21T10:28:39.329Z</time></trkpt><trkpt lat="42.0595347" lon="11.9714239"><ele>216.00000000000003</ele><time>2026-04-21T10:28:40.327Z</time></trkpt><trkpt lat="42.0596475" lon="11.9713844"><ele>216.00000000000003</ele><time>2026-04-21T10:28:41.328Z</time></trkpt><trkpt lat="42.0597444" lon="11.9713543"><ele>216.0</ele><time>2026-04-21T10:28:42.328Z</time></trkpt><trkpt lat="42.059822" lon="11.9713326"><ele>216.0</ele><time>2026-04-21T10:28:43.328Z</time></trkpt><trkpt lat="42.0598924" lon="11.9713107"><ele>214.8</ele><time>2026-04-21T10:28:44.327Z</time></trkpt><trkpt lat="42.0599975" lon="11.9712283"><ele>213.60000000000002</ele><time>2026-04-21T10:28:46.327Z</time></trkpt><trkpt lat="42.0600614" lon="11.9711581"><ele>212.4</ele><time>2026-04-21T10:28:47.328Z</time></trkpt><trkpt lat="42.0601329" lon="11.9710917"><ele>211.2</ele><time>2026-04-21T10:28:48.327Z</time></trkpt><trkpt lat="42.0602336" lon="11.9710385"><ele>210.0</ele><time>2026-04-21T10:28:49.327Z</time></trkpt><trkpt lat="42.0603371" lon="11.9709845"><ele>210.0</ele><time>2026-04-21T10:28:50.327Z</time></trkpt><trkpt lat="42.0604407" lon="11.9709318"><ele>210.0</ele><time>2026-04-21T10:28:51.327Z</time></trkpt><trkpt lat="42.0605346" lon="11.9708739"><ele>210.0</ele><time>2026-04-21T10:28:52.327Z</time></trkpt><trkpt lat="42.0606095" lon="11.9708182"><ele>210.0</ele><time>2026-04-21T10:28:53.327Z</time></trkpt><trkpt lat="42.0606631" lon="11.9707594"><ele>210.0</ele><time>2026-04-21T10:28:54.327Z</time></trkpt><trkpt lat="42.0607295" lon="11.970637"><ele>210.28571428571428</ele><time>2026-04-21T10:28:56.328Z</time></trkpt><trkpt lat="42.0607608" lon="11.970563"><ele>210.57142857142856</ele><time>2026-04-21T10:28:58.328Z</time></trkpt><trkpt lat="42.0608028" lon="11.9704969"><ele>210.85714285714286</ele><time>2026-04-21T10:29:01.329Z</time></trkpt><trkpt lat="42.0608669" lon="11.9704309"><ele>211.14285714285714</ele><time>2026-04-21T10:29:06.327Z</time></trkpt><trkpt lat="42.0609581" lon="11.9704133"><ele>211.42857142857142</ele><time>2026-04-21T10:29:08.327Z</time></trkpt><trkpt lat="42.0610219" lon="11.9704002"><ele>211.71428571428572</ele><time>2026-04-21T10:29:09.327Z</time></trkpt><trkpt lat="42.0610879" lon="11.9703838"><ele>212.0</ele><time>2026-04-21T10:29:10.328Z</time></trkpt><trkpt lat="42.0611625" lon="11.9703525"><ele>212.00000000000003</ele><time>2026-04-21T10:29:11.328Z</time></trkpt><trkpt lat="42.0612315" lon="11.9703165"><ele>212.0</ele><time>2026-04-21T10:29:12.327Z</time></trkpt><trkpt lat="42.061333" lon="11.970275"><ele>212.0</ele><time>2026-04-21T10:29:14.328Z</time></trkpt><trkpt lat="42.0614099" lon="11.9702622"><ele>212.0</ele><time>2026-04-21T10:29:16.328Z</time></trkpt><trkpt lat="42.0614897" lon="11.9702452"><ele>212.00000000000003</ele><time>2026-04-21T10:29:49.326Z</time></trkpt><trkpt lat="42.0615525" lon="11.9702582"><ele>212.0</ele><time>2026-04-21T10:30:30.327Z</time></trkpt><trkpt lat="42.0616009" lon="11.9703285"><ele>212.39999999999998</ele><time>2026-04-21T10:30:34.326Z</time></trkpt><trkpt lat="42.0616794" lon="11.9703522"><ele>212.79999999999998</ele><time>2026-04-21T10:30:36.327Z</time></trkpt><trkpt lat="42.0617664" lon="11.970341"><ele>213.2</ele><time>2026-04-21T10:30:38.327Z</time></trkpt><trkpt lat="42.0618601" lon="11.9703068"><ele>213.6</ele><time>2026-04-21T10:30:40.327Z</time></trkpt><trkpt lat="42.0619653" lon="11.9703039"><ele>214.0</ele><time>2026-04-21T10:30:42.327Z</time></trkpt><trkpt lat="42.0620706" lon="11.9702962"><ele>213.99999999999997</ele><time>2026-04-21T10:30:44.327Z</time></trkpt><trkpt lat="42.0621553" lon="11.9702708"><ele>214.0</ele><time>2026-04-21T10:30:46.327Z</time></trkpt><trkpt lat="42.0622384" lon="11.9702253"><ele>214.0</ele><time>2026-04-21T10:30:48.327Z</time></trkpt><trkpt lat="42.0622945" lon="11.970174"><ele>214.0</ele><time>2026-04-21T10:30:50.327Z</time></trkpt><trkpt lat="42.0623263" lon="11.970088"><ele>213.99999999999997</ele><time>2026-04-21T10:31:53.326Z</time></trkpt><trkpt lat="42.0623926" lon="11.970111"><ele>214.0</ele><time>2026-04-21T10:32:01.327Z</time></trkpt><trkpt lat="42.0624021" lon="11.970201"><ele>214.00000000000003</ele><time>2026-04-21T10:32:10.326Z</time></trkpt><trkpt lat="42.0624153" lon="11.9702914"><ele>214.0</ele><time>2026-04-21T10:32:16.425Z</time></trkpt><trkpt lat="42.0624026" lon="11.9703899"><ele>214.0</ele><time>2026-04-21T10:32:22.326Z</time></trkpt><trkpt lat="42.0624241" lon="11.9704835"><ele>214.0</ele><time>2026-04-21T10:32:27.326Z</time></trkpt><trkpt lat="42.0624262" lon="11.9703927"><ele>214.0</ele><time>2026-04-21T10:33:06.327Z</time></trkpt><trkpt lat="42.0624126" lon="11.9703071"><ele>214.00000000000003</ele><time>2026-04-21T10:33:12.327Z</time></trkpt><trkpt lat="42.0624012" lon="11.9702233"><ele>214.0</ele><time>2026-04-21T10:33:18.326Z</time></trkpt><trkpt lat="42.0624029" lon="11.9701367"><ele>214.0</ele><time>2026-04-21T10:33:25.326Z</time></trkpt><trkpt lat="42.0623692" lon="11.9700563"><ele>213.99999999999997</ele><time>2026-04-21T10:34:41.326Z</time></trkpt><trkpt lat="42.0624355" lon="11.9700281"><ele>213.99999999999997</ele><time>2026-04-21T10:36:28.327Z</time></trkpt><trkpt lat="42.0625013" lon="11.9700214"><ele>214.0</ele><time>2026-04-21T10:36:30.327Z</time></trkpt><trkpt lat="42.0626964" lon="11.9700679"><ele>214.0</ele><time>2026-04-21T10:36:32.328Z</time></trkpt><trkpt lat="42.0627823" lon="11.970028"><ele>216.0</ele><time>2026-04-21T10:36:34.326Z</time></trkpt><trkpt lat="42.0628616" lon="11.9700036"><ele>217.99999999999997</ele><time>2026-04-21T10:36:36.326Z</time></trkpt><trkpt lat="42.0629542" lon="11.9699863"><ele>219.99999999999997</ele><time>2026-04-21T10:36:38.326Z</time></trkpt><trkpt lat="42.0630625" lon="11.9699598"><ele>222.0</ele><time>2026-04-21T10:36:40.326Z</time></trkpt><trkpt lat="42.0631808" lon="11.9699376"><ele>224.0</ele><time>2026-04-21T10:36:42.327Z</time></trkpt><trkpt lat="42.0632441" lon="11.9699359"><ele>224.50000000000003</ele><time>2026-04-21T10:36:43.326Z</time></trkpt><trkpt lat="42.0633082" lon="11.9699295"><ele>225.0</ele><time>2026-04-21T10:36:44.326Z</time></trkpt><trkpt lat="42.0633762" lon="11.9699187"><ele>225.5</ele><time>2026-04-21T10:36:45.325Z</time></trkpt><trkpt lat="42.0634932" lon="11.9698765"><ele>226.0</ele><time>2026-04-21T10:36:47.325Z</time></trkpt><trkpt lat="42.063553" lon="11.9698472"><ele>226.50000000000003</ele><time>2026-04-21T10:36:48.325Z</time></trkpt><trkpt lat="42.0636196" lon="11.9698207"><ele>227.0</ele><time>2026-04-21T10:36:49.325Z</time></trkpt><trkpt lat="42.0636851" lon="11.9698034"><ele>227.0</ele><time>2026-04-21T10:36:50.325Z</time></trkpt><trkpt lat="42.063755" lon="11.969779"><ele>227.00000000000003</ele><time>2026-04-21T10:36:51.326Z</time></trkpt><trkpt lat="42.0638289" lon="11.9697561"><ele>227.0</ele><time>2026-04-21T10:36:52.326Z</time></trkpt><trkpt lat="42.063906" lon="11.9697318"><ele>227.0</ele><time>2026-04-21T10:36:53.325Z</time></trkpt><trkpt lat="42.0639846" lon="11.9697122"><ele>227.00000000000003</ele><time>2026-04-21T10:36:54.325Z</time></trkpt><trkpt lat="42.0640585" lon="11.9696964"><ele>227.0</ele><time>2026-04-21T10:36:55.326Z</time></trkpt><trkpt lat="42.0641249" lon="11.9696802"><ele>227.0</ele><time>2026-04-21T10:36:56.325Z</time></trkpt><trkpt lat="42.0641886" lon="11.9696731"><ele>227.0</ele><time>2026-04-21T10:36:57.325Z</time></trkpt><trkpt lat="42.0643179" lon="11.9696569"><ele>227.0</ele><time>2026-04-21T10:36:59.325Z</time></trkpt><trkpt lat="42.0644341" lon="11.9696701"><ele>227.0</ele><time>2026-04-21T10:37:01.327Z</time></trkpt><trkpt lat="42.0644979" lon="11.9696845"><ele>227.0</ele><time>2026-04-21T10:37:02.325Z</time></trkpt><trkpt lat="42.0646219" lon="11.9697173"><ele>227.0</ele><time>2026-04-21T10:37:04.326Z</time></trkpt><trkpt lat="42.0646898" lon="11.969744"><ele>227.0</ele><time>2026-04-21T10:37:05.325Z</time></trkpt><trkpt lat="42.0647576" lon="11.9697694"><ele>227.00000000000003</ele><time>2026-04-21T10:37:06.325Z</time></trkpt><trkpt lat="42.0648251" lon="11.9697941"><ele>227.0</ele><time>2026-04-21T10:37:07.325Z</time></trkpt><trkpt lat="42.064897" lon="11.9698162"><ele>227.0</ele><time>2026-04-21T10:37:08.325Z</time></trkpt><trkpt lat="42.064969" lon="11.9698264"><ele>227.00000000000003</ele><time>2026-04-21T10:37:09.325Z</time></trkpt><trkpt lat="42.0650446" lon="11.9698392"><ele>227.0</ele><time>2026-04-21T10:37:10.327Z</time></trkpt><trkpt lat="42.0651163" lon="11.9698496"><ele>227.0</ele><time>2026-04-21T10:37:11.326Z</time></trkpt><trkpt lat="42.0651857" lon="11.9698498"><ele>228.0</ele><time>2026-04-21T10:37:12.327Z</time></trkpt><trkpt lat="42.0653076" lon="11.969834"><ele>229.0</ele><time>2026-04-21T10:37:14.326Z</time></trkpt><trkpt lat="42.0654062" lon="11.9698531"><ele>230.0</ele><time>2026-04-21T10:37:16.325Z</time></trkpt><trkpt lat="42.0655012" lon="11.9699218"><ele>231.0</ele><time>2026-04-21T10:37:18.326Z</time></trkpt><trkpt lat="42.065552" lon="11.9699788"><ele>232.0</ele><time>2026-04-21T10:37:19.326Z</time></trkpt><trkpt lat="42.0656157" lon="11.9700355"><ele>233.28571428571433</ele><time>2026-04-21T10:37:20.325Z</time></trkpt><trkpt lat="42.0656846" lon="11.9700778"><ele>234.57142857142858</ele><time>2026-04-21T10:37:21.326Z</time></trkpt><trkpt lat="42.0657567" lon="11.9701205"><ele>235.8571428571429</ele><time>2026-04-21T10:37:22.326Z</time></trkpt><trkpt lat="42.0658288" lon="11.9701547"><ele>237.14285714285717</ele><time>2026-04-21T10:37:23.325Z</time></trkpt><trkpt lat="42.065901" lon="11.9701822"><ele>238.42857142857144</ele><time>2026-04-21T10:37:24.326Z</time></trkpt><trkpt lat="42.065969" lon="11.9702071"><ele>239.71428571428572</ele><time>2026-04-21T10:37:25.325Z</time></trkpt><trkpt lat="42.0660382" lon="11.9702268"><ele>241.0</ele><time>2026-04-21T10:37:26.325Z</time></trkpt><trkpt lat="42.0661006" lon="11.9702475"><ele>240.99999999999997</ele><time>2026-04-21T10:37:27.325Z</time></trkpt><trkpt lat="42.0661653" lon="11.9702688"><ele>241.0</ele><time>2026-04-21T10:37:28.325Z</time></trkpt><trkpt lat="42.066267" lon="11.970308"><ele>241.0</ele><time>2026-04-21T10:37:30.327Z</time></trkpt><trkpt lat="42.0663503" lon="11.9703808"><ele>241.0</ele><time>2026-04-21T10:37:32.325Z</time></trkpt><trkpt lat="42.0663914" lon="11.9704495"><ele>240.99999999999997</ele><time>2026-04-21T10:37:33.325Z</time></trkpt><trkpt lat="42.0664317" lon="11.9705368"><ele>241.0</ele><time>2026-04-21T10:37:34.325Z</time></trkpt><trkpt lat="42.0664739" lon="11.9706237"><ele>241.0</ele><time>2026-04-21T10:37:35.326Z</time></trkpt><trkpt lat="42.0665136" lon="11.970698"><ele>241.00000000000003</ele><time>2026-04-21T10:37:36.326Z</time></trkpt><trkpt lat="42.066558" lon="11.9707641"><ele>241.0</ele><time>2026-04-21T10:37:37.325Z</time></trkpt><trkpt lat="42.0666108" lon="11.9708344"><ele>241.0</ele><time>2026-04-21T10:37:38.325Z</time></trkpt><trkpt lat="42.0666597" lon="11.9708945"><ele>241.00000000000003</ele><time>2026-04-21T10:37:39.327Z</time></trkpt><trkpt lat="42.0667158" lon="11.9709447"><ele>241.0</ele><time>2026-04-21T10:37:40.325Z</time></trkpt><trkpt lat="42.0667774" lon="11.9709947"><ele>241.0</ele><time>2026-04-21T10:37:41.326Z</time></trkpt><trkpt lat="42.066838" lon="11.9710441"><ele>242.49999999999997</ele><time>2026-04-21T10:37:42.325Z</time></trkpt><trkpt lat="42.0669019" lon="11.9711061"><ele>244.0</ele><time>2026-04-21T10:37:43.325Z</time></trkpt><trkpt lat="42.0669619" lon="11.9711622"><ele>245.5</ele><time>2026-04-21T10:37:44.325Z</time></trkpt><trkpt lat="42.0670211" lon="11.9712233"><ele>247.0</ele><time>2026-04-21T10:37:45.325Z</time></trkpt><trkpt lat="42.0670787" lon="11.9712915"><ele>248.49999999999997</ele><time>2026-04-21T10:37:46.326Z</time></trkpt><trkpt lat="42.0671394" lon="11.9713639"><ele>250.0</ele><time>2026-04-21T10:37:47.326Z</time></trkpt><trkpt lat="42.0672019" lon="11.9714297"><ele>250.0</ele><time>2026-04-21T10:37:48.326Z</time></trkpt><trkpt lat="42.0672618" lon="11.9714958"><ele>250.0</ele><time>2026-04-21T10:37:49.326Z</time></trkpt><trkpt lat="42.0673181" lon="11.9715614"><ele>250.0</ele><time>2026-04-21T10:37:50.326Z</time></trkpt><trkpt lat="42.0673761" lon="11.9716205"><ele>250.0</ele><time>2026-04-21T10:37:51.326Z</time></trkpt><trkpt lat="42.0674328" lon="11.971675"><ele>250.0</ele><time>2026-04-21T10:37:52.325Z</time></trkpt><trkpt lat="42.0674887" lon="11.9717183"><ele>250.0</ele><time>2026-04-21T10:37:53.325Z</time></trkpt><trkpt lat="42.0675462" lon="11.971762"><ele>250.0</ele><time>2026-04-21T10:37:54.325Z</time></trkpt><trkpt lat="42.0676039" lon="11.9718153"><ele>250.14285714285714</ele><time>2026-04-21T10:37:55.325Z</time></trkpt><trkpt lat="42.0676588" lon="11.9718601"><ele>250.28571428571428</ele><time>2026-04-21T10:37:56.325Z</time></trkpt><trkpt lat="42.0677086" lon="11.9719183"><ele>250.42857142857142</ele><time>2026-04-21T10:37:57.325Z</time></trkpt><trkpt lat="42.0677563" lon="11.9719882"><ele>250.57142857142856</ele><time>2026-04-21T10:37:58.325Z</time></trkpt><trkpt lat="42.0678042" lon="11.9720613"><ele>250.71428571428572</ele><time>2026-04-21T10:37:59.325Z</time></trkpt><trkpt lat="42.0678574" lon="11.9721303"><ele>250.85714285714283</ele><time>2026-04-21T10:38:00.325Z</time></trkpt><trkpt lat="42.0679087" lon="11.9721954"><ele>250.99999999999997</ele><time>2026-04-21T10:38:01.325Z</time></trkpt><trkpt lat="42.0679576" lon="11.9722637"><ele>250.99999999999997</ele><time>2026-04-21T10:38:02.325Z</time></trkpt><trkpt lat="42.0679912" lon="11.9723441"><ele>251.0</ele><time>2026-04-21T10:38:03.325Z</time></trkpt><trkpt lat="42.0680148" lon="11.972434"><ele>250.99999999999997</ele><time>2026-04-21T10:38:04.326Z</time></trkpt><trkpt lat="42.0680385" lon="11.9725299"><ele>250.99999999999997</ele><time>2026-04-21T10:38:05.325Z</time></trkpt><trkpt lat="42.0680649" lon="11.9726274"><ele>251.0</ele><time>2026-04-21T10:38:06.325Z</time></trkpt><trkpt lat="42.0680962" lon="11.9727143"><ele>250.99999999999997</ele><time>2026-04-21T10:38:07.325Z</time></trkpt><trkpt lat="42.0681375" lon="11.9727829"><ele>250.99999999999997</ele><time>2026-04-21T10:38:08.327Z</time></trkpt><trkpt lat="42.068223" lon="11.9728598"><ele>252.4</ele><time>2026-04-21T10:38:10.326Z</time></trkpt><trkpt lat="42.0683208" lon="11.9728531"><ele>253.8</ele><time>2026-04-21T10:38:12.326Z</time></trkpt><trkpt lat="42.0684235" lon="11.9728073"><ele>255.20000000000002</ele><time>2026-04-21T10:38:14.325Z</time></trkpt><trkpt lat="42.0685382" lon="11.9728074"><ele>256.6</ele><time>2026-04-21T10:38:16.325Z</time></trkpt><trkpt lat="42.0686394" lon="11.9728451"><ele>258.0</ele><time>2026-04-21T10:38:18.325Z</time></trkpt><trkpt lat="42.0687277" lon="11.972903"><ele>257.99999999999994</ele><time>2026-04-21T10:38:20.326Z</time></trkpt><trkpt lat="42.0687874" lon="11.9729583"><ele>258.0</ele><time>2026-04-21T10:38:21.325Z</time></trkpt><trkpt lat="42.0688476" lon="11.9730109"><ele>258.0</ele><time>2026-04-21T10:38:22.326Z</time></trkpt><trkpt lat="42.0689045" lon="11.9730699"><ele>258.0</ele><time>2026-04-21T10:38:23.325Z</time></trkpt><trkpt lat="42.0689638" lon="11.9731229"><ele>258.0</ele><time>2026-04-21T10:38:24.325Z</time></trkpt><trkpt lat="42.0690257" lon="11.9731697"><ele>257.99999999999994</ele><time>2026-04-21T10:38:25.325Z</time></trkpt><trkpt lat="42.0690864" lon="11.973207"><ele>258.0</ele><time>2026-04-21T10:38:26.325Z</time></trkpt><trkpt lat="42.0691504" lon="11.9732447"><ele>258.5</ele><time>2026-04-21T10:38:27.326Z</time></trkpt><trkpt lat="42.0692193" lon="11.9732858"><ele>259.0</ele><time>2026-04-21T10:38:28.326Z</time></trkpt><trkpt lat="42.0692773" lon="11.9733193"><ele>259.5</ele><time>2026-04-21T10:38:29.326Z</time></trkpt><trkpt lat="42.0693974" lon="11.973403"><ele>260.0</ele><time>2026-04-21T10:38:31.325Z</time></trkpt><trkpt lat="42.0694671" lon="11.9734532"><ele>260.5</ele><time>2026-04-21T10:38:32.326Z</time></trkpt><trkpt lat="42.0695391" lon="11.9734947"><ele>261.0</ele><time>2026-04-21T10:38:33.325Z</time></trkpt><trkpt lat="42.0696029" lon="11.9735213"><ele>262.3333333333333</ele><time>2026-04-21T10:38:34.326Z</time></trkpt><trkpt lat="42.0696699" lon="11.973534"><ele>263.6666666666667</ele><time>2026-04-21T10:38:35.326Z</time></trkpt><trkpt lat="42.0697918" lon="11.9735789"><ele>265.0</ele><time>2026-04-21T10:38:37.326Z</time></trkpt><trkpt lat="42.0698578" lon="11.9736367"><ele>266.33333333333337</ele><time>2026-04-21T10:38:38.325Z</time></trkpt><trkpt lat="42.0699295" lon="11.973689"><ele>267.6666666666667</ele><time>2026-04-21T10:38:39.326Z</time></trkpt><trkpt lat="42.0699976" lon="11.9737205"><ele>269.0</ele><time>2026-04-21T10:38:40.325Z</time></trkpt><trkpt lat="42.0700668" lon="11.9737487"><ele>269.33333333333337</ele><time>2026-04-21T10:38:41.325Z</time></trkpt><trkpt lat="42.0701424" lon="11.9737705"><ele>269.6666666666667</ele><time>2026-04-21T10:38:42.325Z</time></trkpt><trkpt lat="42.0702593" lon="11.9737715"><ele>270.0</ele><time>2026-04-21T10:38:44.326Z</time></trkpt><trkpt lat="42.0703323" lon="11.9737773"><ele>270.3333333333333</ele><time>2026-04-21T10:38:45.326Z</time></trkpt><trkpt lat="42.0704072" lon="11.9737826"><ele>270.66666666666663</ele><time>2026-04-21T10:38:46.325Z</time></trkpt><trkpt lat="42.0704868" lon="11.9738015"><ele>271.0</ele><time>2026-04-21T10:38:47.325Z</time></trkpt><trkpt lat="42.0705607" lon="11.9738421"><ele>271.0</ele><time>2026-04-21T10:38:48.327Z</time></trkpt><trkpt lat="42.0706333" lon="11.9738928"><ele>271.0</ele><time>2026-04-21T10:38:49.325Z</time></trkpt><trkpt lat="42.0707066" lon="11.9739329"><ele>271.0</ele><time>2026-04-21T10:38:50.325Z</time></trkpt><trkpt lat="42.0707847" lon="11.9739625"><ele>271.0</ele><time>2026-04-21T10:38:51.325Z</time></trkpt><trkpt lat="42.0708615" lon="11.9739801"><ele>271.0</ele><time>2026-04-21T10:38:52.325Z</time></trkpt><trkpt lat="42.0709409" lon="11.9739959"><ele>271.0</ele><time>2026-04-21T10:38:53.326Z</time></trkpt><trkpt lat="42.0710196" lon="11.9740037"><ele>271.2857142857143</ele><time>2026-04-21T10:38:54.325Z</time></trkpt><trkpt lat="42.0710937" lon="11.9740184"><ele>271.57142857142856</ele><time>2026-04-21T10:38:55.325Z</time></trkpt><trkpt lat="42.0711668" lon="11.9740335"><ele>271.8571428571429</ele><time>2026-04-21T10:38:56.326Z</time></trkpt><trkpt lat="42.0712412" lon="11.9740565"><ele>272.1428571428571</ele><time>2026-04-21T10:38:57.325Z</time></trkpt><trkpt lat="42.0713074" lon="11.9740842"><ele>272.42857142857144</ele><time>2026-04-21T10:38:58.325Z</time></trkpt><trkpt lat="42.0713652" lon="11.9741256"><ele>272.7142857142857</ele><time>2026-04-21T10:38:59.327Z</time></trkpt><trkpt lat="42.0714329" lon="11.9741833"><ele>273.0</ele><time>2026-04-21T10:39:00.325Z</time></trkpt><trkpt lat="42.0714972" lon="11.9742369"><ele>274.0</ele><time>2026-04-21T10:39:01.325Z</time></trkpt><trkpt lat="42.0715734" lon="11.9742913"><ele>275.0</ele><time>2026-04-21T10:39:02.325Z</time></trkpt><trkpt lat="42.0716465" lon="11.9743447"><ele>276.0</ele><time>2026-04-21T10:39:03.325Z</time></trkpt><trkpt lat="42.0717222" lon="11.9744066"><ele>277.0</ele><time>2026-04-21T10:39:04.326Z</time></trkpt><trkpt lat="42.0717928" lon="11.9744728"><ele>278.0</ele><time>2026-04-21T10:39:05.326Z</time></trkpt><trkpt lat="42.071864" lon="11.9745479"><ele>279.0</ele><time>2026-04-21T10:39:06.326Z</time></trkpt><trkpt lat="42.0719394" lon="11.9746264"><ele>279.0</ele><time>2026-04-21T10:39:07.326Z</time></trkpt><trkpt lat="42.0720108" lon="11.9746925"><ele>279.0</ele><time>2026-04-21T10:39:08.325Z</time></trkpt><trkpt lat="42.0720886" lon="11.9747515"><ele>279.0</ele><time>2026-04-21T10:39:09.326Z</time></trkpt><trkpt lat="42.0721672" lon="11.9748025"><ele>279.0</ele><time>2026-04-21T10:39:10.325Z</time></trkpt><trkpt lat="42.0722395" lon="11.9748374"><ele>279.0</ele><time>2026-04-21T10:39:11.325Z</time></trkpt><trkpt lat="42.0723107" lon="11.9748676"><ele>279.0</ele><time>2026-04-21T10:39:12.325Z</time></trkpt><trkpt lat="42.0723878" lon="11.9748865"><ele>279.6666666666667</ele><time>2026-04-21T10:39:13.325Z</time></trkpt><trkpt lat="42.0724716" lon="11.9748878"><ele>280.3333333333333</ele><time>2026-04-21T10:39:14.327Z</time></trkpt><trkpt lat="42.0725597" lon="11.9748847"><ele>281.0</ele><time>2026-04-21T10:39:15.326Z</time></trkpt><trkpt lat="42.0726466" lon="11.9748862"><ele>281.66666666666663</ele><time>2026-04-21T10:39:16.326Z</time></trkpt><trkpt lat="42.0727333" lon="11.9748967"><ele>282.3333333333333</ele><time>2026-04-21T10:39:17.325Z</time></trkpt><trkpt lat="42.0728034" lon="11.9748946"><ele>283.0</ele><time>2026-04-21T10:39:18.325Z</time></trkpt><trkpt lat="42.0729085" lon="11.9748928"><ele>283.0</ele><time>2026-04-21T10:39:20.325Z</time></trkpt><trkpt lat="42.0730133" lon="11.9748971"><ele>283.0</ele><time>2026-04-21T10:39:22.325Z</time></trkpt><trkpt lat="42.0730907" lon="11.9749253"><ele>283.0</ele><time>2026-04-21T10:39:24.326Z</time></trkpt><trkpt lat="42.0731837" lon="11.9749483"><ele>283.0</ele><time>2026-04-21T10:39:26.325Z</time></trkpt><trkpt lat="42.0732659" lon="11.9749603"><ele>283.0</ele><time>2026-04-21T10:39:39.325Z</time></trkpt><trkpt lat="42.0733363" lon="11.9750355"><ele>284.8</ele><time>2026-04-21T10:39:43.325Z</time></trkpt><trkpt lat="42.0734121" lon="11.9751438"><ele>286.6</ele><time>2026-04-21T10:39:45.326Z</time></trkpt><trkpt lat="42.073494" lon="11.9752587"><ele>288.4</ele><time>2026-04-21T10:39:47.325Z</time></trkpt><trkpt lat="42.0735786" lon="11.9753847"><ele>290.2</ele><time>2026-04-21T10:39:49.326Z</time></trkpt><trkpt lat="42.0736233" lon="11.9754469"><ele>292.0</ele><time>2026-04-21T10:39:50.325Z</time></trkpt><trkpt lat="42.0736746" lon="11.9755001"><ele>292.0</ele><time>2026-04-21T10:39:51.326Z</time></trkpt><trkpt lat="42.0737303" lon="11.9755521"><ele>292.0</ele><time>2026-04-21T10:39:52.325Z</time></trkpt><trkpt lat="42.0737833" lon="11.9755984"><ele>292.0</ele><time>2026-04-21T10:39:53.325Z</time></trkpt><trkpt lat="42.073869" lon="11.9756689"><ele>292.0</ele><time>2026-04-21T10:39:55.325Z</time></trkpt><trkpt lat="42.0739803" lon="11.9757382"><ele>292.0</ele><time>2026-04-21T10:39:57.326Z</time></trkpt><trkpt lat="42.0740384" lon="11.9757756"><ele>292.0</ele><time>2026-04-21T10:39:58.326Z</time></trkpt><trkpt lat="42.0740964" lon="11.9758185"><ele>293.1428571428571</ele><time>2026-04-21T10:39:59.325Z</time></trkpt><trkpt lat="42.0741551" lon="11.9758587"><ele>294.2857142857143</ele><time>2026-04-21T10:40:00.325Z</time></trkpt><trkpt lat="42.0742117" lon="11.9759018"><ele>295.42857142857144</ele><time>2026-04-21T10:40:01.325Z</time></trkpt><trkpt lat="42.0742709" lon="11.9759355"><ele>296.57142857142856</ele><time>2026-04-21T10:40:02.325Z</time></trkpt><trkpt lat="42.0743345" lon="11.97598"><ele>297.7142857142857</ele><time>2026-04-21T10:40:03.326Z</time></trkpt><trkpt lat="42.0744014" lon="11.976019"><ele>298.85714285714283</ele><time>2026-04-21T10:40:04.325Z</time></trkpt><trkpt lat="42.0744719" lon="11.9760536"><ele>300.0</ele><time>2026-04-21T10:40:05.325Z</time></trkpt><trkpt lat="42.074532" lon="11.9760905"><ele>299.99999999999994</ele><time>2026-04-21T10:40:06.326Z</time></trkpt><trkpt lat="42.0746058" lon="11.9761192"><ele>300.0</ele><time>2026-04-21T10:40:07.327Z</time></trkpt><trkpt lat="42.0746697" lon="11.9761306"><ele>300.0</ele><time>2026-04-21T10:40:08.325Z</time></trkpt><trkpt lat="42.0747447" lon="11.9761446"><ele>300.0</ele><time>2026-04-21T10:40:09.325Z</time></trkpt><trkpt lat="42.0748152" lon="11.9761594"><ele>300.0</ele><time>2026-04-21T10:40:10.325Z</time></trkpt><trkpt lat="42.0748836" lon="11.9761667"><ele>299.99999999999994</ele><time>2026-04-21T10:40:11.325Z</time></trkpt><trkpt lat="42.0749495" lon="11.9761772"><ele>300.0</ele><time>2026-04-21T10:40:12.325Z</time></trkpt><trkpt lat="42.0750145" lon="11.9761913"><ele>300.0</ele><time>2026-04-21T10:40:13.325Z</time></trkpt><trkpt lat="42.0750813" lon="11.9761912"><ele>300.0</ele><time>2026-04-21T10:40:14.326Z</time></trkpt><trkpt lat="42.0752078" lon="11.9761989"><ele>300.0</ele><time>2026-04-21T10:40:16.325Z</time></trkpt><trkpt lat="42.0752758" lon="11.9762104"><ele>300.0</ele><time>2026-04-21T10:40:17.326Z</time></trkpt><trkpt lat="42.0753992" lon="11.9762225"><ele>300.0</ele><time>2026-04-21T10:40:19.326Z</time></trkpt><trkpt lat="42.0754969" lon="11.9762225"><ele>300.0</ele><time>2026-04-21T10:40:21.325Z</time></trkpt><trkpt lat="42.075566" lon="11.9762134"><ele>300.0</ele><time>2026-04-21T10:40:23.326Z</time></trkpt><trkpt lat="42.0756233" lon="11.976341"><ele>300.0</ele><time>2026-04-21T10:41:45.325Z</time></trkpt><trkpt lat="42.0757045" lon="11.9764615"><ele>300.0</ele><time>2026-04-21T10:41:47.325Z</time></trkpt><trkpt lat="42.0758047" lon="11.9765818"><ele>300.0</ele><time>2026-04-21T10:41:49.325Z</time></trkpt><trkpt lat="42.0758683" lon="11.9766436"><ele>303.0</ele><time>2026-04-21T10:41:50.326Z</time></trkpt><trkpt lat="42.0759289" lon="11.9767081"><ele>306.0</ele><time>2026-04-21T10:41:51.325Z</time></trkpt><trkpt lat="42.0759832" lon="11.9767652"><ele>309.0</ele><time>2026-04-21T10:41:52.327Z</time></trkpt><trkpt lat="42.0760389" lon="11.9768177"><ele>312.0</ele><time>2026-04-21T10:41:53.325Z</time></trkpt><trkpt lat="42.0760903" lon="11.976867"><ele>315.0</ele><time>2026-04-21T10:41:54.325Z</time></trkpt><trkpt lat="42.0761404" lon="11.9769256"><ele>318.0</ele><time>2026-04-21T10:41:55.325Z</time></trkpt><trkpt lat="42.0762274" lon="11.9770444"><ele>318.0</ele><time>2026-04-21T10:41:57.325Z</time></trkpt><trkpt lat="42.0762804" lon="11.9771068"><ele>318.0</ele><time>2026-04-21T10:41:58.325Z</time></trkpt><trkpt lat="42.0763743" lon="11.9772079"><ele>318.0</ele><time>2026-04-21T10:42:00.326Z</time></trkpt><trkpt lat="42.0764652" lon="11.9772792"><ele>318.0</ele><time>2026-04-21T10:42:02.326Z</time></trkpt><trkpt lat="42.0765513" lon="11.9773219"><ele>318.0</ele><time>2026-04-21T10:42:04.326Z</time></trkpt><trkpt lat="42.0766558" lon="11.9773752"><ele>318.6</ele><time>2026-04-21T10:42:06.325Z</time></trkpt><trkpt lat="42.076718" lon="11.9774"><ele>319.20000000000005</ele><time>2026-04-21T10:42:07.326Z</time></trkpt><trkpt lat="42.0768429" lon="11.9774546"><ele>319.8</ele><time>2026-04-21T10:42:09.326Z</time></trkpt><trkpt lat="42.076953" lon="11.9775299"><ele>320.40000000000003</ele><time>2026-04-21T10:42:11.326Z</time></trkpt><trkpt lat="42.0770392" lon="11.9776331"><ele>321.0</ele><time>2026-04-21T10:42:13.326Z</time></trkpt><trkpt lat="42.0770822" lon="11.9777684"><ele>321.0</ele><time>2026-04-21T10:42:15.326Z</time></trkpt><trkpt lat="42.0771146" lon="11.9779237"><ele>321.0</ele><time>2026-04-21T10:42:17.326Z</time></trkpt><trkpt lat="42.0771259" lon="11.9780706"><ele>321.0</ele><time>2026-04-21T10:42:19.325Z</time></trkpt><trkpt lat="42.0771352" lon="11.9782042"><ele>321.0</ele><time>2026-04-21T10:42:21.325Z</time></trkpt><trkpt lat="42.0771543" lon="11.9783345"><ele>321.0</ele><time>2026-04-21T10:42:23.326Z</time></trkpt><trkpt lat="42.0771454" lon="11.9784936"><ele>321.5</ele><time>2026-04-21T10:42:25.326Z</time></trkpt><trkpt lat="42.0771267" lon="11.9786526"><ele>322.0</ele><time>2026-04-21T10:42:27.325Z</time></trkpt><trkpt lat="42.0770912" lon="11.9787954"><ele>322.5</ele><time>2026-04-21T10:42:29.325Z</time></trkpt><trkpt lat="42.0770844" lon="11.9789652"><ele>323.0</ele><time>2026-04-21T10:42:31.325Z</time></trkpt><trkpt lat="42.07709" lon="11.9791356"><ele>322.59999999999997</ele><time>2026-04-21T10:42:33.326Z</time></trkpt><trkpt lat="42.0770954" lon="11.979221"><ele>322.2</ele><time>2026-04-21T10:42:34.325Z</time></trkpt><trkpt lat="42.0770964" lon="11.9793894"><ele>321.8</ele><time>2026-04-21T10:42:36.326Z</time></trkpt><trkpt lat="42.0770879" lon="11.9794853"><ele>321.4</ele><time>2026-04-21T10:42:37.326Z</time></trkpt><trkpt lat="42.0770493" lon="11.9796509"><ele>321.0</ele><time>2026-04-21T10:42:39.325Z</time></trkpt><trkpt lat="42.0770152" lon="11.9797285"><ele>321.0</ele><time>2026-04-21T10:42:40.327Z</time></trkpt><trkpt lat="42.0769799" lon="11.9798129"><ele>321.0</ele><time>2026-04-21T10:42:41.327Z</time></trkpt><trkpt lat="42.0769453" lon="11.9799011"><ele>321.0</ele><time>2026-04-21T10:42:42.325Z</time></trkpt><trkpt lat="42.0769179" lon="11.9799839"><ele>321.0</ele><time>2026-04-21T10:42:43.325Z</time></trkpt><trkpt lat="42.0768926" lon="11.9800694"><ele>321.0</ele><time>2026-04-21T10:42:44.326Z</time></trkpt><trkpt lat="42.0768773" lon="11.9802059"><ele>321.0</ele><time>2026-04-21T10:42:46.327Z</time></trkpt><trkpt lat="42.0768735" lon="11.9803412"><ele>320.8</ele><time>2026-04-21T10:42:48.326Z</time></trkpt><trkpt lat="42.0769101" lon="11.9804871"><ele>320.6</ele><time>2026-04-21T10:42:50.326Z</time></trkpt><trkpt lat="42.0769365" lon="11.9806633"><ele>320.4</ele><time>2026-04-21T10:42:52.326Z</time></trkpt><trkpt lat="42.0769497" lon="11.9807474"><ele>320.2</ele><time>2026-04-21T10:42:53.326Z</time></trkpt><trkpt lat="42.0769621" lon="11.9808338"><ele>320.0</ele><time>2026-04-21T10:42:54.325Z</time></trkpt><trkpt lat="42.0770024" lon="11.9809793"><ele>320.75</ele><time>2026-04-21T10:42:56.325Z</time></trkpt><trkpt lat="42.077011" lon="11.9811248"><ele>321.5</ele><time>2026-04-21T10:42:58.325Z</time></trkpt><trkpt lat="42.0769981" lon="11.9812672"><ele>322.25</ele><time>2026-04-21T10:43:00.327Z</time></trkpt><trkpt lat="42.0769767" lon="11.9814264"><ele>323.0</ele><time>2026-04-21T10:43:02.327Z</time></trkpt><trkpt lat="42.076977" lon="11.9815882"><ele>323.79999999999995</ele><time>2026-04-21T10:43:04.326Z</time></trkpt><trkpt lat="42.0770049" lon="11.9817335"><ele>324.6</ele><time>2026-04-21T10:43:06.325Z</time></trkpt><trkpt lat="42.0770286" lon="11.9818137"><ele>325.4</ele><time>2026-04-21T10:43:07.326Z</time></trkpt><trkpt lat="42.0770502" lon="11.9818967"><ele>326.20000000000005</ele><time>2026-04-21T10:43:08.325Z</time></trkpt><trkpt lat="42.0770975" lon="11.9820635"><ele>327.0</ele><time>2026-04-21T10:43:10.325Z</time></trkpt><trkpt lat="42.0771352" lon="11.9822234"><ele>327.0</ele><time>2026-04-21T10:43:12.325Z</time></trkpt><trkpt lat="42.0771415" lon="11.9823134"><ele>327.0</ele><time>2026-04-21T10:43:13.326Z</time></trkpt><trkpt lat="42.0771429" lon="11.9823993"><ele>327.0</ele><time>2026-04-21T10:43:14.325Z</time></trkpt><trkpt lat="42.07714" lon="11.9824888"><ele>327.0</ele><time>2026-04-21T10:43:15.325Z</time></trkpt><trkpt lat="42.0771404" lon="11.9826462"><ele>327.0</ele><time>2026-04-21T10:43:17.325Z</time></trkpt><trkpt lat="42.0771337" lon="11.9827962"><ele>327.0</ele><time>2026-04-21T10:43:19.326Z</time></trkpt><trkpt lat="42.0771278" lon="11.9829479"><ele>327.8</ele><time>2026-04-21T10:43:21.326Z</time></trkpt><trkpt lat="42.0771146" lon="11.9831095"><ele>328.6</ele><time>2026-04-21T10:43:23.325Z</time></trkpt><trkpt lat="42.0771035" lon="11.9832284"><ele>329.40000000000003</ele><time>2026-04-21T10:43:25.325Z</time></trkpt><trkpt lat="42.0770956" lon="11.9833449"><ele>330.20000000000005</ele><time>2026-04-21T10:43:27.326Z</time></trkpt><trkpt lat="42.0770892" lon="11.9834624"><ele>331.0</ele><time>2026-04-21T10:43:29.326Z</time></trkpt><trkpt lat="42.0771009" lon="11.983554"><ele>331.66666666666663</ele><time>2026-04-21T10:43:31.325Z</time></trkpt><trkpt lat="42.0770895" lon="11.9836547"><ele>332.3333333333333</ele><time>2026-04-21T10:43:33.326Z</time></trkpt><trkpt lat="42.0770929" lon="11.9837785"><ele>333.0</ele><time>2026-04-21T10:43:35.325Z</time></trkpt><trkpt lat="42.0770929" lon="11.9839039"><ele>333.6666666666667</ele><time>2026-04-21T10:43:37.325Z</time></trkpt><trkpt lat="42.077089" lon="11.9840181"><ele>334.33333333333337</ele><time>2026-04-21T10:43:39.327Z</time></trkpt><trkpt lat="42.0771047" lon="11.9841304"><ele>335.0</ele><time>2026-04-21T10:43:41.325Z</time></trkpt><trkpt lat="42.0771345" lon="11.984235"><ele>335.33333333333337</ele><time>2026-04-21T10:43:43.326Z</time></trkpt><trkpt lat="42.077136" lon="11.9843823"><ele>335.6666666666667</ele><time>2026-04-21T10:43:45.326Z</time></trkpt><trkpt lat="42.0771308" lon="11.9845102"><ele>336.0</ele><time>2026-04-21T10:43:47.326Z</time></trkpt><trkpt lat="42.0771208" lon="11.9846197"><ele>336.3333333333333</ele><time>2026-04-21T10:43:49.325Z</time></trkpt><trkpt lat="42.0770925" lon="11.9847046"><ele>336.66666666666663</ele><time>2026-04-21T10:43:51.326Z</time></trkpt><trkpt lat="42.0770728" lon="11.9847943"><ele>337.0</ele><time>2026-04-21T10:44:08.326Z</time></trkpt><trkpt lat="42.0770786" lon="11.9848895"><ele>337.0</ele><time>2026-04-21T10:44:21.325Z</time></trkpt><trkpt lat="42.077065" lon="11.984999"><ele>337.0</ele><time>2026-04-21T10:47:35.324Z</time></trkpt><trkpt lat="42.0770503" lon="11.9851018"><ele>337.0</ele><time>2026-04-21T10:47:37.324Z</time></trkpt><trkpt lat="42.0770555" lon="11.9852009"><ele>337.0</ele><time>2026-04-21T10:47:39.325Z</time></trkpt><trkpt lat="42.077071" lon="11.9853158"><ele>337.0</ele><time>2026-04-21T10:47:41.325Z</time></trkpt><trkpt lat="42.0770803" lon="11.9854615"><ele>337.0</ele><time>2026-04-21T10:47:43.326Z</time></trkpt><trkpt lat="42.0770884" lon="11.985599"><ele>337.3333333333333</ele><time>2026-04-21T10:47:45.324Z</time></trkpt><trkpt lat="42.0770923" lon="11.9857268"><ele>337.66666666666663</ele><time>2026-04-21T10:47:47.324Z</time></trkpt><trkpt lat="42.0770833" lon="11.9858396"><ele>338.0</ele><time>2026-04-21T10:47:49.324Z</time></trkpt><trkpt lat="42.0770868" lon="11.9859524"><ele>338.3333333333333</ele><time>2026-04-21T10:47:51.326Z</time></trkpt><trkpt lat="42.0770743" lon="11.9860637"><ele>338.6666666666667</ele><time>2026-04-21T10:47:53.325Z</time></trkpt><trkpt lat="42.0770562" lon="11.9861903"><ele>339.0</ele><time>2026-04-21T10:47:55.325Z</time></trkpt><trkpt lat="42.0770392" lon="11.9863097"><ele>339.0</ele><time>2026-04-21T10:47:57.325Z</time></trkpt><trkpt lat="42.0770038" lon="11.9864307"><ele>339.0</ele><time>2026-04-21T10:47:59.324Z</time></trkpt><trkpt lat="42.0769608" lon="11.9865473"><ele>339.0</ele><time>2026-04-21T10:48:01.324Z</time></trkpt><trkpt lat="42.0769223" lon="11.98666"><ele>339.0</ele><time>2026-04-21T10:48:03.325Z</time></trkpt><trkpt lat="42.0768743" lon="11.9867696"><ele>339.0</ele><time>2026-04-21T10:48:05.326Z</time></trkpt><trkpt lat="42.0768289" lon="11.9868956"><ele>339.2</ele><time>2026-04-21T10:48:07.325Z</time></trkpt><trkpt lat="42.0768024" lon="11.9869821"><ele>339.4</ele><time>2026-04-21T10:48:09.324Z</time></trkpt><trkpt lat="42.0768127" lon="11.9870723"><ele>339.6</ele><time>2026-04-21T10:48:11.324Z</time></trkpt><trkpt lat="42.0768506" lon="11.9871748"><ele>339.8</ele><time>2026-04-21T10:48:13.324Z</time></trkpt><trkpt lat="42.0769058" lon="11.987326"><ele>340.0</ele><time>2026-04-21T10:48:15.324Z</time></trkpt><trkpt lat="42.0769413" lon="11.9874795"><ele>340.2</ele><time>2026-04-21T10:48:17.324Z</time></trkpt><trkpt lat="42.0769608" lon="11.9876083"><ele>340.4</ele><time>2026-04-21T10:48:19.324Z</time></trkpt><trkpt lat="42.0769795" lon="11.9877594"><ele>340.6</ele><time>2026-04-21T10:48:21.326Z</time></trkpt><trkpt lat="42.0769826" lon="11.9879148"><ele>340.8</ele><time>2026-04-21T10:48:23.325Z</time></trkpt><trkpt lat="42.0769766" lon="11.9880006"><ele>341.0</ele><time>2026-04-21T10:48:24.325Z</time></trkpt><trkpt lat="42.0769604" lon="11.9880867"><ele>341.0</ele><time>2026-04-21T10:48:25.326Z</time></trkpt><trkpt lat="42.0769365" lon="11.9882515"><ele>341.0</ele><time>2026-04-21T10:48:27.324Z</time></trkpt><trkpt lat="42.0769172" lon="11.9883332"><ele>341.0</ele><time>2026-04-21T10:48:28.325Z</time></trkpt><trkpt lat="42.076887" lon="11.9884114"><ele>341.0</ele><time>2026-04-21T10:48:29.325Z</time></trkpt><trkpt lat="42.0768611" lon="11.9884942"><ele>341.0</ele><time>2026-04-21T10:48:30.324Z</time></trkpt><trkpt lat="42.0768153" lon="11.9886427"><ele>341.0</ele><time>2026-04-21T10:48:32.324Z</time></trkpt><trkpt lat="42.0767594" lon="11.9887677"><ele>340.1666666666667</ele><time>2026-04-21T10:48:34.324Z</time></trkpt><trkpt lat="42.0767612" lon="11.9889313"><ele>339.33333333333337</ele><time>2026-04-21T10:48:36.324Z</time></trkpt><trkpt lat="42.0767749" lon="11.9890195"><ele>338.5</ele><time>2026-04-21T10:48:37.326Z</time></trkpt><trkpt lat="42.0768122" lon="11.98917"><ele>337.6666666666667</ele><time>2026-04-21T10:48:39.324Z</time></trkpt><trkpt lat="42.0768249" lon="11.9892541"><ele>336.8333333333333</ele><time>2026-04-21T10:48:40.324Z</time></trkpt><trkpt lat="42.0768423" lon="11.9893469"><ele>336.0</ele><time>2026-04-21T10:48:41.326Z</time></trkpt><trkpt lat="42.0768548" lon="11.9894408"><ele>335.85714285714283</ele><time>2026-04-21T10:48:42.324Z</time></trkpt><trkpt lat="42.0768687" lon="11.9895422"><ele>335.7142857142857</ele><time>2026-04-21T10:48:43.325Z</time></trkpt><trkpt lat="42.0768766" lon="11.9896352"><ele>335.57142857142856</ele><time>2026-04-21T10:48:44.325Z</time></trkpt><trkpt lat="42.0768864" lon="11.9897258"><ele>335.42857142857144</ele><time>2026-04-21T10:48:45.324Z</time></trkpt><trkpt lat="42.0768941" lon="11.9898219"><ele>335.2857142857143</ele><time>2026-04-21T10:48:46.324Z</time></trkpt><trkpt lat="42.0769014" lon="11.9899108"><ele>335.1428571428571</ele><time>2026-04-21T10:48:47.324Z</time></trkpt><trkpt lat="42.0769169" lon="11.9899968"><ele>335.0</ele><time>2026-04-21T10:48:48.325Z</time></trkpt><trkpt lat="42.0769377" lon="11.9900817"><ele>335.33333333333337</ele><time>2026-04-21T10:48:49.324Z</time></trkpt><trkpt lat="42.0769674" lon="11.9901679"><ele>335.6666666666667</ele><time>2026-04-21T10:48:50.325Z</time></trkpt><trkpt lat="42.0770039" lon="11.9902472"><ele>336.0</ele><time>2026-04-21T10:48:51.325Z</time></trkpt><trkpt lat="42.0770441" lon="11.9903438"><ele>336.3333333333333</ele><time>2026-04-21T10:48:52.325Z</time></trkpt><trkpt lat="42.0770814" lon="11.9904369"><ele>336.66666666666663</ele><time>2026-04-21T10:48:53.325Z</time></trkpt><trkpt lat="42.0771181" lon="11.9905278"><ele>337.0</ele><time>2026-04-21T10:48:54.325Z</time></trkpt><trkpt lat="42.0771538" lon="11.9906141"><ele>337.0</ele><time>2026-04-21T10:48:55.325Z</time></trkpt><trkpt lat="42.0771855" lon="11.9907001"><ele>337.0</ele><time>2026-04-21T10:48:56.324Z</time></trkpt><trkpt lat="42.0772073" lon="11.9907825"><ele>337.0</ele><time>2026-04-21T10:48:57.324Z</time></trkpt><trkpt lat="42.0772358" lon="11.990922"><ele>337.0</ele><time>2026-04-21T10:48:59.326Z</time></trkpt><trkpt lat="42.0772543" lon="11.9910438"><ele>337.0</ele><time>2026-04-21T10:49:01.324Z</time></trkpt><trkpt lat="42.0772677" lon="11.9911778"><ele>337.0</ele><time>2026-04-21T10:49:03.325Z</time></trkpt><trkpt lat="42.0772894" lon="11.9913055"><ele>337.0</ele><time>2026-04-21T10:49:05.324Z</time></trkpt><trkpt lat="42.0773318" lon="11.9913972"><ele>337.0</ele><time>2026-04-21T10:49:07.324Z</time></trkpt><trkpt lat="42.0773792" lon="11.9915285"><ele>337.0</ele><time>2026-04-21T10:49:09.325Z</time></trkpt><trkpt lat="42.0774028" lon="11.9916302"><ele>337.0</ele><time>2026-04-21T10:49:11.325Z</time></trkpt><trkpt lat="42.0773876" lon="11.9917481"><ele>337.0</ele><time>2026-04-21T10:49:13.324Z</time></trkpt><trkpt lat="42.0773384" lon="11.9918752"><ele>337.3333333333333</ele><time>2026-04-21T10:49:15.324Z</time></trkpt><trkpt lat="42.0773059" lon="11.9919932"><ele>337.66666666666663</ele><time>2026-04-21T10:49:17.326Z</time></trkpt><trkpt lat="42.0772916" lon="11.9920854"><ele>338.0</ele><time>2026-04-21T10:49:20.324Z</time></trkpt><trkpt lat="42.0772141" lon="11.9921292"><ele>338.3333333333333</ele><time>2026-04-21T10:49:34.324Z</time></trkpt><trkpt lat="42.0771877" lon="11.9922264"><ele>338.6666666666667</ele><time>2026-04-21T10:49:36.324Z</time></trkpt><trkpt lat="42.077221" lon="11.9923062"><ele>339.0</ele><time>2026-04-21T10:49:44.324Z</time></trkpt><trkpt lat="42.0772122" lon="11.9924103"><ele>340.3333333333333</ele><time>2026-04-21T10:49:50.324Z</time></trkpt><trkpt lat="42.0771916" lon="11.9925113"><ele>341.6666666666667</ele><time>2026-04-21T10:51:51.325Z</time></trkpt><trkpt lat="42.0771773" lon="11.9926309"><ele>343.0</ele><time>2026-04-21T10:51:53.324Z</time></trkpt><trkpt lat="42.0771419" lon="11.992736"><ele>344.33333333333337</ele><time>2026-04-21T10:51:55.325Z</time></trkpt><trkpt lat="42.0770929" lon="11.992816"><ele>345.6666666666667</ele><time>2026-04-21T10:51:57.325Z</time></trkpt><trkpt lat="42.0770735" lon="11.99291"><ele>347.0</ele><time>2026-04-21T10:52:00.325Z</time></trkpt><trkpt lat="42.0770686" lon="11.9930149"><ele>347.0</ele><time>2026-04-21T10:52:03.324Z</time></trkpt><trkpt lat="42.0770484" lon="11.9931236"><ele>347.0</ele><time>2026-04-21T10:52:06.324Z</time></trkpt><trkpt lat="42.0770352" lon="11.9932175"><ele>347.0</ele><time>2026-04-21T10:52:09.326Z</time></trkpt><trkpt lat="42.0770452" lon="11.9933228"><ele>347.0</ele><time>2026-04-21T10:52:12.325Z</time></trkpt><trkpt lat="42.0770404" lon="11.9934129"><ele>347.0</ele><time>2026-04-21T10:52:14.324Z</time></trkpt><trkpt lat="42.0770032" lon="11.9935143"><ele>347.0</ele><time>2026-04-21T10:52:17.324Z</time></trkpt><trkpt lat="42.0769923" lon="11.9935999"><ele>347.0</ele><time>2026-04-21T10:52:29.324Z</time></trkpt><trkpt lat="42.0769699" lon="11.9937008"><ele>347.83333333333337</ele><time>2026-04-21T10:52:41.324Z</time></trkpt><trkpt lat="42.0769541" lon="11.9937968"><ele>348.6666666666667</ele><time>2026-04-21T10:52:43.325Z</time></trkpt><trkpt lat="42.0769449" lon="11.9939121"><ele>349.5</ele><time>2026-04-21T10:52:45.325Z</time></trkpt><trkpt lat="42.0769484" lon="11.9940028"><ele>350.3333333333333</ele><time>2026-04-21T10:52:47.324Z</time></trkpt><trkpt lat="42.0769908" lon="11.9941176"><ele>351.16666666666663</ele><time>2026-04-21T10:52:50.325Z</time></trkpt><trkpt lat="42.0770008" lon="11.9942185"><ele>352.0</ele><time>2026-04-21T10:52:53.325Z</time></trkpt><trkpt lat="42.0770146" lon="11.9943084"><ele>353.2857142857143</ele><time>2026-04-21T10:56:07.324Z</time></trkpt><trkpt lat="42.0770128" lon="11.9943962"><ele>354.57142857142856</ele><time>2026-04-21T10:56:16.323Z</time></trkpt><trkpt lat="42.0769729" lon="11.9944693"><ele>355.8571428571429</ele><time>2026-04-21T10:57:12.325Z</time></trkpt><trkpt lat="42.0769231" lon="11.9945312"><ele>357.1428571428571</ele><time>2026-04-21T10:57:53.325Z</time></trkpt><trkpt lat="42.0768659" lon="11.9945703"><ele>358.4285714285714</ele><time>2026-04-21T10:58:20.324Z</time></trkpt><trkpt lat="42.0768197" lon="11.9946291"><ele>359.7142857142857</ele><time>2026-04-21T10:58:33.326Z</time></trkpt><trkpt lat="42.0767855" lon="11.9947005"><ele>361.0</ele><time>2026-04-21T10:59:39.324Z</time></trkpt><trkpt lat="42.0767662" lon="11.9947891"><ele>361.0</ele><time>2026-04-21T11:03:07.323Z</time></trkpt><trkpt lat="42.0767006" lon="11.994755"><ele>361.0</ele><time>2026-04-21T11:08:10.324Z</time></trkpt><trkpt lat="42.0767702" lon="11.9947864"><ele>361.0</ele><time>2026-04-21T11:10:05.246Z</time></trkpt><trkpt lat="42.076774" lon="11.9949138"><ele>361.0</ele><time>2026-04-21T11:14:22.322Z</time></trkpt><trkpt lat="42.0767263" lon="11.9950183"><ele>361.0</ele><time>2026-04-21T11:14:24.321Z</time></trkpt><trkpt lat="42.0766578" lon="11.9951221"><ele>361.0</ele><time>2026-04-21T11:14:26.322Z</time></trkpt><trkpt lat="42.0765894" lon="11.9952116"><ele>362.8333333333333</ele><time>2026-04-21T11:14:28.321Z</time></trkpt><trkpt lat="42.0765365" lon="11.9952846"><ele>364.66666666666663</ele><time>2026-04-21T11:14:30.321Z</time></trkpt><trkpt lat="42.0765106" lon="11.9953836"><ele>366.5</ele><time>2026-04-21T11:14:33.321Z</time></trkpt><trkpt lat="42.0765291" lon="11.9954826"><ele>368.3333333333333</ele><time>2026-04-21T11:14:37.321Z</time></trkpt><trkpt lat="42.0766001" lon="11.9955367"><ele>370.1666666666667</ele><time>2026-04-21T11:14:46.322Z</time></trkpt><trkpt lat="42.0766524" lon="11.9955923"><ele>372.0</ele><time>2026-04-21T11:14:48.321Z</time></trkpt><trkpt lat="42.076711" lon="11.9956495"><ele>372.0</ele><time>2026-04-21T11:14:50.322Z</time></trkpt><trkpt lat="42.0767389" lon="11.9957275"><ele>372.0</ele><time>2026-04-21T11:14:53.321Z</time></trkpt><trkpt lat="42.0767276" lon="11.9958167"><ele>372.0</ele><time>2026-04-21T11:14:56.321Z</time></trkpt><trkpt lat="42.0766572" lon="11.995895"><ele>372.0</ele><time>2026-04-21T11:14:59.322Z</time></trkpt><trkpt lat="42.0766321" lon="11.9959754"><ele>372.0</ele><time>2026-04-21T11:15:08.321Z</time></trkpt><trkpt lat="42.0766091" lon="11.9960941"><ele>372.0</ele><time>2026-04-21T11:15:15.322Z</time></trkpt><trkpt lat="42.0765805" lon="11.9962019"><ele>376.1666666666667</ele><time>2026-04-21T11:15:17.321Z</time></trkpt><trkpt lat="42.076562" lon="11.9963606"><ele>380.33333333333337</ele><time>2026-04-21T11:15:20.321Z</time></trkpt><trkpt lat="42.0765423" lon="11.9964452"><ele>384.5</ele><time>2026-04-21T11:15:22.322Z</time></trkpt><trkpt lat="42.0765168" lon="11.9965238"><ele>388.6666666666667</ele><time>2026-04-21T11:15:24.322Z</time></trkpt><trkpt lat="42.0764937" lon="11.9966068"><ele>392.83333333333337</ele><time>2026-04-21T11:15:28.321Z</time></trkpt><trkpt lat="42.0764883" lon="11.9966945"><ele>397.0</ele><time>2026-04-21T11:15:48.322Z</time></trkpt><trkpt lat="42.076499" lon="11.9968"><ele>398.1428571428571</ele><time>2026-04-21T11:17:08.321Z</time></trkpt><trkpt lat="42.0765089" lon="11.9968885"><ele>399.2857142857143</ele><time>2026-04-21T11:17:29.321Z</time></trkpt><trkpt lat="42.0764772" lon="11.996974"><ele>400.42857142857144</ele><time>2026-04-21T11:17:46.321Z</time></trkpt><trkpt lat="42.0764646" lon="11.9970737"><ele>401.57142857142856</ele><time>2026-04-21T11:18:40.321Z</time></trkpt><trkpt lat="42.0764788" lon="11.9971597"><ele>402.7142857142857</ele><time>2026-04-21T11:19:21.321Z</time></trkpt><trkpt lat="42.0764818" lon="11.9972492"><ele>403.85714285714283</ele><time>2026-04-21T11:19:23.32Z</time></trkpt><trkpt lat="42.0764494" lon="11.9973653"><ele>405.0</ele><time>2026-04-21T11:19:26.321Z</time></trkpt><trkpt lat="42.0764533" lon="11.9974721"><ele>405.0</ele><time>2026-04-21T11:19:43.321Z</time></trkpt><trkpt lat="42.0764754" lon="11.9975562"><ele>405.0</ele><time>2026-04-21T11:19:45.32Z</time></trkpt><trkpt lat="42.0765113" lon="11.9976543"><ele>405.0</ele><time>2026-04-21T11:19:48.32Z</time></trkpt><trkpt lat="42.076571" lon="11.9977158"><ele>405.0</ele><time>2026-04-21T11:19:50.321Z</time></trkpt><trkpt lat="42.0766308" lon="11.9977793"><ele>405.0</ele><time>2026-04-21T11:19:53.321Z</time></trkpt><trkpt lat="42.076705" lon="11.9978633"><ele>405.0</ele><time>2026-04-21T11:20:26.321Z</time></trkpt><trkpt lat="42.0767597" lon="11.9979943"><ele>405.0</ele><time>2026-04-21T11:20:28.321Z</time></trkpt><trkpt lat="42.0767792" lon="11.9981309"><ele>405.0</ele><time>2026-04-21T11:20:30.32Z</time></trkpt><trkpt lat="42.0767767" lon="11.9982586"><ele>405.0</ele><time>2026-04-21T11:20:32.32Z</time></trkpt><trkpt lat="42.0767661" lon="11.9983645"><ele>405.0</ele><time>2026-04-21T11:20:34.32Z</time></trkpt><trkpt lat="42.0767198" lon="11.9984294"><ele>405.0</ele><time>2026-04-21T11:20:36.32Z</time></trkpt><trkpt lat="42.0766457" lon="11.9984268"><ele>405.0</ele><time>2026-04-21T11:20:38.32Z</time></trkpt><trkpt lat="42.0765553" lon="11.9983944"><ele>405.4</ele><time>2026-04-21T11:20:40.32Z</time></trkpt><trkpt lat="42.0764495" lon="11.9983553"><ele>405.8</ele><time>2026-04-21T11:20:42.321Z</time></trkpt><trkpt lat="42.0763494" lon="11.9983379"><ele>406.20000000000005</ele><time>2026-04-21T11:20:44.32Z</time></trkpt><trkpt lat="42.0762425" lon="11.9983248"><ele>406.6</ele><time>2026-04-21T11:20:46.32Z</time></trkpt><trkpt lat="42.0761426" lon="11.9983093"><ele>407.0</ele><time>2026-04-21T11:20:48.32Z</time></trkpt><trkpt lat="42.0760513" lon="11.9982906"><ele>406.99999999999994</ele><time>2026-04-21T11:20:50.321Z</time></trkpt><trkpt lat="42.075985" lon="11.9982896"><ele>407.0</ele><time>2026-04-21T11:20:53.32Z</time></trkpt><trkpt lat="42.0759074" lon="11.9983378"><ele>407.0</ele><time>2026-04-21T11:21:28.321Z</time></trkpt><trkpt lat="42.075826" lon="11.9982823"><ele>407.0</ele><time>2026-04-21T11:22:46.321Z</time></trkpt><trkpt lat="42.0757647" lon="11.9982162"><ele>406.99999999999994</ele><time>2026-04-21T11:22:47.32Z</time></trkpt><trkpt lat="42.0756905" lon="11.9981432"><ele>407.0</ele><time>2026-04-21T11:22:48.32Z</time></trkpt><trkpt lat="42.0756022" lon="11.9980628"><ele>406.25</ele><time>2026-04-21T11:22:49.32Z</time></trkpt><trkpt lat="42.0755027" lon="11.9979795"><ele>405.5</ele><time>2026-04-21T11:22:50.321Z</time></trkpt><trkpt lat="42.0753924" lon="11.9978951"><ele>404.75</ele><time>2026-04-21T11:22:51.32Z</time></trkpt><trkpt lat="42.0752805" lon="11.9978102"><ele>404.0</ele><time>2026-04-21T11:22:52.321Z</time></trkpt><trkpt lat="42.0751665" lon="11.9977269"><ele>404.0</ele><time>2026-04-21T11:22:53.32Z</time></trkpt><trkpt lat="42.0750546" lon="11.9976318"><ele>404.0</ele><time>2026-04-21T11:22:54.321Z</time></trkpt><trkpt lat="42.0749495" lon="11.9975146"><ele>404.0</ele><time>2026-04-21T11:22:55.32Z</time></trkpt><trkpt lat="42.0748483" lon="11.9973854"><ele>404.0</ele><time>2026-04-21T11:22:56.321Z</time></trkpt><trkpt lat="42.0747472" lon="11.9972524"><ele>403.75</ele><time>2026-04-21T11:22:57.321Z</time></trkpt><trkpt lat="42.074645" lon="11.9971232"><ele>403.5</ele><time>2026-04-21T11:22:58.32Z</time></trkpt><trkpt lat="42.074545" lon="11.9969973"><ele>403.25</ele><time>2026-04-21T11:22:59.321Z</time></trkpt><trkpt lat="42.0744527" lon="11.9968712"><ele>403.0</ele><time>2026-04-21T11:23:00.321Z</time></trkpt><trkpt lat="42.0743686" lon="11.9967497"><ele>404.0</ele><time>2026-04-21T11:23:01.32Z</time></trkpt><trkpt lat="42.0742948" lon="11.9966451"><ele>405.0</ele><time>2026-04-21T11:23:02.32Z</time></trkpt><trkpt lat="42.0742261" lon="11.9965551"><ele>406.0</ele><time>2026-04-21T11:23:03.32Z</time></trkpt><trkpt lat="42.074159" lon="11.9964823"><ele>407.0</ele><time>2026-04-21T11:23:04.32Z</time></trkpt><trkpt lat="42.0740993" lon="11.9964238"><ele>408.0</ele><time>2026-04-21T11:23:05.321Z</time></trkpt><trkpt lat="42.074001" lon="11.9963483"><ele>408.0</ele><time>2026-04-21T11:23:07.321Z</time></trkpt><trkpt lat="42.0739055" lon="11.9962974"><ele>408.0</ele><time>2026-04-21T11:23:09.321Z</time></trkpt><trkpt lat="42.0738428" lon="11.9962653"><ele>408.0</ele><time>2026-04-21T11:23:10.32Z</time></trkpt><trkpt lat="42.0737712" lon="11.9962352"><ele>408.0</ele><time>2026-04-21T11:23:11.32Z</time></trkpt><trkpt lat="42.0736681" lon="11.9962038"><ele>408.0</ele><time>2026-04-21T11:23:13.32Z</time></trkpt><trkpt lat="42.0736625" lon="11.9962903"><ele>408.0</ele><time>2026-04-21T11:23:19.32Z</time></trkpt><trkpt lat="42.0737754" lon="11.996278"><ele>408.0</ele><time>2026-04-21T11:23:22.321Z</time></trkpt><trkpt lat="42.073841" lon="11.9962991"><ele>408.0</ele><time>2026-04-21T11:23:23.321Z</time></trkpt><trkpt lat="42.0739147" lon="11.9963302"><ele>408.0</ele><time>2026-04-21T11:23:24.32Z</time></trkpt><trkpt lat="42.0739908" lon="11.9963753"><ele>408.0</ele><time>2026-04-21T11:23:25.32Z</time></trkpt><trkpt lat="42.0740694" lon="11.9964315"><ele>408.0</ele><time>2026-04-21T11:23:26.321Z</time></trkpt><trkpt lat="42.0741433" lon="11.9964912"><ele>408.0</ele><time>2026-04-21T11:23:27.32Z</time></trkpt><trkpt lat="42.0742169" lon="11.9965624"><ele>407.0</ele><time>2026-04-21T11:23:28.32Z</time></trkpt><trkpt lat="42.0742807" lon="11.9966491"><ele>406.0</ele><time>2026-04-21T11:23:29.321Z</time></trkpt><trkpt lat="42.0743455" lon="11.9967443"><ele>405.0</ele><time>2026-04-21T11:23:30.32Z</time></trkpt><trkpt lat="42.074422" lon="11.9968401"><ele>404.0</ele><time>2026-04-21T11:23:31.321Z</time></trkpt><trkpt lat="42.0745056" lon="11.9969547"><ele>403.0</ele><time>2026-04-21T11:23:32.32Z</time></trkpt><trkpt lat="42.0745937" lon="11.9970789"><ele>403.0</ele><time>2026-04-21T11:23:33.32Z</time></trkpt><trkpt lat="42.0746889" lon="11.9972048"><ele>403.0</ele><time>2026-04-21T11:23:34.322Z</time></trkpt><trkpt lat="42.0747899" lon="11.9973337"><ele>403.0</ele><time>2026-04-21T11:23:35.32Z</time></trkpt><trkpt lat="42.0748905" lon="11.9974563"><ele>403.0</ele><time>2026-04-21T11:23:36.32Z</time></trkpt><trkpt lat="42.0749884" lon="11.997574"><ele>403.25</ele><time>2026-04-21T11:23:37.32Z</time></trkpt><trkpt lat="42.075093" lon="11.9976786"><ele>403.5</ele><time>2026-04-21T11:23:38.32Z</time></trkpt><trkpt lat="42.0752061" lon="11.9977702"><ele>403.75</ele><time>2026-04-21T11:23:39.321Z</time></trkpt><trkpt lat="42.0753267" lon="11.9978619"><ele>404.0</ele><time>2026-04-21T11:23:40.321Z</time></trkpt><trkpt lat="42.0754457" lon="11.9979567"><ele>404.0</ele><time>2026-04-21T11:23:41.32Z</time></trkpt><trkpt lat="42.0755649" lon="11.9980561"><ele>404.0</ele><time>2026-04-21T11:23:42.32Z</time></trkpt><trkpt lat="42.0756764" lon="11.9981527"><ele>404.0</ele><time>2026-04-21T11:23:43.321Z</time></trkpt><trkpt lat="42.0757869" lon="11.9982562"><ele>404.0</ele><time>2026-04-21T11:23:44.32Z</time></trkpt><trkpt lat="42.0758971" lon="11.9983723"><ele>404.75</ele><time>2026-04-21T11:23:45.321Z</time></trkpt><trkpt lat="42.0760075" lon="11.9984968"><ele>405.5</ele><time>2026-04-21T11:23:46.321Z</time></trkpt><trkpt lat="42.0761103" lon="11.9986416"><ele>406.25</ele><time>2026-04-21T11:23:47.32Z</time></trkpt><trkpt lat="42.0762106" lon="11.9987946"><ele>407.0</ele><time>2026-04-21T11:23:48.321Z</time></trkpt><trkpt lat="42.0763057" lon="11.9989395"><ele>407.0</ele><time>2026-04-21T11:23:49.32Z</time></trkpt><trkpt lat="42.076396" lon="11.9990825"><ele>407.0</ele><time>2026-04-21T11:23:50.32Z</time></trkpt><trkpt lat="42.0764813" lon="11.9992228"><ele>407.0</ele><time>2026-04-21T11:23:51.32Z</time></trkpt><trkpt lat="42.0765604" lon="11.999357"><ele>407.0</ele><time>2026-04-21T11:23:52.32Z</time></trkpt><trkpt lat="42.0766352" lon="11.9994864"><ele>407.5</ele><time>2026-04-21T11:23:53.321Z</time></trkpt><trkpt lat="42.0767088" lon="11.9996081"><ele>408.0</ele><time>2026-04-21T11:23:54.321Z</time></trkpt><trkpt lat="42.0767835" lon="11.9997211"><ele>408.5</ele><time>2026-04-21T11:23:55.32Z</time></trkpt><trkpt lat="42.0768608" lon="11.9998315"><ele>409.0</ele><time>2026-04-21T11:23:56.32Z</time></trkpt><trkpt lat="42.0769412" lon="11.9999389"><ele>409.0</ele><time>2026-04-21T11:23:57.32Z</time></trkpt><trkpt lat="42.0770259" lon="12.0000381"><ele>409.0</ele><time>2026-04-21T11:23:58.32Z</time></trkpt><trkpt lat="42.077117" lon="12.0001263"><ele>409.0</ele><time>2026-04-21T11:23:59.321Z</time></trkpt><trkpt lat="42.0772139" lon="12.0002067"><ele>409.0</ele><time>2026-04-21T11:24:00.32Z</time></trkpt><trkpt lat="42.0773221" lon="12.0002735"><ele>410.25</ele><time>2026-04-21T11:24:01.321Z</time></trkpt><trkpt lat="42.0774434" lon="12.0003332"><ele>411.5</ele><time>2026-04-21T11:24:02.321Z</time></trkpt><trkpt lat="42.0775757" lon="12.0003792"><ele>412.75</ele><time>2026-04-21T11:24:03.32Z</time></trkpt><trkpt lat="42.0777145" lon="12.0004182"><ele>414.0</ele><time>2026-04-21T11:24:04.321Z</time></trkpt><trkpt lat="42.0778589" lon="12.0004565"><ele>414.0</ele><time>2026-04-21T11:24:05.32Z</time></trkpt><trkpt lat="42.0780066" lon="12.0004936"><ele>414.0</ele><time>2026-04-21T11:24:06.32Z</time></trkpt><trkpt lat="42.0781574" lon="12.0005323"><ele>414.0</ele><time>2026-04-21T11:24:07.321Z</time></trkpt><trkpt lat="42.0783102" lon="12.0005726"><ele>416.0</ele><time>2026-04-21T11:24:08.321Z</time></trkpt><trkpt lat="42.0784599" lon="12.0006142"><ele>418.0</ele><time>2026-04-21T11:24:09.32Z</time></trkpt><trkpt lat="42.0786061" lon="12.0006573"><ele>420.0</ele><time>2026-04-21T11:24:10.322Z</time></trkpt><trkpt lat="42.0787489" lon="12.0006966"><ele>422.0</ele><time>2026-04-21T11:24:11.321Z</time></trkpt><trkpt lat="42.078887" lon="12.0007329"><ele>422.0</ele><time>2026-04-21T11:24:12.32Z</time></trkpt><trkpt lat="42.07902" lon="12.0007654"><ele>422.0</ele><time>2026-04-21T11:24:13.32Z</time></trkpt><trkpt lat="42.0791492" lon="12.0007958"><ele>422.0</ele><time>2026-04-21T11:24:14.321Z</time></trkpt><trkpt lat="42.0792673" lon="12.0008238"><ele>422.0</ele><time>2026-04-21T11:24:15.321Z</time></trkpt><trkpt lat="42.0793741" lon="12.0008495"><ele>426.25</ele><time>2026-04-21T11:24:16.32Z</time></trkpt><trkpt lat="42.0794903" lon="12.0008829"><ele>430.5</ele><time>2026-04-21T11:24:17.32Z</time></trkpt><trkpt lat="42.0796108" lon="12.0009222"><ele>434.75</ele><time>2026-04-21T11:24:18.321Z</time></trkpt><trkpt lat="42.0797342" lon="12.0009596"><ele>439.0</ele><time>2026-04-21T11:24:19.32Z</time></trkpt><trkpt lat="42.0798585" lon="12.001"><ele>440.5</ele><time>2026-04-21T11:24:20.32Z</time></trkpt><trkpt lat="42.0799781" lon="12.0010367"><ele>442.0</ele><time>2026-04-21T11:24:21.32Z</time></trkpt><trkpt lat="42.0800995" lon="12.0010688"><ele>443.5</ele><time>2026-04-21T11:24:22.32Z</time></trkpt><trkpt lat="42.0802205" lon="12.0010965"><ele>445.0</ele><time>2026-04-21T11:24:23.321Z</time></trkpt><trkpt lat="42.080333" lon="12.0011149"><ele>445.00000000000006</ele><time>2026-04-21T11:24:24.32Z</time></trkpt><trkpt lat="42.0804313" lon="12.0011243"><ele>445.0</ele><time>2026-04-21T11:24:25.32Z</time></trkpt><trkpt lat="42.0805166" lon="12.0011159"><ele>445.0</ele><time>2026-04-21T11:24:26.321Z</time></trkpt><trkpt lat="42.0805951" lon="12.0011013"><ele>445.0</ele><time>2026-04-21T11:24:27.321Z</time></trkpt><trkpt lat="42.0806786" lon="12.0010754"><ele>445.00000000000006</ele><time>2026-04-21T11:24:28.321Z</time></trkpt><trkpt lat="42.0807574" lon="12.0010359"><ele>445.0</ele><time>2026-04-21T11:24:29.321Z</time></trkpt><trkpt lat="42.0808272" lon="12.0009955"><ele>446.1666666666667</ele><time>2026-04-21T11:24:30.321Z</time></trkpt><trkpt lat="42.0808921" lon="12.0009571"><ele>447.33333333333337</ele><time>2026-04-21T11:24:31.321Z</time></trkpt><trkpt lat="42.0809789" lon="12.0009157"><ele>448.5</ele><time>2026-04-21T11:24:33.322Z</time></trkpt><trkpt lat="42.0810435" lon="12.0008979"><ele>449.66666666666663</ele><time>2026-04-21T11:24:43.322Z</time></trkpt><trkpt lat="42.0810433" lon="12.0009921"><ele>450.8333333333333</ele><time>2026-04-21T11:27:43.319Z</time></trkpt><trkpt lat="42.0809807" lon="12.0010557"><ele>452.0</ele><time>2026-04-21T11:28:09.319Z</time></trkpt><trkpt lat="42.0808926" lon="12.0011467"><ele>452.0</ele><time>2026-04-21T11:28:11.32Z</time></trkpt><trkpt lat="42.0808369" lon="12.0011957"><ele>452.0</ele><time>2026-04-21T11:28:12.32Z</time></trkpt><trkpt lat="42.0807825" lon="12.0012439"><ele>452.0</ele><time>2026-04-21T11:28:13.319Z</time></trkpt><trkpt lat="42.0807274" lon="12.0012965"><ele>452.0</ele><time>2026-04-21T11:28:14.32Z</time></trkpt><trkpt lat="42.0806735" lon="12.0013571"><ele>452.0</ele><time>2026-04-21T11:28:15.319Z</time></trkpt><trkpt lat="42.0806236" lon="12.0014248"><ele>452.0</ele><time>2026-04-21T11:28:16.32Z</time></trkpt><trkpt lat="42.0805655" lon="12.0014926"><ele>452.0</ele><time>2026-04-21T11:28:17.319Z</time></trkpt><trkpt lat="42.080508" lon="12.0015622"><ele>451.8333333333333</ele><time>2026-04-21T11:28:18.32Z</time></trkpt><trkpt lat="42.0804564" lon="12.0016298"><ele>451.66666666666663</ele><time>2026-04-21T11:28:19.319Z</time></trkpt><trkpt lat="42.0804088" lon="12.001702"><ele>451.5</ele><time>2026-04-21T11:28:20.321Z</time></trkpt><trkpt lat="42.0803675" lon="12.0017876"><ele>451.33333333333337</ele><time>2026-04-21T11:28:21.319Z</time></trkpt><trkpt lat="42.0803322" lon="12.0018886"><ele>451.1666666666667</ele><time>2026-04-21T11:28:22.32Z</time></trkpt><trkpt lat="42.0802952" lon="12.0019923"><ele>451.0</ele><time>2026-04-21T11:28:23.319Z</time></trkpt><trkpt lat="42.0802545" lon="12.0020967"><ele>451.00000000000006</ele><time>2026-04-21T11:28:24.32Z</time></trkpt><trkpt lat="42.0802115" lon="12.0021958"><ele>451.0</ele><time>2026-04-21T11:28:25.321Z</time></trkpt><trkpt lat="42.0801676" lon="12.0022881"><ele>451.0</ele><time>2026-04-21T11:28:26.319Z</time></trkpt><trkpt lat="42.0801172" lon="12.0023767"><ele>451.0</ele><time>2026-04-21T11:28:27.321Z</time></trkpt><trkpt lat="42.0800646" lon="12.0024642"><ele>451.00000000000006</ele><time>2026-04-21T11:28:28.321Z</time></trkpt><trkpt lat="42.0800229" lon="12.0025566"><ele>451.0</ele><time>2026-04-21T11:28:29.319Z</time></trkpt><trkpt lat="42.0799946" lon="12.0026558"><ele>451.50000000000006</ele><time>2026-04-21T11:28:30.32Z</time></trkpt><trkpt lat="42.0799625" lon="12.0027514"><ele>452.0</ele><time>2026-04-21T11:28:31.319Z</time></trkpt><trkpt lat="42.0799259" lon="12.0028409"><ele>452.5</ele><time>2026-04-21T11:28:32.32Z</time></trkpt><trkpt lat="42.0798863" lon="12.0029273"><ele>453.0</ele><time>2026-04-21T11:28:33.32Z</time></trkpt><trkpt lat="42.0798486" lon="12.0030135"><ele>453.50000000000006</ele><time>2026-04-21T11:28:34.319Z</time></trkpt><trkpt lat="42.0798212" lon="12.0031104"><ele>454.0</ele><time>2026-04-21T11:28:35.319Z</time></trkpt><trkpt lat="42.0798031" lon="12.0032036"><ele>455.28571428571433</ele><time>2026-04-21T11:28:36.32Z</time></trkpt><trkpt lat="42.0797892" lon="12.0032912"><ele>456.5714285714286</ele><time>2026-04-21T11:28:37.319Z</time></trkpt><trkpt lat="42.079776" lon="12.0033889"><ele>457.8571428571429</ele><time>2026-04-21T11:28:38.32Z</time></trkpt><trkpt lat="42.0797743" lon="12.0034961"><ele>459.1428571428571</ele><time>2026-04-21T11:28:39.319Z</time></trkpt><trkpt lat="42.0797808" lon="12.0035952"><ele>460.4285714285714</ele><time>2026-04-21T11:28:40.319Z</time></trkpt><trkpt lat="42.0797967" lon="12.0036918"><ele>461.71428571428567</ele><time>2026-04-21T11:28:41.319Z</time></trkpt><trkpt lat="42.0798112" lon="12.0037925"><ele>463.0</ele><time>2026-04-21T11:28:42.319Z</time></trkpt><trkpt lat="42.0798121" lon="12.0038921"><ele>463.00000000000006</ele><time>2026-04-21T11:28:43.321Z</time></trkpt><trkpt lat="42.0798041" lon="12.0039911"><ele>463.0</ele><time>2026-04-21T11:28:44.32Z</time></trkpt><trkpt lat="42.0797991" lon="12.0040923"><ele>463.0</ele><time>2026-04-21T11:28:45.319Z</time></trkpt><trkpt lat="42.0797917" lon="12.0041882"><ele>463.0</ele><time>2026-04-21T11:28:46.32Z</time></trkpt><trkpt lat="42.0797878" lon="12.0042776"><ele>463.00000000000006</ele><time>2026-04-21T11:28:47.319Z</time></trkpt><trkpt lat="42.0797762" lon="12.0044324"><ele>463.0</ele><time>2026-04-21T11:28:49.32Z</time></trkpt><trkpt lat="42.0797614" lon="12.0045841"><ele>461.0</ele><time>2026-04-21T11:28:51.319Z</time></trkpt><trkpt lat="42.0797136" lon="12.004715"><ele>458.99999999999994</ele><time>2026-04-21T11:28:53.319Z</time></trkpt><trkpt lat="42.0796134" lon="12.0048104"><ele>456.99999999999994</ele><time>2026-04-21T11:28:55.321Z</time></trkpt><trkpt lat="42.0795455" lon="12.004861"><ele>455.0</ele><time>2026-04-21T11:28:56.319Z</time></trkpt><trkpt lat="42.079471" lon="12.0049185"><ele>453.0</ele><time>2026-04-21T11:28:57.319Z</time></trkpt><trkpt lat="42.0794003" lon="12.0049792"><ele>451.6666666666667</ele><time>2026-04-21T11:28:58.319Z</time></trkpt><trkpt lat="42.0793272" lon="12.0050484"><ele>450.33333333333337</ele><time>2026-04-21T11:28:59.32Z</time></trkpt><trkpt lat="42.0792636" lon="12.0051235"><ele>449.0</ele><time>2026-04-21T11:29:00.319Z</time></trkpt><trkpt lat="42.0791984" lon="12.0052156"><ele>447.6666666666667</ele><time>2026-04-21T11:29:01.321Z</time></trkpt><trkpt lat="42.0791372" lon="12.0053017"><ele>446.33333333333337</ele><time>2026-04-21T11:29:02.319Z</time></trkpt><trkpt lat="42.0790691" lon="12.0053859"><ele>445.0</ele><time>2026-04-21T11:29:03.319Z</time></trkpt><trkpt lat="42.0790062" lon="12.0054735"><ele>442.1666666666667</ele><time>2026-04-21T11:29:04.319Z</time></trkpt><trkpt lat="42.0789554" lon="12.0055735"><ele>439.33333333333337</ele><time>2026-04-21T11:29:05.32Z</time></trkpt><trkpt lat="42.0789048" lon="12.0056695"><ele>436.5</ele><time>2026-04-21T11:29:06.32Z</time></trkpt><trkpt lat="42.0788511" lon="12.0057587"><ele>433.66666666666663</ele><time>2026-04-21T11:29:07.319Z</time></trkpt><trkpt lat="42.0788092" lon="12.0058518"><ele>430.8333333333333</ele><time>2026-04-21T11:29:08.32Z</time></trkpt><trkpt lat="42.078773" lon="12.0059497"><ele>428.0</ele><time>2026-04-21T11:29:09.32Z</time></trkpt><trkpt lat="42.0787357" lon="12.0060515"><ele>428.0</ele><time>2026-04-21T11:29:10.319Z</time></trkpt><trkpt lat="42.078693" lon="12.0061544"><ele>427.99999999999994</ele><time>2026-04-21T11:29:11.319Z</time></trkpt><trkpt lat="42.0786397" lon="12.0062666"><ele>427.99999999999994</ele><time>2026-04-21T11:29:12.32Z</time></trkpt><trkpt lat="42.0785828" lon="12.0063816"><ele>428.0</ele><time>2026-04-21T11:29:13.319Z</time></trkpt><trkpt lat="42.0785287" lon="12.0064984"><ele>428.0</ele><time>2026-04-21T11:29:14.319Z</time></trkpt><trkpt lat="42.0784777" lon="12.0066215"><ele>428.2</ele><time>2026-04-21T11:29:15.319Z</time></trkpt><trkpt lat="42.0784329" lon="12.006737"><ele>428.4</ele><time>2026-04-21T11:29:16.321Z</time></trkpt><trkpt lat="42.078392" lon="12.0068422"><ele>428.59999999999997</ele><time>2026-04-21T11:29:17.32Z</time></trkpt><trkpt lat="42.0783458" lon="12.0069466"><ele>428.79999999999995</ele><time>2026-04-21T11:29:18.32Z</time></trkpt><trkpt lat="42.0783007" lon="12.0070565"><ele>429.0</ele><time>2026-04-21T11:29:19.319Z</time></trkpt><trkpt lat="42.0782534" lon="12.0071664"><ele>427.79999999999995</ele><time>2026-04-21T11:29:20.319Z</time></trkpt><trkpt lat="42.0781983" lon="12.0072824"><ele>426.59999999999997</ele><time>2026-04-21T11:29:21.319Z</time></trkpt><trkpt lat="42.0781533" lon="12.0074039"><ele>425.4</ele><time>2026-04-21T11:29:22.32Z</time></trkpt><trkpt lat="42.078111" lon="12.007527"><ele>424.2</ele><time>2026-04-21T11:29:23.32Z</time></trkpt><trkpt lat="42.0780688" lon="12.0076535"><ele>423.0</ele><time>2026-04-21T11:29:24.321Z</time></trkpt><trkpt lat="42.078024" lon="12.0077717"><ele>423.0</ele><time>2026-04-21T11:29:25.319Z</time></trkpt><trkpt lat="42.0779815" lon="12.0078709"><ele>423.0</ele><time>2026-04-21T11:29:26.319Z</time></trkpt><trkpt lat="42.077937" lon="12.0079575"><ele>423.0</ele><time>2026-04-21T11:29:27.319Z</time></trkpt><trkpt lat="42.0778935" lon="12.0080392"><ele>423.0</ele><time>2026-04-21T11:29:28.319Z</time></trkpt><trkpt lat="42.0778529" lon="12.0081362"><ele>423.0</ele><time>2026-04-21T11:29:29.321Z</time></trkpt><trkpt lat="42.0778074" lon="12.008229"><ele>423.0</ele><time>2026-04-21T11:29:30.32Z</time></trkpt><trkpt lat="42.0777544" lon="12.0083255"><ele>423.6666666666667</ele><time>2026-04-21T11:29:31.319Z</time></trkpt><trkpt lat="42.0776932" lon="12.0084239"><ele>424.33333333333337</ele><time>2026-04-21T11:29:32.319Z</time></trkpt><trkpt lat="42.0776383" lon="12.0085116"><ele>425.0</ele><time>2026-04-21T11:29:33.319Z</time></trkpt><trkpt lat="42.0775812" lon="12.0086038"><ele>425.6666666666667</ele><time>2026-04-21T11:29:34.32Z</time></trkpt><trkpt lat="42.0775229" lon="12.0086832"><ele>426.33333333333337</ele><time>2026-04-21T11:29:35.319Z</time></trkpt><trkpt lat="42.077473" lon="12.0087636"><ele>427.0</ele><time>2026-04-21T11:29:36.32Z</time></trkpt><trkpt lat="42.0774313" lon="12.0088468"><ele>426.14285714285717</ele><time>2026-04-21T11:29:37.319Z</time></trkpt><trkpt lat="42.0773921" lon="12.0089262"><ele>425.2857142857143</ele><time>2026-04-21T11:29:38.32Z</time></trkpt><trkpt lat="42.0773508" lon="12.0090057"><ele>424.42857142857144</ele><time>2026-04-21T11:29:39.32Z</time></trkpt><trkpt lat="42.0773114" lon="12.00909"><ele>423.57142857142856</ele><time>2026-04-21T11:29:40.319Z</time></trkpt><trkpt lat="42.0772723" lon="12.0091698"><ele>422.7142857142857</ele><time>2026-04-21T11:29:41.319Z</time></trkpt><trkpt lat="42.0772339" lon="12.0092545"><ele>421.8571428571429</ele><time>2026-04-21T11:29:42.319Z</time></trkpt><trkpt lat="42.0772128" lon="12.0093463"><ele>421.0</ele><time>2026-04-21T11:29:43.319Z</time></trkpt><trkpt lat="42.0772087" lon="12.0094452"><ele>421.00000000000006</ele><time>2026-04-21T11:29:44.32Z</time></trkpt><trkpt lat="42.0772209" lon="12.0095397"><ele>421.0</ele><time>2026-04-21T11:29:45.32Z</time></trkpt><trkpt lat="42.0772494" lon="12.0096306"><ele>421.0</ele><time>2026-04-21T11:29:46.319Z</time></trkpt><trkpt lat="42.0772926" lon="12.0097208"><ele>421.0</ele><time>2026-04-21T11:29:47.319Z</time></trkpt><trkpt lat="42.0773397" lon="12.0097959"><ele>421.0</ele><time>2026-04-21T11:29:48.32Z</time></trkpt><trkpt lat="42.0773836" lon="12.0098674"><ele>421.00000000000006</ele><time>2026-04-21T11:29:49.319Z</time></trkpt><trkpt lat="42.0774225" lon="12.00994"><ele>421.0</ele><time>2026-04-21T11:29:50.319Z</time></trkpt><trkpt lat="42.0774631" lon="12.0100219"><ele>421.50000000000006</ele><time>2026-04-21T11:29:51.32Z</time></trkpt><trkpt lat="42.0774987" lon="12.0101138"><ele>422.0</ele><time>2026-04-21T11:29:52.319Z</time></trkpt><trkpt lat="42.0775359" lon="12.0102396"><ele>422.5</ele><time>2026-04-21T11:29:53.32Z</time></trkpt><trkpt lat="42.0775576" lon="12.0103537"><ele>423.0</ele><time>2026-04-21T11:29:54.319Z</time></trkpt><trkpt lat="42.0775706" lon="12.0104618"><ele>423.50000000000006</ele><time>2026-04-21T11:29:55.321Z</time></trkpt><trkpt lat="42.077565" lon="12.0105483"><ele>424.0</ele><time>2026-04-21T11:29:56.319Z</time></trkpt><trkpt lat="42.0775169" lon="12.0106867"><ele>424.00000000000006</ele><time>2026-04-21T11:29:58.319Z</time></trkpt><trkpt lat="42.0774692" lon="12.01075"><ele>424.0</ele><time>2026-04-21T11:29:59.319Z</time></trkpt><trkpt lat="42.0774131" lon="12.0108126"><ele>424.0</ele><time>2026-04-21T11:30:00.32Z</time></trkpt><trkpt lat="42.0773547" lon="12.010878"><ele>424.0</ele><time>2026-04-21T11:30:01.319Z</time></trkpt><trkpt lat="42.0772938" lon="12.0109517"><ele>424.00000000000006</ele><time>2026-04-21T11:30:02.32Z</time></trkpt><trkpt lat="42.0772362" lon="12.0110311"><ele>424.0</ele><time>2026-04-21T11:30:03.319Z</time></trkpt><trkpt lat="42.0771791" lon="12.0111163"><ele>425.83333333333337</ele><time>2026-04-21T11:30:04.32Z</time></trkpt><trkpt lat="42.0771316" lon="12.0112116"><ele>427.6666666666667</ele><time>2026-04-21T11:30:05.32Z</time></trkpt><trkpt lat="42.0770939" lon="12.0113184"><ele>429.5</ele><time>2026-04-21T11:30:06.321Z</time></trkpt><trkpt lat="42.0770664" lon="12.011438"><ele>431.33333333333337</ele><time>2026-04-21T11:30:07.319Z</time></trkpt><trkpt lat="42.077043" lon="12.0115523"><ele>433.1666666666667</ele><time>2026-04-21T11:30:08.319Z</time></trkpt><trkpt lat="42.0770152" lon="12.0116713"><ele>435.0</ele><time>2026-04-21T11:30:09.319Z</time></trkpt><trkpt lat="42.0769893" lon="12.011774"><ele>435.0</ele><time>2026-04-21T11:30:10.319Z</time></trkpt><trkpt lat="42.0769695" lon="12.0118682"><ele>435.0</ele><time>2026-04-21T11:30:11.319Z</time></trkpt><trkpt lat="42.076968" lon="12.0120394"><ele>435.0</ele><time>2026-04-21T11:30:13.319Z</time></trkpt><trkpt lat="42.0769876" lon="12.0121375"><ele>435.0</ele><time>2026-04-21T11:30:14.319Z</time></trkpt><trkpt lat="42.0770187" lon="12.0122402"><ele>435.0</ele><time>2026-04-21T11:30:15.319Z</time></trkpt><trkpt lat="42.0770487" lon="12.0123399"><ele>435.0</ele><time>2026-04-21T11:30:16.319Z</time></trkpt><trkpt lat="42.0770783" lon="12.0124521"><ele>435.0</ele><time>2026-04-21T11:30:17.32Z</time></trkpt><trkpt lat="42.0771078" lon="12.0125656"><ele>435.0</ele><time>2026-04-21T11:30:18.32Z</time></trkpt><trkpt lat="42.077134" lon="12.0126825"><ele>435.0</ele><time>2026-04-21T11:30:19.319Z</time></trkpt><trkpt lat="42.0771508" lon="12.012791"><ele>435.0</ele><time>2026-04-21T11:30:20.319Z</time></trkpt><trkpt lat="42.0771615" lon="12.0128946"><ele>435.0</ele><time>2026-04-21T11:30:21.32Z</time></trkpt><trkpt lat="42.0771648" lon="12.0129899"><ele>435.0</ele><time>2026-04-21T11:30:22.319Z</time></trkpt><trkpt lat="42.0771596" lon="12.0130766"><ele>435.0</ele><time>2026-04-21T11:30:23.32Z</time></trkpt><trkpt lat="42.0771371" lon="12.0131867"><ele>435.0</ele><time>2026-04-21T11:30:25.319Z</time></trkpt><trkpt lat="42.0771434" lon="12.0133425"><ele>435.0</ele><time>2026-04-21T11:37:47.317Z</time></trkpt><trkpt lat="42.0771452" lon="12.013434"><ele>435.0</ele><time>2026-04-21T11:37:49.317Z</time></trkpt><trkpt lat="42.0771423" lon="12.0135524"><ele>435.0</ele><time>2026-04-21T11:37:52.317Z</time></trkpt><trkpt lat="42.0771338" lon="12.0136396"><ele>435.0</ele><time>2026-04-21T11:40:41.317Z</time></trkpt><trkpt lat="42.0771314" lon="12.0137333"><ele>435.1666666666667</ele><time>2026-04-21T11:40:44.318Z</time></trkpt><trkpt lat="42.0771257" lon="12.0138321"><ele>435.33333333333337</ele><time>2026-04-21T11:40:48.317Z</time></trkpt><trkpt lat="42.0771219" lon="12.0139799"><ele>435.5</ele><time>2026-04-21T11:40:51.318Z</time></trkpt><trkpt lat="42.0771226" lon="12.014098"><ele>435.6666666666667</ele><time>2026-04-21T11:40:53.317Z</time></trkpt><trkpt lat="42.0771543" lon="12.0141885"><ele>435.83333333333337</ele><time>2026-04-21T11:42:15.476Z</time></trkpt><trkpt lat="42.0771963" lon="12.0142657"><ele>436.0</ele><time>2026-04-21T11:42:17.491Z</time></trkpt><trkpt lat="42.0772657" lon="12.0143732"><ele>434.4</ele><time>2026-04-21T11:42:19.505Z</time></trkpt><trkpt lat="42.077322" lon="12.0144908"><ele>432.8</ele><time>2026-04-21T11:42:21.48Z</time></trkpt><trkpt lat="42.077386" lon="12.0146118"><ele>431.19999999999993</ele><time>2026-04-21T11:42:23.48Z</time></trkpt><trkpt lat="42.077472" lon="12.0147217"><ele>429.59999999999997</ele><time>2026-04-21T11:42:25.487Z</time></trkpt><trkpt lat="42.077515" lon="12.0147847"><ele>428.0</ele><time>2026-04-21T11:42:26.486Z</time></trkpt><trkpt lat="42.077556" lon="12.0148518"><ele>428.4</ele><time>2026-04-21T11:42:27.485Z</time></trkpt><trkpt lat="42.0775955" lon="12.0149188"><ele>428.79999999999995</ele><time>2026-04-21T11:42:28.479Z</time></trkpt><trkpt lat="42.0776665" lon="12.0150322"><ele>429.2</ele><time>2026-04-21T11:42:30.484Z</time></trkpt><trkpt lat="42.0777012" lon="12.0151482"><ele>429.6</ele><time>2026-04-21T11:42:32.478Z</time></trkpt><trkpt lat="42.0777075" lon="12.0152862"><ele>430.0</ele><time>2026-04-21T11:42:34.492Z</time></trkpt><trkpt lat="42.0777212" lon="12.015438"><ele>430.0</ele><time>2026-04-21T11:42:36.493Z</time></trkpt><trkpt lat="42.0777587" lon="12.015576"><ele>430.0</ele><time>2026-04-21T11:42:38.495Z</time></trkpt><trkpt lat="42.077833" lon="12.0156863"><ele>430.0</ele><time>2026-04-21T11:42:40.488Z</time></trkpt><trkpt lat="42.0779395" lon="12.0157672"><ele>430.0</ele><time>2026-04-21T11:42:42.486Z</time></trkpt><trkpt lat="42.0780475" lon="12.0158127"><ele>429.25</ele><time>2026-04-21T11:42:44.486Z</time></trkpt><trkpt lat="42.078161" lon="12.0158615"><ele>428.5</ele><time>2026-04-21T11:42:46.486Z</time></trkpt><trkpt lat="42.0782685" lon="12.0159242"><ele>427.75</ele><time>2026-04-21T11:42:48.492Z</time></trkpt><trkpt lat="42.078366" lon="12.0159802"><ele>427.0</ele><time>2026-04-21T11:42:50.481Z</time></trkpt><trkpt lat="42.0784752" lon="12.0160167"><ele>427.0</ele><time>2026-04-21T11:42:52.505Z</time></trkpt><trkpt lat="42.0785873" lon="12.0160443"><ele>427.00000000000006</ele><time>2026-04-21T11:42:54.48Z</time></trkpt><trkpt lat="42.0787007" lon="12.0160413"><ele>427.00000000000006</ele><time>2026-04-21T11:42:56.482Z</time></trkpt><trkpt lat="42.0788108" lon="12.016051"><ele>427.0</ele><time>2026-04-21T11:42:58.491Z</time></trkpt><trkpt lat="42.0788918" lon="12.0161152"><ele>427.0</ele><time>2026-04-21T11:43:00.485Z</time></trkpt><trkpt lat="42.0789347" lon="12.0162155"><ele>427.00000000000006</ele><time>2026-04-21T11:43:02.478Z</time></trkpt><trkpt lat="42.0789783" lon="12.0163223"><ele>427.0</ele><time>2026-04-21T11:43:04.484Z</time></trkpt><trkpt lat="42.0790175" lon="12.0164398"><ele>427.0</ele><time>2026-04-21T11:43:06.48Z</time></trkpt><trkpt lat="42.0790547" lon="12.0165608"><ele>427.0</ele><time>2026-04-21T11:43:08.473Z</time></trkpt><trkpt lat="42.0791042" lon="12.016655"><ele>427.00000000000006</ele><time>2026-04-21T11:43:10.482Z</time></trkpt><trkpt lat="42.079166" lon="12.0167093"><ele>427.0</ele><time>2026-04-21T11:43:12.478Z</time></trkpt><trkpt lat="42.0792285" lon="12.016732"><ele>427.0</ele><time>2026-04-21T11:43:14.475Z</time></trkpt><trkpt lat="42.0792957" lon="12.0167402"><ele>427.00000000000006</ele><time>2026-04-21T11:43:16.494Z</time></trkpt><trkpt lat="42.0793727" lon="12.0167462"><ele>427.00000000000006</ele><time>2026-04-21T11:43:18.481Z</time></trkpt><trkpt lat="42.0794818" lon="12.0167438"><ele>427.0</ele><time>2026-04-21T11:43:20.482Z</time></trkpt><trkpt lat="42.0795982" lon="12.0167227"><ele>427.0</ele><time>2026-04-21T11:43:22.475Z</time></trkpt><trkpt lat="42.079715" lon="12.016707"><ele>427.00000000000006</ele><time>2026-04-21T11:43:24.476Z</time></trkpt><trkpt lat="42.0798352" lon="12.0167027"><ele>427.0</ele><time>2026-04-21T11:43:26.468Z</time></trkpt><trkpt lat="42.0799628" lon="12.016689"><ele>427.0</ele><time>2026-04-21T11:43:28.481Z</time></trkpt><trkpt lat="42.0800273" lon="12.0166813"><ele>427.0</ele><time>2026-04-21T11:43:29.479Z</time></trkpt><trkpt lat="42.080094" lon="12.016674"><ele>427.00000000000006</ele><time>2026-04-21T11:43:30.469Z</time></trkpt><trkpt lat="42.0801623" lon="12.0166685"><ele>427.0</ele><time>2026-04-21T11:43:31.484Z</time></trkpt><trkpt lat="42.0802283" lon="12.016665"><ele>425.50000000000006</ele><time>2026-04-21T11:43:32.477Z</time></trkpt><trkpt lat="42.0802942" lon="12.0166647"><ele>424.0</ele><time>2026-04-21T11:43:33.47Z</time></trkpt><trkpt lat="42.0803593" lon="12.0166665"><ele>422.5</ele><time>2026-04-21T11:43:34.473Z</time></trkpt><trkpt lat="42.0804225" lon="12.0166643"><ele>421.0</ele><time>2026-04-21T11:43:35.475Z</time></trkpt><trkpt lat="42.0805453" lon="12.0166665"><ele>419.50000000000006</ele><time>2026-04-21T11:43:37.469Z</time></trkpt><trkpt lat="42.0806593" lon="12.0166988"><ele>418.0</ele><time>2026-04-21T11:43:39.467Z</time></trkpt><trkpt lat="42.0807733" lon="12.0167518"><ele>416.59999999999997</ele><time>2026-04-21T11:43:41.473Z</time></trkpt><trkpt lat="42.0808335" lon="12.0167887"><ele>415.2</ele><time>2026-04-21T11:43:42.474Z</time></trkpt><trkpt lat="42.080895" lon="12.0168207"><ele>413.8</ele><time>2026-04-21T11:43:43.468Z</time></trkpt><trkpt lat="42.0810142" lon="12.0168647"><ele>412.4</ele><time>2026-04-21T11:43:45.478Z</time></trkpt><trkpt lat="42.081128" lon="12.0168962"><ele>411.0</ele><time>2026-04-21T11:43:47.479Z</time></trkpt><trkpt lat="42.0812323" lon="12.016902"><ele>411.0</ele><time>2026-04-21T11:43:49.469Z</time></trkpt><trkpt lat="42.0813272" lon="12.0168678"><ele>411.0</ele><time>2026-04-21T11:43:51.469Z</time></trkpt><trkpt lat="42.0814272" lon="12.016823"><ele>411.0</ele><time>2026-04-21T11:43:53.475Z</time></trkpt><trkpt lat="42.0815008" lon="12.0168283"><ele>411.0</ele><time>2026-04-21T11:43:55.477Z</time></trkpt><trkpt lat="42.0815907" lon="12.0168915"><ele>411.0</ele><time>2026-04-21T11:43:58.487Z</time></trkpt><trkpt lat="42.0816673" lon="12.0169797"><ele>409.20000000000005</ele><time>2026-04-21T11:44:00.488Z</time></trkpt><trkpt lat="42.0817378" lon="12.0170927"><ele>407.40000000000003</ele><time>2026-04-21T11:44:02.489Z</time></trkpt><trkpt lat="42.0817955" lon="12.0171913"><ele>405.6</ele><time>2026-04-21T11:44:04.481Z</time></trkpt><trkpt lat="42.0818797" lon="12.0172523"><ele>403.8</ele><time>2026-04-21T11:44:06.485Z</time></trkpt><trkpt lat="42.0819667" lon="12.017306"><ele>402.0</ele><time>2026-04-21T11:44:08.488Z</time></trkpt><trkpt lat="42.0820655" lon="12.0173668"><ele>402.0</ele><time>2026-04-21T11:44:10.493Z</time></trkpt><trkpt lat="42.0821717" lon="12.0174223"><ele>402.0</ele><time>2026-04-21T11:44:12.483Z</time></trkpt><trkpt lat="42.0822615" lon="12.0174782"><ele>402.0</ele><time>2026-04-21T11:44:14.486Z</time></trkpt><trkpt lat="42.0823547" lon="12.0175333"><ele>402.0</ele><time>2026-04-21T11:44:16.483Z</time></trkpt><trkpt lat="42.0824532" lon="12.0175822"><ele>402.0</ele><time>2026-04-21T11:44:18.497Z</time></trkpt><trkpt lat="42.0825483" lon="12.0176312"><ele>401.40000000000003</ele><time>2026-04-21T11:44:20.485Z</time></trkpt><trkpt lat="42.0826422" lon="12.0176752"><ele>400.8</ele><time>2026-04-21T11:44:22.484Z</time></trkpt><trkpt lat="42.0827397" lon="12.0177222"><ele>400.2</ele><time>2026-04-21T11:44:24.485Z</time></trkpt><trkpt lat="42.0828235" lon="12.017777"><ele>399.6</ele><time>2026-04-21T11:44:26.485Z</time></trkpt><trkpt lat="42.0828953" lon="12.0178405"><ele>399.0</ele><time>2026-04-21T11:44:28.477Z</time></trkpt><trkpt lat="42.0829777" lon="12.0179053"><ele>399.0</ele><time>2026-04-21T11:44:30.483Z</time></trkpt><trkpt lat="42.0830615" lon="12.0179783"><ele>399.0</ele><time>2026-04-21T11:44:32.477Z</time></trkpt><trkpt lat="42.0831272" lon="12.0180733"><ele>399.0</ele><time>2026-04-21T11:44:34.481Z</time></trkpt><trkpt lat="42.0831902" lon="12.0181597"><ele>399.0</ele><time>2026-04-21T11:44:36.484Z</time></trkpt><trkpt lat="42.0832362" lon="12.018269"><ele>399.0</ele><time>2026-04-21T11:44:38.488Z</time></trkpt><trkpt lat="42.0832452" lon="12.0183743"><ele>400.4</ele><time>2026-04-21T11:44:40.495Z</time></trkpt><trkpt lat="42.0832142" lon="12.0184838"><ele>401.79999999999995</ele><time>2026-04-21T11:44:42.496Z</time></trkpt><trkpt lat="42.0831658" lon="12.0186032"><ele>403.20000000000005</ele><time>2026-04-21T11:44:44.493Z</time></trkpt><trkpt lat="42.0831143" lon="12.0187257"><ele>404.6</ele><time>2026-04-21T11:44:46.489Z</time></trkpt><trkpt lat="42.083065" lon="12.0188402"><ele>406.0</ele><time>2026-04-21T11:44:48.486Z</time></trkpt><trkpt lat="42.0830185" lon="12.0189455"><ele>406.00000000000006</ele><time>2026-04-21T11:44:50.487Z</time></trkpt><trkpt lat="42.0829707" lon="12.0190552"><ele>406.0</ele><time>2026-04-21T11:44:52.493Z</time></trkpt><trkpt lat="42.0829458" lon="12.0191738"><ele>406.0</ele><time>2026-04-21T11:44:54.48Z</time></trkpt><trkpt lat="42.0829508" lon="12.0192955"><ele>406.0</ele><time>2026-04-21T11:44:56.479Z</time></trkpt><trkpt lat="42.0829705" lon="12.0193983"><ele>406.00000000000006</ele><time>2026-04-21T11:44:58.48Z</time></trkpt><trkpt lat="42.083008" lon="12.0194908"><ele>406.0</ele><time>2026-04-21T11:45:00.483Z</time></trkpt><trkpt lat="42.0830327" lon="12.0195887"><ele>405.33333333333337</ele><time>2026-04-21T11:45:02.476Z</time></trkpt><trkpt lat="42.0830212" lon="12.0196875"><ele>404.6666666666667</ele><time>2026-04-21T11:45:04.485Z</time></trkpt><trkpt lat="42.0829733" lon="12.0197887"><ele>404.0</ele><time>2026-04-21T11:45:06.487Z</time></trkpt><trkpt lat="42.0829155" lon="12.019886"><ele>403.33333333333337</ele><time>2026-04-21T11:45:08.481Z</time></trkpt><trkpt lat="42.082866" lon="12.0199772"><ele>402.6666666666667</ele><time>2026-04-21T11:45:10.479Z</time></trkpt><trkpt lat="42.0828185" lon="12.0200658"><ele>402.0</ele><time>2026-04-21T11:45:12.476Z</time></trkpt><trkpt lat="42.0827485" lon="12.0201522"><ele>400.40000000000003</ele><time>2026-04-21T11:45:14.479Z</time></trkpt><trkpt lat="42.0826772" lon="12.0202423"><ele>398.8</ele><time>2026-04-21T11:45:16.478Z</time></trkpt><trkpt lat="42.0826062" lon="12.0203418"><ele>397.2</ele><time>2026-04-21T11:45:18.487Z</time></trkpt><trkpt lat="42.082538" lon="12.020431"><ele>395.6</ele><time>2026-04-21T11:45:20.478Z</time></trkpt><trkpt lat="42.0824737" lon="12.0205138"><ele>394.0</ele><time>2026-04-21T11:45:22.471Z</time></trkpt><trkpt lat="42.0824022" lon="12.020593"><ele>394.2</ele><time>2026-04-21T11:45:24.471Z</time></trkpt><trkpt lat="42.082314" lon="12.0206462"><ele>394.4</ele><time>2026-04-21T11:45:26.469Z</time></trkpt><trkpt lat="42.082214" lon="12.020691"><ele>394.6</ele><time>2026-04-21T11:45:28.476Z</time></trkpt><trkpt lat="42.082113" lon="12.0207432"><ele>394.8</ele><time>2026-04-21T11:45:30.476Z</time></trkpt><trkpt lat="42.0820267" lon="12.0208043"><ele>395.0</ele><time>2026-04-21T11:45:32.482Z</time></trkpt><trkpt lat="42.0819578" lon="12.020872"><ele>395.0</ele><time>2026-04-21T11:45:34.513Z</time></trkpt><trkpt lat="42.0818867" lon="12.0209665"><ele>395.0</ele><time>2026-04-21T11:45:36.485Z</time></trkpt><trkpt lat="42.0818205" lon="12.0210663"><ele>395.0</ele><time>2026-04-21T11:45:38.485Z</time></trkpt><trkpt lat="42.0817623" lon="12.021166"><ele>395.0</ele><time>2026-04-21T11:45:40.483Z</time></trkpt><trkpt lat="42.0817212" lon="12.0212467"><ele>395.0</ele><time>2026-04-21T11:45:42.484Z</time></trkpt><trkpt lat="42.0816757" lon="12.0213448"><ele>394.99999999999994</ele><time>2026-04-21T11:45:44.479Z</time></trkpt><trkpt lat="42.0816338" lon="12.0214507"><ele>395.0</ele><time>2026-04-21T11:45:46.483Z</time></trkpt><trkpt lat="42.0816102" lon="12.0215443"><ele>395.0</ele><time>2026-04-21T11:45:48.491Z</time></trkpt><trkpt lat="42.0816038" lon="12.0216418"><ele>395.0</ele><time>2026-04-21T11:45:50.487Z</time></trkpt><trkpt lat="42.0816208" lon="12.0217558"><ele>394.99999999999994</ele><time>2026-04-21T11:45:52.487Z</time></trkpt><trkpt lat="42.0816685" lon="12.0218673"><ele>395.0</ele><time>2026-04-21T11:45:54.491Z</time></trkpt><trkpt lat="42.0817265" lon="12.0219772"><ele>392.8</ele><time>2026-04-21T11:45:56.486Z</time></trkpt><trkpt lat="42.0817703" lon="12.0220927"><ele>390.6</ele><time>2026-04-21T11:45:58.482Z</time></trkpt><trkpt lat="42.0817775" lon="12.022222"><ele>388.4</ele><time>2026-04-21T11:46:00.478Z</time></trkpt><trkpt lat="42.0817672" lon="12.0223668"><ele>386.2</ele><time>2026-04-21T11:46:02.476Z</time></trkpt><trkpt lat="42.08177" lon="12.0225238"><ele>384.0</ele><time>2026-04-21T11:46:04.484Z</time></trkpt><trkpt lat="42.0817533" lon="12.0226762"><ele>383.0</ele><time>2026-04-21T11:46:06.484Z</time></trkpt><trkpt lat="42.0817027" lon="12.0228137"><ele>382.0</ele><time>2026-04-21T11:46:08.477Z</time></trkpt><trkpt lat="42.0816535" lon="12.0229387"><ele>381.0</ele><time>2026-04-21T11:46:10.478Z</time></trkpt><trkpt lat="42.0816353" lon="12.0230535"><ele>380.0</ele><time>2026-04-21T11:46:12.479Z</time></trkpt><trkpt lat="42.0816603" lon="12.0231715"><ele>379.0</ele><time>2026-04-21T11:46:14.495Z</time></trkpt><trkpt lat="42.08171" lon="12.023295"><ele>378.4</ele><time>2026-04-21T11:46:16.476Z</time></trkpt><trkpt lat="42.0817357" lon="12.0234315"><ele>377.79999999999995</ele><time>2026-04-21T11:46:18.473Z</time></trkpt><trkpt lat="42.0817443" lon="12.0235717"><ele>377.20000000000005</ele><time>2026-04-21T11:46:20.472Z</time></trkpt><trkpt lat="42.0817618" lon="12.0237163"><ele>376.6</ele><time>2026-04-21T11:46:22.48Z</time></trkpt><trkpt lat="42.081784" lon="12.0238622"><ele>376.0</ele><time>2026-04-21T11:46:24.486Z</time></trkpt><trkpt lat="42.0817878" lon="12.0239848"><ele>376.0</ele><time>2026-04-21T11:46:26.476Z</time></trkpt><trkpt lat="42.0817853" lon="12.0240842"><ele>376.0</ele><time>2026-04-21T11:46:28.471Z</time></trkpt><trkpt lat="42.0817917" lon="12.0241857"><ele>376.0</ele><time>2026-04-21T11:46:30.477Z</time></trkpt><trkpt lat="42.0817937" lon="12.0243043"><ele>376.0</ele><time>2026-04-21T11:46:32.478Z</time></trkpt><trkpt lat="42.0818137" lon="12.0244235"><ele>376.0</ele><time>2026-04-21T11:46:34.482Z</time></trkpt><trkpt lat="42.0818647" lon="12.0245178"><ele>376.0</ele><time>2026-04-21T11:46:36.473Z</time></trkpt><trkpt lat="42.0819315" lon="12.0245842"><ele>375.66666666666663</ele><time>2026-04-21T11:46:38.474Z</time></trkpt><trkpt lat="42.0820032" lon="12.0246288"><ele>375.3333333333333</ele><time>2026-04-21T11:46:40.47Z</time></trkpt><trkpt lat="42.082067" lon="12.0246988"><ele>375.0</ele><time>2026-04-21T11:46:42.483Z</time></trkpt><trkpt lat="42.0821083" lon="12.0247925"><ele>374.6666666666667</ele><time>2026-04-21T11:46:44.472Z</time></trkpt><trkpt lat="42.082138" lon="12.0248927"><ele>374.33333333333337</ele><time>2026-04-21T11:46:46.481Z</time></trkpt><trkpt lat="42.0821557" lon="12.0249883"><ele>374.0</ele><time>2026-04-21T11:46:48.481Z</time></trkpt><trkpt lat="42.082164" lon="12.0250838"><ele>373.83333333333337</ele><time>2026-04-21T11:46:50.489Z</time></trkpt><trkpt lat="42.0821475" lon="12.0252082"><ele>373.6666666666667</ele><time>2026-04-21T11:46:53.474Z</time></trkpt><trkpt lat="42.0821197" lon="12.0252898"><ele>373.5</ele><time>2026-04-21T11:46:55.471Z</time></trkpt><trkpt lat="42.0821023" lon="12.0253937"><ele>373.3333333333333</ele><time>2026-04-21T11:46:57.473Z</time></trkpt><trkpt lat="42.0820965" lon="12.0255053"><ele>373.16666666666663</ele><time>2026-04-21T11:46:59.472Z</time></trkpt><trkpt lat="42.0820912" lon="12.0256165"><ele>373.0</ele><time>2026-04-21T11:47:01.492Z</time></trkpt><trkpt lat="42.0820878" lon="12.0257257"><ele>373.0</ele><time>2026-04-21T11:47:03.484Z</time></trkpt><trkpt lat="42.0821125" lon="12.025811"><ele>373.0</ele><time>2026-04-21T11:47:05.472Z</time></trkpt><trkpt lat="42.0821873" lon="12.0258653"><ele>373.0</ele><time>2026-04-21T11:47:08.476Z</time></trkpt><trkpt lat="42.0822527" lon="12.0258848"><ele>373.0</ele><time>2026-04-21T11:47:23.485Z</time></trkpt><trkpt lat="42.0823302" lon="12.0258975"><ele>373.0</ele><time>2026-04-21T11:47:25.495Z</time></trkpt><trkpt lat="42.0823863" lon="12.025936"><ele>373.0</ele><time>2026-04-21T11:47:27.481Z</time></trkpt><trkpt lat="42.0824348" lon="12.0260102"><ele>373.0</ele><time>2026-04-21T11:47:30.48Z</time></trkpt><trkpt lat="42.0824583" lon="12.026123"><ele>372.14285714285717</ele><time>2026-04-21T11:47:33.48Z</time></trkpt><trkpt lat="42.0824612" lon="12.02622"><ele>371.28571428571433</ele><time>2026-04-21T11:47:35.471Z</time></trkpt><trkpt lat="42.0824472" lon="12.0263152"><ele>370.42857142857144</ele><time>2026-04-21T11:47:37.475Z</time></trkpt><trkpt lat="42.0824312" lon="12.0264065"><ele>369.57142857142856</ele><time>2026-04-21T11:47:39.48Z</time></trkpt><trkpt lat="42.0824095" lon="12.0265058"><ele>368.7142857142857</ele><time>2026-04-21T11:47:41.477Z</time></trkpt><trkpt lat="42.0823882" lon="12.0266065"><ele>367.85714285714283</ele><time>2026-04-21T11:47:43.486Z</time></trkpt><trkpt lat="42.0823845" lon="12.0267078"><ele>367.0</ele><time>2026-04-21T11:47:45.479Z</time></trkpt><trkpt lat="42.0824012" lon="12.026824"><ele>365.40000000000003</ele><time>2026-04-21T11:47:47.486Z</time></trkpt><trkpt lat="42.0824303" lon="12.0269498"><ele>363.8</ele><time>2026-04-21T11:47:49.486Z</time></trkpt><trkpt lat="42.0824735" lon="12.0270787"><ele>362.2</ele><time>2026-04-21T11:47:51.473Z</time></trkpt><trkpt lat="42.0825195" lon="12.0272052"><ele>360.6</ele><time>2026-04-21T11:47:53.481Z</time></trkpt><trkpt lat="42.0825793" lon="12.027318"><ele>359.0</ele><time>2026-04-21T11:47:55.489Z</time></trkpt><trkpt lat="42.0826543" lon="12.0274078"><ele>357.5</ele><time>2026-04-21T11:47:57.487Z</time></trkpt><trkpt lat="42.08273" lon="12.0274642"><ele>356.0</ele><time>2026-04-21T11:47:59.491Z</time></trkpt><trkpt lat="42.0827937" lon="12.0275047"><ele>354.5</ele><time>2026-04-21T11:48:01.479Z</time></trkpt><trkpt lat="42.082867" lon="12.0275243"><ele>353.0</ele><time>2026-04-21T11:48:03.49Z</time></trkpt><trkpt lat="42.0829527" lon="12.0275188"><ele>351.5</ele><time>2026-04-21T11:48:05.519Z</time></trkpt><trkpt lat="42.083033" lon="12.0274983"><ele>350.0</ele><time>2026-04-21T11:48:07.486Z</time></trkpt><trkpt lat="42.0831038" lon="12.0274893"><ele>349.0</ele><time>2026-04-21T11:48:09.489Z</time></trkpt><trkpt lat="42.083164" lon="12.0275178"><ele>348.0</ele><time>2026-04-21T11:48:11.486Z</time></trkpt><trkpt lat="42.0832003" lon="12.0276057"><ele>347.0</ele><time>2026-04-21T11:48:13.486Z</time></trkpt><trkpt lat="42.083205" lon="12.0277347"><ele>346.0</ele><time>2026-04-21T11:48:15.483Z</time></trkpt><trkpt lat="42.0831833" lon="12.02787"><ele>345.0</ele><time>2026-04-21T11:48:17.492Z</time></trkpt><trkpt lat="42.083149" lon="12.0279758"><ele>344.0</ele><time>2026-04-21T11:48:19.481Z</time></trkpt><trkpt lat="42.0831362" lon="12.0280707"><ele>344.0</ele><time>2026-04-21T11:48:26.478Z</time></trkpt><trkpt lat="42.0831477" lon="12.0281562"><ele>344.0</ele><time>2026-04-21T11:48:28.491Z</time></trkpt><trkpt lat="42.0831908" lon="12.0282538"><ele>344.0</ele><time>2026-04-21T11:48:31.484Z</time></trkpt><trkpt lat="42.083241" lon="12.0283642"><ele>344.0</ele><time>2026-04-21T11:48:34.483Z</time></trkpt><trkpt lat="42.0832772" lon="12.0284555"><ele>344.0</ele><time>2026-04-21T11:48:36.485Z</time></trkpt><trkpt lat="42.0832738" lon="12.0285468"><ele>344.0</ele><time>2026-04-21T11:48:38.485Z</time></trkpt><trkpt lat="42.0832077" lon="12.028619"><ele>342.8571428571429</ele><time>2026-04-21T11:48:41.482Z</time></trkpt><trkpt lat="42.0831338" lon="12.0286342"><ele>341.7142857142857</ele><time>2026-04-21T11:48:44.489Z</time></trkpt><trkpt lat="42.0830688" lon="12.0286145"><ele>340.57142857142856</ele><time>2026-04-21T11:49:26.317Z</time></trkpt><trkpt lat="42.0830086" lon="12.0286537"><ele>339.42857142857144</ele><time>2026-04-21T11:49:40.317Z</time></trkpt><trkpt lat="42.0829786" lon="12.0287344"><ele>338.2857142857143</ele><time>2026-04-21T11:50:51.316Z</time></trkpt><trkpt lat="42.0830072" lon="12.0288176"><ele>337.14285714285717</ele><time>2026-04-21T11:51:13.316Z</time></trkpt><trkpt lat="42.0830647" lon="12.0288531"><ele>336.0</ele><time>2026-04-21T11:51:17.316Z</time></trkpt><trkpt lat="42.0830019" lon="12.0288352"><ele>336.0</ele><time>2026-04-21T11:55:44.317Z</time></trkpt><trkpt lat="42.0829698" lon="12.0287325"><ele>336.0</ele><time>2026-04-21T11:55:49.316Z</time></trkpt><trkpt lat="42.082996" lon="12.0286481"><ele>336.0</ele><time>2026-04-21T11:56:02.317Z</time></trkpt><trkpt lat="42.0830692" lon="12.0286255"><ele>336.0</ele><time>2026-04-21T11:57:31.316Z</time></trkpt><trkpt lat="42.0831343" lon="12.0286063"><ele>336.0</ele><time>2026-04-21T11:57:35.315Z</time></trkpt><trkpt lat="42.0832093" lon="12.0286016"><ele>336.0</ele><time>2026-04-21T11:57:38.315Z</time></trkpt><trkpt lat="42.0832751" lon="12.0285546"><ele>336.0</ele><time>2026-04-21T11:57:41.315Z</time></trkpt><trkpt lat="42.0832741" lon="12.0284499"><ele>336.0</ele><time>2026-04-21T11:57:47.316Z</time></trkpt><trkpt lat="42.0832338" lon="12.0283753"><ele>336.0</ele><time>2026-04-21T11:57:49.315Z</time></trkpt><trkpt lat="42.083188" lon="12.0282914"><ele>336.0</ele><time>2026-04-21T11:57:51.317Z</time></trkpt><trkpt lat="42.0831638" lon="12.02818"><ele>336.0</ele><time>2026-04-21T11:57:53.315Z</time></trkpt><trkpt lat="42.0831488" lon="12.0280964"><ele>336.0</ele><time>2026-04-21T11:57:55.315Z</time></trkpt><trkpt lat="42.0831508" lon="12.0280101"><ele>336.0</ele><time>2026-04-21T11:59:33.316Z</time></trkpt><trkpt lat="42.0831675" lon="12.0279042"><ele>336.0</ele><time>2026-04-21T11:59:35.315Z</time></trkpt><trkpt lat="42.0832029" lon="12.0277909"><ele>337.3333333333333</ele><time>2026-04-21T11:59:37.316Z</time></trkpt><trkpt lat="42.0832228" lon="12.0276888"><ele>338.6666666666667</ele><time>2026-04-21T11:59:39.315Z</time></trkpt><trkpt lat="42.083205" lon="12.0275896"><ele>340.0</ele><time>2026-04-21T11:59:41.316Z</time></trkpt><trkpt lat="42.0831697" lon="12.0275184"><ele>341.33333333333337</ele><time>2026-04-21T11:59:43.315Z</time></trkpt><trkpt lat="42.0830844" lon="12.0274668"><ele>342.6666666666667</ele><time>2026-04-21T11:59:46.314Z</time></trkpt><trkpt lat="42.0830136" lon="12.0274948"><ele>344.0</ele><time>2026-04-21T11:59:48.314Z</time></trkpt><trkpt lat="42.0829266" lon="12.027517"><ele>344.0</ele><time>2026-04-21T11:59:50.315Z</time></trkpt><trkpt lat="42.0828496" lon="12.0275084"><ele>344.0</ele><time>2026-04-21T11:59:52.315Z</time></trkpt><trkpt lat="42.0827777" lon="12.0274879"><ele>344.0</ele><time>2026-04-21T11:59:54.314Z</time></trkpt><trkpt lat="42.0827184" lon="12.0274491"><ele>344.0</ele><time>2026-04-21T11:59:56.315Z</time></trkpt><trkpt lat="42.0826529" lon="12.0273921"><ele>344.0</ele><time>2026-04-21T12:00:22.314Z</time></trkpt><trkpt lat="42.0825802" lon="12.027312"><ele>344.0</ele><time>2026-04-21T12:00:24.314Z</time></trkpt><trkpt lat="42.0825228" lon="12.0272077"><ele>345.2</ele><time>2026-04-21T12:00:26.314Z</time></trkpt><trkpt lat="42.0824832" lon="12.0270841"><ele>346.4</ele><time>2026-04-21T12:00:28.314Z</time></trkpt><trkpt lat="42.0824451" lon="12.0269676"><ele>347.6</ele><time>2026-04-21T12:00:30.315Z</time></trkpt><trkpt lat="42.082421" lon="12.0268534"><ele>348.8</ele><time>2026-04-21T12:00:32.315Z</time></trkpt><trkpt lat="42.0824033" lon="12.0267267"><ele>350.0</ele><time>2026-04-21T12:00:34.314Z</time></trkpt><trkpt lat="42.0824001" lon="12.026596"><ele>351.1666666666667</ele><time>2026-04-21T12:00:36.315Z</time></trkpt><trkpt lat="42.0824299" lon="12.0264725"><ele>352.33333333333337</ele><time>2026-04-21T12:00:38.314Z</time></trkpt><trkpt lat="42.082451" lon="12.0263514"><ele>353.5</ele><time>2026-04-21T12:00:40.314Z</time></trkpt><trkpt lat="42.0824596" lon="12.0262448"><ele>354.6666666666667</ele><time>2026-04-21T12:00:42.314Z</time></trkpt><trkpt lat="42.0824661" lon="12.0261359"><ele>355.8333333333333</ele><time>2026-04-21T12:00:44.314Z</time></trkpt><trkpt lat="42.0824465" lon="12.0260386"><ele>357.0</ele><time>2026-04-21T12:00:46.314Z</time></trkpt><trkpt lat="42.0824008" lon="12.0259534"><ele>358.6666666666667</ele><time>2026-04-21T12:00:48.315Z</time></trkpt><trkpt lat="42.0823205" lon="12.0258937"><ele>360.3333333333333</ele><time>2026-04-21T12:00:50.314Z</time></trkpt><trkpt lat="42.0822321" lon="12.0258624"><ele>362.0</ele><time>2026-04-21T12:00:52.314Z</time></trkpt><trkpt lat="42.0821565" lon="12.0258246"><ele>363.66666666666663</ele><time>2026-04-21T12:00:54.314Z</time></trkpt><trkpt lat="42.0821068" lon="12.0257561"><ele>365.3333333333333</ele><time>2026-04-21T12:00:56.314Z</time></trkpt><trkpt lat="42.082099" lon="12.0256655"><ele>367.0</ele><time>2026-04-21T12:00:58.316Z</time></trkpt><trkpt lat="42.0821103" lon="12.025559"><ele>368.0</ele><time>2026-04-21T12:01:00.315Z</time></trkpt><trkpt lat="42.0821115" lon="12.0254466"><ele>369.0</ele><time>2026-04-21T12:01:02.314Z</time></trkpt><trkpt lat="42.0821197" lon="12.0253063"><ele>370.0</ele><time>2026-04-21T12:01:04.315Z</time></trkpt><trkpt lat="42.0821576" lon="12.0252083"><ele>371.0</ele><time>2026-04-21T12:01:06.315Z</time></trkpt><trkpt lat="42.0821699" lon="12.0251202"><ele>372.0</ele><time>2026-04-21T12:01:08.314Z</time></trkpt><trkpt lat="42.0821624" lon="12.0249943"><ele>373.0</ele><time>2026-04-21T12:01:10.315Z</time></trkpt><trkpt lat="42.0821323" lon="12.024854"><ele>373.2</ele><time>2026-04-21T12:01:12.315Z</time></trkpt><trkpt lat="42.0820919" lon="12.0247305"><ele>373.4</ele><time>2026-04-21T12:01:14.315Z</time></trkpt><trkpt lat="42.0820322" lon="12.0246448"><ele>373.59999999999997</ele><time>2026-04-21T12:01:16.315Z</time></trkpt><trkpt lat="42.0819649" lon="12.0245781"><ele>373.79999999999995</ele><time>2026-04-21T12:01:18.315Z</time></trkpt><trkpt lat="42.0818919" lon="12.0245076"><ele>374.0</ele><time>2026-04-21T12:01:20.314Z</time></trkpt><trkpt lat="42.0818292" lon="12.0244204"><ele>374.0</ele><time>2026-04-21T12:01:22.315Z</time></trkpt><trkpt lat="42.0818054" lon="12.0243134"><ele>374.0</ele><time>2026-04-21T12:01:24.314Z</time></trkpt><trkpt lat="42.0818059" lon="12.0241865"><ele>374.0</ele><time>2026-04-21T12:01:26.314Z</time></trkpt><trkpt lat="42.0817989" lon="12.0240523"><ele>374.0</ele><time>2026-04-21T12:01:28.315Z</time></trkpt><trkpt lat="42.0817957" lon="12.0239397"><ele>374.0</ele><time>2026-04-21T12:01:30.315Z</time></trkpt><trkpt lat="42.0817892" lon="12.0238217"><ele>374.0</ele><time>2026-04-21T12:01:32.314Z</time></trkpt><trkpt lat="42.0817703" lon="12.0237054"><ele>374.4</ele><time>2026-04-21T12:01:34.315Z</time></trkpt><trkpt lat="42.0817549" lon="12.0235868"><ele>374.79999999999995</ele><time>2026-04-21T12:01:36.314Z</time></trkpt><trkpt lat="42.081743" lon="12.023465"><ele>375.20000000000005</ele><time>2026-04-21T12:01:38.315Z</time></trkpt><trkpt lat="42.0817324" lon="12.0233388"><ele>375.6</ele><time>2026-04-21T12:01:40.314Z</time></trkpt><trkpt lat="42.0816977" lon="12.02323"><ele>376.0</ele><time>2026-04-21T12:01:42.314Z</time></trkpt><trkpt lat="42.0816608" lon="12.0231151"><ele>376.6</ele><time>2026-04-21T12:01:44.314Z</time></trkpt><trkpt lat="42.0816586" lon="12.0229988"><ele>377.20000000000005</ele><time>2026-04-21T12:01:46.314Z</time></trkpt><trkpt lat="42.0816823" lon="12.0228736"><ele>377.79999999999995</ele><time>2026-04-21T12:01:48.314Z</time></trkpt><trkpt lat="42.0817252" lon="12.0227688"><ele>378.4</ele><time>2026-04-21T12:01:50.314Z</time></trkpt><trkpt lat="42.0817627" lon="12.0226587"><ele>379.0</ele><time>2026-04-21T12:01:52.315Z</time></trkpt><trkpt lat="42.0817799" lon="12.0225399"><ele>380.0</ele><time>2026-04-21T12:01:54.315Z</time></trkpt><trkpt lat="42.0817722" lon="12.0224083"><ele>381.0</ele><time>2026-04-21T12:01:56.314Z</time></trkpt><trkpt lat="42.0817832" lon="12.0222686"><ele>382.0</ele><time>2026-04-21T12:01:58.315Z</time></trkpt><trkpt lat="42.0817901" lon="12.0221455"><ele>383.0</ele><time>2026-04-21T12:02:00.315Z</time></trkpt><trkpt lat="42.0817517" lon="12.0220388"><ele>384.0</ele><time>2026-04-21T12:02:02.315Z</time></trkpt><trkpt lat="42.0816886" lon="12.0219211"><ele>384.0</ele><time>2026-04-21T12:02:04.314Z</time></trkpt><trkpt lat="42.0816319" lon="12.0218145"><ele>384.0</ele><time>2026-04-21T12:02:06.314Z</time></trkpt><trkpt lat="42.0815988" lon="12.0217038"><ele>384.0</ele><time>2026-04-21T12:02:08.314Z</time></trkpt><trkpt lat="42.0815993" lon="12.0215904"><ele>384.0</ele><time>2026-04-21T12:02:10.314Z</time></trkpt><trkpt lat="42.0816246" lon="12.0214687"><ele>384.0</ele><time>2026-04-21T12:02:12.314Z</time></trkpt><trkpt lat="42.0816779" lon="12.0213385"><ele>386.2</ele><time>2026-04-21T12:02:14.314Z</time></trkpt><trkpt lat="42.0817446" lon="12.0212172"><ele>388.4</ele><time>2026-04-21T12:02:16.314Z</time></trkpt><trkpt lat="42.0817859" lon="12.0211266"><ele>390.6</ele><time>2026-04-21T12:02:18.314Z</time></trkpt><trkpt lat="42.0818411" lon="12.0210242"><ele>392.8</ele><time>2026-04-21T12:02:20.315Z</time></trkpt><trkpt lat="42.0819021" lon="12.0209348"><ele>395.0</ele><time>2026-04-21T12:02:22.315Z</time></trkpt><trkpt lat="42.0819685" lon="12.0208481"><ele>398.8</ele><time>2026-04-21T12:02:24.314Z</time></trkpt><trkpt lat="42.0820507" lon="12.02079"><ele>402.6</ele><time>2026-04-21T12:02:26.314Z</time></trkpt><trkpt lat="42.0821359" lon="12.0207433"><ele>406.4</ele><time>2026-04-21T12:02:28.315Z</time></trkpt><trkpt lat="42.0822211" lon="12.0207026"><ele>410.2</ele><time>2026-04-21T12:02:30.316Z</time></trkpt><trkpt lat="42.0823021" lon="12.0206553"><ele>414.0</ele><time>2026-04-21T12:02:32.314Z</time></trkpt><trkpt lat="42.0823841" lon="12.0206042"><ele>410.0</ele><time>2026-04-21T12:02:34.316Z</time></trkpt><trkpt lat="42.0824556" lon="12.0205352"><ele>406.0</ele><time>2026-04-21T12:02:36.314Z</time></trkpt><trkpt lat="42.0825234" lon="12.0204549"><ele>402.0</ele><time>2026-04-21T12:02:38.316Z</time></trkpt><trkpt lat="42.0825854" lon="12.0203664"><ele>398.0</ele><time>2026-04-21T12:02:40.314Z</time></trkpt><trkpt lat="42.0826553" lon="12.0202707"><ele>394.0</ele><time>2026-04-21T12:02:42.314Z</time></trkpt><trkpt lat="42.082723" lon="12.020188"><ele>394.00000000000006</ele><time>2026-04-21T12:02:44.314Z</time></trkpt><trkpt lat="42.0827914" lon="12.0201091"><ele>394.0</ele><time>2026-04-21T12:02:46.314Z</time></trkpt><trkpt lat="42.0828511" lon="12.0200097"><ele>394.0</ele><time>2026-04-21T12:02:48.314Z</time></trkpt><trkpt lat="42.0829078" lon="12.0199087"><ele>394.0</ele><time>2026-04-21T12:02:50.314Z</time></trkpt><trkpt lat="42.0829759" lon="12.0198107"><ele>394.00000000000006</ele><time>2026-04-21T12:02:52.314Z</time></trkpt><trkpt lat="42.0830214" lon="12.0197397"><ele>394.0</ele><time>2026-04-21T12:02:54.314Z</time></trkpt><trkpt lat="42.0830437" lon="12.0196215"><ele>395.33333333333337</ele><time>2026-04-21T12:02:57.314Z</time></trkpt><trkpt lat="42.0830356" lon="12.0195224"><ele>396.6666666666667</ele><time>2026-04-21T12:02:59.315Z</time></trkpt><trkpt lat="42.0829871" lon="12.0194299"><ele>398.0</ele><time>2026-04-21T12:03:01.315Z</time></trkpt><trkpt lat="42.082961" lon="12.0193165"><ele>399.33333333333337</ele><time>2026-04-21T12:03:03.314Z</time></trkpt><trkpt lat="42.0829617" lon="12.0191804"><ele>400.6666666666667</ele><time>2026-04-21T12:03:05.314Z</time></trkpt><trkpt lat="42.0829988" lon="12.0190524"><ele>402.0</ele><time>2026-04-21T12:03:07.315Z</time></trkpt><trkpt lat="42.083046" lon="12.0189393"><ele>402.6666666666667</ele><time>2026-04-21T12:03:09.314Z</time></trkpt><trkpt lat="42.0830863" lon="12.0188386"><ele>403.33333333333337</ele><time>2026-04-21T12:03:11.314Z</time></trkpt><trkpt lat="42.0831326" lon="12.01873"><ele>404.0</ele><time>2026-04-21T12:03:13.315Z</time></trkpt><trkpt lat="42.0831768" lon="12.0186017"><ele>404.6666666666667</ele><time>2026-04-21T12:03:15.314Z</time></trkpt><trkpt lat="42.0832064" lon="12.0184945"><ele>405.33333333333337</ele><time>2026-04-21T12:03:17.314Z</time></trkpt><trkpt lat="42.0832464" lon="12.0184132"><ele>406.0</ele><time>2026-04-21T12:03:19.315Z</time></trkpt><trkpt lat="42.083285" lon="12.0183434"><ele>404.6</ele><time>2026-04-21T12:03:22.314Z</time></trkpt><trkpt lat="42.083218" lon="12.0182599"><ele>403.20000000000005</ele><time>2026-04-21T12:05:37.314Z</time></trkpt><trkpt lat="42.0831573" lon="12.0181672"><ele>401.79999999999995</ele><time>2026-04-21T12:05:39.314Z</time></trkpt><trkpt lat="42.0830738" lon="12.0180642"><ele>400.4</ele><time>2026-04-21T12:05:41.313Z</time></trkpt><trkpt lat="42.0829869" lon="12.0179702"><ele>399.0</ele><time>2026-04-21T12:05:43.314Z</time></trkpt><trkpt lat="42.0829058" lon="12.0178853"><ele>399.0</ele><time>2026-04-21T12:05:45.314Z</time></trkpt><trkpt lat="42.0828265" lon="12.0178163"><ele>399.0</ele><time>2026-04-21T12:05:47.315Z</time></trkpt><trkpt lat="42.0827382" lon="12.0177589"><ele>399.0</ele><time>2026-04-21T12:05:49.314Z</time></trkpt><trkpt lat="42.0826373" lon="12.0177098"><ele>399.0</ele><time>2026-04-21T12:05:51.314Z</time></trkpt><trkpt lat="42.0825308" lon="12.0176445"><ele>399.0</ele><time>2026-04-21T12:05:53.315Z</time></trkpt><trkpt lat="42.0824125" lon="12.0175852"><ele>399.75</ele><time>2026-04-21T12:05:55.315Z</time></trkpt><trkpt lat="42.0823004" lon="12.0175252"><ele>400.5</ele><time>2026-04-21T12:05:57.314Z</time></trkpt><trkpt lat="42.0822041" lon="12.0174604"><ele>401.25</ele><time>2026-04-21T12:05:59.315Z</time></trkpt><trkpt lat="42.0820956" lon="12.0173966"><ele>402.0</ele><time>2026-04-21T12:06:01.315Z</time></trkpt><trkpt lat="42.0819904" lon="12.0173375"><ele>402.0</ele><time>2026-04-21T12:06:03.314Z</time></trkpt><trkpt lat="42.0819031" lon="12.0172827"><ele>402.0</ele><time>2026-04-21T12:06:05.315Z</time></trkpt><trkpt lat="42.0818139" lon="12.0172037"><ele>402.0</ele><time>2026-04-21T12:06:07.314Z</time></trkpt><trkpt lat="42.081728" lon="12.0170866"><ele>402.0</ele><time>2026-04-21T12:06:09.314Z</time></trkpt><trkpt lat="42.0816619" lon="12.0169815"><ele>402.0</ele><time>2026-04-21T12:06:11.314Z</time></trkpt><trkpt lat="42.0815867" lon="12.0169069"><ele>403.5</ele><time>2026-04-21T12:06:13.315Z</time></trkpt><trkpt lat="42.0815146" lon="12.0168462"><ele>405.0</ele><time>2026-04-21T12:06:15.314Z</time></trkpt><trkpt lat="42.0814304" lon="12.0168192"><ele>406.5</ele><time>2026-04-21T12:06:17.315Z</time></trkpt><trkpt lat="42.0813419" lon="12.0168495"><ele>408.0</ele><time>2026-04-21T12:06:19.315Z</time></trkpt><trkpt lat="42.0812493" lon="12.0168909"><ele>409.5</ele><time>2026-04-21T12:06:21.314Z</time></trkpt><trkpt lat="42.0811639" lon="12.0168953"><ele>411.0</ele><time>2026-04-21T12:06:23.314Z</time></trkpt><trkpt lat="42.0810644" lon="12.0168733"><ele>411.0</ele><time>2026-04-21T12:06:25.315Z</time></trkpt><trkpt lat="42.0809996" lon="12.0168547"><ele>411.0</ele><time>2026-04-21T12:06:26.314Z</time></trkpt><trkpt lat="42.0809301" lon="12.0168288"><ele>411.0</ele><time>2026-04-21T12:06:27.314Z</time></trkpt><trkpt lat="42.0808659" lon="12.0168005"><ele>411.0</ele><time>2026-04-21T12:06:28.314Z</time></trkpt><trkpt lat="42.08076" lon="12.0167359"><ele>411.0</ele><time>2026-04-21T12:06:30.314Z</time></trkpt><trkpt lat="42.0806643" lon="12.016695"><ele>411.0</ele><time>2026-04-21T12:06:32.315Z</time></trkpt><trkpt lat="42.0805656" lon="12.0166922"><ele>412.0</ele><time>2026-04-21T12:06:34.314Z</time></trkpt><trkpt lat="42.080502" lon="12.0166899"><ele>413.0</ele><time>2026-04-21T12:06:35.315Z</time></trkpt><trkpt lat="42.0804349" lon="12.0166923"><ele>414.0</ele><time>2026-04-21T12:06:36.314Z</time></trkpt><trkpt lat="42.0803613" lon="12.0166944"><ele>415.0</ele><time>2026-04-21T12:06:37.314Z</time></trkpt><trkpt lat="42.0802918" lon="12.0166884"><ele>416.0</ele><time>2026-04-21T12:06:38.315Z</time></trkpt><trkpt lat="42.0802258" lon="12.0166935"><ele>417.0</ele><time>2026-04-21T12:06:39.314Z</time></trkpt><trkpt lat="42.0801597" lon="12.0167011"><ele>418.0</ele><time>2026-04-21T12:06:40.314Z</time></trkpt><trkpt lat="42.0800925" lon="12.0167102"><ele>418.00000000000006</ele><time>2026-04-21T12:06:41.314Z</time></trkpt><trkpt lat="42.0800232" lon="12.0167139"><ele>418.0</ele><time>2026-04-21T12:06:42.314Z</time></trkpt><trkpt lat="42.0798965" lon="12.0167308"><ele>418.0</ele><time>2026-04-21T12:06:44.314Z</time></trkpt><trkpt lat="42.079827" lon="12.0167366"><ele>418.0</ele><time>2026-04-21T12:06:45.315Z</time></trkpt><trkpt lat="42.0797554" lon="12.0167346"><ele>418.00000000000006</ele><time>2026-04-21T12:06:46.315Z</time></trkpt><trkpt lat="42.0796831" lon="12.0167337"><ele>418.0</ele><time>2026-04-21T12:06:47.314Z</time></trkpt><trkpt lat="42.0796121" lon="12.0167379"><ele>419.50000000000006</ele><time>2026-04-21T12:06:48.314Z</time></trkpt><trkpt lat="42.0795434" lon="12.0167463"><ele>421.0</ele><time>2026-04-21T12:06:49.314Z</time></trkpt><trkpt lat="42.0794804" lon="12.0167557"><ele>422.5</ele><time>2026-04-21T12:06:50.315Z</time></trkpt><trkpt lat="42.0794149" lon="12.0167557"><ele>424.0</ele><time>2026-04-21T12:06:51.314Z</time></trkpt><trkpt lat="42.0793068" lon="12.016746"><ele>425.50000000000006</ele><time>2026-04-21T12:06:53.316Z</time></trkpt><trkpt lat="42.0792142" lon="12.0167353"><ele>427.0</ele><time>2026-04-21T12:06:55.314Z</time></trkpt><trkpt lat="42.0791281" lon="12.0166753"><ele>427.0</ele><time>2026-04-21T12:06:57.314Z</time></trkpt><trkpt lat="42.0790629" lon="12.016571"><ele>427.00000000000006</ele><time>2026-04-21T12:06:59.314Z</time></trkpt><trkpt lat="42.0790146" lon="12.0164387"><ele>427.00000000000006</ele><time>2026-04-21T12:07:01.314Z</time></trkpt><trkpt lat="42.0789693" lon="12.0163199"><ele>427.0</ele><time>2026-04-21T12:07:03.315Z</time></trkpt><trkpt lat="42.0789153" lon="12.0161893"><ele>427.0</ele><time>2026-04-21T12:07:05.315Z</time></trkpt><trkpt lat="42.0788591" lon="12.0160998"><ele>427.00000000000006</ele><time>2026-04-21T12:07:07.315Z</time></trkpt><trkpt lat="42.0787915" lon="12.0160539"><ele>427.0</ele><time>2026-04-21T12:07:09.316Z</time></trkpt><trkpt lat="42.0786803" lon="12.0160518"><ele>427.0</ele><time>2026-04-21T12:07:11.314Z</time></trkpt><trkpt lat="42.0786073" lon="12.0160554"><ele>427.0</ele><time>2026-04-21T12:07:12.314Z</time></trkpt><trkpt lat="42.0785379" lon="12.016046"><ele>427.00000000000006</ele><time>2026-04-21T12:07:13.315Z</time></trkpt><trkpt lat="42.0784721" lon="12.0160274"><ele>427.0</ele><time>2026-04-21T12:07:14.314Z</time></trkpt><trkpt lat="42.0783997" lon="12.0160067"><ele>427.0</ele><time>2026-04-21T12:07:15.316Z</time></trkpt><trkpt lat="42.0783292" lon="12.0159739"><ele>427.0</ele><time>2026-04-21T12:07:16.315Z</time></trkpt><trkpt lat="42.0782547" lon="12.0159283"><ele>427.0</ele><time>2026-04-21T12:07:17.314Z</time></trkpt><trkpt lat="42.0781863" lon="12.0158834"><ele>427.0</ele><time>2026-04-21T12:07:18.316Z</time></trkpt><trkpt lat="42.0781218" lon="12.0158522"><ele>427.0</ele><time>2026-04-21T12:07:19.314Z</time></trkpt><trkpt lat="42.0780614" lon="12.0158252"><ele>427.0</ele><time>2026-04-21T12:07:20.315Z</time></trkpt><trkpt lat="42.0779994" lon="12.0158015"><ele>427.0</ele><time>2026-04-21T12:07:21.314Z</time></trkpt><trkpt lat="42.077938" lon="12.0157699"><ele>427.50000000000006</ele><time>2026-04-21T12:07:22.314Z</time></trkpt><trkpt lat="42.0778313" lon="12.0156954"><ele>428.0</ele><time>2026-04-21T12:07:24.314Z</time></trkpt><trkpt lat="42.0777531" lon="12.015577"><ele>428.5</ele><time>2026-04-21T12:07:26.314Z</time></trkpt><trkpt lat="42.0777304" lon="12.0154941"><ele>429.0</ele><time>2026-04-21T12:07:27.315Z</time></trkpt><trkpt lat="42.0777193" lon="12.0153961"><ele>429.50000000000006</ele><time>2026-04-21T12:07:28.315Z</time></trkpt><trkpt lat="42.0777142" lon="12.0153084"><ele>430.0</ele><time>2026-04-21T12:07:29.314Z</time></trkpt><trkpt lat="42.077701" lon="12.0151627"><ele>430.0</ele><time>2026-04-21T12:07:31.314Z</time></trkpt><trkpt lat="42.0776571" lon="12.0150278"><ele>430.0</ele><time>2026-04-21T12:07:33.315Z</time></trkpt><trkpt lat="42.0775779" lon="12.014897"><ele>430.0</ele><time>2026-04-21T12:07:35.314Z</time></trkpt><trkpt lat="42.0775297" lon="12.0148235"><ele>430.0</ele><time>2026-04-21T12:07:36.316Z</time></trkpt><trkpt lat="42.0774822" lon="12.0147463"><ele>430.0</ele><time>2026-04-21T12:07:37.314Z</time></trkpt><trkpt lat="42.077434" lon="12.0146717"><ele>429.6</ele><time>2026-04-21T12:07:38.314Z</time></trkpt><trkpt lat="42.0773874" lon="12.014603"><ele>429.2</ele><time>2026-04-21T12:07:39.314Z</time></trkpt><trkpt lat="42.0773167" lon="12.014476"><ele>428.79999999999995</ele><time>2026-04-21T12:07:41.315Z</time></trkpt><trkpt lat="42.0772389" lon="12.0143444"><ele>428.4</ele><time>2026-04-21T12:07:43.315Z</time></trkpt><trkpt lat="42.0771994" lon="12.0142759"><ele>428.0</ele><time>2026-04-21T12:07:44.316Z</time></trkpt><trkpt lat="42.0771426" lon="12.0141495"><ele>429.59999999999997</ele><time>2026-04-21T12:07:46.315Z</time></trkpt><trkpt lat="42.0771245" lon="12.0140349"><ele>431.19999999999993</ele><time>2026-04-21T12:07:48.315Z</time></trkpt><trkpt lat="42.077122" lon="12.0139093"><ele>432.8</ele><time>2026-04-21T12:07:58.314Z</time></trkpt><trkpt lat="42.0771251" lon="12.0137837"><ele>434.4</ele><time>2026-04-21T12:08:00.315Z</time></trkpt><trkpt lat="42.0771306" lon="12.0136584"><ele>436.0</ele><time>2026-04-21T12:08:02.314Z</time></trkpt><trkpt lat="42.0771366" lon="12.0135191"><ele>436.00000000000006</ele><time>2026-04-21T12:08:04.315Z</time></trkpt><trkpt lat="42.0771351" lon="12.0133967"><ele>436.0</ele><time>2026-04-21T12:08:06.315Z</time></trkpt><trkpt lat="42.0771434" lon="12.0132777"><ele>436.0</ele><time>2026-04-21T12:08:08.313Z</time></trkpt><trkpt lat="42.0771647" lon="12.0131558"><ele>436.0</ele><time>2026-04-21T12:08:11.313Z</time></trkpt><trkpt lat="42.0771712" lon="12.0130696"><ele>436.00000000000006</ele><time>2026-04-21T12:08:18.315Z</time></trkpt><trkpt lat="42.0771756" lon="12.0129817"><ele>436.0</ele><time>2026-04-21T12:08:25.313Z</time></trkpt><trkpt lat="42.0771715" lon="12.0128729"><ele>435.8</ele><time>2026-04-21T12:08:28.313Z</time></trkpt><trkpt lat="42.0771605" lon="12.0127834"><ele>435.6</ele><time>2026-04-21T12:08:30.313Z</time></trkpt><trkpt lat="42.077139" lon="12.0126884"><ele>435.4</ele><time>2026-04-21T12:08:32.313Z</time></trkpt><trkpt lat="42.0771045" lon="12.0125609"><ele>435.2</ele><time>2026-04-21T12:08:34.313Z</time></trkpt><trkpt lat="42.0770697" lon="12.012426"><ele>435.0</ele><time>2026-04-21T12:08:36.313Z</time></trkpt><trkpt lat="42.0770143" lon="12.0122719"><ele>435.0</ele><time>2026-04-21T12:08:38.313Z</time></trkpt><trkpt lat="42.0769796" lon="12.0121355"><ele>435.0</ele><time>2026-04-21T12:08:40.313Z</time></trkpt><trkpt lat="42.0769608" lon="12.0120188"><ele>435.0</ele><time>2026-04-21T12:08:42.313Z</time></trkpt><trkpt lat="42.0769739" lon="12.0119281"><ele>435.0</ele><time>2026-04-21T12:08:44.313Z</time></trkpt><trkpt lat="42.0769944" lon="12.0118015"><ele>435.0</ele><time>2026-04-21T12:08:47.313Z</time></trkpt><trkpt lat="42.0770176" lon="12.0116901"><ele>435.0</ele><time>2026-04-21T12:08:49.314Z</time></trkpt><trkpt lat="42.0770528" lon="12.0115276"><ele>435.6</ele><time>2026-04-21T12:08:51.313Z</time></trkpt><trkpt lat="42.0770742" lon="12.0114443"><ele>436.2</ele><time>2026-04-21T12:08:52.315Z</time></trkpt><trkpt lat="42.0771104" lon="12.0113041"><ele>436.79999999999995</ele><time>2026-04-21T12:08:54.313Z</time></trkpt><trkpt lat="42.0771758" lon="12.0111551"><ele>437.4</ele><time>2026-04-21T12:08:56.313Z</time></trkpt><trkpt lat="42.0772232" lon="12.0110823"><ele>438.0</ele><time>2026-04-21T12:08:57.313Z</time></trkpt><trkpt lat="42.0772753" lon="12.0110081"><ele>438.0</ele><time>2026-04-21T12:08:58.313Z</time></trkpt><trkpt lat="42.0773299" lon="12.0109345"><ele>438.0</ele><time>2026-04-21T12:08:59.313Z</time></trkpt><trkpt lat="42.0773894" lon="12.0108647"><ele>438.0</ele><time>2026-04-21T12:09:00.313Z</time></trkpt><trkpt lat="42.0774457" lon="12.0107998"><ele>438.0</ele><time>2026-04-21T12:09:01.314Z</time></trkpt><trkpt lat="42.0774923" lon="12.0107405"><ele>438.0</ele><time>2026-04-21T12:09:02.313Z</time></trkpt><trkpt lat="42.0775603" lon="12.0106201"><ele>438.0</ele><time>2026-04-21T12:09:04.313Z</time></trkpt><trkpt lat="42.0775804" lon="12.0104779"><ele>435.6666666666667</ele><time>2026-04-21T12:09:06.314Z</time></trkpt><trkpt lat="42.0775598" lon="12.0103154"><ele>433.33333333333337</ele><time>2026-04-21T12:09:08.313Z</time></trkpt><trkpt lat="42.0775373" lon="12.010219"><ele>431.0</ele><time>2026-04-21T12:09:09.313Z</time></trkpt><trkpt lat="42.0775077" lon="12.010129"><ele>428.6666666666667</ele><time>2026-04-21T12:09:10.313Z</time></trkpt><trkpt lat="42.0774743" lon="12.0100447"><ele>426.33333333333337</ele><time>2026-04-21T12:09:11.313Z</time></trkpt><trkpt lat="42.0774363" lon="12.0099687"><ele>424.0</ele><time>2026-04-21T12:09:12.313Z</time></trkpt><trkpt lat="42.0773961" lon="12.0098968"><ele>423.50000000000006</ele><time>2026-04-21T12:09:13.313Z</time></trkpt><trkpt lat="42.0773536" lon="12.0098279"><ele>423.0</ele><time>2026-04-21T12:09:14.313Z</time></trkpt><trkpt lat="42.0773126" lon="12.009762"><ele>422.5</ele><time>2026-04-21T12:09:15.315Z</time></trkpt><trkpt lat="42.0772398" lon="12.0096392"><ele>422.0</ele><time>2026-04-21T12:09:17.313Z</time></trkpt><trkpt lat="42.0772106" lon="12.0094821"><ele>421.50000000000006</ele><time>2026-04-21T12:09:19.314Z</time></trkpt><trkpt lat="42.077213" lon="12.0093972"><ele>421.0</ele><time>2026-04-21T12:09:20.313Z</time></trkpt><trkpt lat="42.0772561" lon="12.0092521"><ele>421.00000000000006</ele><time>2026-04-21T12:09:22.314Z</time></trkpt><trkpt lat="42.0772876" lon="12.009175"><ele>421.0</ele><time>2026-04-21T12:09:23.313Z</time></trkpt><trkpt lat="42.0773236" lon="12.0091013"><ele>421.0</ele><time>2026-04-21T12:09:24.313Z</time></trkpt><trkpt lat="42.0773932" lon="12.0089593"><ele>421.0</ele><time>2026-04-21T12:09:26.314Z</time></trkpt><trkpt lat="42.0774323" lon="12.0088914"><ele>421.00000000000006</ele><time>2026-04-21T12:09:27.313Z</time></trkpt><trkpt lat="42.0774709" lon="12.0088127"><ele>421.0</ele><time>2026-04-21T12:09:28.313Z</time></trkpt><trkpt lat="42.077513" lon="12.0087312"><ele>421.33333333333337</ele><time>2026-04-21T12:09:29.313Z</time></trkpt><trkpt lat="42.0775634" lon="12.0086552"><ele>421.6666666666667</ele><time>2026-04-21T12:09:30.314Z</time></trkpt><trkpt lat="42.0776159" lon="12.0085748"><ele>422.0</ele><time>2026-04-21T12:09:31.313Z</time></trkpt><trkpt lat="42.0776648" lon="12.008489"><ele>422.33333333333337</ele><time>2026-04-21T12:09:32.313Z</time></trkpt><trkpt lat="42.0777156" lon="12.0084081"><ele>422.6666666666667</ele><time>2026-04-21T12:09:33.315Z</time></trkpt><trkpt lat="42.0777669" lon="12.0083248"><ele>423.0</ele><time>2026-04-21T12:09:34.313Z</time></trkpt><trkpt lat="42.0778135" lon="12.0082373"><ele>423.0</ele><time>2026-04-21T12:09:35.314Z</time></trkpt><trkpt lat="42.0778552" lon="12.0081542"><ele>423.0</ele><time>2026-04-21T12:09:36.313Z</time></trkpt><trkpt lat="42.077892" lon="12.0080807"><ele>423.0</ele><time>2026-04-21T12:09:37.313Z</time></trkpt><trkpt lat="42.0779356" lon="12.0079942"><ele>423.0</ele><time>2026-04-21T12:09:39.313Z</time></trkpt><trkpt lat="42.0779758" lon="12.0079258"><ele>423.0</ele><time>2026-04-21T12:09:41.313Z</time></trkpt><trkpt lat="42.0780237" lon="12.007826"><ele>423.0</ele><time>2026-04-21T12:09:43.313Z</time></trkpt><trkpt lat="42.0780516" lon="12.0077433"><ele>423.0</ele><time>2026-04-21T12:09:44.314Z</time></trkpt><trkpt lat="42.0780801" lon="12.0076469"><ele>423.0</ele><time>2026-04-21T12:09:45.313Z</time></trkpt><trkpt lat="42.0781095" lon="12.0075436"><ele>423.0</ele><time>2026-04-21T12:09:46.314Z</time></trkpt><trkpt lat="42.078149" lon="12.007426"><ele>423.0</ele><time>2026-04-21T12:09:47.313Z</time></trkpt><trkpt lat="42.0782024" lon="12.0073079"><ele>423.0</ele><time>2026-04-21T12:09:48.313Z</time></trkpt><trkpt lat="42.0782628" lon="12.0071819"><ele>423.0</ele><time>2026-04-21T12:09:49.314Z</time></trkpt><trkpt lat="42.0783155" lon="12.0070556"><ele>423.8333333333333</ele><time>2026-04-21T12:09:50.313Z</time></trkpt><trkpt lat="42.0783614" lon="12.0069439"><ele>424.66666666666663</ele><time>2026-04-21T12:09:51.313Z</time></trkpt><trkpt lat="42.0784036" lon="12.0068524"><ele>425.5</ele><time>2026-04-21T12:09:52.314Z</time></trkpt><trkpt lat="42.0784347" lon="12.0067725"><ele>426.3333333333333</ele><time>2026-04-21T12:09:53.313Z</time></trkpt><trkpt lat="42.0784619" lon="12.0066842"><ele>427.16666666666663</ele><time>2026-04-21T12:09:54.313Z</time></trkpt><trkpt lat="42.0784995" lon="12.006591"><ele>428.0</ele><time>2026-04-21T12:09:55.314Z</time></trkpt><trkpt lat="42.078544" lon="12.0064964"><ele>427.99999999999994</ele><time>2026-04-21T12:09:56.314Z</time></trkpt><trkpt lat="42.0785855" lon="12.0064073"><ele>428.0</ele><time>2026-04-21T12:09:57.313Z</time></trkpt><trkpt lat="42.0786301" lon="12.0063243"><ele>428.0</ele><time>2026-04-21T12:09:58.313Z</time></trkpt><trkpt lat="42.078671" lon="12.0062492"><ele>428.0</ele><time>2026-04-21T12:09:59.313Z</time></trkpt><trkpt lat="42.0787056" lon="12.0061587"><ele>427.99999999999994</ele><time>2026-04-21T12:10:00.313Z</time></trkpt><trkpt lat="42.0787344" lon="12.0060673"><ele>428.0</ele><time>2026-04-21T12:10:01.313Z</time></trkpt><trkpt lat="42.0787706" lon="12.0059729"><ele>427.99999999999994</ele><time>2026-04-21T12:10:02.313Z</time></trkpt><trkpt lat="42.0788096" lon="12.0058864"><ele>428.0</ele><time>2026-04-21T12:10:03.314Z</time></trkpt><trkpt lat="42.0788467" lon="12.0058092"><ele>428.0</ele><time>2026-04-21T12:10:04.313Z</time></trkpt><trkpt lat="42.07888" lon="12.0057372"><ele>428.0</ele><time>2026-04-21T12:10:05.313Z</time></trkpt><trkpt lat="42.0789429" lon="12.0055995"><ele>427.99999999999994</ele><time>2026-04-21T12:10:07.313Z</time></trkpt><trkpt lat="42.0789809" lon="12.0055262"><ele>428.0</ele><time>2026-04-21T12:10:08.313Z</time></trkpt><trkpt lat="42.0790294" lon="12.0054537"><ele>427.99999999999994</ele><time>2026-04-21T12:10:09.313Z</time></trkpt><trkpt lat="42.0790832" lon="12.0053865"><ele>428.0</ele><time>2026-04-21T12:10:10.314Z</time></trkpt><trkpt lat="42.0791385" lon="12.0053161"><ele>428.0</ele><time>2026-04-21T12:10:11.313Z</time></trkpt><trkpt lat="42.0791889" lon="12.005246"><ele>428.0</ele><time>2026-04-21T12:10:12.313Z</time></trkpt><trkpt lat="42.0792398" lon="12.0051789"><ele>427.99999999999994</ele><time>2026-04-21T12:10:13.313Z</time></trkpt><trkpt lat="42.0792878" lon="12.0051179"><ele>428.0</ele><time>2026-04-21T12:10:14.313Z</time></trkpt><trkpt lat="42.0793851" lon="12.0050056"><ele>433.0</ele><time>2026-04-21T12:10:16.313Z</time></trkpt><trkpt lat="42.0794939" lon="12.0049166"><ele>437.99999999999994</ele><time>2026-04-21T12:10:18.314Z</time></trkpt><trkpt lat="42.0795514" lon="12.0048767"><ele>442.99999999999994</ele><time>2026-04-21T12:10:19.313Z</time></trkpt><trkpt lat="42.079609" lon="12.0048311"><ele>448.0</ele><time>2026-04-21T12:10:20.313Z</time></trkpt><trkpt lat="42.0796956" lon="12.004755"><ele>453.0</ele><time>2026-04-21T12:10:22.313Z</time></trkpt><trkpt lat="42.0797567" lon="12.0046622"><ele>453.0</ele><time>2026-04-21T12:10:24.313Z</time></trkpt><trkpt lat="42.0797648" lon="12.0045722"><ele>453.0</ele><time>2026-04-21T12:10:26.313Z</time></trkpt><trkpt lat="42.0797715" lon="12.0044713"><ele>453.0</ele><time>2026-04-21T12:10:28.314Z</time></trkpt><trkpt lat="42.0797811" lon="12.004363"><ele>453.0</ele><time>2026-04-21T12:10:30.313Z</time></trkpt><trkpt lat="42.0797888" lon="12.0042518"><ele>453.0</ele><time>2026-04-21T12:10:32.313Z</time></trkpt><trkpt lat="42.0797976" lon="12.0041151"><ele>453.0</ele><time>2026-04-21T12:10:34.314Z</time></trkpt><trkpt lat="42.0798049" lon="12.0039956"><ele>455.0</ele><time>2026-04-21T12:10:36.313Z</time></trkpt><trkpt lat="42.0798224" lon="12.0038722"><ele>456.99999999999994</ele><time>2026-04-21T12:10:38.313Z</time></trkpt><trkpt lat="42.0798093" lon="12.0037257"><ele>458.99999999999994</ele><time>2026-04-21T12:10:40.313Z</time></trkpt><trkpt lat="42.0797781" lon="12.003564"><ele>461.0</ele><time>2026-04-21T12:10:42.314Z</time></trkpt><trkpt lat="42.0797745" lon="12.0034756"><ele>463.0</ele><time>2026-04-21T12:10:43.313Z</time></trkpt><trkpt lat="42.079785" lon="12.0033855"><ele>463.50000000000006</ele><time>2026-04-21T12:10:44.313Z</time></trkpt><trkpt lat="42.0798018" lon="12.0032935"><ele>464.0</ele><time>2026-04-21T12:10:45.313Z</time></trkpt><trkpt lat="42.0798241" lon="12.0032021"><ele>464.5</ele><time>2026-04-21T12:10:46.313Z</time></trkpt><trkpt lat="42.0798447" lon="12.0031203"><ele>465.0</ele><time>2026-04-21T12:10:47.313Z</time></trkpt><trkpt lat="42.0798943" lon="12.0029827"><ele>465.50000000000006</ele><time>2026-04-21T12:10:49.313Z</time></trkpt><trkpt lat="42.0799253" lon="12.0029053"><ele>466.0</ele><time>2026-04-21T12:10:50.313Z</time></trkpt><trkpt lat="42.0799599" lon="12.0028213"><ele>464.00000000000006</ele><time>2026-04-21T12:10:51.314Z</time></trkpt><trkpt lat="42.0799923" lon="12.0027365"><ele>462.0</ele><time>2026-04-21T12:10:52.314Z</time></trkpt><trkpt lat="42.080026" lon="12.0025863"><ele>460.0</ele><time>2026-04-21T12:10:54.313Z</time></trkpt><trkpt lat="42.0800556" lon="12.0025026"><ele>458.0</ele><time>2026-04-21T12:10:55.313Z</time></trkpt><trkpt lat="42.080099" lon="12.0024237"><ele>456.00000000000006</ele><time>2026-04-21T12:10:56.313Z</time></trkpt><trkpt lat="42.0801457" lon="12.002344"><ele>454.0</ele><time>2026-04-21T12:10:57.313Z</time></trkpt><trkpt lat="42.0801863" lon="12.0022581"><ele>453.50000000000006</ele><time>2026-04-21T12:10:58.315Z</time></trkpt><trkpt lat="42.0802251" lon="12.0021784"><ele>453.0</ele><time>2026-04-21T12:10:59.313Z</time></trkpt><trkpt lat="42.0802572" lon="12.0021029"><ele>452.5</ele><time>2026-04-21T12:11:00.314Z</time></trkpt><trkpt lat="42.0803119" lon="12.0019528"><ele>452.0</ele><time>2026-04-21T12:11:02.314Z</time></trkpt><trkpt lat="42.0803387" lon="12.0018732"><ele>451.50000000000006</ele><time>2026-04-21T12:11:03.315Z</time></trkpt><trkpt lat="42.0803706" lon="12.0017914"><ele>451.0</ele><time>2026-04-21T12:11:04.315Z</time></trkpt><trkpt lat="42.0804259" lon="12.0016641"><ele>451.20000000000005</ele><time>2026-04-21T12:11:06.314Z</time></trkpt><trkpt lat="42.0804988" lon="12.0015736"><ele>451.40000000000003</ele><time>2026-04-21T12:11:08.313Z</time></trkpt><trkpt lat="42.0805818" lon="12.0014765"><ele>451.6</ele><time>2026-04-21T12:11:10.313Z</time></trkpt><trkpt lat="42.0806325" lon="12.0014229"><ele>451.8</ele><time>2026-04-21T12:11:11.313Z</time></trkpt><trkpt lat="42.080731" lon="12.001329"><ele>452.0</ele><time>2026-04-21T12:11:13.313Z</time></trkpt><trkpt lat="42.0808218" lon="12.0012437"><ele>451.99999999999994</ele><time>2026-04-21T12:11:15.314Z</time></trkpt><trkpt lat="42.0808988" lon="12.0011525"><ele>452.0</ele><time>2026-04-21T12:11:17.313Z</time></trkpt><trkpt lat="42.0809644" lon="12.0010781"><ele>452.0</ele><time>2026-04-21T12:11:19.313Z</time></trkpt><trkpt lat="42.0810165" lon="12.0010154"><ele>452.0</ele><time>2026-04-21T12:11:35.313Z</time></trkpt><trkpt lat="42.0810478" lon="12.0009408"><ele>451.99999999999994</ele><time>2026-04-21T12:11:39.313Z</time></trkpt><trkpt lat="42.081081" lon="12.0008395"><ele>452.0</ele><time>2026-04-21T12:13:04.49Z</time></trkpt><trkpt lat="42.0811608" lon="12.0007518"><ele>453.49999999999994</ele><time>2026-04-21T12:13:06.487Z</time></trkpt><trkpt lat="42.0812192" lon="12.0007078"><ele>455.0</ele><time>2026-04-21T12:13:07.494Z</time></trkpt><trkpt lat="42.0812843" lon="12.0006563"><ele>456.5</ele><time>2026-04-21T12:13:08.488Z</time></trkpt><trkpt lat="42.081357" lon="12.0005897"><ele>458.0</ele><time>2026-04-21T12:13:09.48Z</time></trkpt><trkpt lat="42.0814343" lon="12.000513"><ele>459.49999999999994</ele><time>2026-04-21T12:13:10.479Z</time></trkpt><trkpt lat="42.081511" lon="12.0004313"><ele>461.0</ele><time>2026-04-21T12:13:11.481Z</time></trkpt><trkpt lat="42.0815847" lon="12.0003478"><ele>459.4</ele><time>2026-04-21T12:13:12.474Z</time></trkpt><trkpt lat="42.0816602" lon="12.0002652"><ele>457.8</ele><time>2026-04-21T12:13:13.47Z</time></trkpt><trkpt lat="42.0817435" lon="12.0001852"><ele>456.19999999999993</ele><time>2026-04-21T12:13:14.477Z</time></trkpt><trkpt lat="42.0818308" lon="12.0001047"><ele>454.59999999999997</ele><time>2026-04-21T12:13:15.476Z</time></trkpt><trkpt lat="42.0819187" lon="12.0000268"><ele>453.0</ele><time>2026-04-21T12:13:16.482Z</time></trkpt><trkpt lat="42.0820053" lon="11.9999532"><ele>453.0</ele><time>2026-04-21T12:13:17.473Z</time></trkpt><trkpt lat="42.0820922" lon="11.9998806"><ele>452.99999999999994</ele><time>2026-04-21T12:13:18.473Z</time></trkpt><trkpt lat="42.0821825" lon="11.9998118"><ele>452.99999999999994</ele><time>2026-04-21T12:13:19.473Z</time></trkpt><trkpt lat="42.082275" lon="11.9997503"><ele>453.0</ele><time>2026-04-21T12:13:20.479Z</time></trkpt><trkpt lat="42.0823733" lon="11.9997068"><ele>453.0</ele><time>2026-04-21T12:13:21.478Z</time></trkpt><trkpt lat="42.0824823" lon="11.9996718"><ele>449.5</ele><time>2026-04-21T12:13:22.485Z</time></trkpt><trkpt lat="42.0825997" lon="11.9996425"><ele>446.0</ele><time>2026-04-21T12:13:23.475Z</time></trkpt><trkpt lat="42.0827233" lon="11.9996172"><ele>442.5</ele><time>2026-04-21T12:13:24.478Z</time></trkpt><trkpt lat="42.0828478" lon="11.9995936"><ele>439.0</ele><time>2026-04-21T12:13:25.482Z</time></trkpt><trkpt lat="42.082973" lon="11.999568"><ele>439.0</ele><time>2026-04-21T12:13:26.482Z</time></trkpt><trkpt lat="42.0830962" lon="11.999534"><ele>439.0</ele><time>2026-04-21T12:13:27.475Z</time></trkpt><trkpt lat="42.0832188" lon="11.9994883"><ele>439.0</ele><time>2026-04-21T12:13:28.473Z</time></trkpt><trkpt lat="42.0833427" lon="11.9994257"><ele>439.0</ele><time>2026-04-21T12:13:29.481Z</time></trkpt><trkpt lat="42.0834672" lon="11.999348"><ele>437.25</ele><time>2026-04-21T12:13:30.484Z</time></trkpt><trkpt lat="42.083592" lon="11.9992605"><ele>435.5</ele><time>2026-04-21T12:13:31.476Z</time></trkpt><trkpt lat="42.0837157" lon="11.9991695"><ele>433.75</ele><time>2026-04-21T12:13:32.471Z</time></trkpt><trkpt lat="42.0838393" lon="11.9990825"><ele>432.0</ele><time>2026-04-21T12:13:33.478Z</time></trkpt><trkpt lat="42.0839567" lon="11.9990028"><ele>432.20000000000005</ele><time>2026-04-21T12:13:34.473Z</time></trkpt><trkpt lat="42.0840622" lon="11.9989296"><ele>432.40000000000003</ele><time>2026-04-21T12:13:35.476Z</time></trkpt><trkpt lat="42.0841513" lon="11.9988596"><ele>432.59999999999997</ele><time>2026-04-21T12:13:36.479Z</time></trkpt><trkpt lat="42.0842277" lon="11.9987908"><ele>432.79999999999995</ele><time>2026-04-21T12:13:37.484Z</time></trkpt><trkpt lat="42.084296" lon="11.9987235"><ele>433.0</ele><time>2026-04-21T12:13:38.477Z</time></trkpt><trkpt lat="42.084364" lon="11.998662"><ele>432.99999999999994</ele><time>2026-04-21T12:13:39.476Z</time></trkpt><trkpt lat="42.0844335" lon="11.9986096"><ele>433.0</ele><time>2026-04-21T12:13:40.478Z</time></trkpt><trkpt lat="42.0845012" lon="11.998565"><ele>433.0</ele><time>2026-04-21T12:13:41.48Z</time></trkpt><trkpt lat="42.0845683" lon="11.9985347"><ele>433.0</ele><time>2026-04-21T12:13:42.479Z</time></trkpt><trkpt lat="42.0846362" lon="11.9985297"><ele>433.0</ele><time>2026-04-21T12:13:43.479Z</time></trkpt><trkpt lat="42.0847075" lon="11.9985308"><ele>432.99999999999994</ele><time>2026-04-21T12:13:44.48Z</time></trkpt><trkpt lat="42.0847897" lon="11.9985208"><ele>433.0</ele><time>2026-04-21T12:13:45.478Z</time></trkpt><trkpt lat="42.0848868" lon="11.9984958"><ele>429.25</ele><time>2026-04-21T12:13:46.474Z</time></trkpt><trkpt lat="42.0849908" lon="11.9984625"><ele>425.5</ele><time>2026-04-21T12:13:47.47Z</time></trkpt><trkpt lat="42.0851022" lon="11.9984315"><ele>421.75</ele><time>2026-04-21T12:13:48.468Z</time></trkpt><trkpt lat="42.0852167" lon="11.9984073"><ele>418.0</ele><time>2026-04-21T12:13:49.473Z</time></trkpt><trkpt lat="42.0853295" lon="11.9983878"><ele>418.0</ele><time>2026-04-21T12:13:50.472Z</time></trkpt><trkpt lat="42.0854423" lon="11.998372"><ele>418.0</ele><time>2026-04-21T12:13:51.472Z</time></trkpt><trkpt lat="42.0855543" lon="11.9983625"><ele>418.0</ele><time>2026-04-21T12:13:52.472Z</time></trkpt><trkpt lat="42.085663" lon="11.9983578"><ele>418.0</ele><time>2026-04-21T12:13:53.475Z</time></trkpt><trkpt lat="42.0857707" lon="11.9983556"><ele>418.0</ele><time>2026-04-21T12:13:54.463Z</time></trkpt><trkpt lat="42.0858813" lon="11.9983493"><ele>415.0</ele><time>2026-04-21T12:13:55.474Z</time></trkpt><trkpt lat="42.085998" lon="11.9983378"><ele>412.0</ele><time>2026-04-21T12:13:56.469Z</time></trkpt><trkpt lat="42.0861193" lon="11.998332"><ele>409.0</ele><time>2026-04-21T12:13:57.468Z</time></trkpt><trkpt lat="42.0862445" lon="11.9983362"><ele>406.0</ele><time>2026-04-21T12:13:58.468Z</time></trkpt><trkpt lat="42.0863735" lon="11.9983411"><ele>406.0</ele><time>2026-04-21T12:13:59.468Z</time></trkpt><trkpt lat="42.0865023" lon="11.9983468"><ele>406.0</ele><time>2026-04-21T12:14:00.477Z</time></trkpt><trkpt lat="42.0866295" lon="11.9983545"><ele>406.0</ele><time>2026-04-21T12:14:01.476Z</time></trkpt><trkpt lat="42.0867567" lon="11.9983595"><ele>406.0</ele><time>2026-04-21T12:14:02.478Z</time></trkpt><trkpt lat="42.0868845" lon="11.9983642"><ele>405.5</ele><time>2026-04-21T12:14:03.478Z</time></trkpt><trkpt lat="42.0870145" lon="11.9983678"><ele>405.0</ele><time>2026-04-21T12:14:04.478Z</time></trkpt><trkpt lat="42.0871497" lon="11.99837"><ele>404.5</ele><time>2026-04-21T12:14:05.479Z</time></trkpt><trkpt lat="42.087288" lon="11.9983713"><ele>404.0</ele><time>2026-04-21T12:14:06.475Z</time></trkpt><trkpt lat="42.0874238" lon="11.9983727"><ele>405.5</ele><time>2026-04-21T12:14:07.476Z</time></trkpt><trkpt lat="42.087555" lon="11.9983787"><ele>407.0</ele><time>2026-04-21T12:14:08.483Z</time></trkpt><trkpt lat="42.0876818" lon="11.9983947"><ele>408.5</ele><time>2026-04-21T12:14:09.48Z</time></trkpt><trkpt lat="42.0878093" lon="11.998424"><ele>410.0</ele><time>2026-04-21T12:14:10.48Z</time></trkpt><trkpt lat="42.0879338" lon="11.9984583"><ele>410.0</ele><time>2026-04-21T12:14:11.478Z</time></trkpt><trkpt lat="42.0880595" lon="11.9984991"><ele>410.0</ele><time>2026-04-21T12:14:12.478Z</time></trkpt><trkpt lat="42.088188" lon="11.9985407"><ele>410.0</ele><time>2026-04-21T12:14:13.478Z</time></trkpt><trkpt lat="42.0883168" lon="11.9985771"><ele>410.0</ele><time>2026-04-21T12:14:14.476Z</time></trkpt><trkpt lat="42.0884467" lon="11.998608"><ele>411.75</ele><time>2026-04-21T12:14:15.478Z</time></trkpt><trkpt lat="42.0885842" lon="11.998634"><ele>413.5</ele><time>2026-04-21T12:14:16.483Z</time></trkpt><trkpt lat="42.088731" lon="11.9986562"><ele>415.25</ele><time>2026-04-21T12:14:17.482Z</time></trkpt><trkpt lat="42.0888847" lon="11.9986756"><ele>417.0</ele><time>2026-04-21T12:14:18.475Z</time></trkpt><trkpt lat="42.0890478" lon="11.9986928"><ele>416.33333333333337</ele><time>2026-04-21T12:14:19.477Z</time></trkpt><trkpt lat="42.0892123" lon="11.9987122"><ele>415.6666666666667</ele><time>2026-04-21T12:14:20.473Z</time></trkpt><trkpt lat="42.0893763" lon="11.998731"><ele>415.0</ele><time>2026-04-21T12:14:21.478Z</time></trkpt><trkpt lat="42.0895383" lon="11.9987525"><ele>415.0</ele><time>2026-04-21T12:14:22.483Z</time></trkpt><trkpt lat="42.0896982" lon="11.9987773"><ele>415.0</ele><time>2026-04-21T12:14:23.475Z</time></trkpt><trkpt lat="42.089856" lon="11.9988048"><ele>415.0</ele><time>2026-04-21T12:14:24.481Z</time></trkpt><trkpt lat="42.0900153" lon="11.998834"><ele>413.6666666666667</ele><time>2026-04-21T12:14:25.481Z</time></trkpt><trkpt lat="42.0901758" lon="11.9988593"><ele>412.33333333333337</ele><time>2026-04-21T12:14:26.484Z</time></trkpt><trkpt lat="42.090339" lon="11.998874"><ele>411.0</ele><time>2026-04-21T12:14:27.485Z</time></trkpt><trkpt lat="42.0905088" lon="11.9988763"><ele>411.0</ele><time>2026-04-21T12:14:28.486Z</time></trkpt><trkpt lat="42.0906842" lon="11.9988646"><ele>411.0</ele><time>2026-04-21T12:14:29.483Z</time></trkpt><trkpt lat="42.0908643" lon="11.9988432"><ele>411.0</ele><time>2026-04-21T12:14:30.482Z</time></trkpt><trkpt lat="42.0910463" lon="11.9988201"><ele>409.66666666666663</ele><time>2026-04-21T12:14:31.487Z</time></trkpt><trkpt lat="42.0912273" lon="11.9987967"><ele>408.3333333333333</ele><time>2026-04-21T12:14:32.488Z</time></trkpt><trkpt lat="42.091404" lon="11.998774"><ele>407.0</ele><time>2026-04-21T12:14:33.481Z</time></trkpt><trkpt lat="42.0915782" lon="11.9987522"><ele>403.0</ele><time>2026-04-21T12:14:34.484Z</time></trkpt><trkpt lat="42.0917502" lon="11.9987355"><ele>399.0</ele><time>2026-04-21T12:14:35.477Z</time></trkpt><trkpt lat="42.0919163" lon="11.998725"><ele>395.0</ele><time>2026-04-21T12:14:36.489Z</time></trkpt><trkpt lat="42.0920762" lon="11.9987294"><ele>395.0</ele><time>2026-04-21T12:14:37.487Z</time></trkpt><trkpt lat="42.0922378" lon="11.998746"><ele>395.0</ele><time>2026-04-21T12:14:38.483Z</time></trkpt><trkpt lat="42.092406" lon="11.9987705"><ele>395.0</ele><time>2026-04-21T12:14:39.484Z</time></trkpt><trkpt lat="42.0925772" lon="11.998801"><ele>394.3333333333333</ele><time>2026-04-21T12:14:40.485Z</time></trkpt><trkpt lat="42.0927492" lon="11.998836"><ele>393.66666666666663</ele><time>2026-04-21T12:14:41.488Z</time></trkpt><trkpt lat="42.0929208" lon="11.998874"><ele>393.0</ele><time>2026-04-21T12:14:42.491Z</time></trkpt><trkpt lat="42.0930945" lon="11.9989167"><ele>392.0</ele><time>2026-04-21T12:14:43.484Z</time></trkpt><trkpt lat="42.0932753" lon="11.9989577"><ele>391.0</ele><time>2026-04-21T12:14:44.5Z</time></trkpt><trkpt lat="42.0934628" lon="11.9989948"><ele>390.0</ele><time>2026-04-21T12:14:45.478Z</time></trkpt><trkpt lat="42.0936527" lon="11.999032"><ele>390.0</ele><time>2026-04-21T12:14:46.48Z</time></trkpt><trkpt lat="42.0938435" lon="11.9990666"><ele>390.0</ele><time>2026-04-21T12:14:47.486Z</time></trkpt><trkpt lat="42.0940363" lon="11.9991017"><ele>390.0</ele><time>2026-04-21T12:14:48.479Z</time></trkpt><trkpt lat="42.0942297" lon="11.9991397"><ele>389.33333333333337</ele><time>2026-04-21T12:14:49.482Z</time></trkpt><trkpt lat="42.094422" lon="11.9991793"><ele>388.6666666666667</ele><time>2026-04-21T12:14:50.482Z</time></trkpt><trkpt lat="42.0946122" lon="11.9992185"><ele>388.0</ele><time>2026-04-21T12:14:51.479Z</time></trkpt><trkpt lat="42.0948038" lon="11.9992588"><ele>387.33333333333337</ele><time>2026-04-21T12:14:52.484Z</time></trkpt><trkpt lat="42.0949957" lon="11.999299"><ele>386.66666666666663</ele><time>2026-04-21T12:14:53.486Z</time></trkpt><trkpt lat="42.0951878" lon="11.9993403"><ele>386.0</ele><time>2026-04-21T12:14:54.482Z</time></trkpt><trkpt lat="42.0953797" lon="11.9993812"><ele>386.0</ele><time>2026-04-21T12:14:55.481Z</time></trkpt><trkpt lat="42.0955693" lon="11.9994201"><ele>386.0</ele><time>2026-04-21T12:14:56.48Z</time></trkpt><trkpt lat="42.0957555" lon="11.9994581"><ele>386.0</ele><time>2026-04-21T12:14:57.479Z</time></trkpt><trkpt lat="42.095939" lon="11.999492"><ele>384.66666666666663</ele><time>2026-04-21T12:14:58.48Z</time></trkpt><trkpt lat="42.096119" lon="11.9995138"><ele>383.3333333333333</ele><time>2026-04-21T12:14:59.484Z</time></trkpt><trkpt lat="42.0962958" lon="11.999515"><ele>382.0</ele><time>2026-04-21T12:15:00.48Z</time></trkpt><trkpt lat="42.0964693" lon="11.999489"><ele>378.3333333333333</ele><time>2026-04-21T12:15:01.483Z</time></trkpt><trkpt lat="42.0966345" lon="11.9994417"><ele>374.6666666666667</ele><time>2026-04-21T12:15:02.494Z</time></trkpt><trkpt lat="42.0967925" lon="11.9993742"><ele>371.0</ele><time>2026-04-21T12:15:03.484Z</time></trkpt><trkpt lat="42.0969438" lon="11.9992933"><ele>371.0</ele><time>2026-04-21T12:15:04.489Z</time></trkpt><trkpt lat="42.09709" lon="11.999204"><ele>371.0</ele><time>2026-04-21T12:15:05.483Z</time></trkpt><trkpt lat="42.0972342" lon="11.999113"><ele>371.0</ele><time>2026-04-21T12:15:06.487Z</time></trkpt><trkpt lat="42.0973792" lon="11.9990217"><ele>367.33333333333337</ele><time>2026-04-21T12:15:07.485Z</time></trkpt><trkpt lat="42.0975282" lon="11.9989258"><ele>363.6666666666667</ele><time>2026-04-21T12:15:08.491Z</time></trkpt><trkpt lat="42.0976763" lon="11.9988268"><ele>360.0</ele><time>2026-04-21T12:15:09.483Z</time></trkpt><trkpt lat="42.0978198" lon="11.9987267"><ele>360.0</ele><time>2026-04-21T12:15:10.507Z</time></trkpt><trkpt lat="42.0979625" lon="11.998627"><ele>360.0</ele><time>2026-04-21T12:15:11.49Z</time></trkpt><trkpt lat="42.0981053" lon="11.9985304"><ele>360.0</ele><time>2026-04-21T12:15:12.481Z</time></trkpt><trkpt lat="42.0982495" lon="11.998438"><ele>359.0</ele><time>2026-04-21T12:15:13.486Z</time></trkpt><trkpt lat="42.0983948" lon="11.9983545"><ele>358.0</ele><time>2026-04-21T12:15:14.488Z</time></trkpt><trkpt lat="42.0985447" lon="11.998285"><ele>357.0</ele><time>2026-04-21T12:15:15.48Z</time></trkpt><trkpt lat="42.098699" lon="11.998227"><ele>357.0</ele><time>2026-04-21T12:15:16.484Z</time></trkpt><trkpt lat="42.0988572" lon="11.9981912"><ele>357.0</ele><time>2026-04-21T12:15:17.485Z</time></trkpt><trkpt lat="42.0990157" lon="11.998173"><ele>357.0</ele><time>2026-04-21T12:15:18.483Z</time></trkpt><trkpt lat="42.0991722" lon="11.9981625"><ele>356.3333333333333</ele><time>2026-04-21T12:15:19.489Z</time></trkpt><trkpt lat="42.0993287" lon="11.9981557"><ele>355.66666666666663</ele><time>2026-04-21T12:15:20.486Z</time></trkpt><trkpt lat="42.0994848" lon="11.9981521"><ele>355.0</ele><time>2026-04-21T12:15:21.485Z</time></trkpt><trkpt lat="42.0996388" lon="11.9981486"><ele>355.0</ele><time>2026-04-21T12:15:22.484Z</time></trkpt><trkpt lat="42.099783" lon="11.9981367"><ele>355.0</ele><time>2026-04-21T12:15:23.48Z</time></trkpt><trkpt lat="42.0999115" lon="11.9981116"><ele>355.0</ele><time>2026-04-21T12:15:24.487Z</time></trkpt><trkpt lat="42.1000387" lon="11.9980651"><ele>355.0</ele><time>2026-04-21T12:15:25.486Z</time></trkpt><trkpt lat="42.1001793" lon="11.9979965"><ele>352.0</ele><time>2026-04-21T12:15:26.496Z</time></trkpt><trkpt lat="42.1003258" lon="11.9979238"><ele>349.0</ele><time>2026-04-21T12:15:27.507Z</time></trkpt><trkpt lat="42.100472" lon="11.9978663"><ele>346.0</ele><time>2026-04-21T12:15:28.482Z</time></trkpt><trkpt lat="42.100621" lon="11.997829"><ele>344.5</ele><time>2026-04-21T12:15:29.489Z</time></trkpt><trkpt lat="42.1007702" lon="11.9978122"><ele>343.0</ele><time>2026-04-21T12:15:30.488Z</time></trkpt><trkpt lat="42.100916" lon="11.9978277"><ele>341.5</ele><time>2026-04-21T12:15:31.501Z</time></trkpt><trkpt lat="42.1010657" lon="11.9978691"><ele>340.0</ele><time>2026-04-21T12:15:32.484Z</time></trkpt><trkpt lat="42.1012153" lon="11.9979228"><ele>340.0</ele><time>2026-04-21T12:15:33.484Z</time></trkpt><trkpt lat="42.1013612" lon="11.99798"><ele>340.0</ele><time>2026-04-21T12:15:34.487Z</time></trkpt><trkpt lat="42.1015018" lon="11.9980258"><ele>340.0</ele><time>2026-04-21T12:15:35.487Z</time></trkpt><trkpt lat="42.101643" lon="11.9980456"><ele>340.0</ele><time>2026-04-21T12:15:36.492Z</time></trkpt><trkpt lat="42.1017913" lon="11.9980381"><ele>340.3333333333333</ele><time>2026-04-21T12:15:37.493Z</time></trkpt><trkpt lat="42.1019493" lon="11.9980147"><ele>340.6666666666667</ele><time>2026-04-21T12:15:38.494Z</time></trkpt><trkpt lat="42.102117" lon="11.9979842"><ele>341.0</ele><time>2026-04-21T12:15:39.481Z</time></trkpt><trkpt lat="42.102291" lon="11.9979513"><ele>339.33333333333337</ele><time>2026-04-21T12:15:40.484Z</time></trkpt><trkpt lat="42.10247" lon="11.9979198"><ele>337.6666666666667</ele><time>2026-04-21T12:15:41.492Z</time></trkpt><trkpt lat="42.1026468" lon="11.9978855"><ele>336.0</ele><time>2026-04-21T12:15:42.497Z</time></trkpt><trkpt lat="42.1028218" lon="11.9978503"><ele>336.0</ele><time>2026-04-21T12:15:43.485Z</time></trkpt><trkpt lat="42.1029973" lon="11.9978168"><ele>336.0</ele><time>2026-04-21T12:15:44.491Z</time></trkpt><trkpt lat="42.1031723" lon="11.9977857"><ele>336.0</ele><time>2026-04-21T12:15:45.485Z</time></trkpt><trkpt lat="42.1033447" lon="11.997754"><ele>336.6666666666667</ele><time>2026-04-21T12:15:46.484Z</time></trkpt><trkpt lat="42.1035172" lon="11.9977218"><ele>337.33333333333337</ele><time>2026-04-21T12:15:47.485Z</time></trkpt><trkpt lat="42.1036903" lon="11.9976905"><ele>338.0</ele><time>2026-04-21T12:15:48.484Z</time></trkpt><trkpt lat="42.1038647" lon="11.997658"><ele>338.0</ele><time>2026-04-21T12:15:49.482Z</time></trkpt><trkpt lat="42.1040352" lon="11.9976232"><ele>338.0</ele><time>2026-04-21T12:15:50.484Z</time></trkpt><trkpt lat="42.1042022" lon="11.997591"><ele>338.0</ele><time>2026-04-21T12:15:51.481Z</time></trkpt><trkpt lat="42.104368" lon="11.9975583"><ele>337.0</ele><time>2026-04-21T12:15:52.482Z</time></trkpt><trkpt lat="42.1045372" lon="11.9975203"><ele>336.0</ele><time>2026-04-21T12:15:53.483Z</time></trkpt><trkpt lat="42.1047057" lon="11.9974803"><ele>335.0</ele><time>2026-04-21T12:15:54.485Z</time></trkpt><trkpt lat="42.1048713" lon="11.9974443"><ele>337.0</ele><time>2026-04-21T12:15:55.483Z</time></trkpt><trkpt lat="42.1050318" lon="11.9974158"><ele>339.0</ele><time>2026-04-21T12:15:56.483Z</time></trkpt><trkpt lat="42.10519" lon="11.9973906"><ele>341.0</ele><time>2026-04-21T12:15:57.481Z</time></trkpt><trkpt lat="42.1053487" lon="11.997362"><ele>341.0</ele><time>2026-04-21T12:15:58.481Z</time></trkpt><trkpt lat="42.1055073" lon="11.9973198"><ele>341.0</ele><time>2026-04-21T12:15:59.501Z</time></trkpt><trkpt lat="42.105666" lon="11.9972622"><ele>341.0</ele><time>2026-04-21T12:16:00.491Z</time></trkpt><trkpt lat="42.1058243" lon="11.9971838"><ele>339.33333333333337</ele><time>2026-04-21T12:16:01.498Z</time></trkpt><trkpt lat="42.1059842" lon="11.99708"><ele>337.6666666666667</ele><time>2026-04-21T12:16:02.484Z</time></trkpt><trkpt lat="42.1061472" lon="11.9969545"><ele>336.0</ele><time>2026-04-21T12:16:03.485Z</time></trkpt><trkpt lat="42.1063125" lon="11.996827"><ele>336.0</ele><time>2026-04-21T12:16:04.493Z</time></trkpt><trkpt lat="42.1064757" lon="11.9967023"><ele>336.0</ele><time>2026-04-21T12:16:05.49Z</time></trkpt><trkpt lat="42.1066345" lon="11.9965786"><ele>336.0</ele><time>2026-04-21T12:16:06.491Z</time></trkpt><trkpt lat="42.1067903" lon="11.9964571"><ele>335.3333333333333</ele><time>2026-04-21T12:16:07.487Z</time></trkpt><trkpt lat="42.1069425" lon="11.9963365"><ele>334.66666666666663</ele><time>2026-04-21T12:16:08.49Z</time></trkpt><trkpt lat="42.1070892" lon="11.9962207"><ele>334.0</ele><time>2026-04-21T12:16:09.508Z</time></trkpt><trkpt lat="42.1072285" lon="11.9961172"><ele>334.0</ele><time>2026-04-21T12:16:10.497Z</time></trkpt><trkpt lat="42.1073675" lon="11.9960282"><ele>334.0</ele><time>2026-04-21T12:16:11.486Z</time></trkpt><trkpt lat="42.1075067" lon="11.995957"><ele>334.0</ele><time>2026-04-21T12:16:12.489Z</time></trkpt><trkpt lat="42.1076523" lon="11.9958975"><ele>332.25</ele><time>2026-04-21T12:16:13.487Z</time></trkpt><trkpt lat="42.1077953" lon="11.9958475"><ele>330.5</ele><time>2026-04-21T12:16:14.489Z</time></trkpt><trkpt lat="42.107934" lon="11.9958008"><ele>328.75</ele><time>2026-04-21T12:16:15.486Z</time></trkpt><trkpt lat="42.108066" lon="11.995757"><ele>327.0</ele><time>2026-04-21T12:16:16.49Z</time></trkpt><trkpt lat="42.1081825" lon="11.9957143"><ele>326.20000000000005</ele><time>2026-04-21T12:16:17.488Z</time></trkpt><trkpt lat="42.1082843" lon="11.9956642"><ele>325.4</ele><time>2026-04-21T12:16:18.494Z</time></trkpt><trkpt lat="42.1083673" lon="11.9955978"><ele>324.6</ele><time>2026-04-21T12:16:19.495Z</time></trkpt><trkpt lat="42.1084355" lon="11.9955052"><ele>323.79999999999995</ele><time>2026-04-21T12:16:20.491Z</time></trkpt><trkpt lat="42.1085023" lon="11.9953838"><ele>323.0</ele><time>2026-04-21T12:16:21.502Z</time></trkpt><trkpt lat="42.1085727" lon="11.9952386"><ele>323.0</ele><time>2026-04-21T12:16:22.491Z</time></trkpt><trkpt lat="42.1086505" lon="11.9950683"><ele>323.0</ele><time>2026-04-21T12:16:23.49Z</time></trkpt><trkpt lat="42.1087368" lon="11.9948858"><ele>323.0</ele><time>2026-04-21T12:16:24.509Z</time></trkpt><trkpt lat="42.1088265" lon="11.9946963"><ele>322.6666666666667</ele><time>2026-04-21T12:16:25.499Z</time></trkpt><trkpt lat="42.1089175" lon="11.9945015"><ele>322.3333333333333</ele><time>2026-04-21T12:16:26.499Z</time></trkpt><trkpt lat="42.109004" lon="11.994303"><ele>322.0</ele><time>2026-04-21T12:16:27.511Z</time></trkpt><trkpt lat="42.1090872" lon="11.9941066"><ele>325.0</ele><time>2026-04-21T12:16:28.492Z</time></trkpt><trkpt lat="42.1091723" lon="11.9939216"><ele>328.0</ele><time>2026-04-21T12:16:29.491Z</time></trkpt><trkpt lat="42.109259" lon="11.9937475"><ele>331.0</ele><time>2026-04-21T12:16:30.491Z</time></trkpt><trkpt lat="42.1093463" lon="11.9935842"><ele>331.0</ele><time>2026-04-21T12:16:31.49Z</time></trkpt><trkpt lat="42.1094347" lon="11.9934476"><ele>331.0</ele><time>2026-04-21T12:16:32.494Z</time></trkpt><trkpt lat="42.1095282" lon="11.9933406"><ele>331.0</ele><time>2026-04-21T12:16:33.485Z</time></trkpt><trkpt lat="42.1096423" lon="11.9932511"><ele>331.0</ele><time>2026-04-21T12:16:34.487Z</time></trkpt><trkpt lat="42.1097777" lon="11.9931652"><ele>334.3333333333333</ele><time>2026-04-21T12:16:35.497Z</time></trkpt><trkpt lat="42.109925" lon="11.9930833"><ele>337.6666666666667</ele><time>2026-04-21T12:16:36.492Z</time></trkpt><trkpt lat="42.1100807" lon="11.9930085"><ele>341.0</ele><time>2026-04-21T12:16:37.483Z</time></trkpt><trkpt lat="42.110242" lon="11.9929403"><ele>341.0</ele><time>2026-04-21T12:16:38.478Z</time></trkpt><trkpt lat="42.110404" lon="11.9928812"><ele>341.0</ele><time>2026-04-21T12:16:39.479Z</time></trkpt><trkpt lat="42.1105598" lon="11.9928367"><ele>341.0</ele><time>2026-04-21T12:16:40.476Z</time></trkpt><trkpt lat="42.1107077" lon="11.9927995"><ele>343.33333333333337</ele><time>2026-04-21T12:16:41.48Z</time></trkpt><trkpt lat="42.1108518" lon="11.992766"><ele>345.6666666666667</ele><time>2026-04-21T12:16:42.48Z</time></trkpt><trkpt lat="42.1110013" lon="11.9927333"><ele>348.0</ele><time>2026-04-21T12:16:43.478Z</time></trkpt><trkpt lat="42.1111558" lon="11.9927042"><ele>348.0</ele><time>2026-04-21T12:16:44.482Z</time></trkpt><trkpt lat="42.1113083" lon="11.9926784"><ele>348.0</ele><time>2026-04-21T12:16:45.483Z</time></trkpt><trkpt lat="42.1114573" lon="11.9926573"><ele>348.0</ele><time>2026-04-21T12:16:46.497Z</time></trkpt><trkpt lat="42.1115992" lon="11.9926352"><ele>348.0</ele><time>2026-04-21T12:16:47.49Z</time></trkpt><trkpt lat="42.1117353" lon="11.9925928"><ele>347.75</ele><time>2026-04-21T12:16:48.496Z</time></trkpt><trkpt lat="42.1118673" lon="11.9925208"><ele>347.5</ele><time>2026-04-21T12:16:49.492Z</time></trkpt><trkpt lat="42.1119922" lon="11.9924185"><ele>347.25</ele><time>2026-04-21T12:16:50.496Z</time></trkpt><trkpt lat="42.1121035" lon="11.9922807"><ele>347.0</ele><time>2026-04-21T12:16:51.487Z</time></trkpt><trkpt lat="42.112209" lon="11.9921093"><ele>345.6666666666667</ele><time>2026-04-21T12:16:52.485Z</time></trkpt><trkpt lat="42.1123092" lon="11.9919218"><ele>344.3333333333333</ele><time>2026-04-21T12:16:53.483Z</time></trkpt><trkpt lat="42.1124007" lon="11.9917245"><ele>343.0</ele><time>2026-04-21T12:16:54.489Z</time></trkpt><trkpt lat="42.1124828" lon="11.9915172"><ele>343.0</ele><time>2026-04-21T12:16:55.484Z</time></trkpt><trkpt lat="42.1125562" lon="11.9913082"><ele>343.0</ele><time>2026-04-21T12:16:56.485Z</time></trkpt><trkpt lat="42.1126237" lon="11.9911005"><ele>343.0</ele><time>2026-04-21T12:16:57.492Z</time></trkpt><trkpt lat="42.1126848" lon="11.9909011"><ele>341.75</ele><time>2026-04-21T12:16:58.497Z</time></trkpt><trkpt lat="42.1127392" lon="11.9907091"><ele>340.5</ele><time>2026-04-21T12:16:59.486Z</time></trkpt><trkpt lat="42.112789" lon="11.9905206"><ele>339.25</ele><time>2026-04-21T12:17:00.481Z</time></trkpt><trkpt lat="42.1128357" lon="11.9903315"><ele>338.0</ele><time>2026-04-21T12:17:01.48Z</time></trkpt><trkpt lat="42.1128815" lon="11.9901353"><ele>339.33333333333337</ele><time>2026-04-21T12:17:02.491Z</time></trkpt><trkpt lat="42.1129272" lon="11.9899263"><ele>340.6666666666667</ele><time>2026-04-21T12:17:03.481Z</time></trkpt><trkpt lat="42.112972" lon="11.9897021"><ele>342.0</ele><time>2026-04-21T12:17:04.479Z</time></trkpt><trkpt lat="42.113012" lon="11.9894705"><ele>342.0</ele><time>2026-04-21T12:17:05.479Z</time></trkpt><trkpt lat="42.1130523" lon="11.9892405"><ele>342.0</ele><time>2026-04-21T12:17:06.476Z</time></trkpt><trkpt lat="42.1130927" lon="11.9890175"><ele>342.0</ele><time>2026-04-21T12:17:07.482Z</time></trkpt><trkpt lat="42.1131293" lon="11.9888028"><ele>345.0</ele><time>2026-04-21T12:17:08.483Z</time></trkpt><trkpt lat="42.1131632" lon="11.9885945"><ele>348.0</ele><time>2026-04-21T12:17:09.476Z</time></trkpt><trkpt lat="42.1131955" lon="11.9883941"><ele>351.0</ele><time>2026-04-21T12:17:10.47Z</time></trkpt><trkpt lat="42.1132265" lon="11.9882023"><ele>349.25</ele><time>2026-04-21T12:17:11.469Z</time></trkpt><trkpt lat="42.1132532" lon="11.9880175"><ele>347.5</ele><time>2026-04-21T12:17:12.47Z</time></trkpt><trkpt lat="42.1132732" lon="11.987832"><ele>345.75</ele><time>2026-04-21T12:17:13.469Z</time></trkpt><trkpt lat="42.1132897" lon="11.9876391"><ele>344.0</ele><time>2026-04-21T12:17:14.469Z</time></trkpt><trkpt lat="42.113312" lon="11.987448"><ele>344.0</ele><time>2026-04-21T12:17:15.461Z</time></trkpt><trkpt lat="42.1133357" lon="11.9872666"><ele>344.0</ele><time>2026-04-21T12:17:16.462Z</time></trkpt><trkpt lat="42.1133603" lon="11.9871058"><ele>344.0</ele><time>2026-04-21T12:17:17.464Z</time></trkpt><trkpt lat="42.1133885" lon="11.9869552"><ele>344.0</ele><time>2026-04-21T12:17:18.461Z</time></trkpt><trkpt lat="42.1134218" lon="11.9868048"><ele>345.0</ele><time>2026-04-21T12:17:19.465Z</time></trkpt><trkpt lat="42.1134562" lon="11.9866617"><ele>346.0</ele><time>2026-04-21T12:17:20.469Z</time></trkpt><trkpt lat="42.113492" lon="11.9865226"><ele>347.0</ele><time>2026-04-21T12:17:21.469Z</time></trkpt><trkpt lat="42.1135362" lon="11.986376"><ele>348.0</ele><time>2026-04-21T12:17:22.47Z</time></trkpt><trkpt lat="42.1135795" lon="11.9862165"><ele>348.0</ele><time>2026-04-21T12:17:23.474Z</time></trkpt><trkpt lat="42.1136168" lon="11.9860353"><ele>348.0</ele><time>2026-04-21T12:17:24.464Z</time></trkpt><trkpt lat="42.1136477" lon="11.9858418"><ele>348.0</ele><time>2026-04-21T12:17:25.474Z</time></trkpt><trkpt lat="42.1136772" lon="11.9856458"><ele>348.0</ele><time>2026-04-21T12:17:26.487Z</time></trkpt><trkpt lat="42.1137075" lon="11.9854485"><ele>348.0</ele><time>2026-04-21T12:17:27.473Z</time></trkpt><trkpt lat="42.1137407" lon="11.9852487"><ele>348.0</ele><time>2026-04-21T12:17:28.466Z</time></trkpt><trkpt lat="42.1137777" lon="11.985042"><ele>348.0</ele><time>2026-04-21T12:17:29.471Z</time></trkpt><trkpt lat="42.1138117" lon="11.9848318"><ele>348.0</ele><time>2026-04-21T12:17:30.477Z</time></trkpt><trkpt lat="42.1138478" lon="11.984622"><ele>348.0</ele><time>2026-04-21T12:17:31.518Z</time></trkpt><trkpt lat="42.1138882" lon="11.9844165"><ele>348.0</ele><time>2026-04-21T12:17:32.478Z</time></trkpt><trkpt lat="42.113928" lon="11.9842132"><ele>347.0</ele><time>2026-04-21T12:17:33.472Z</time></trkpt><trkpt lat="42.1139662" lon="11.9840157"><ele>346.0</ele><time>2026-04-21T12:17:34.477Z</time></trkpt><trkpt lat="42.1139998" lon="11.983826"><ele>345.0</ele><time>2026-04-21T12:17:35.476Z</time></trkpt><trkpt lat="42.1140265" lon="11.983643"><ele>344.0</ele><time>2026-04-21T12:17:36.486Z</time></trkpt><trkpt lat="42.1140375" lon="11.983459"><ele>342.25</ele><time>2026-04-21T12:17:37.484Z</time></trkpt><trkpt lat="42.1140242" lon="11.9832703"><ele>340.5</ele><time>2026-04-21T12:17:38.494Z</time></trkpt><trkpt lat="42.1139863" lon="11.9830815"><ele>338.75</ele><time>2026-04-21T12:17:39.481Z</time></trkpt><trkpt lat="42.1139322" lon="11.9828973"><ele>337.0</ele><time>2026-04-21T12:17:40.491Z</time></trkpt><trkpt lat="42.1138735" lon="11.9827183"><ele>337.0</ele><time>2026-04-21T12:17:41.483Z</time></trkpt><trkpt lat="42.1138135" lon="11.9825456"><ele>337.0</ele><time>2026-04-21T12:17:42.482Z</time></trkpt><trkpt lat="42.1137587" lon="11.982387"><ele>337.0</ele><time>2026-04-21T12:17:43.484Z</time></trkpt><trkpt lat="42.1137177" lon="11.9822418"><ele>337.0</ele><time>2026-04-21T12:17:44.485Z</time></trkpt><trkpt lat="42.1136968" lon="11.9821032"><ele>336.5</ele><time>2026-04-21T12:17:45.49Z</time></trkpt><trkpt lat="42.113694" lon="11.9819653"><ele>336.0</ele><time>2026-04-21T12:17:46.498Z</time></trkpt><trkpt lat="42.1137148" lon="11.9818241"><ele>335.5</ele><time>2026-04-21T12:17:47.496Z</time></trkpt><trkpt lat="42.1137602" lon="11.9816755"><ele>335.0</ele><time>2026-04-21T12:17:48.493Z</time></trkpt><trkpt lat="42.113826" lon="11.9815205"><ele>335.0</ele><time>2026-04-21T12:17:49.486Z</time></trkpt><trkpt lat="42.1138985" lon="11.981363"><ele>335.0</ele><time>2026-04-21T12:17:50.481Z</time></trkpt><trkpt lat="42.113966" lon="11.9812058"><ele>335.0</ele><time>2026-04-21T12:17:51.484Z</time></trkpt><trkpt lat="42.114017" lon="11.9810463"><ele>335.0</ele><time>2026-04-21T12:17:52.484Z</time></trkpt><trkpt lat="42.1140482" lon="11.980883"><ele>336.25</ele><time>2026-04-21T12:17:53.487Z</time></trkpt><trkpt lat="42.1140535" lon="11.9807176"><ele>337.5</ele><time>2026-04-21T12:17:54.488Z</time></trkpt><trkpt lat="42.1140365" lon="11.9805437"><ele>338.75</ele><time>2026-04-21T12:17:55.493Z</time></trkpt><trkpt lat="42.1140048" lon="11.9803557"><ele>340.0</ele><time>2026-04-21T12:17:56.486Z</time></trkpt><trkpt lat="42.113967" lon="11.9801677"><ele>340.0</ele><time>2026-04-21T12:17:57.489Z</time></trkpt><trkpt lat="42.1139343" lon="11.9799843"><ele>340.0</ele><time>2026-04-21T12:17:58.482Z</time></trkpt><trkpt lat="42.1139123" lon="11.979809"><ele>340.0</ele><time>2026-04-21T12:17:59.48Z</time></trkpt><trkpt lat="42.1139042" lon="11.9796368"><ele>340.0</ele><time>2026-04-21T12:18:00.478Z</time></trkpt><trkpt lat="42.1139138" lon="11.9794647"><ele>340.0</ele><time>2026-04-21T12:18:01.494Z</time></trkpt><trkpt lat="42.113944" lon="11.9793"><ele>340.0</ele><time>2026-04-21T12:18:02.478Z</time></trkpt><trkpt lat="42.1139988" lon="11.9791352"><ele>340.0</ele><time>2026-04-21T12:18:03.482Z</time></trkpt><trkpt lat="42.1140757" lon="11.9789613"><ele>340.0</ele><time>2026-04-21T12:18:04.481Z</time></trkpt><trkpt lat="42.114167" lon="11.9787782"><ele>336.3333333333333</ele><time>2026-04-21T12:18:05.481Z</time></trkpt><trkpt lat="42.1142607" lon="11.9786003"><ele>332.6666666666667</ele><time>2026-04-21T12:18:06.484Z</time></trkpt><trkpt lat="42.114349" lon="11.9784368"><ele>329.0</ele><time>2026-04-21T12:18:07.482Z</time></trkpt><trkpt lat="42.1144337" lon="11.978282"><ele>329.0</ele><time>2026-04-21T12:18:08.486Z</time></trkpt><trkpt lat="42.1145192" lon="11.9781241"><ele>329.0</ele><time>2026-04-21T12:18:09.483Z</time></trkpt><trkpt lat="42.1146077" lon="11.9779618"><ele>329.0</ele><time>2026-04-21T12:18:10.481Z</time></trkpt><trkpt lat="42.1147" lon="11.9777921"><ele>329.0</ele><time>2026-04-21T12:18:11.48Z</time></trkpt><trkpt lat="42.1147958" lon="11.9776177"><ele>329.0</ele><time>2026-04-21T12:18:12.49Z</time></trkpt><trkpt lat="42.1148948" lon="11.9774375"><ele>329.0</ele><time>2026-04-21T12:18:13.49Z</time></trkpt><trkpt lat="42.1149945" lon="11.9772532"><ele>330.0</ele><time>2026-04-21T12:18:14.487Z</time></trkpt><trkpt lat="42.1150903" lon="11.9770755"><ele>331.0</ele><time>2026-04-21T12:18:15.483Z</time></trkpt><trkpt lat="42.115184" lon="11.9769062"><ele>332.0</ele><time>2026-04-21T12:18:16.485Z</time></trkpt><trkpt lat="42.1152758" lon="11.9767413"><ele>333.5</ele><time>2026-04-21T12:18:17.484Z</time></trkpt><trkpt lat="42.115361" lon="11.9765833"><ele>335.0</ele><time>2026-04-21T12:18:18.483Z</time></trkpt><trkpt lat="42.1154368" lon="11.9764333"><ele>336.5</ele><time>2026-04-21T12:18:19.485Z</time></trkpt><trkpt lat="42.1155045" lon="11.9762907"><ele>338.0</ele><time>2026-04-21T12:18:20.486Z</time></trkpt><trkpt lat="42.1155545" lon="11.9761472"><ele>338.0</ele><time>2026-04-21T12:18:21.488Z</time></trkpt><trkpt lat="42.1155807" lon="11.975991"><ele>338.0</ele><time>2026-04-21T12:18:22.49Z</time></trkpt><trkpt lat="42.1155825" lon="11.9758222"><ele>338.0</ele><time>2026-04-21T12:18:23.482Z</time></trkpt><trkpt lat="42.1155647" lon="11.9756652"><ele>338.0</ele><time>2026-04-21T12:18:24.495Z</time></trkpt><trkpt lat="42.1155378" lon="11.9755463"><ele>339.59999999999997</ele><time>2026-04-21T12:18:25.497Z</time></trkpt><trkpt lat="42.1155083" lon="11.9754161"><ele>341.2</ele><time>2026-04-21T12:18:27.483Z</time></trkpt><trkpt lat="42.1155" lon="11.9753207"><ele>342.8</ele><time>2026-04-21T12:18:29.471Z</time></trkpt><trkpt lat="42.1154747" lon="11.9751576"><ele>344.4</ele><time>2026-04-21T12:18:31.479Z</time></trkpt><trkpt lat="42.1154203" lon="11.9750452"><ele>346.0</ele><time>2026-04-21T12:18:33.478Z</time></trkpt><trkpt lat="42.1153423" lon="11.9749827"><ele>346.0</ele><time>2026-04-21T12:18:35.487Z</time></trkpt><trkpt lat="42.1152795" lon="11.9749722"><ele>346.0</ele><time>2026-04-21T12:18:37.48Z</time></trkpt><trkpt lat="42.1152595" lon="11.975104"><ele>346.0</ele><time>2026-04-21T12:18:48.487Z</time></trkpt><trkpt lat="42.1153287" lon="11.9752512"><ele>346.0</ele><time>2026-04-21T12:18:50.483Z</time></trkpt><trkpt lat="42.1153755" lon="11.9753121"><ele>346.0</ele><time>2026-04-21T12:18:51.485Z</time></trkpt><trkpt lat="42.1154652" lon="11.9753702"><ele>346.0</ele><time>2026-04-21T12:18:53.491Z</time></trkpt><trkpt lat="42.1155182" lon="11.9753173"><ele>346.0</ele><time>2026-04-21T12:18:57.48Z</time></trkpt><trkpt lat="42.115478" lon="11.975164"><ele>346.0</ele><time>2026-04-21T12:19:04.496Z</time></trkpt><trkpt lat="42.1154435" lon="11.975091"><ele>346.0</ele><time>2026-04-21T12:19:05.484Z</time></trkpt><trkpt lat="42.1153507" lon="11.9749975"><ele>346.0</ele><time>2026-04-21T12:19:07.485Z</time></trkpt><trkpt lat="42.1152463" lon="11.97499"><ele>346.0</ele><time>2026-04-21T12:19:09.481Z</time></trkpt><trkpt lat="42.1151877" lon="11.9750229"><ele>346.0</ele><time>2026-04-21T12:19:10.493Z</time></trkpt><trkpt lat="42.1151312" lon="11.9750813"><ele>346.0</ele><time>2026-04-21T12:19:11.487Z</time></trkpt><trkpt lat="42.1150708" lon="11.9751593"><ele>346.0</ele><time>2026-04-21T12:19:12.482Z</time></trkpt><trkpt lat="42.1150033" lon="11.9752505"><ele>346.0</ele><time>2026-04-21T12:19:13.485Z</time></trkpt><trkpt lat="42.1149295" lon="11.9753517"><ele>346.0</ele><time>2026-04-21T12:19:14.485Z</time></trkpt><trkpt lat="42.114847" lon="11.9754553"><ele>346.5</ele><time>2026-04-21T12:19:15.482Z</time></trkpt><trkpt lat="42.1147535" lon="11.9755572"><ele>347.0</ele><time>2026-04-21T12:19:16.491Z</time></trkpt><trkpt lat="42.114652" lon="11.97565"><ele>347.5</ele><time>2026-04-21T12:19:17.485Z</time></trkpt><trkpt lat="42.1145368" lon="11.9757216"><ele>348.0</ele><time>2026-04-21T12:19:18.487Z</time></trkpt><trkpt lat="42.1144028" lon="11.9757801"><ele>348.0</ele><time>2026-04-21T12:19:19.486Z</time></trkpt><trkpt lat="42.1142527" lon="11.975833"><ele>348.0</ele><time>2026-04-21T12:19:20.488Z</time></trkpt><trkpt lat="42.1140963" lon="11.9758838"><ele>348.0</ele><time>2026-04-21T12:19:21.488Z</time></trkpt><trkpt lat="42.1139382" lon="11.9759351"><ele>346.0</ele><time>2026-04-21T12:19:22.486Z</time></trkpt><trkpt lat="42.1137813" lon="11.9759852"><ele>344.0</ele><time>2026-04-21T12:19:23.486Z</time></trkpt><trkpt lat="42.1136315" lon="11.9760373"><ele>342.0</ele><time>2026-04-21T12:19:24.487Z</time></trkpt><trkpt lat="42.1134947" lon="11.976102"><ele>342.0</ele><time>2026-04-21T12:19:25.493Z</time></trkpt><trkpt lat="42.113384" lon="11.976189"><ele>342.0</ele><time>2026-04-21T12:19:26.494Z</time></trkpt><trkpt lat="42.1132975" lon="11.9763093"><ele>342.0</ele><time>2026-04-21T12:19:27.497Z</time></trkpt><trkpt lat="42.1132295" lon="11.9764668"><ele>342.0</ele><time>2026-04-21T12:19:28.481Z</time></trkpt><trkpt lat="42.1131717" lon="11.9766562"><ele>344.3333333333333</ele><time>2026-04-21T12:19:29.486Z</time></trkpt><trkpt lat="42.11312" lon="11.976859"><ele>346.66666666666663</ele><time>2026-04-21T12:19:30.483Z</time></trkpt><trkpt lat="42.113065" lon="11.9770602"><ele>349.0</ele><time>2026-04-21T12:19:31.498Z</time></trkpt><trkpt lat="42.1129948" lon="11.9772548"><ele>349.0</ele><time>2026-04-21T12:19:32.491Z</time></trkpt><trkpt lat="42.112907" lon="11.9774398"><ele>349.0</ele><time>2026-04-21T12:19:33.491Z</time></trkpt><trkpt lat="42.1128123" lon="11.977621"><ele>349.0</ele><time>2026-04-21T12:19:34.484Z</time></trkpt><trkpt lat="42.1127168" lon="11.9777923"><ele>349.25</ele><time>2026-04-21T12:19:35.496Z</time></trkpt><trkpt lat="42.1126318" lon="11.9779581"><ele>349.5</ele><time>2026-04-21T12:19:36.483Z</time></trkpt><trkpt lat="42.1125727" lon="11.978119"><ele>349.75</ele><time>2026-04-21T12:19:37.489Z</time></trkpt><trkpt lat="42.112553" lon="11.9782711"><ele>350.0</ele><time>2026-04-21T12:19:38.5Z</time></trkpt><trkpt lat="42.1125775" lon="11.9784137"><ele>351.75</ele><time>2026-04-21T12:19:39.495Z</time></trkpt><trkpt lat="42.112637" lon="11.978552"><ele>353.5</ele><time>2026-04-21T12:19:40.494Z</time></trkpt><trkpt lat="42.1127153" lon="11.978692"><ele>355.25</ele><time>2026-04-21T12:19:41.482Z</time></trkpt><trkpt lat="42.1127975" lon="11.9788405"><ele>357.0</ele><time>2026-04-21T12:19:42.484Z</time></trkpt><trkpt lat="42.1128705" lon="11.9789968"><ele>357.0</ele><time>2026-04-21T12:19:43.477Z</time></trkpt><trkpt lat="42.1129203" lon="11.9791636"><ele>357.0</ele><time>2026-04-21T12:19:44.479Z</time></trkpt><trkpt lat="42.1129465" lon="11.979338"><ele>357.0</ele><time>2026-04-21T12:19:45.479Z</time></trkpt><trkpt lat="42.1129583" lon="11.979515"><ele>357.0</ele><time>2026-04-21T12:19:46.48Z</time></trkpt><trkpt lat="42.1129598" lon="11.9796917"><ele>357.75</ele><time>2026-04-21T12:19:47.476Z</time></trkpt><trkpt lat="42.112945" lon="11.9798676"><ele>358.5</ele><time>2026-04-21T12:19:48.476Z</time></trkpt><trkpt lat="42.1129088" lon="11.9800438"><ele>359.25</ele><time>2026-04-21T12:19:49.478Z</time></trkpt><trkpt lat="42.1128603" lon="11.98022"><ele>360.0</ele><time>2026-04-21T12:19:50.491Z</time></trkpt><trkpt lat="42.1128023" lon="11.9803915"><ele>358.5</ele><time>2026-04-21T12:19:51.48Z</time></trkpt><trkpt lat="42.1127338" lon="11.9805525"><ele>357.0</ele><time>2026-04-21T12:19:52.51Z</time></trkpt><trkpt lat="42.112655" lon="11.9807028"><ele>355.5</ele><time>2026-04-21T12:19:53.476Z</time></trkpt><trkpt lat="42.1125647" lon="11.9808363"><ele>354.0</ele><time>2026-04-21T12:19:54.497Z</time></trkpt><trkpt lat="42.1124667" lon="11.9809513"><ele>352.0</ele><time>2026-04-21T12:19:55.479Z</time></trkpt><trkpt lat="42.1123615" lon="11.9810435"><ele>350.0</ele><time>2026-04-21T12:19:56.483Z</time></trkpt><trkpt lat="42.112252" lon="11.9811048"><ele>348.0</ele><time>2026-04-21T12:19:57.482Z</time></trkpt><trkpt lat="42.11214" lon="11.9811281"><ele>346.0</ele><time>2026-04-21T12:19:58.479Z</time></trkpt><trkpt lat="42.1120253" lon="11.9811117"><ele>346.0</ele><time>2026-04-21T12:19:59.487Z</time></trkpt><trkpt lat="42.1119107" lon="11.981057"><ele>346.0</ele><time>2026-04-21T12:20:00.487Z</time></trkpt><trkpt lat="42.111796" lon="11.98097"><ele>346.0</ele><time>2026-04-21T12:20:01.488Z</time></trkpt><trkpt lat="42.1116785" lon="11.9808573"><ele>346.0</ele><time>2026-04-21T12:20:02.485Z</time></trkpt><trkpt lat="42.1115538" lon="11.9807298"><ele>347.66666666666663</ele><time>2026-04-21T12:20:03.489Z</time></trkpt><trkpt lat="42.1114215" lon="11.980602"><ele>349.3333333333333</ele><time>2026-04-21T12:20:04.488Z</time></trkpt><trkpt lat="42.1112822" lon="11.980482"><ele>351.0</ele><time>2026-04-21T12:20:05.501Z</time></trkpt><trkpt lat="42.1111402" lon="11.980379"><ele>351.0</ele><time>2026-04-21T12:20:06.492Z</time></trkpt><trkpt lat="42.1110092" lon="11.9803113"><ele>351.0</ele><time>2026-04-21T12:20:07.49Z</time></trkpt><trkpt lat="42.1108902" lon="11.9802928"><ele>351.0</ele><time>2026-04-21T12:20:08.505Z</time></trkpt><trkpt lat="42.1107803" lon="11.9803241"><ele>351.0</ele><time>2026-04-21T12:20:09.491Z</time></trkpt><trkpt lat="42.1106688" lon="11.9803973"><ele>353.0</ele><time>2026-04-21T12:20:10.494Z</time></trkpt><trkpt lat="42.1105452" lon="11.9804958"><ele>355.0</ele><time>2026-04-21T12:20:11.484Z</time></trkpt><trkpt lat="42.1104153" lon="11.980598"><ele>357.0</ele><time>2026-04-21T12:20:12.488Z</time></trkpt><trkpt lat="42.1102855" lon="11.9806891"><ele>359.0</ele><time>2026-04-21T12:20:13.484Z</time></trkpt><trkpt lat="42.1101552" lon="11.9807613"><ele>359.0</ele><time>2026-04-21T12:20:14.482Z</time></trkpt><trkpt lat="42.1100197" lon="11.9808123"><ele>359.0</ele><time>2026-04-21T12:20:15.484Z</time></trkpt><trkpt lat="42.109868" lon="11.980836"><ele>359.0</ele><time>2026-04-21T12:20:16.49Z</time></trkpt><trkpt lat="42.1097045" lon="11.98084"><ele>359.6666666666667</ele><time>2026-04-21T12:20:17.495Z</time></trkpt><trkpt lat="42.1095335" lon="11.9808353"><ele>360.3333333333333</ele><time>2026-04-21T12:20:18.476Z</time></trkpt><trkpt lat="42.1093598" lon="11.980826"><ele>361.0</ele><time>2026-04-21T12:20:19.476Z</time></trkpt><trkpt lat="42.1091847" lon="11.9808143"><ele>360.0</ele><time>2026-04-21T12:20:20.486Z</time></trkpt><trkpt lat="42.1090115" lon="11.9808141"><ele>359.0</ele><time>2026-04-21T12:20:21.487Z</time></trkpt><trkpt lat="42.1088358" lon="11.9808427"><ele>358.0</ele><time>2026-04-21T12:20:22.498Z</time></trkpt><trkpt lat="42.1086578" lon="11.9808991"><ele>358.0</ele><time>2026-04-21T12:20:23.488Z</time></trkpt><trkpt lat="42.1084775" lon="11.9809771"><ele>358.0</ele><time>2026-04-21T12:20:24.478Z</time></trkpt><trkpt lat="42.1082948" lon="11.981066"><ele>358.0</ele><time>2026-04-21T12:20:25.476Z</time></trkpt><trkpt lat="42.10812" lon="11.9811587"><ele>360.3333333333333</ele><time>2026-04-21T12:20:26.488Z</time></trkpt><trkpt lat="42.107955" lon="11.9812461"><ele>362.6666666666667</ele><time>2026-04-21T12:20:27.484Z</time></trkpt><trkpt lat="42.1077967" lon="11.9813257"><ele>365.0</ele><time>2026-04-21T12:20:28.483Z</time></trkpt><trkpt lat="42.1076505" lon="11.981398"><ele>365.0</ele><time>2026-04-21T12:20:29.483Z</time></trkpt><trkpt lat="42.1075082" lon="11.9814508"><ele>365.0</ele><time>2026-04-21T12:20:30.498Z</time></trkpt><trkpt lat="42.1073657" lon="11.9814783"><ele>365.0</ele><time>2026-04-21T12:20:31.484Z</time></trkpt><trkpt lat="42.1072188" lon="11.9814713"><ele>365.0</ele><time>2026-04-21T12:20:32.485Z</time></trkpt><trkpt lat="42.107073" lon="11.9814275"><ele>363.33333333333337</ele><time>2026-04-21T12:20:33.483Z</time></trkpt><trkpt lat="42.1069402" lon="11.9813388"><ele>361.6666666666667</ele><time>2026-04-21T12:20:34.49Z</time></trkpt><trkpt lat="42.1068215" lon="11.9812078"><ele>360.0</ele><time>2026-04-21T12:20:35.487Z</time></trkpt><trkpt lat="42.106713" lon="11.9810391"><ele>362.3333333333333</ele><time>2026-04-21T12:20:36.487Z</time></trkpt><trkpt lat="42.1065998" lon="11.9808423"><ele>364.66666666666663</ele><time>2026-04-21T12:20:37.488Z</time></trkpt><trkpt lat="42.1064807" lon="11.9806283"><ele>367.0</ele><time>2026-04-21T12:20:38.493Z</time></trkpt><trkpt lat="42.1063542" lon="11.9804086"><ele>363.0</ele><time>2026-04-21T12:20:39.489Z</time></trkpt><trkpt lat="42.1062248" lon="11.9801828"><ele>359.0</ele><time>2026-04-21T12:20:40.485Z</time></trkpt><trkpt lat="42.1060953" lon="11.979953"><ele>355.0</ele><time>2026-04-21T12:20:41.482Z</time></trkpt><trkpt lat="42.1059665" lon="11.9797243"><ele>355.0</ele><time>2026-04-21T12:20:42.477Z</time></trkpt><trkpt lat="42.1058372" lon="11.9795016"><ele>355.0</ele><time>2026-04-21T12:20:43.477Z</time></trkpt><trkpt lat="42.1057062" lon="11.9792835"><ele>355.0</ele><time>2026-04-21T12:20:44.48Z</time></trkpt><trkpt lat="42.1055768" lon="11.9790732"><ele>354.66666666666663</ele><time>2026-04-21T12:20:45.481Z</time></trkpt><trkpt lat="42.105449" lon="11.9788683"><ele>354.3333333333333</ele><time>2026-04-21T12:20:46.477Z</time></trkpt><trkpt lat="42.1053238" lon="11.978671"><ele>354.0</ele><time>2026-04-21T12:20:47.503Z</time></trkpt><trkpt lat="42.105204" lon="11.978478"><ele>353.3333333333333</ele><time>2026-04-21T12:20:48.484Z</time></trkpt><trkpt lat="42.1050865" lon="11.9782885"><ele>352.66666666666663</ele><time>2026-04-21T12:20:49.481Z</time></trkpt><trkpt lat="42.1049685" lon="11.9781016"><ele>352.0</ele><time>2026-04-21T12:20:50.487Z</time></trkpt><trkpt lat="42.1048497" lon="11.9779152"><ele>350.66666666666663</ele><time>2026-04-21T12:20:51.484Z</time></trkpt><trkpt lat="42.1047338" lon="11.9777345"><ele>349.3333333333333</ele><time>2026-04-21T12:20:52.486Z</time></trkpt><trkpt lat="42.104622" lon="11.9775512"><ele>348.0</ele><time>2026-04-21T12:20:53.48Z</time></trkpt><trkpt lat="42.104518" lon="11.9773587"><ele>348.0</ele><time>2026-04-21T12:20:54.48Z</time></trkpt><trkpt lat="42.1044212" lon="11.9771525"><ele>348.0</ele><time>2026-04-21T12:20:55.485Z</time></trkpt><trkpt lat="42.1043277" lon="11.9769385"><ele>348.0</ele><time>2026-04-21T12:20:56.485Z</time></trkpt><trkpt lat="42.1042365" lon="11.9767213"><ele>347.6666666666667</ele><time>2026-04-21T12:20:57.477Z</time></trkpt><trkpt lat="42.104144" lon="11.9764988"><ele>347.33333333333337</ele><time>2026-04-21T12:20:58.483Z</time></trkpt><trkpt lat="42.1040478" lon="11.9762741"><ele>347.0</ele><time>2026-04-21T12:20:59.485Z</time></trkpt><trkpt lat="42.1039487" lon="11.9760522"><ele>343.0</ele><time>2026-04-21T12:21:00.484Z</time></trkpt><trkpt lat="42.1038477" lon="11.9758337"><ele>339.0</ele><time>2026-04-21T12:21:01.482Z</time></trkpt><trkpt lat="42.1037467" lon="11.9756192"><ele>335.0</ele><time>2026-04-21T12:21:02.481Z</time></trkpt><trkpt lat="42.1036468" lon="11.9754067"><ele>335.0</ele><time>2026-04-21T12:21:03.482Z</time></trkpt><trkpt lat="42.1035482" lon="11.9751965"><ele>335.0</ele><time>2026-04-21T12:21:04.477Z</time></trkpt><trkpt lat="42.1034507" lon="11.9749892"><ele>335.0</ele><time>2026-04-21T12:21:05.473Z</time></trkpt><trkpt lat="42.1033547" lon="11.9747845"><ele>335.6666666666667</ele><time>2026-04-21T12:21:06.477Z</time></trkpt><trkpt lat="42.1032603" lon="11.974585"><ele>336.3333333333333</ele><time>2026-04-21T12:21:07.479Z</time></trkpt><trkpt lat="42.1031662" lon="11.9743976"><ele>337.0</ele><time>2026-04-21T12:21:08.476Z</time></trkpt><trkpt lat="42.1030692" lon="11.9742352"><ele>334.3333333333333</ele><time>2026-04-21T12:21:09.484Z</time></trkpt><trkpt lat="42.1029585" lon="11.9741057"><ele>331.6666666666667</ele><time>2026-04-21T12:21:10.483Z</time></trkpt><trkpt lat="42.1028265" lon="11.9740032"><ele>329.0</ele><time>2026-04-21T12:21:11.492Z</time></trkpt><trkpt lat="42.1026665" lon="11.9739116"><ele>329.0</ele><time>2026-04-21T12:21:12.495Z</time></trkpt><trkpt lat="42.102481" lon="11.9738193"><ele>329.0</ele><time>2026-04-21T12:21:13.477Z</time></trkpt><trkpt lat="42.1022895" lon="11.9737203"><ele>329.0</ele><time>2026-04-21T12:21:14.486Z</time></trkpt><trkpt lat="42.1021082" lon="11.9736162"><ele>329.33333333333337</ele><time>2026-04-21T12:21:15.487Z</time></trkpt><trkpt lat="42.1019442" lon="11.9735145"><ele>329.6666666666667</ele><time>2026-04-21T12:21:16.495Z</time></trkpt><trkpt lat="42.101792" lon="11.9734233"><ele>330.0</ele><time>2026-04-21T12:21:17.497Z</time></trkpt><trkpt lat="42.101652" lon="11.9733432"><ele>328.25</ele><time>2026-04-21T12:21:18.512Z</time></trkpt><trkpt lat="42.1015158" lon="11.9732663"><ele>326.5</ele><time>2026-04-21T12:21:19.492Z</time></trkpt><trkpt lat="42.1013845" lon="11.973195"><ele>324.75</ele><time>2026-04-21T12:21:20.482Z</time></trkpt><trkpt lat="42.101246" lon="11.9731276"><ele>323.0</ele><time>2026-04-21T12:21:21.48Z</time></trkpt><trkpt lat="42.101102" lon="11.9730713"><ele>323.0</ele><time>2026-04-21T12:21:22.479Z</time></trkpt><trkpt lat="42.1009503" lon="11.9730303"><ele>323.0</ele><time>2026-04-21T12:21:23.483Z</time></trkpt><trkpt lat="42.1007927" lon="11.9730086"><ele>323.0</ele><time>2026-04-21T12:21:24.483Z</time></trkpt><trkpt lat="42.1006255" lon="11.9730133"><ele>321.6666666666667</ele><time>2026-04-21T12:21:25.484Z</time></trkpt><trkpt lat="42.1004437" lon="11.9730475"><ele>320.3333333333333</ele><time>2026-04-21T12:21:26.507Z</time></trkpt><trkpt lat="42.1002427" lon="11.9730963"><ele>319.0</ele><time>2026-04-21T12:21:27.484Z</time></trkpt><trkpt lat="42.1000308" lon="11.9731496"><ele>317.66666666666663</ele><time>2026-04-21T12:21:28.48Z</time></trkpt><trkpt lat="42.0998107" lon="11.9731985"><ele>316.3333333333333</ele><time>2026-04-21T12:21:29.483Z</time></trkpt><trkpt lat="42.0995905" lon="11.9732458"><ele>315.0</ele><time>2026-04-21T12:21:30.48Z</time></trkpt><trkpt lat="42.0993688" lon="11.973296"><ele>315.0</ele><time>2026-04-21T12:21:31.493Z</time></trkpt><trkpt lat="42.0991508" lon="11.973351"><ele>315.0</ele><time>2026-04-21T12:21:32.478Z</time></trkpt><trkpt lat="42.0989328" lon="11.9734076"><ele>315.0</ele><time>2026-04-21T12:21:33.48Z</time></trkpt><trkpt lat="42.0987195" lon="11.9734668"><ele>314.3333333333333</ele><time>2026-04-21T12:21:34.479Z</time></trkpt><trkpt lat="42.098504" lon="11.973522"><ele>313.66666666666663</ele><time>2026-04-21T12:21:35.497Z</time></trkpt><trkpt lat="42.0982947" lon="11.9735768"><ele>313.0</ele><time>2026-04-21T12:21:36.484Z</time></trkpt><trkpt lat="42.0980842" lon="11.973629"><ele>313.0</ele><time>2026-04-21T12:21:37.488Z</time></trkpt><trkpt lat="42.0978775" lon="11.9736818"><ele>313.0</ele><time>2026-04-21T12:21:38.483Z</time></trkpt><trkpt lat="42.0976737" lon="11.9737345"><ele>313.0</ele><time>2026-04-21T12:21:39.484Z</time></trkpt><trkpt lat="42.0974712" lon="11.973789"><ele>313.0</ele><time>2026-04-21T12:21:40.485Z</time></trkpt><trkpt lat="42.0972713" lon="11.9738432"><ele>313.0</ele><time>2026-04-21T12:21:41.486Z</time></trkpt><trkpt lat="42.0970717" lon="11.9738948"><ele>313.0</ele><time>2026-04-21T12:21:42.501Z</time></trkpt><trkpt lat="42.096878" lon="11.9739465"><ele>313.0</ele><time>2026-04-21T12:21:43.497Z</time></trkpt><trkpt lat="42.0966875" lon="11.9739965"><ele>313.0</ele><time>2026-04-21T12:21:44.494Z</time></trkpt><trkpt lat="42.0965018" lon="11.9740408"><ele>313.0</ele><time>2026-04-21T12:21:45.482Z</time></trkpt><trkpt lat="42.096325" lon="11.9740625"><ele>311.3333333333333</ele><time>2026-04-21T12:21:46.495Z</time></trkpt><trkpt lat="42.096155" lon="11.9740473"><ele>309.6666666666667</ele><time>2026-04-21T12:21:47.489Z</time></trkpt><trkpt lat="42.0959858" lon="11.974003"><ele>308.0</ele><time>2026-04-21T12:21:48.499Z</time></trkpt><trkpt lat="42.0958083" lon="11.9739443"><ele>306.33333333333337</ele><time>2026-04-21T12:21:49.499Z</time></trkpt><trkpt lat="42.0956283" lon="11.9738971"><ele>304.6666666666667</ele><time>2026-04-21T12:21:50.492Z</time></trkpt><trkpt lat="42.0954457" lon="11.9738751"><ele>303.0</ele><time>2026-04-21T12:21:51.497Z</time></trkpt><trkpt lat="42.095259" lon="11.9738845"><ele>303.0</ele><time>2026-04-21T12:21:52.488Z</time></trkpt><trkpt lat="42.0950708" lon="11.9739305"><ele>303.0</ele><time>2026-04-21T12:21:53.493Z</time></trkpt><trkpt lat="42.0948822" lon="11.9740118"><ele>303.0</ele><time>2026-04-21T12:21:54.488Z</time></trkpt><trkpt lat="42.0946982" lon="11.9741058"><ele>297.6666666666667</ele><time>2026-04-21T12:21:55.476Z</time></trkpt><trkpt lat="42.0945223" lon="11.974192"><ele>292.33333333333337</ele><time>2026-04-21T12:21:56.473Z</time></trkpt><trkpt lat="42.0943502" lon="11.9742518"><ele>287.0</ele><time>2026-04-21T12:21:57.483Z</time></trkpt><trkpt lat="42.0941782" lon="11.9742782"><ele>288.6666666666667</ele><time>2026-04-21T12:21:58.484Z</time></trkpt><trkpt lat="42.094013" lon="11.9742686"><ele>290.3333333333333</ele><time>2026-04-21T12:21:59.486Z</time></trkpt><trkpt lat="42.093851" lon="11.9742213"><ele>292.0</ele><time>2026-04-21T12:22:00.481Z</time></trkpt><trkpt lat="42.093692" lon="11.9741363"><ele>293.0</ele><time>2026-04-21T12:22:01.478Z</time></trkpt><trkpt lat="42.0935308" lon="11.9740273"><ele>294.0</ele><time>2026-04-21T12:22:02.485Z</time></trkpt><trkpt lat="42.093359" lon="11.9739018"><ele>295.0</ele><time>2026-04-21T12:22:03.485Z</time></trkpt><trkpt lat="42.093184" lon="11.9737668"><ele>295.66666666666663</ele><time>2026-04-21T12:22:04.484Z</time></trkpt><trkpt lat="42.0930135" lon="11.973616"><ele>296.3333333333333</ele><time>2026-04-21T12:22:05.479Z</time></trkpt><trkpt lat="42.0928465" lon="11.9734538"><ele>297.0</ele><time>2026-04-21T12:22:06.476Z</time></trkpt><trkpt lat="42.0926882" lon="11.9732823"><ele>295.0</ele><time>2026-04-21T12:22:07.474Z</time></trkpt><trkpt lat="42.0925337" lon="11.9731045"><ele>293.0</ele><time>2026-04-21T12:22:08.503Z</time></trkpt><trkpt lat="42.0923805" lon="11.97292"><ele>291.0</ele><time>2026-04-21T12:22:09.481Z</time></trkpt><trkpt lat="42.092225" lon="11.9727321"><ele>289.0</ele><time>2026-04-21T12:22:10.476Z</time></trkpt><trkpt lat="42.0920713" lon="11.9725423"><ele>287.0</ele><time>2026-04-21T12:22:11.482Z</time></trkpt><trkpt lat="42.0919202" lon="11.972356"><ele>285.0</ele><time>2026-04-21T12:22:12.483Z</time></trkpt><trkpt lat="42.0917675" lon="11.972171"><ele>284.3333333333333</ele><time>2026-04-21T12:22:13.475Z</time></trkpt><trkpt lat="42.0916192" lon="11.9719923"><ele>283.66666666666663</ele><time>2026-04-21T12:22:14.479Z</time></trkpt><trkpt lat="42.0914732" lon="11.971821"><ele>283.0</ele><time>2026-04-21T12:22:15.492Z</time></trkpt><trkpt lat="42.0913403" lon="11.9716578"><ele>280.0</ele><time>2026-04-21T12:22:16.486Z</time></trkpt><trkpt lat="42.0912317" lon="11.9714855"><ele>277.0</ele><time>2026-04-21T12:22:17.486Z</time></trkpt><trkpt lat="42.091149" lon="11.9712905"><ele>274.0</ele><time>2026-04-21T12:22:18.49Z</time></trkpt><trkpt lat="42.0910747" lon="11.9710902"><ele>274.0</ele><time>2026-04-21T12:22:19.479Z</time></trkpt><trkpt lat="42.0909892" lon="11.9709207"><ele>274.0</ele><time>2026-04-21T12:22:20.494Z</time></trkpt><trkpt lat="42.0908865" lon="11.9707985"><ele>274.0</ele><time>2026-04-21T12:22:21.484Z</time></trkpt><trkpt lat="42.0907605" lon="11.9707223"><ele>274.0</ele><time>2026-04-21T12:22:22.475Z</time></trkpt><trkpt lat="42.0906117" lon="11.9706648"><ele>273.0</ele><time>2026-04-21T12:22:23.471Z</time></trkpt><trkpt lat="42.0904615" lon="11.9706238"><ele>272.0</ele><time>2026-04-21T12:22:24.482Z</time></trkpt><trkpt lat="42.0903193" lon="11.9706143"><ele>271.0</ele><time>2026-04-21T12:22:25.47Z</time></trkpt><trkpt lat="42.0901815" lon="11.970653"><ele>270.0</ele><time>2026-04-21T12:22:26.484Z</time></trkpt><trkpt lat="42.090046" lon="11.9707437"><ele>267.3333333333333</ele><time>2026-04-21T12:22:27.475Z</time></trkpt><trkpt lat="42.0899057" lon="11.970875"><ele>264.66666666666663</ele><time>2026-04-21T12:22:28.475Z</time></trkpt><trkpt lat="42.0897615" lon="11.9710182"><ele>262.0</ele><time>2026-04-21T12:22:29.481Z</time></trkpt><trkpt lat="42.0896213" lon="11.9711638"><ele>262.0</ele><time>2026-04-21T12:22:30.476Z</time></trkpt><trkpt lat="42.089494" lon="11.9713202"><ele>262.0</ele><time>2026-04-21T12:22:31.494Z</time></trkpt><trkpt lat="42.0893797" lon="11.9714812"><ele>262.0</ele><time>2026-04-21T12:22:32.485Z</time></trkpt><trkpt lat="42.0892663" lon="11.9716276"><ele>257.3333333333333</ele><time>2026-04-21T12:22:33.482Z</time></trkpt><trkpt lat="42.0891407" lon="11.971743"><ele>252.66666666666669</ele><time>2026-04-21T12:22:34.486Z</time></trkpt><trkpt lat="42.0890023" lon="11.971837"><ele>248.0</ele><time>2026-04-21T12:22:35.5Z</time></trkpt><trkpt lat="42.0888557" lon="11.971921"><ele>248.0</ele><time>2026-04-21T12:22:36.489Z</time></trkpt><trkpt lat="42.0887053" lon="11.9719913"><ele>248.0</ele><time>2026-04-21T12:22:37.484Z</time></trkpt><trkpt lat="42.0885457" lon="11.9720366"><ele>248.0</ele><time>2026-04-21T12:22:38.483Z</time></trkpt><trkpt lat="42.0883723" lon="11.9720612"><ele>249.0</ele><time>2026-04-21T12:22:39.479Z</time></trkpt><trkpt lat="42.0881893" lon="11.9720718"><ele>250.0</ele><time>2026-04-21T12:22:40.475Z</time></trkpt><trkpt lat="42.0879997" lon="11.9720795"><ele>251.0</ele><time>2026-04-21T12:22:41.496Z</time></trkpt><trkpt lat="42.0878102" lon="11.9720885"><ele>251.0</ele><time>2026-04-21T12:22:42.478Z</time></trkpt><trkpt lat="42.0876213" lon="11.9720978"><ele>251.0</ele><time>2026-04-21T12:22:43.486Z</time></trkpt><trkpt lat="42.0874355" lon="11.972108"><ele>251.0</ele><time>2026-04-21T12:22:44.498Z</time></trkpt><trkpt lat="42.0872577" lon="11.9721198"><ele>248.66666666666669</ele><time>2026-04-21T12:22:45.506Z</time></trkpt><trkpt lat="42.0870862" lon="11.972135"><ele>246.33333333333331</ele><time>2026-04-21T12:22:46.489Z</time></trkpt><trkpt lat="42.0869252" lon="11.9721455"><ele>244.0</ele><time>2026-04-21T12:22:47.496Z</time></trkpt><trkpt lat="42.0867777" lon="11.972149"><ele>244.0</ele><time>2026-04-21T12:22:48.496Z</time></trkpt><trkpt lat="42.0866407" lon="11.9721283"><ele>244.0</ele><time>2026-04-21T12:22:49.497Z</time></trkpt><trkpt lat="42.086511" lon="11.972074"><ele>244.0</ele><time>2026-04-21T12:22:50.509Z</time></trkpt><trkpt lat="42.0864018" lon="11.971981"><ele>244.0</ele><time>2026-04-21T12:22:51.512Z</time></trkpt><trkpt lat="42.0863285" lon="11.9718567"><ele>242.6</ele><time>2026-04-21T12:22:52.492Z</time></trkpt><trkpt lat="42.0862968" lon="11.9717183"><ele>241.2</ele><time>2026-04-21T12:22:53.493Z</time></trkpt><trkpt lat="42.0863052" lon="11.971574"><ele>239.79999999999998</ele><time>2026-04-21T12:22:54.507Z</time></trkpt><trkpt lat="42.0863485" lon="11.9714402"><ele>238.39999999999998</ele><time>2026-04-21T12:22:55.499Z</time></trkpt><trkpt lat="42.0864265" lon="11.9713315"><ele>237.0</ele><time>2026-04-21T12:22:56.504Z</time></trkpt><trkpt lat="42.0865413" lon="11.9712458"><ele>239.66666666666669</ele><time>2026-04-21T12:22:57.504Z</time></trkpt><trkpt lat="42.0866827" lon="11.9711647"><ele>242.33333333333334</ele><time>2026-04-21T12:22:58.524Z</time></trkpt><trkpt lat="42.0868395" lon="11.9710834"><ele>245.0</ele><time>2026-04-21T12:22:59.487Z</time></trkpt><trkpt lat="42.0870008" lon="11.9709982"><ele>245.0</ele><time>2026-04-21T12:23:00.485Z</time></trkpt><trkpt lat="42.0871603" lon="11.9709103"><ele>245.0</ele><time>2026-04-21T12:23:01.481Z</time></trkpt><trkpt lat="42.0873147" lon="11.9708255"><ele>245.0</ele><time>2026-04-21T12:23:02.488Z</time></trkpt><trkpt lat="42.0874548" lon="11.9707442"><ele>243.0</ele><time>2026-04-21T12:23:03.487Z</time></trkpt><trkpt lat="42.0875725" lon="11.970653"><ele>241.0</ele><time>2026-04-21T12:23:04.484Z</time></trkpt><trkpt lat="42.0876637" lon="11.9705293"><ele>239.0</ele><time>2026-04-21T12:23:05.473Z</time></trkpt><trkpt lat="42.087726" lon="11.9703711"><ele>237.0</ele><time>2026-04-21T12:23:06.495Z</time></trkpt><trkpt lat="42.0877675" lon="11.9701896"><ele>234.75</ele><time>2026-04-21T12:23:07.485Z</time></trkpt><trkpt lat="42.0877888" lon="11.9700074"><ele>232.5</ele><time>2026-04-21T12:23:08.496Z</time></trkpt><trkpt lat="42.087779" lon="11.9698385"><ele>230.25</ele><time>2026-04-21T12:23:09.508Z</time></trkpt><trkpt lat="42.0877298" lon="11.9696953"><ele>228.0</ele><time>2026-04-21T12:23:10.491Z</time></trkpt><trkpt lat="42.0876445" lon="11.9695891"><ele>228.0</ele><time>2026-04-21T12:23:11.491Z</time></trkpt><trkpt lat="42.0875367" lon="11.9695277"><ele>228.0</ele><time>2026-04-21T12:23:12.49Z</time></trkpt><trkpt lat="42.0874213" lon="11.9695196"><ele>228.0</ele><time>2026-04-21T12:23:13.496Z</time></trkpt><trkpt lat="42.0872978" lon="11.969566"><ele>228.0</ele><time>2026-04-21T12:23:14.484Z</time></trkpt><trkpt lat="42.0871638" lon="11.9696515"><ele>225.66666666666669</ele><time>2026-04-21T12:23:15.486Z</time></trkpt><trkpt lat="42.0870185" lon="11.9697497"><ele>223.33333333333334</ele><time>2026-04-21T12:23:16.485Z</time></trkpt><trkpt lat="42.086872" lon="11.9698433"><ele>221.0</ele><time>2026-04-21T12:23:17.489Z</time></trkpt><trkpt lat="42.086726" lon="11.9699165"><ele>219.33333333333334</ele><time>2026-04-21T12:23:18.489Z</time></trkpt><trkpt lat="42.0865748" lon="11.9699428"><ele>217.66666666666669</ele><time>2026-04-21T12:23:19.496Z</time></trkpt><trkpt lat="42.0864177" lon="11.9699295"><ele>216.0</ele><time>2026-04-21T12:23:20.495Z</time></trkpt><trkpt lat="42.0862522" lon="11.9699002"><ele>216.0</ele><time>2026-04-21T12:23:21.488Z</time></trkpt><trkpt lat="42.0860793" lon="11.9698678"><ele>216.0</ele><time>2026-04-21T12:23:22.494Z</time></trkpt><trkpt lat="42.0859047" lon="11.9698303"><ele>216.0</ele><time>2026-04-21T12:23:23.49Z</time></trkpt><trkpt lat="42.0857323" lon="11.9697923"><ele>215.33333333333331</ele><time>2026-04-21T12:23:24.485Z</time></trkpt><trkpt lat="42.0855622" lon="11.9697508"><ele>214.66666666666666</ele><time>2026-04-21T12:23:25.49Z</time></trkpt><trkpt lat="42.0853932" lon="11.9697053"><ele>214.0</ele><time>2026-04-21T12:23:26.482Z</time></trkpt><trkpt lat="42.0852247" lon="11.9696595"><ele>214.0</ele><time>2026-04-21T12:23:27.481Z</time></trkpt><trkpt lat="42.085058" lon="11.969615"><ele>214.0</ele><time>2026-04-21T12:23:28.485Z</time></trkpt><trkpt lat="42.0848973" lon="11.9695718"><ele>214.0</ele><time>2026-04-21T12:23:29.481Z</time></trkpt><trkpt lat="42.0847493" lon="11.9695348"><ele>210.0</ele><time>2026-04-21T12:23:30.48Z</time></trkpt><trkpt lat="42.0846138" lon="11.9695158"><ele>206.0</ele><time>2026-04-21T12:23:31.484Z</time></trkpt><trkpt lat="42.084487" lon="11.9695362"><ele>202.0</ele><time>2026-04-21T12:23:32.495Z</time></trkpt><trkpt lat="42.0843755" lon="11.9695998"><ele>198.0</ele><time>2026-04-21T12:23:33.507Z</time></trkpt><trkpt lat="42.0842802" lon="11.9697111"><ele>198.0</ele><time>2026-04-21T12:23:34.489Z</time></trkpt><trkpt lat="42.0841977" lon="11.969858"><ele>198.0</ele><time>2026-04-21T12:23:35.477Z</time></trkpt><trkpt lat="42.0841208" lon="11.9700143"><ele>198.0</ele><time>2026-04-21T12:23:36.477Z</time></trkpt><trkpt lat="42.0840375" lon="11.9701652"><ele>198.0</ele><time>2026-04-21T12:23:37.477Z</time></trkpt><trkpt lat="42.0839412" lon="11.9702905"><ele>195.8</ele><time>2026-04-21T12:23:38.505Z</time></trkpt><trkpt lat="42.0838342" lon="11.970371"><ele>193.60000000000002</ele><time>2026-04-21T12:23:39.483Z</time></trkpt><trkpt lat="42.0837347" lon="11.9704031"><ele>191.39999999999998</ele><time>2026-04-21T12:23:40.476Z</time></trkpt><trkpt lat="42.0836598" lon="11.9703858"><ele>189.2</ele><time>2026-04-21T12:23:41.486Z</time></trkpt><trkpt lat="42.0835997" lon="11.9702515"><ele>187.0</ele><time>2026-04-21T12:23:43.476Z</time></trkpt><trkpt lat="42.0836113" lon="11.970147"><ele>185.5</ele><time>2026-04-21T12:23:44.484Z</time></trkpt><trkpt lat="42.0836595" lon="11.9700168"><ele>184.0</ele><time>2026-04-21T12:23:45.475Z</time></trkpt><trkpt lat="42.0837398" lon="11.9698682"><ele>182.5</ele><time>2026-04-21T12:23:46.482Z</time></trkpt><trkpt lat="42.0838342" lon="11.969704"><ele>181.0</ele><time>2026-04-21T12:23:47.485Z</time></trkpt><trkpt lat="42.0839322" lon="11.9695456"><ele>181.0</ele><time>2026-04-21T12:23:48.475Z</time></trkpt><trkpt lat="42.0840345" lon="11.9693935"><ele>181.0</ele><time>2026-04-21T12:23:49.484Z</time></trkpt><trkpt lat="42.084144" lon="11.9692583"><ele>181.0</ele><time>2026-04-21T12:23:50.47Z</time></trkpt><trkpt lat="42.0842598" lon="11.9691445"><ele>181.0</ele><time>2026-04-21T12:23:51.471Z</time></trkpt><trkpt lat="42.0843767" lon="11.969042"><ele>181.75</ele><time>2026-04-21T12:23:52.465Z</time></trkpt><trkpt lat="42.0844988" lon="11.9689422"><ele>182.5</ele><time>2026-04-21T12:23:53.473Z</time></trkpt><trkpt lat="42.0846302" lon="11.9688495"><ele>183.25</ele><time>2026-04-21T12:23:54.465Z</time></trkpt><trkpt lat="42.0847703" lon="11.9687768"><ele>184.0</ele><time>2026-04-21T12:23:55.467Z</time></trkpt><trkpt lat="42.0849155" lon="11.968723"><ele>188.0</ele><time>2026-04-21T12:23:56.46Z</time></trkpt><trkpt lat="42.0850585" lon="11.9686796"><ele>192.0</ele><time>2026-04-21T12:23:57.453Z</time></trkpt><trkpt lat="42.0851842" lon="11.9686365"><ele>196.0</ele><time>2026-04-21T12:23:58.46Z</time></trkpt><trkpt lat="42.0852847" lon="11.9685826"><ele>200.0</ele><time>2026-04-21T12:23:59.457Z</time></trkpt><trkpt lat="42.0853588" lon="11.9684967"><ele>200.0</ele><time>2026-04-21T12:24:00.465Z</time></trkpt><trkpt lat="42.0853997" lon="11.9683853"><ele>200.0</ele><time>2026-04-21T12:24:01.464Z</time></trkpt><trkpt lat="42.085397" lon="11.9682625"><ele>200.0</ele><time>2026-04-21T12:24:02.463Z</time></trkpt><trkpt lat="42.0853522" lon="11.9681518"><ele>200.0</ele><time>2026-04-21T12:24:03.466Z</time></trkpt><trkpt lat="42.0852647" lon="11.96805"><ele>200.0</ele><time>2026-04-21T12:24:04.466Z</time></trkpt><trkpt lat="42.0851433" lon="11.9679561"><ele>191.66666666666669</ele><time>2026-04-21T12:24:05.466Z</time></trkpt><trkpt lat="42.0849923" lon="11.9678747"><ele>183.33333333333334</ele><time>2026-04-21T12:24:06.477Z</time></trkpt><trkpt lat="42.0848312" lon="11.9678101"><ele>175.0</ele><time>2026-04-21T12:24:07.469Z</time></trkpt><trkpt lat="42.084671" lon="11.9677553"><ele>172.25</ele><time>2026-04-21T12:24:08.489Z</time></trkpt><trkpt lat="42.0845223" lon="11.9677013"><ele>169.5</ele><time>2026-04-21T12:24:09.493Z</time></trkpt><trkpt lat="42.0843915" lon="11.9676338"><ele>166.75</ele><time>2026-04-21T12:24:10.474Z</time></trkpt><trkpt lat="42.0842803" lon="11.9675331"><ele>164.0</ele><time>2026-04-21T12:24:11.475Z</time></trkpt><trkpt lat="42.0841868" lon="11.9673936"><ele>162.25</ele><time>2026-04-21T12:24:12.49Z</time></trkpt><trkpt lat="42.0841175" lon="11.9672275"><ele>160.5</ele><time>2026-04-21T12:24:13.479Z</time></trkpt><trkpt lat="42.0840815" lon="11.96704"><ele>158.75</ele><time>2026-04-21T12:24:14.477Z</time></trkpt><trkpt lat="42.084073" lon="11.9668438"><ele>157.0</ele><time>2026-04-21T12:24:15.487Z</time></trkpt><trkpt lat="42.0840592" lon="11.9666617"><ele>155.0</ele><time>2026-04-21T12:24:16.496Z</time></trkpt><trkpt lat="42.0840177" lon="11.9665086"><ele>153.0</ele><time>2026-04-21T12:24:17.485Z</time></trkpt><trkpt lat="42.083944" lon="11.9663903"><ele>151.0</ele><time>2026-04-21T12:24:18.497Z</time></trkpt><trkpt lat="42.0838427" lon="11.966313"><ele>149.0</ele><time>2026-04-21T12:24:19.485Z</time></trkpt><trkpt lat="42.0837265" lon="11.9662785"><ele>149.0</ele><time>2026-04-21T12:24:20.486Z</time></trkpt><trkpt lat="42.0836148" lon="11.9662933"><ele>149.0</ele><time>2026-04-21T12:24:21.474Z</time></trkpt><trkpt lat="42.0835203" lon="11.9663587"><ele>149.0</ele><time>2026-04-21T12:24:22.483Z</time></trkpt><trkpt lat="42.0834483" lon="11.9664695"><ele>149.0</ele><time>2026-04-21T12:24:23.489Z</time></trkpt><trkpt lat="42.0833945" lon="11.9666338"><ele>148.33333333333331</ele><time>2026-04-21T12:24:24.508Z</time></trkpt><trkpt lat="42.0833545" lon="11.9668385"><ele>147.66666666666666</ele><time>2026-04-21T12:24:25.476Z</time></trkpt><trkpt lat="42.0833242" lon="11.9670648"><ele>147.0</ele><time>2026-04-21T12:24:26.482Z</time></trkpt><trkpt lat="42.0833125" lon="11.9672905"><ele>147.0</ele><time>2026-04-21T12:24:27.492Z</time></trkpt><trkpt lat="42.083318" lon="11.9675033"><ele>147.0</ele><time>2026-04-21T12:24:28.489Z</time></trkpt><trkpt lat="42.0833213" lon="11.9677045"><ele>147.0</ele><time>2026-04-21T12:24:29.483Z</time></trkpt><trkpt lat="42.083295" lon="11.9679028"><ele>146.33333333333334</ele><time>2026-04-21T12:24:30.477Z</time></trkpt><trkpt lat="42.0832397" lon="11.9681067"><ele>145.66666666666669</ele><time>2026-04-21T12:24:31.473Z</time></trkpt><trkpt lat="42.0831698" lon="11.9682982"><ele>145.0</ele><time>2026-04-21T12:24:32.47Z</time></trkpt><trkpt lat="42.0830918" lon="11.9684585"><ele>145.0</ele><time>2026-04-21T12:24:33.481Z</time></trkpt><trkpt lat="42.083005" lon="11.9685808"><ele>145.0</ele><time>2026-04-21T12:24:34.472Z</time></trkpt><trkpt lat="42.0829052" lon="11.9686566"><ele>145.0</ele><time>2026-04-21T12:24:35.479Z</time></trkpt><trkpt lat="42.0827932" lon="11.9686815"><ele>145.0</ele><time>2026-04-21T12:24:36.489Z</time></trkpt><trkpt lat="42.082668" lon="11.9686535"><ele>145.0</ele><time>2026-04-21T12:24:37.478Z</time></trkpt><trkpt lat="42.0825378" lon="11.9685665"><ele>145.0</ele><time>2026-04-21T12:24:38.476Z</time></trkpt><trkpt lat="42.0824312" lon="11.9684351"><ele>145.0</ele><time>2026-04-21T12:24:39.474Z</time></trkpt><trkpt lat="42.0823618" lon="11.9682717"><ele>145.0</ele><time>2026-04-21T12:24:40.471Z</time></trkpt><trkpt lat="42.082328" lon="11.9680785"><ele>141.0</ele><time>2026-04-21T12:24:41.466Z</time></trkpt><trkpt lat="42.082317" lon="11.9678775"><ele>137.0</ele><time>2026-04-21T12:24:42.487Z</time></trkpt><trkpt lat="42.0822982" lon="11.9676946"><ele>133.0</ele><time>2026-04-21T12:24:43.464Z</time></trkpt><trkpt lat="42.0822445" lon="11.9675298"><ele>129.0</ele><time>2026-04-21T12:24:44.461Z</time></trkpt><trkpt lat="42.0821517" lon="11.9673837"><ele>128.33333333333334</ele><time>2026-04-21T12:24:45.461Z</time></trkpt><trkpt lat="42.0820285" lon="11.9672697"><ele>127.66666666666667</ele><time>2026-04-21T12:24:46.467Z</time></trkpt><trkpt lat="42.0818948" lon="11.967176"><ele>127.0</ele><time>2026-04-21T12:24:47.464Z</time></trkpt><trkpt lat="42.0817603" lon="11.9670825"><ele>127.0</ele><time>2026-04-21T12:24:48.481Z</time></trkpt><trkpt lat="42.0816393" lon="11.966975"><ele>127.0</ele><time>2026-04-21T12:24:49.471Z</time></trkpt><trkpt lat="42.0815442" lon="11.966839"><ele>127.0</ele><time>2026-04-21T12:24:50.482Z</time></trkpt><trkpt lat="42.0814707" lon="11.966674"><ele>127.0</ele><time>2026-04-21T12:24:51.486Z</time></trkpt><trkpt lat="42.0814023" lon="11.9665075"><ele>124.33333333333334</ele><time>2026-04-21T12:24:52.484Z</time></trkpt><trkpt lat="42.0813167" lon="11.966366"><ele>121.66666666666666</ele><time>2026-04-21T12:24:53.476Z</time></trkpt><trkpt lat="42.0811963" lon="11.966244"><ele>119.0</ele><time>2026-04-21T12:24:54.485Z</time></trkpt><trkpt lat="42.0810503" lon="11.9661232"><ele>119.0</ele><time>2026-04-21T12:24:55.48Z</time></trkpt><trkpt lat="42.0808953" lon="11.9659938"><ele>119.0</ele><time>2026-04-21T12:24:56.472Z</time></trkpt><trkpt lat="42.0807413" lon="11.9658605"><ele>119.0</ele><time>2026-04-21T12:24:57.479Z</time></trkpt><trkpt lat="42.080592" lon="11.9657313"><ele>119.0</ele><time>2026-04-21T12:24:58.479Z</time></trkpt><trkpt lat="42.0804482" lon="11.965611"><ele>119.0</ele><time>2026-04-21T12:24:59.483Z</time></trkpt><trkpt lat="42.0803083" lon="11.9655007"><ele>119.0</ele><time>2026-04-21T12:25:00.468Z</time></trkpt><trkpt lat="42.0801713" lon="11.9654098"><ele>119.0</ele><time>2026-04-21T12:25:01.47Z</time></trkpt><trkpt lat="42.0800257" lon="11.965354"><ele>119.0</ele><time>2026-04-21T12:25:02.478Z</time></trkpt><trkpt lat="42.0798703" lon="11.9653392"><ele>119.0</ele><time>2026-04-21T12:25:03.473Z</time></trkpt><trkpt lat="42.079708" lon="11.9653533"><ele>119.33333333333333</ele><time>2026-04-21T12:25:04.478Z</time></trkpt><trkpt lat="42.0795433" lon="11.9653727"><ele>119.66666666666666</ele><time>2026-04-21T12:25:05.477Z</time></trkpt><trkpt lat="42.0793763" lon="11.9653873"><ele>120.0</ele><time>2026-04-21T12:25:06.475Z</time></trkpt><trkpt lat="42.0792115" lon="11.965393"><ele>118.66666666666666</ele><time>2026-04-21T12:25:07.479Z</time></trkpt><trkpt lat="42.0790527" lon="11.9653797"><ele>117.33333333333333</ele><time>2026-04-21T12:25:08.481Z</time></trkpt><trkpt lat="42.078899" lon="11.9653375"><ele>116.0</ele><time>2026-04-21T12:25:09.476Z</time></trkpt><trkpt lat="42.0787423" lon="11.965268"><ele>116.0</ele><time>2026-04-21T12:25:10.476Z</time></trkpt><trkpt lat="42.0785848" lon="11.9651843"><ele>116.0</ele><time>2026-04-21T12:25:11.488Z</time></trkpt><trkpt lat="42.0784285" lon="11.9650945"><ele>116.0</ele><time>2026-04-21T12:25:12.462Z</time></trkpt><trkpt lat="42.078277" lon="11.965007"><ele>118.66666666666666</ele><time>2026-04-21T12:25:13.467Z</time></trkpt><trkpt lat="42.0781278" lon="11.964916"><ele>121.33333333333334</ele><time>2026-04-21T12:25:14.47Z</time></trkpt><trkpt lat="42.077982" lon="11.9648232"><ele>124.0</ele><time>2026-04-21T12:25:15.471Z</time></trkpt><trkpt lat="42.0778402" lon="11.9647307"><ele>124.0</ele><time>2026-04-21T12:25:16.47Z</time></trkpt><trkpt lat="42.0777" lon="11.9646338"><ele>124.0</ele><time>2026-04-21T12:25:17.466Z</time></trkpt><trkpt lat="42.0775587" lon="11.9645173"><ele>124.0</ele><time>2026-04-21T12:25:18.476Z</time></trkpt><trkpt lat="42.0774205" lon="11.9643803"><ele>123.66666666666667</ele><time>2026-04-21T12:25:19.475Z</time></trkpt><trkpt lat="42.077282" lon="11.9642381"><ele>123.33333333333334</ele><time>2026-04-21T12:25:20.487Z</time></trkpt><trkpt lat="42.0771428" lon="11.9640895"><ele>123.0</ele><time>2026-04-21T12:25:21.469Z</time></trkpt><trkpt lat="42.0770037" lon="11.9639355"><ele>123.0</ele><time>2026-04-21T12:25:22.47Z</time></trkpt><trkpt lat="42.0768683" lon="11.963782"><ele>123.0</ele><time>2026-04-21T12:25:23.471Z</time></trkpt><trkpt lat="42.0767395" lon="11.9636236"><ele>123.0</ele><time>2026-04-21T12:25:24.468Z</time></trkpt><trkpt lat="42.0766147" lon="11.9634603"><ele>123.33333333333334</ele><time>2026-04-21T12:25:25.479Z</time></trkpt><trkpt lat="42.0764915" lon="11.9633031"><ele>123.66666666666667</ele><time>2026-04-21T12:25:26.481Z</time></trkpt><trkpt lat="42.076358" lon="11.9631604"><ele>124.0</ele><time>2026-04-21T12:25:27.465Z</time></trkpt><trkpt lat="42.07621" lon="11.9630345"><ele>124.0</ele><time>2026-04-21T12:25:28.482Z</time></trkpt><trkpt lat="42.0760645" lon="11.9629231"><ele>124.0</ele><time>2026-04-21T12:25:29.485Z</time></trkpt><trkpt lat="42.0759368" lon="11.9628108"><ele>124.0</ele><time>2026-04-21T12:25:30.479Z</time></trkpt><trkpt lat="42.0758218" lon="11.9626843"><ele>125.25</ele><time>2026-04-21T12:25:31.472Z</time></trkpt><trkpt lat="42.075717" lon="11.9625391"><ele>126.5</ele><time>2026-04-21T12:25:32.479Z</time></trkpt><trkpt lat="42.0756068" lon="11.9624093"><ele>127.75</ele><time>2026-04-21T12:25:33.485Z</time></trkpt><trkpt lat="42.075476" lon="11.9623145"><ele>129.0</ele><time>2026-04-21T12:25:34.485Z</time></trkpt><trkpt lat="42.0753308" lon="11.9622445"><ele>129.0</ele><time>2026-04-21T12:25:35.476Z</time></trkpt><trkpt lat="42.0751895" lon="11.9621728"><ele>129.0</ele><time>2026-04-21T12:25:36.473Z</time></trkpt><trkpt lat="42.0750625" lon="11.9620633"><ele>129.0</ele><time>2026-04-21T12:25:37.474Z</time></trkpt><trkpt lat="42.0749457" lon="11.961913"><ele>125.33333333333334</ele><time>2026-04-21T12:25:38.487Z</time></trkpt><trkpt lat="42.0748298" lon="11.961742"><ele>121.66666666666667</ele><time>2026-04-21T12:25:39.47Z</time></trkpt><trkpt lat="42.0747117" lon="11.9615708"><ele>118.0</ele><time>2026-04-21T12:25:40.483Z</time></trkpt><trkpt lat="42.074601" lon="11.9614108"><ele>118.0</ele><time>2026-04-21T12:25:41.479Z</time></trkpt><trkpt lat="42.0745105" lon="11.9612587"><ele>118.0</ele><time>2026-04-21T12:25:42.47Z</time></trkpt><trkpt lat="42.0744465" lon="11.9610973"><ele>118.0</ele><time>2026-04-21T12:25:43.468Z</time></trkpt><trkpt lat="42.0744103" lon="11.9609211"><ele>118.0</ele><time>2026-04-21T12:25:44.474Z</time></trkpt><trkpt lat="42.074371" lon="11.960743"><ele>121.0</ele><time>2026-04-21T12:25:45.483Z</time></trkpt><trkpt lat="42.0743008" lon="11.9605778"><ele>124.0</ele><time>2026-04-21T12:25:46.47Z</time></trkpt><trkpt lat="42.0741973" lon="11.96042"><ele>127.0</ele><time>2026-04-21T12:25:47.47Z</time></trkpt><trkpt lat="42.074073" lon="11.9602565"><ele>123.0</ele><time>2026-04-21T12:25:48.474Z</time></trkpt><trkpt lat="42.073942" lon="11.9600833"><ele>119.0</ele><time>2026-04-21T12:25:49.474Z</time></trkpt><trkpt lat="42.0738122" lon="11.9599002"><ele>115.0</ele><time>2026-04-21T12:25:50.469Z</time></trkpt><trkpt lat="42.0736847" lon="11.9597117"><ele>115.0</ele><time>2026-04-21T12:25:51.471Z</time></trkpt><trkpt lat="42.0735623" lon="11.9595167"><ele>115.0</ele><time>2026-04-21T12:25:52.467Z</time></trkpt><trkpt lat="42.073449" lon="11.9593153"><ele>115.0</ele><time>2026-04-21T12:25:53.469Z</time></trkpt><trkpt lat="42.0733403" lon="11.9591178"><ele>113.33333333333334</ele><time>2026-04-21T12:25:54.471Z</time></trkpt><trkpt lat="42.073228" lon="11.958926"><ele>111.66666666666666</ele><time>2026-04-21T12:25:55.474Z</time></trkpt><trkpt lat="42.0731077" lon="11.9587387"><ele>110.0</ele><time>2026-04-21T12:25:56.476Z</time></trkpt><trkpt lat="42.072982" lon="11.9585617"><ele>110.0</ele><time>2026-04-21T12:25:57.474Z</time></trkpt><trkpt lat="42.072852" lon="11.9583895"><ele>110.0</ele><time>2026-04-21T12:25:58.477Z</time></trkpt><trkpt lat="42.0727178" lon="11.9582215"><ele>110.0</ele><time>2026-04-21T12:25:59.48Z</time></trkpt><trkpt lat="42.0725827" lon="11.9580562"><ele>108.33333333333333</ele><time>2026-04-21T12:26:00.486Z</time></trkpt><trkpt lat="42.0724498" lon="11.9578978"><ele>106.66666666666666</ele><time>2026-04-21T12:26:01.482Z</time></trkpt><trkpt lat="42.0723242" lon="11.9577473"><ele>105.0</ele><time>2026-04-21T12:26:02.473Z</time></trkpt><trkpt lat="42.0722033" lon="11.9575941"><ele>110.33333333333334</ele><time>2026-04-21T12:26:03.472Z</time></trkpt><trkpt lat="42.0720925" lon="11.9574205"><ele>115.66666666666667</ele><time>2026-04-21T12:26:04.476Z</time></trkpt><trkpt lat="42.0719925" lon="11.9572343"><ele>121.0</ele><time>2026-04-21T12:26:05.48Z</time></trkpt><trkpt lat="42.0719052" lon="11.957039"><ele>121.0</ele><time>2026-04-21T12:26:06.475Z</time></trkpt><trkpt lat="42.0718177" lon="11.9568388"><ele>121.0</ele><time>2026-04-21T12:26:07.483Z</time></trkpt><trkpt lat="42.0717132" lon="11.9566426"><ele>121.0</ele><time>2026-04-21T12:26:08.481Z</time></trkpt><trkpt lat="42.0715858" lon="11.9564488"><ele>118.0</ele><time>2026-04-21T12:26:09.48Z</time></trkpt><trkpt lat="42.0714478" lon="11.9562596"><ele>115.0</ele><time>2026-04-21T12:26:10.491Z</time></trkpt><trkpt lat="42.0713092" lon="11.9560732"><ele>112.0</ele><time>2026-04-21T12:26:11.484Z</time></trkpt><trkpt lat="42.07117" lon="11.9558857"><ele>108.33333333333334</ele><time>2026-04-21T12:26:12.479Z</time></trkpt><trkpt lat="42.0710277" lon="11.9557018"><ele>104.66666666666666</ele><time>2026-04-21T12:26:13.478Z</time></trkpt><trkpt lat="42.07088" lon="11.9555137"><ele>101.0</ele><time>2026-04-21T12:26:14.48Z</time></trkpt><trkpt lat="42.0707322" lon="11.9553227"><ele>101.0</ele><time>2026-04-21T12:26:15.478Z</time></trkpt><trkpt lat="42.0705815" lon="11.9551253"><ele>101.0</ele><time>2026-04-21T12:26:16.475Z</time></trkpt><trkpt lat="42.0704392" lon="11.9549333"><ele>101.0</ele><time>2026-04-21T12:26:17.482Z</time></trkpt><trkpt lat="42.070308" lon="11.9547445"><ele>99.33333333333333</ele><time>2026-04-21T12:26:18.498Z</time></trkpt><trkpt lat="42.0701878" lon="11.9545603"><ele>97.66666666666666</ele><time>2026-04-21T12:26:19.478Z</time></trkpt><trkpt lat="42.0700678" lon="11.9543932"><ele>96.0</ele><time>2026-04-21T12:26:20.494Z</time></trkpt><trkpt lat="42.0699322" lon="11.9542565"><ele>101.0</ele><time>2026-04-21T12:26:21.481Z</time></trkpt><trkpt lat="42.0697743" lon="11.9541518"><ele>106.0</ele><time>2026-04-21T12:26:22.48Z</time></trkpt><trkpt lat="42.0696027" lon="11.9540703"><ele>111.0</ele><time>2026-04-21T12:26:23.499Z</time></trkpt><trkpt lat="42.069433" lon="11.9540008"><ele>111.0</ele><time>2026-04-21T12:26:24.481Z</time></trkpt><trkpt lat="42.0692703" lon="11.9539276"><ele>111.0</ele><time>2026-04-21T12:26:25.465Z</time></trkpt><trkpt lat="42.0691172" lon="11.9538265"><ele>111.0</ele><time>2026-04-21T12:26:26.477Z</time></trkpt><trkpt lat="42.068979" lon="11.9536836"><ele>108.33333333333334</ele><time>2026-04-21T12:26:27.468Z</time></trkpt><trkpt lat="42.0688518" lon="11.95351"><ele>105.66666666666667</ele><time>2026-04-21T12:26:28.483Z</time></trkpt><trkpt lat="42.0687332" lon="11.9533328"><ele>103.0</ele><time>2026-04-21T12:26:29.482Z</time></trkpt><trkpt lat="42.0686378" lon="11.95315"><ele>103.0</ele><time>2026-04-21T12:26:30.489Z</time></trkpt><trkpt lat="42.0685792" lon="11.952961"><ele>103.0</ele><time>2026-04-21T12:26:31.487Z</time></trkpt><trkpt lat="42.068555" lon="11.9527547"><ele>103.0</ele><time>2026-04-21T12:26:32.49Z</time></trkpt><trkpt lat="42.0685408" lon="11.9525472"><ele>105.0</ele><time>2026-04-21T12:26:33.49Z</time></trkpt><trkpt lat="42.0684962" lon="11.9523527"><ele>107.0</ele><time>2026-04-21T12:26:34.481Z</time></trkpt><trkpt lat="42.0684178" lon="11.952179"><ele>109.0</ele><time>2026-04-21T12:26:35.499Z</time></trkpt><trkpt lat="42.0683153" lon="11.9520357"><ele>105.0</ele><time>2026-04-21T12:26:36.499Z</time></trkpt><trkpt lat="42.0681937" lon="11.9519347"><ele>101.0</ele><time>2026-04-21T12:26:37.468Z</time></trkpt><trkpt lat="42.0680488" lon="11.9518733"><ele>97.0</ele><time>2026-04-21T12:26:38.473Z</time></trkpt><trkpt lat="42.0678777" lon="11.9518432"><ele>97.0</ele><time>2026-04-21T12:26:39.49Z</time></trkpt><trkpt lat="42.0676863" lon="11.951831"><ele>97.0</ele><time>2026-04-21T12:26:40.489Z</time></trkpt><trkpt lat="42.0674903" lon="11.951821"><ele>97.0</ele><time>2026-04-21T12:26:41.488Z</time></trkpt><trkpt lat="42.0672963" lon="11.9518103"><ele>93.0</ele><time>2026-04-21T12:26:42.489Z</time></trkpt><trkpt lat="42.0671068" lon="11.9518002"><ele>89.0</ele><time>2026-04-21T12:26:43.481Z</time></trkpt><trkpt lat="42.0669222" lon="11.9517925"><ele>85.0</ele><time>2026-04-21T12:26:44.49Z</time></trkpt><trkpt lat="42.0667432" lon="11.951786"><ele>81.0</ele><time>2026-04-21T12:26:45.512Z</time></trkpt><trkpt lat="42.0665707" lon="11.9517777"><ele>77.0</ele><time>2026-04-21T12:26:46.512Z</time></trkpt><trkpt lat="42.0664093" lon="11.9517617"><ele>73.0</ele><time>2026-04-21T12:26:47.479Z</time></trkpt><trkpt lat="42.0662603" lon="11.9517183"><ele>77.33333333333333</ele><time>2026-04-21T12:26:48.48Z</time></trkpt><trkpt lat="42.0661305" lon="11.951631"><ele>81.66666666666667</ele><time>2026-04-21T12:26:49.478Z</time></trkpt><trkpt lat="42.0660107" lon="11.9514948"><ele>86.0</ele><time>2026-04-21T12:26:50.482Z</time></trkpt><trkpt lat="42.0658987" lon="11.95133"><ele>86.0</ele><time>2026-04-21T12:26:51.48Z</time></trkpt><trkpt lat="42.0657902" lon="11.9511653"><ele>86.0</ele><time>2026-04-21T12:26:52.495Z</time></trkpt><trkpt lat="42.0656725" lon="11.9510222"><ele>86.0</ele><time>2026-04-21T12:26:53.486Z</time></trkpt><trkpt lat="42.0655413" lon="11.9509188"><ele>86.66666666666667</ele><time>2026-04-21T12:26:54.492Z</time></trkpt><trkpt lat="42.0653943" lon="11.9508672"><ele>87.33333333333333</ele><time>2026-04-21T12:26:55.493Z</time></trkpt><trkpt lat="42.065233" lon="11.9508552"><ele>88.0</ele><time>2026-04-21T12:26:56.486Z</time></trkpt><trkpt lat="42.0650652" lon="11.950872"><ele>81.66666666666666</ele><time>2026-04-21T12:26:57.481Z</time></trkpt><trkpt lat="42.0648893" lon="11.9509012"><ele>75.33333333333333</ele><time>2026-04-21T12:26:58.474Z</time></trkpt><trkpt lat="42.0647065" lon="11.950918"><ele>69.0</ele><time>2026-04-21T12:26:59.47Z</time></trkpt><trkpt lat="42.0645175" lon="11.9509048"><ele>72.0</ele><time>2026-04-21T12:27:00.472Z</time></trkpt><trkpt lat="42.0643247" lon="11.9508642"><ele>75.0</ele><time>2026-04-21T12:27:01.474Z</time></trkpt><trkpt lat="42.0641312" lon="11.95081"><ele>78.0</ele><time>2026-04-21T12:27:02.495Z</time></trkpt><trkpt lat="42.0639458" lon="11.9507493"><ele>78.0</ele><time>2026-04-21T12:27:03.495Z</time></trkpt><trkpt lat="42.0637752" lon="11.9506727"><ele>78.0</ele><time>2026-04-21T12:27:04.498Z</time></trkpt><trkpt lat="42.0636157" lon="11.9505856"><ele>78.0</ele><time>2026-04-21T12:27:05.493Z</time></trkpt><trkpt lat="42.0634693" lon="11.9505048"><ele>78.0</ele><time>2026-04-21T12:27:06.488Z</time></trkpt><trkpt lat="42.063329" lon="11.9504516"><ele>78.0</ele><time>2026-04-21T12:27:07.489Z</time></trkpt><trkpt lat="42.0631873" lon="11.9504438"><ele>78.0</ele><time>2026-04-21T12:27:08.476Z</time></trkpt><trkpt lat="42.0630533" lon="11.9504845"><ele>78.0</ele><time>2026-04-21T12:27:09.476Z</time></trkpt><trkpt lat="42.062932" lon="11.9505773"><ele>78.0</ele><time>2026-04-21T12:27:10.481Z</time></trkpt><trkpt lat="42.0628132" lon="11.9506803"><ele>78.0</ele><time>2026-04-21T12:27:11.49Z</time></trkpt><trkpt lat="42.0626825" lon="11.950748"><ele>78.0</ele><time>2026-04-21T12:27:12.469Z</time></trkpt><trkpt lat="42.0625453" lon="11.9507672"><ele>78.0</ele><time>2026-04-21T12:27:13.483Z</time></trkpt><trkpt lat="42.0624133" lon="11.9507366"><ele>76.75</ele><time>2026-04-21T12:27:14.484Z</time></trkpt><trkpt lat="42.0622917" lon="11.9506581"><ele>75.5</ele><time>2026-04-21T12:27:15.476Z</time></trkpt><trkpt lat="42.0621718" lon="11.9505543"><ele>74.25</ele><time>2026-04-21T12:27:16.484Z</time></trkpt><trkpt lat="42.0620488" lon="11.9504556"><ele>73.0</ele><time>2026-04-21T12:27:17.483Z</time></trkpt><trkpt lat="42.0619213" lon="11.9503842"><ele>73.0</ele><time>2026-04-21T12:27:18.471Z</time></trkpt><trkpt lat="42.0617878" lon="11.9503565"><ele>73.0</ele><time>2026-04-21T12:27:19.469Z</time></trkpt><trkpt lat="42.0616458" lon="11.9503812"><ele>73.0</ele><time>2026-04-21T12:27:20.493Z</time></trkpt><trkpt lat="42.0614945" lon="11.9504273"><ele>73.0</ele><time>2026-04-21T12:27:21.476Z</time></trkpt><trkpt lat="42.0613408" lon="11.9504778"><ele>71.75</ele><time>2026-04-21T12:27:22.465Z</time></trkpt><trkpt lat="42.0611932" lon="11.9505261"><ele>70.5</ele><time>2026-04-21T12:27:23.473Z</time></trkpt><trkpt lat="42.0610605" lon="11.9505476"><ele>69.25</ele><time>2026-04-21T12:27:24.475Z</time></trkpt><trkpt lat="42.0609395" lon="11.9505252"><ele>68.0</ele><time>2026-04-21T12:27:25.479Z</time></trkpt><trkpt lat="42.060817" lon="11.9504552"><ele>65.75</ele><time>2026-04-21T12:27:26.477Z</time></trkpt><trkpt lat="42.060696" lon="11.9503473"><ele>63.5</ele><time>2026-04-21T12:27:27.473Z</time></trkpt><trkpt lat="42.060593" lon="11.9502236"><ele>61.25</ele><time>2026-04-21T12:27:28.472Z</time></trkpt><trkpt lat="42.0605172" lon="11.9500808"><ele>59.0</ele><time>2026-04-21T12:27:29.51Z</time></trkpt><trkpt lat="42.0604743" lon="11.9499216"><ele>59.0</ele><time>2026-04-21T12:27:30.473Z</time></trkpt><trkpt lat="42.0604578" lon="11.9497381"><ele>59.0</ele><time>2026-04-21T12:27:31.472Z</time></trkpt><trkpt lat="42.0604513" lon="11.9495373"><ele>59.0</ele><time>2026-04-21T12:27:32.48Z</time></trkpt><trkpt lat="42.060424" lon="11.94933"><ele>59.0</ele><time>2026-04-21T12:27:33.479Z</time></trkpt><trkpt lat="42.0603595" lon="11.9491258"><ele>61.0</ele><time>2026-04-21T12:27:34.481Z</time></trkpt><trkpt lat="42.0602687" lon="11.9489191"><ele>63.0</ele><time>2026-04-21T12:27:35.476Z</time></trkpt><trkpt lat="42.0601673" lon="11.9487113"><ele>65.0</ele><time>2026-04-21T12:27:36.464Z</time></trkpt><trkpt lat="42.0600668" lon="11.9485122"><ele>67.33333333333334</ele><time>2026-04-21T12:27:37.475Z</time></trkpt><trkpt lat="42.0599753" lon="11.948318"><ele>69.66666666666667</ele><time>2026-04-21T12:27:38.464Z</time></trkpt><trkpt lat="42.059899" lon="11.9481311"><ele>72.0</ele><time>2026-04-21T12:27:39.458Z</time></trkpt><trkpt lat="42.0598405" lon="11.9479562"><ele>67.25</ele><time>2026-04-21T12:27:40.473Z</time></trkpt><trkpt lat="42.0598225" lon="11.9477843"><ele>62.5</ele><time>2026-04-21T12:27:41.463Z</time></trkpt><trkpt lat="42.0598372" lon="11.9476035"><ele>57.75</ele><time>2026-04-21T12:27:42.46Z</time></trkpt><trkpt lat="42.0598542" lon="11.9474107"><ele>53.0</ele><time>2026-04-21T12:27:43.454Z</time></trkpt><trkpt lat="42.0598538" lon="11.9472096"><ele>53.0</ele><time>2026-04-21T12:27:44.456Z</time></trkpt><trkpt lat="42.0598293" lon="11.9469991"><ele>53.0</ele><time>2026-04-21T12:27:45.46Z</time></trkpt><trkpt lat="42.0597828" lon="11.946785"><ele>53.0</ele><time>2026-04-21T12:27:46.464Z</time></trkpt><trkpt lat="42.059731" lon="11.9465802"><ele>52.66666666666667</ele><time>2026-04-21T12:27:47.459Z</time></trkpt><trkpt lat="42.0596968" lon="11.9463682"><ele>52.33333333333333</ele><time>2026-04-21T12:27:48.462Z</time></trkpt><trkpt lat="42.0596793" lon="11.9461438"><ele>52.0</ele><time>2026-04-21T12:27:49.462Z</time></trkpt><trkpt lat="42.0596652" lon="11.945907"><ele>51.666666666666664</ele><time>2026-04-21T12:27:50.465Z</time></trkpt><trkpt lat="42.059649" lon="11.9456595"><ele>51.33333333333333</ele><time>2026-04-21T12:27:51.46Z</time></trkpt><trkpt lat="42.0596335" lon="11.9454075"><ele>51.0</ele><time>2026-04-21T12:27:52.464Z</time></trkpt><trkpt lat="42.0596142" lon="11.9451568"><ele>50.0</ele><time>2026-04-21T12:27:53.467Z</time></trkpt><trkpt lat="42.0595898" lon="11.9449038"><ele>49.0</ele><time>2026-04-21T12:27:54.467Z</time></trkpt><trkpt lat="42.0595597" lon="11.9446476"><ele>48.0</ele><time>2026-04-21T12:27:55.466Z</time></trkpt><trkpt lat="42.0595268" lon="11.9443892"><ele>47.333333333333336</ele><time>2026-04-21T12:27:56.468Z</time></trkpt><trkpt lat="42.0594952" lon="11.9441272"><ele>46.66666666666667</ele><time>2026-04-21T12:27:57.468Z</time></trkpt><trkpt lat="42.0594682" lon="11.9438692"><ele>46.0</ele><time>2026-04-21T12:27:58.475Z</time></trkpt><trkpt lat="42.059439" lon="11.9436156"><ele>45.333333333333336</ele><time>2026-04-21T12:27:59.468Z</time></trkpt><trkpt lat="42.0594047" lon="11.9433612"><ele>44.666666666666664</ele><time>2026-04-21T12:28:00.462Z</time></trkpt><trkpt lat="42.0593612" lon="11.9431046"><ele>44.0</ele><time>2026-04-21T12:28:01.48Z</time></trkpt><trkpt lat="42.0593135" lon="11.9428518"><ele>44.0</ele><time>2026-04-21T12:28:02.483Z</time></trkpt><trkpt lat="42.0592643" lon="11.9426066"><ele>44.0</ele><time>2026-04-21T12:28:03.479Z</time></trkpt><trkpt lat="42.0592108" lon="11.9423705"><ele>44.0</ele><time>2026-04-21T12:28:04.479Z</time></trkpt><trkpt lat="42.0591452" lon="11.9421514"><ele>42.5</ele><time>2026-04-21T12:28:05.481Z</time></trkpt><trkpt lat="42.0590658" lon="11.9419607"><ele>41.0</ele><time>2026-04-21T12:28:06.479Z</time></trkpt><trkpt lat="42.0589777" lon="11.9418127"><ele>39.5</ele><time>2026-04-21T12:28:07.484Z</time></trkpt><trkpt lat="42.0588837" lon="11.9417218"><ele>38.0</ele><time>2026-04-21T12:28:08.478Z</time></trkpt><trkpt lat="42.0587795" lon="11.9416885"><ele>38.0</ele><time>2026-04-21T12:28:09.482Z</time></trkpt><trkpt lat="42.0586697" lon="11.941704"><ele>38.0</ele><time>2026-04-21T12:28:10.467Z</time></trkpt><trkpt lat="42.0585598" lon="11.9417663"><ele>38.0</ele><time>2026-04-21T12:28:11.472Z</time></trkpt><trkpt lat="42.0584575" lon="11.9418703"><ele>38.0</ele><time>2026-04-21T12:28:12.474Z</time></trkpt><trkpt lat="42.0583647" lon="11.9419927"><ele>39.5</ele><time>2026-04-21T12:28:13.5Z</time></trkpt><trkpt lat="42.0582692" lon="11.9421128"><ele>41.0</ele><time>2026-04-21T12:28:14.484Z</time></trkpt><trkpt lat="42.0581663" lon="11.942208"><ele>42.5</ele><time>2026-04-21T12:28:15.476Z</time></trkpt><trkpt lat="42.0580577" lon="11.9422667"><ele>44.0</ele><time>2026-04-21T12:28:16.482Z</time></trkpt><trkpt lat="42.0579435" lon="11.9422815"><ele>44.0</ele><time>2026-04-21T12:28:17.476Z</time></trkpt><trkpt lat="42.0578207" lon="11.9422533"><ele>44.0</ele><time>2026-04-21T12:28:18.487Z</time></trkpt><trkpt lat="42.0576845" lon="11.9421883"><ele>44.0</ele><time>2026-04-21T12:28:19.476Z</time></trkpt><trkpt lat="42.0575342" lon="11.9420895"><ele>44.0</ele><time>2026-04-21T12:28:20.473Z</time></trkpt><trkpt lat="42.0573767" lon="11.9419792"><ele>44.666666666666664</ele><time>2026-04-21T12:28:21.468Z</time></trkpt><trkpt lat="42.0572207" lon="11.9418688"><ele>45.333333333333336</ele><time>2026-04-21T12:28:22.478Z</time></trkpt><trkpt lat="42.0570738" lon="11.9417472"><ele>46.0</ele><time>2026-04-21T12:28:23.47Z</time></trkpt><trkpt lat="42.0569323" lon="11.9416128"><ele>46.0</ele><time>2026-04-21T12:28:24.479Z</time></trkpt><trkpt lat="42.0567905" lon="11.9414693"><ele>46.0</ele><time>2026-04-21T12:28:25.461Z</time></trkpt><trkpt lat="42.0566463" lon="11.9413213"><ele>46.0</ele><time>2026-04-21T12:28:26.476Z</time></trkpt><trkpt lat="42.0565038" lon="11.941173"><ele>48.66666666666667</ele><time>2026-04-21T12:28:27.472Z</time></trkpt><trkpt lat="42.0563688" lon="11.9410256"><ele>51.333333333333336</ele><time>2026-04-21T12:28:28.47Z</time></trkpt><trkpt lat="42.0562458" lon="11.94087"><ele>54.0</ele><time>2026-04-21T12:28:29.468Z</time></trkpt><trkpt lat="42.0561343" lon="11.9406958"><ele>54.0</ele><time>2026-04-21T12:28:30.477Z</time></trkpt><trkpt lat="42.0560413" lon="11.9404923"><ele>54.0</ele><time>2026-04-21T12:28:31.466Z</time></trkpt><trkpt lat="42.0559578" lon="11.9402665"><ele>54.0</ele><time>2026-04-21T12:28:32.478Z</time></trkpt><trkpt lat="42.055874" lon="11.9400287"><ele>55.0</ele><time>2026-04-21T12:28:33.477Z</time></trkpt><trkpt lat="42.055786" lon="11.939787"><ele>56.0</ele><time>2026-04-21T12:28:34.471Z</time></trkpt><trkpt lat="42.0556983" lon="11.9395462"><ele>57.0</ele><time>2026-04-21T12:28:35.474Z</time></trkpt><trkpt lat="42.0556145" lon="11.9393143"><ele>55.0</ele><time>2026-04-21T12:28:36.483Z</time></trkpt><trkpt lat="42.0555407" lon="11.9390978"><ele>53.0</ele><time>2026-04-21T12:28:37.488Z</time></trkpt><trkpt lat="42.0554702" lon="11.9389017"><ele>51.0</ele><time>2026-04-21T12:28:38.484Z</time></trkpt><trkpt lat="42.0553955" lon="11.9387467"><ele>51.0</ele><time>2026-04-21T12:28:39.483Z</time></trkpt><trkpt lat="42.0553057" lon="11.938639"><ele>51.0</ele><time>2026-04-21T12:28:40.481Z</time></trkpt><trkpt lat="42.055193" lon="11.9385758"><ele>51.0</ele><time>2026-04-21T12:28:41.484Z</time></trkpt><trkpt lat="42.0550567" lon="11.9385386"><ele>51.0</ele><time>2026-04-21T12:28:42.48Z</time></trkpt><trkpt lat="42.0548997" lon="11.9385068"><ele>54.0</ele><time>2026-04-21T12:28:43.484Z</time></trkpt><trkpt lat="42.0547267" lon="11.9384721"><ele>57.0</ele><time>2026-04-21T12:28:44.481Z</time></trkpt><trkpt lat="42.0545493" lon="11.9384368"><ele>60.0</ele><time>2026-04-21T12:28:45.482Z</time></trkpt><trkpt lat="42.0543788" lon="11.9384013"><ele>56.33333333333333</ele><time>2026-04-21T12:28:46.499Z</time></trkpt><trkpt lat="42.0542137" lon="11.9383637"><ele>52.666666666666664</ele><time>2026-04-21T12:28:47.493Z</time></trkpt><trkpt lat="42.0540535" lon="11.9383118"><ele>49.0</ele><time>2026-04-21T12:28:48.487Z</time></trkpt><trkpt lat="42.0538993" lon="11.9382267"><ele>49.0</ele><time>2026-04-21T12:28:49.496Z</time></trkpt><trkpt lat="42.0537483" lon="11.9381103"><ele>49.0</ele><time>2026-04-21T12:28:50.498Z</time></trkpt><trkpt lat="42.0535992" lon="11.937981"><ele>49.0</ele><time>2026-04-21T12:28:51.479Z</time></trkpt><trkpt lat="42.0534473" lon="11.9378502"><ele>49.0</ele><time>2026-04-21T12:28:52.483Z</time></trkpt><trkpt lat="42.0532897" lon="11.937726"><ele>49.0</ele><time>2026-04-21T12:28:53.483Z</time></trkpt><trkpt lat="42.0531247" lon="11.9376165"><ele>49.0</ele><time>2026-04-21T12:28:54.484Z</time></trkpt><trkpt lat="42.0529593" lon="11.9375293"><ele>48.33333333333333</ele><time>2026-04-21T12:28:55.485Z</time></trkpt><trkpt lat="42.0527972" lon="11.9374428"><ele>47.666666666666664</ele><time>2026-04-21T12:28:56.486Z</time></trkpt><trkpt lat="42.0526497" lon="11.9373326"><ele>47.0</ele><time>2026-04-21T12:28:57.477Z</time></trkpt><trkpt lat="42.0525058" lon="11.9371918"><ele>45.33333333333333</ele><time>2026-04-21T12:28:58.483Z</time></trkpt><trkpt lat="42.0523553" lon="11.937031"><ele>43.666666666666664</ele><time>2026-04-21T12:28:59.481Z</time></trkpt><trkpt lat="42.0521992" lon="11.9368562"><ele>42.0</ele><time>2026-04-21T12:29:00.475Z</time></trkpt><trkpt lat="42.0520397" lon="11.9366818"><ele>42.0</ele><time>2026-04-21T12:29:01.496Z</time></trkpt><trkpt lat="42.0518792" lon="11.9365095"><ele>42.0</ele><time>2026-04-21T12:29:02.482Z</time></trkpt><trkpt lat="42.0517207" lon="11.9363343"><ele>42.0</ele><time>2026-04-21T12:29:03.468Z</time></trkpt><trkpt lat="42.0515603" lon="11.9361595"><ele>41.666666666666664</ele><time>2026-04-21T12:29:04.47Z</time></trkpt><trkpt lat="42.0513995" lon="11.9359968"><ele>41.33333333333333</ele><time>2026-04-21T12:29:05.471Z</time></trkpt><trkpt lat="42.0512418" lon="11.9358418"><ele>41.0</ele><time>2026-04-21T12:29:06.529Z</time></trkpt><trkpt lat="42.0510952" lon="11.9356965"><ele>41.0</ele><time>2026-04-21T12:29:07.472Z</time></trkpt><trkpt lat="42.050958" lon="11.9355685"><ele>41.0</ele><time>2026-04-21T12:29:08.471Z</time></trkpt><trkpt lat="42.050826" lon="11.9354801"><ele>41.0</ele><time>2026-04-21T12:29:09.475Z</time></trkpt><trkpt lat="42.0506895" lon="11.9354292"><ele>40.33333333333333</ele><time>2026-04-21T12:29:10.47Z</time></trkpt><trkpt lat="42.0505348" lon="11.9354113"><ele>39.666666666666664</ele><time>2026-04-21T12:29:11.468Z</time></trkpt><trkpt lat="42.0503577" lon="11.9354163"><ele>39.0</ele><time>2026-04-21T12:29:12.473Z</time></trkpt><trkpt lat="42.0501558" lon="11.935426"><ele>39.333333333333336</ele><time>2026-04-21T12:29:13.479Z</time></trkpt><trkpt lat="42.0499425" lon="11.9354327"><ele>39.66666666666667</ele><time>2026-04-21T12:29:14.467Z</time></trkpt><trkpt lat="42.0497377" lon="11.9354382"><ele>40.0</ele><time>2026-04-21T12:29:15.479Z</time></trkpt><trkpt lat="42.0495413" lon="11.9354471"><ele>40.0</ele><time>2026-04-21T12:29:16.473Z</time></trkpt><trkpt lat="42.0493467" lon="11.9354611"><ele>40.0</ele><time>2026-04-21T12:29:17.461Z</time></trkpt><trkpt lat="42.0491492" lon="11.9354995"><ele>40.0</ele><time>2026-04-21T12:29:18.458Z</time></trkpt><trkpt lat="42.048944" lon="11.9355673"><ele>37.333333333333336</ele><time>2026-04-21T12:29:19.467Z</time></trkpt><trkpt lat="42.0487332" lon="11.9356477"><ele>34.666666666666664</ele><time>2026-04-21T12:29:20.466Z</time></trkpt><trkpt lat="42.048519" lon="11.9357226"><ele>32.0</ele><time>2026-04-21T12:29:21.47Z</time></trkpt><trkpt lat="42.0483087" lon="11.9357926"><ele>30.333333333333332</ele><time>2026-04-21T12:29:22.48Z</time></trkpt><trkpt lat="42.0481" lon="11.9358582"><ele>28.666666666666664</ele><time>2026-04-21T12:29:23.476Z</time></trkpt><trkpt lat="42.0478905" lon="11.9359202"><ele>27.0</ele><time>2026-04-21T12:29:24.477Z</time></trkpt><trkpt lat="42.0476788" lon="11.9359835"><ele>29.333333333333336</ele><time>2026-04-21T12:29:25.472Z</time></trkpt><trkpt lat="42.0474677" lon="11.9360401"><ele>31.666666666666668</ele><time>2026-04-21T12:29:26.468Z</time></trkpt><trkpt lat="42.0472633" lon="11.9360953"><ele>34.0</ele><time>2026-04-21T12:29:27.483Z</time></trkpt><trkpt lat="42.0470648" lon="11.936153"><ele>34.0</ele><time>2026-04-21T12:29:28.467Z</time></trkpt><trkpt lat="42.0468692" lon="11.936208"><ele>34.0</ele><time>2026-04-21T12:29:29.464Z</time></trkpt><trkpt lat="42.0466722" lon="11.9362589"><ele>34.0</ele><time>2026-04-21T12:29:30.47Z</time></trkpt><trkpt lat="42.0464778" lon="11.9363148"><ele>31.333333333333336</ele><time>2026-04-21T12:29:31.478Z</time></trkpt><trkpt lat="42.0462857" lon="11.9363728"><ele>28.666666666666664</ele><time>2026-04-21T12:29:32.471Z</time></trkpt><trkpt lat="42.0460942" lon="11.9364335"><ele>26.0</ele><time>2026-04-21T12:29:33.473Z</time></trkpt><trkpt lat="42.0459018" lon="11.9364925"><ele>24.666666666666664</ele><time>2026-04-21T12:29:34.473Z</time></trkpt><trkpt lat="42.045707" lon="11.9365485"><ele>23.333333333333332</ele><time>2026-04-21T12:29:35.468Z</time></trkpt><trkpt lat="42.0455117" lon="11.9366041"><ele>22.0</ele><time>2026-04-21T12:29:36.473Z</time></trkpt><trkpt lat="42.0453172" lon="11.9366588"><ele>22.0</ele><time>2026-04-21T12:29:37.48Z</time></trkpt><trkpt lat="42.0451255" lon="11.9367171"><ele>22.0</ele><time>2026-04-21T12:29:38.48Z</time></trkpt><trkpt lat="42.0449333" lon="11.9367752"><ele>22.0</ele><time>2026-04-21T12:29:39.479Z</time></trkpt><trkpt lat="42.0447417" lon="11.9368353"><ele>23.666666666666664</ele><time>2026-04-21T12:29:40.479Z</time></trkpt><trkpt lat="42.04455" lon="11.9368943"><ele>25.333333333333332</ele><time>2026-04-21T12:29:41.478Z</time></trkpt><trkpt lat="42.0443603" lon="11.9369496"><ele>27.0</ele><time>2026-04-21T12:29:42.481Z</time></trkpt><trkpt lat="42.0441705" lon="11.9370067"><ele>28.333333333333336</ele><time>2026-04-21T12:29:43.48Z</time></trkpt><trkpt lat="42.0439825" lon="11.9370636"><ele>29.666666666666668</ele><time>2026-04-21T12:29:44.48Z</time></trkpt><trkpt lat="42.043794" lon="11.9371178"><ele>31.0</ele><time>2026-04-21T12:29:45.483Z</time></trkpt><trkpt lat="42.0436067" lon="11.9371715"><ele>31.0</ele><time>2026-04-21T12:29:46.481Z</time></trkpt><trkpt lat="42.0434197" lon="11.9372253"><ele>31.0</ele><time>2026-04-21T12:29:47.482Z</time></trkpt><trkpt lat="42.0432332" lon="11.9372807"><ele>31.0</ele><time>2026-04-21T12:29:48.483Z</time></trkpt><trkpt lat="42.0430453" lon="11.9373375"><ele>31.333333333333336</ele><time>2026-04-21T12:29:49.484Z</time></trkpt><trkpt lat="42.042857" lon="11.9374007"><ele>31.666666666666664</ele><time>2026-04-21T12:29:50.483Z</time></trkpt><trkpt lat="42.0426698" lon="11.9374775"><ele>32.0</ele><time>2026-04-21T12:29:51.484Z</time></trkpt><trkpt lat="42.0424798" lon="11.9375658"><ele>31.666666666666664</ele><time>2026-04-21T12:29:52.486Z</time></trkpt><trkpt lat="42.0422878" lon="11.9376618"><ele>31.333333333333336</ele><time>2026-04-21T12:29:53.483Z</time></trkpt><trkpt lat="42.0420948" lon="11.9377613"><ele>31.0</ele><time>2026-04-21T12:29:54.49Z</time></trkpt><trkpt lat="42.0419008" lon="11.9378603"><ele>31.0</ele><time>2026-04-21T12:29:55.485Z</time></trkpt><trkpt lat="42.0417097" lon="11.937959"><ele>31.0</ele><time>2026-04-21T12:29:56.482Z</time></trkpt><trkpt lat="42.0415162" lon="11.938058"><ele>31.0</ele><time>2026-04-21T12:29:57.49Z</time></trkpt><trkpt lat="42.0413202" lon="11.9381565"><ele>30.333333333333336</ele><time>2026-04-21T12:29:58.487Z</time></trkpt><trkpt lat="42.0411248" lon="11.938257"><ele>29.666666666666664</ele><time>2026-04-21T12:29:59.486Z</time></trkpt><trkpt lat="42.0409293" lon="11.9383576"><ele>29.0</ele><time>2026-04-21T12:30:00.487Z</time></trkpt><trkpt lat="42.0407347" lon="11.9384595"><ele>27.666666666666664</ele><time>2026-04-21T12:30:01.498Z</time></trkpt><trkpt lat="42.040543" lon="11.9385627"><ele>26.333333333333336</ele><time>2026-04-21T12:30:02.484Z</time></trkpt><trkpt lat="42.0403512" lon="11.9386638"><ele>25.0</ele><time>2026-04-21T12:30:03.487Z</time></trkpt><trkpt lat="42.0401582" lon="11.9387652"><ele>24.333333333333336</ele><time>2026-04-21T12:30:04.496Z</time></trkpt><trkpt lat="42.0399655" lon="11.9388677"><ele>23.666666666666668</ele><time>2026-04-21T12:30:05.497Z</time></trkpt><trkpt lat="42.0397757" lon="11.93897"><ele>23.0</ele><time>2026-04-21T12:30:06.502Z</time></trkpt><trkpt lat="42.0395918" lon="11.939068"><ele>23.0</ele><time>2026-04-21T12:30:07.481Z</time></trkpt><trkpt lat="42.039415" lon="11.9391616"><ele>23.0</ele><time>2026-04-21T12:30:08.488Z</time></trkpt><trkpt lat="42.0392533" lon="11.93927"><ele>23.0</ele><time>2026-04-21T12:30:09.494Z</time></trkpt><trkpt lat="42.0391025" lon="11.9394083"><ele>24.666666666666668</ele><time>2026-04-21T12:30:10.49Z</time></trkpt><trkpt lat="42.0389692" lon="11.9395765"><ele>26.333333333333336</ele><time>2026-04-21T12:30:11.483Z</time></trkpt><trkpt lat="42.038856" lon="11.9397643"><ele>28.0</ele><time>2026-04-21T12:30:12.493Z</time></trkpt><trkpt lat="42.0387542" lon="11.9399461"><ele>28.0</ele><time>2026-04-21T12:30:13.487Z</time></trkpt><trkpt lat="42.0386497" lon="11.940098"><ele>28.0</ele><time>2026-04-21T12:30:14.491Z</time></trkpt><trkpt lat="42.0385325" lon="11.9402148"><ele>28.0</ele><time>2026-04-21T12:30:15.498Z</time></trkpt><trkpt lat="42.0384043" lon="11.9402953"><ele>28.0</ele><time>2026-04-21T12:30:16.527Z</time></trkpt><trkpt lat="42.0382723" lon="11.9403406"><ele>28.0</ele><time>2026-04-21T12:30:17.495Z</time></trkpt><trkpt lat="42.0381357" lon="11.9403476"><ele>28.0</ele><time>2026-04-21T12:30:18.505Z</time></trkpt><trkpt lat="42.0379948" lon="11.940315"><ele>28.0</ele><time>2026-04-21T12:30:19.496Z</time></trkpt><trkpt lat="42.0378477" lon="11.9402433"><ele>28.0</ele><time>2026-04-21T12:30:20.479Z</time></trkpt><trkpt lat="42.0376953" lon="11.9401446"><ele>28.0</ele><time>2026-04-21T12:30:21.488Z</time></trkpt><trkpt lat="42.0375378" lon="11.9400301"><ele>28.0</ele><time>2026-04-21T12:30:22.48Z</time></trkpt><trkpt lat="42.0373747" lon="11.9399096"><ele>28.0</ele><time>2026-04-21T12:30:23.486Z</time></trkpt><trkpt lat="42.0372033" lon="11.9397831"><ele>27.666666666666668</ele><time>2026-04-21T12:30:24.479Z</time></trkpt><trkpt lat="42.0370302" lon="11.9396523"><ele>27.333333333333336</ele><time>2026-04-21T12:30:25.481Z</time></trkpt><trkpt lat="42.0368553" lon="11.9395203"><ele>27.0</ele><time>2026-04-21T12:30:26.488Z</time></trkpt><trkpt lat="42.0366825" lon="11.9393887"><ele>27.0</ele><time>2026-04-21T12:30:27.485Z</time></trkpt><trkpt lat="42.0365127" lon="11.9392571"><ele>27.0</ele><time>2026-04-21T12:30:28.49Z</time></trkpt><trkpt lat="42.0363442" lon="11.9391276"><ele>27.0</ele><time>2026-04-21T12:30:29.485Z</time></trkpt><trkpt lat="42.0361723" lon="11.9390187"><ele>26.333333333333336</ele><time>2026-04-21T12:30:30.483Z</time></trkpt><trkpt lat="42.0359923" lon="11.9389366"><ele>25.666666666666668</ele><time>2026-04-21T12:30:31.491Z</time></trkpt><trkpt lat="42.0358082" lon="11.938877"><ele>25.0</ele><time>2026-04-21T12:30:32.491Z</time></trkpt><trkpt lat="42.0356237" lon="11.9388459"><ele>24.0</ele><time>2026-04-21T12:30:33.491Z</time></trkpt><trkpt lat="42.0354358" lon="11.9388452"><ele>23.0</ele><time>2026-04-21T12:30:34.49Z</time></trkpt><trkpt lat="42.0352467" lon="11.9388672"><ele>22.0</ele><time>2026-04-21T12:30:35.487Z</time></trkpt><trkpt lat="42.035064" lon="11.9388978"><ele>21.666666666666664</ele><time>2026-04-21T12:30:36.488Z</time></trkpt><trkpt lat="42.0348865" lon="11.9389275"><ele>21.333333333333332</ele><time>2026-04-21T12:30:37.488Z</time></trkpt><trkpt lat="42.0347153" lon="11.9389548"><ele>21.0</ele><time>2026-04-21T12:30:38.501Z</time></trkpt><trkpt lat="42.0345547" lon="11.938984"><ele>21.0</ele><time>2026-04-21T12:30:39.498Z</time></trkpt><trkpt lat="42.0344038" lon="11.9390157"><ele>21.0</ele><time>2026-04-21T12:30:40.489Z</time></trkpt><trkpt lat="42.034269" lon="11.9390468"><ele>21.0</ele><time>2026-04-21T12:30:41.489Z</time></trkpt><trkpt lat="42.0341543" lon="11.939073"><ele>21.0</ele><time>2026-04-21T12:30:42.525Z</time></trkpt><trkpt lat="42.0340575" lon="11.9390906"><ele>20.5</ele><time>2026-04-21T12:30:43.491Z</time></trkpt><trkpt lat="42.0339797" lon="11.9391047"><ele>20.0</ele><time>2026-04-21T12:30:44.483Z</time></trkpt><trkpt lat="42.0339135" lon="11.9391198"><ele>19.5</ele><time>2026-04-21T12:30:45.486Z</time></trkpt><trkpt lat="42.0338447" lon="11.9391388"><ele>19.0</ele><time>2026-04-21T12:30:46.49Z</time></trkpt><trkpt lat="42.0337625" lon="11.9391578"><ele>18.5</ele><time>2026-04-21T12:30:47.487Z</time></trkpt><trkpt lat="42.0336655" lon="11.9391735"><ele>18.0</ele><time>2026-04-21T12:30:48.499Z</time></trkpt><trkpt lat="42.033554" lon="11.939187"><ele>18.0</ele><time>2026-04-21T12:30:49.49Z</time></trkpt><trkpt lat="42.033432" lon="11.9391981"><ele>18.0</ele><time>2026-04-21T12:30:50.493Z</time></trkpt><trkpt lat="42.0333037" lon="11.93921"><ele>18.0</ele><time>2026-04-21T12:30:51.488Z</time></trkpt><trkpt lat="42.0331735" lon="11.9392255"><ele>18.0</ele><time>2026-04-21T12:30:52.494Z</time></trkpt><trkpt lat="42.0330447" lon="11.9392421"><ele>18.0</ele><time>2026-04-21T12:30:53.483Z</time></trkpt><trkpt lat="42.03292" lon="11.9392477"><ele>18.0</ele><time>2026-04-21T12:30:54.489Z</time></trkpt><trkpt lat="42.032797" lon="11.9392298"><ele>18.0</ele><time>2026-04-21T12:30:55.5Z</time></trkpt><trkpt lat="42.0326683" lon="11.9391888"><ele>18.0</ele><time>2026-04-21T12:30:56.487Z</time></trkpt><trkpt lat="42.03253" lon="11.9391305"><ele>17.666666666666668</ele><time>2026-04-21T12:30:57.495Z</time></trkpt><trkpt lat="42.0323848" lon="11.9390658"><ele>17.333333333333336</ele><time>2026-04-21T12:30:58.489Z</time></trkpt><trkpt lat="42.0322373" lon="11.939004"><ele>17.0</ele><time>2026-04-21T12:30:59.49Z</time></trkpt><trkpt lat="42.0320953" lon="11.9389478"><ele>17.0</ele><time>2026-04-21T12:31:00.484Z</time></trkpt><trkpt lat="42.031962" lon="11.9388943"><ele>17.0</ele><time>2026-04-21T12:31:01.481Z</time></trkpt><trkpt lat="42.0318377" lon="11.9388403"><ele>17.0</ele><time>2026-04-21T12:31:02.49Z</time></trkpt><trkpt lat="42.0317275" lon="11.9387823"><ele>17.0</ele><time>2026-04-21T12:31:03.542Z</time></trkpt><trkpt lat="42.031627" lon="11.9387177"><ele>16.8</ele><time>2026-04-21T12:31:04.488Z</time></trkpt><trkpt lat="42.0315387" lon="11.9386408"><ele>16.6</ele><time>2026-04-21T12:31:05.48Z</time></trkpt><trkpt lat="42.031465" lon="11.9385653"><ele>16.400000000000002</ele><time>2026-04-21T12:31:06.493Z</time></trkpt><trkpt lat="42.0314087" lon="11.9384983"><ele>16.2</ele><time>2026-04-21T12:31:07.497Z</time></trkpt><trkpt lat="42.03135" lon="11.938407"><ele>16.0</ele><time>2026-04-21T12:31:09.5Z</time></trkpt><trkpt lat="42.0313405" lon="11.938273"><ele>15.833333333333332</ele><time>2026-04-21T12:31:12.497Z</time></trkpt><trkpt lat="42.0313207" lon="11.93818"><ele>15.666666666666666</ele><time>2026-04-21T12:31:14.489Z</time></trkpt><trkpt lat="42.0313007" lon="11.9380406"><ele>15.5</ele><time>2026-04-21T12:31:17.486Z</time></trkpt><trkpt lat="42.031313" lon="11.9379523"><ele>15.333333333333332</ele><time>2026-04-21T12:31:18.483Z</time></trkpt><trkpt lat="42.0313338" lon="11.9378381"><ele>15.166666666666666</ele><time>2026-04-21T12:31:19.499Z</time></trkpt><trkpt lat="42.0313572" lon="11.9377018"><ele>15.0</ele><time>2026-04-21T12:31:20.491Z</time></trkpt><trkpt lat="42.0313815" lon="11.9375445"><ele>15.0</ele><time>2026-04-21T12:31:21.495Z</time></trkpt><trkpt lat="42.0314058" lon="11.9373708"><ele>15.0</ele><time>2026-04-21T12:31:22.486Z</time></trkpt><trkpt lat="42.031429" lon="11.9371842"><ele>15.0</ele><time>2026-04-21T12:31:23.489Z</time></trkpt><trkpt lat="42.0314485" lon="11.9369873"><ele>15.0</ele><time>2026-04-21T12:31:24.491Z</time></trkpt><trkpt lat="42.0314653" lon="11.9367832"><ele>13.666666666666666</ele><time>2026-04-21T12:31:25.484Z</time></trkpt><trkpt lat="42.0314798" lon="11.936577"><ele>12.333333333333332</ele><time>2026-04-21T12:31:26.483Z</time></trkpt><trkpt lat="42.031492" lon="11.9363718"><ele>11.0</ele><time>2026-04-21T12:31:27.488Z</time></trkpt><trkpt lat="42.0315045" lon="11.9361688"><ele>11.0</ele><time>2026-04-21T12:31:28.488Z</time></trkpt><trkpt lat="42.0315193" lon="11.9359741"><ele>11.0</ele><time>2026-04-21T12:31:29.491Z</time></trkpt><trkpt lat="42.0315368" lon="11.9358015"><ele>11.0</ele><time>2026-04-21T12:31:30.49Z</time></trkpt><trkpt lat="42.0315575" lon="11.9356668"><ele>11.0</ele><time>2026-04-21T12:31:31.488Z</time></trkpt><trkpt lat="42.0315795" lon="11.9355692"><ele>10.600000000000001</ele><time>2026-04-21T12:31:32.527Z</time></trkpt><trkpt lat="42.0316135" lon="11.9354637"><ele>10.200000000000001</ele><time>2026-04-21T12:31:34.483Z</time></trkpt><trkpt lat="42.0316575" lon="11.9353181"><ele>9.8</ele><time>2026-04-21T12:31:48.482Z</time></trkpt><trkpt lat="42.0316875" lon="11.9352317"><ele>9.4</ele><time>2026-04-21T12:31:49.483Z</time></trkpt><trkpt lat="42.0317178" lon="11.9351457"><ele>9.0</ele><time>2026-04-21T12:31:50.486Z</time></trkpt><trkpt lat="42.0317722" lon="11.9350088"><ele>9.0</ele><time>2026-04-21T12:31:52.48Z</time></trkpt><trkpt lat="42.0318133" lon="11.9349057"><ele>9.0</ele><time>2026-04-21T12:31:54.476Z</time></trkpt><trkpt lat="42.0318443" lon="11.934819"><ele>9.0</ele><time>2026-04-21T12:31:56.482Z</time></trkpt><trkpt lat="42.031858" lon="11.9347178"><ele>9.0</ele><time>2026-04-21T12:32:14.492Z</time></trkpt><trkpt lat="42.0317985" lon="11.9346768"><ele>9.0</ele><time>2026-04-21T12:32:16.503Z</time></trkpt><trkpt lat="42.0317395" lon="11.9347372"><ele>9.0</ele><time>2026-04-21T12:32:18.503Z</time></trkpt><trkpt lat="42.031682" lon="11.934902"><ele>8.5</ele><time>2026-04-21T12:32:20.499Z</time></trkpt><trkpt lat="42.0316357" lon="11.9350265"><ele>8.0</ele><time>2026-04-21T12:32:21.499Z</time></trkpt><trkpt lat="42.0315748" lon="11.9351797"><ele>7.5</ele><time>2026-04-21T12:32:22.497Z</time></trkpt><trkpt lat="42.0315053" lon="11.935358"><ele>7.0</ele><time>2026-04-21T12:32:23.509Z</time></trkpt><trkpt lat="42.0314307" lon="11.935551"><ele>7.0</ele><time>2026-04-21T12:32:24.503Z</time></trkpt><trkpt lat="42.0313495" lon="11.9357555"><ele>7.0</ele><time>2026-04-21T12:32:25.502Z</time></trkpt><trkpt lat="42.0312678" lon="11.9359691"><ele>7.0</ele><time>2026-04-21T12:32:26.501Z</time></trkpt><trkpt lat="42.0311822" lon="11.9361889"><ele>8.333333333333334</ele><time>2026-04-21T12:32:27.501Z</time></trkpt><trkpt lat="42.0310908" lon="11.9364132"><ele>9.666666666666666</ele><time>2026-04-21T12:32:28.498Z</time></trkpt><trkpt lat="42.030998" lon="11.9366427"><ele>11.0</ele><time>2026-04-21T12:32:29.492Z</time></trkpt><trkpt lat="42.0309047" lon="11.936874"><ele>12.0</ele><time>2026-04-21T12:32:30.498Z</time></trkpt><trkpt lat="42.0308122" lon="11.9371078"><ele>13.0</ele><time>2026-04-21T12:32:31.497Z</time></trkpt><trkpt lat="42.0307178" lon="11.9373433"><ele>14.0</ele><time>2026-04-21T12:32:32.48Z</time></trkpt><trkpt lat="42.0306217" lon="11.9375787"><ele>14.333333333333334</ele><time>2026-04-21T12:32:33.473Z</time></trkpt><trkpt lat="42.0305258" lon="11.9378126"><ele>14.666666666666668</ele><time>2026-04-21T12:32:34.485Z</time></trkpt><trkpt lat="42.0304313" lon="11.9380462"><ele>15.0</ele><time>2026-04-21T12:32:35.484Z</time></trkpt><trkpt lat="42.0303375" lon="11.9382766"><ele>13.666666666666666</ele><time>2026-04-21T12:32:36.483Z</time></trkpt><trkpt lat="42.0302442" lon="11.9385048"><ele>12.333333333333332</ele><time>2026-04-21T12:32:37.477Z</time></trkpt><trkpt lat="42.0301532" lon="11.938731"><ele>11.0</ele><time>2026-04-21T12:32:38.483Z</time></trkpt><trkpt lat="42.0300642" lon="11.938959"><ele>11.0</ele><time>2026-04-21T12:32:39.488Z</time></trkpt><trkpt lat="42.0299755" lon="11.9391863"><ele>11.0</ele><time>2026-04-21T12:32:40.482Z</time></trkpt><trkpt lat="42.029886" lon="11.9394165"><ele>11.0</ele><time>2026-04-21T12:32:41.484Z</time></trkpt><trkpt lat="42.0297942" lon="11.9396485"><ele>10.0</ele><time>2026-04-21T12:32:42.483Z</time></trkpt><trkpt lat="42.0297002" lon="11.939885"><ele>9.0</ele><time>2026-04-21T12:32:43.485Z</time></trkpt><trkpt lat="42.0296018" lon="11.9401252"><ele>8.0</ele><time>2026-04-21T12:32:44.486Z</time></trkpt><trkpt lat="42.0295025" lon="11.9403678"><ele>7.333333333333333</ele><time>2026-04-21T12:32:45.478Z</time></trkpt><trkpt lat="42.0294027" lon="11.9406138"><ele>6.666666666666666</ele><time>2026-04-21T12:32:46.48Z</time></trkpt><trkpt lat="42.0293005" lon="11.9408638"><ele>6.0</ele><time>2026-04-21T12:32:47.481Z</time></trkpt><trkpt lat="42.029196" lon="11.9411163"><ele>6.0</ele><time>2026-04-21T12:32:48.484Z</time></trkpt><trkpt lat="42.0290915" lon="11.9413723"><ele>6.0</ele><time>2026-04-21T12:32:49.475Z</time></trkpt><trkpt lat="42.0289878" lon="11.9416308"><ele>6.0</ele><time>2026-04-21T12:32:50.479Z</time></trkpt><trkpt lat="42.0288863" lon="11.9418942"><ele>5.666666666666667</ele><time>2026-04-21T12:32:51.481Z</time></trkpt><trkpt lat="42.0287835" lon="11.9421593"><ele>5.333333333333334</ele><time>2026-04-21T12:32:52.484Z</time></trkpt><trkpt lat="42.0286765" lon="11.9424263"><ele>5.0</ele><time>2026-04-21T12:32:53.481Z</time></trkpt><trkpt lat="42.0285682" lon="11.942691"><ele>5.0</ele><time>2026-04-21T12:32:54.483Z</time></trkpt><trkpt lat="42.0284593" lon="11.9429543"><ele>5.0</ele><time>2026-04-21T12:32:55.483Z</time></trkpt><trkpt lat="42.0283495" lon="11.9432172"><ele>5.0</ele><time>2026-04-21T12:32:56.476Z</time></trkpt><trkpt lat="42.0282397" lon="11.9434827"><ele>5.0</ele><time>2026-04-21T12:32:57.491Z</time></trkpt><trkpt lat="42.0281308" lon="11.9437491"><ele>5.0</ele><time>2026-04-21T12:32:58.481Z</time></trkpt><trkpt lat="42.0280227" lon="11.944016"><ele>5.333333333333334</ele><time>2026-04-21T12:32:59.505Z</time></trkpt><trkpt lat="42.0279165" lon="11.9442796"><ele>5.666666666666667</ele><time>2026-04-21T12:33:00.501Z</time></trkpt><trkpt lat="42.0278123" lon="11.9445402"><ele>6.0</ele><time>2026-04-21T12:33:01.481Z</time></trkpt><trkpt lat="42.0277115" lon="11.9447898"><ele>6.0</ele><time>2026-04-21T12:33:02.482Z</time></trkpt><trkpt lat="42.0276103" lon="11.9450325"><ele>6.0</ele><time>2026-04-21T12:33:03.479Z</time></trkpt><trkpt lat="42.0275092" lon="11.945277"><ele>6.0</ele><time>2026-04-21T12:33:04.49Z</time></trkpt><trkpt lat="42.0274107" lon="11.9455168"><ele>6.333333333333334</ele><time>2026-04-21T12:33:05.498Z</time></trkpt><trkpt lat="42.027318" lon="11.9457452"><ele>6.666666666666667</ele><time>2026-04-21T12:33:06.488Z</time></trkpt><trkpt lat="42.0272285" lon="11.945961"><ele>7.0</ele><time>2026-04-21T12:33:07.492Z</time></trkpt><trkpt lat="42.027142" lon="11.946169"><ele>7.0</ele><time>2026-04-21T12:33:08.486Z</time></trkpt><trkpt lat="42.0270562" lon="11.9463752"><ele>7.0</ele><time>2026-04-21T12:33:09.483Z</time></trkpt><trkpt lat="42.0269718" lon="11.9465791"><ele>7.0</ele><time>2026-04-21T12:33:10.49Z</time></trkpt><trkpt lat="42.0268898" lon="11.9467781"><ele>6.333333333333334</ele><time>2026-04-21T12:33:11.49Z</time></trkpt><trkpt lat="42.0268112" lon="11.9469713"><ele>5.666666666666667</ele><time>2026-04-21T12:33:12.49Z</time></trkpt><trkpt lat="42.0267353" lon="11.9471597"><ele>5.0</ele><time>2026-04-21T12:33:13.481Z</time></trkpt><trkpt lat="42.0266633" lon="11.9473398"><ele>5.4</ele><time>2026-04-21T12:33:14.482Z</time></trkpt><trkpt lat="42.0265987" lon="11.9475027"><ele>5.8</ele><time>2026-04-21T12:33:15.492Z</time></trkpt><trkpt lat="42.0265427" lon="11.9476428"><ele>6.199999999999999</ele><time>2026-04-21T12:33:16.482Z</time></trkpt><trkpt lat="42.0264945" lon="11.9477532"><ele>6.6</ele><time>2026-04-21T12:33:17.488Z</time></trkpt><trkpt lat="42.0264527" lon="11.9478307"><ele>7.0</ele><time>2026-04-21T12:33:18.48Z</time></trkpt><trkpt lat="42.0263613" lon="11.947913"><ele>7.0</ele><time>2026-04-21T12:33:20.487Z</time></trkpt><trkpt lat="42.02628" lon="11.9480143"><ele>7.0</ele><time>2026-04-21T12:33:22.48Z</time></trkpt><trkpt lat="42.026223" lon="11.9481525"><ele>7.0</ele><time>2026-04-21T12:33:24.484Z</time></trkpt><trkpt lat="42.0261833" lon="11.9483127"><ele>7.0</ele><time>2026-04-21T12:33:26.485Z</time></trkpt><trkpt lat="42.0261742" lon="11.948488"><ele>7.0</ele><time>2026-04-21T12:33:28.482Z</time></trkpt><trkpt lat="42.0261467" lon="11.9486012"><ele>7.0</ele><time>2026-04-21T12:33:29.493Z</time></trkpt><trkpt lat="42.0260977" lon="11.9487345"><ele>7.0</ele><time>2026-04-21T12:33:30.494Z</time></trkpt><trkpt lat="42.0260387" lon="11.9488893"><ele>7.0</ele><time>2026-04-21T12:33:31.491Z</time></trkpt><trkpt lat="42.025975" lon="11.9490596"><ele>7.0</ele><time>2026-04-21T12:33:32.484Z</time></trkpt><trkpt lat="42.0259067" lon="11.9492358"><ele>7.0</ele><time>2026-04-21T12:33:33.481Z</time></trkpt><trkpt lat="42.0258362" lon="11.9494138"><ele>7.0</ele><time>2026-04-21T12:33:34.494Z</time></trkpt><trkpt lat="42.025766" lon="11.9495922"><ele>7.0</ele><time>2026-04-21T12:33:35.483Z</time></trkpt><trkpt lat="42.025694" lon="11.9497711"><ele>7.0</ele><time>2026-04-21T12:33:36.482Z</time></trkpt><trkpt lat="42.0256185" lon="11.9499537"><ele>7.0</ele><time>2026-04-21T12:33:37.475Z</time></trkpt><trkpt lat="42.0255405" lon="11.9501388"><ele>7.0</ele><time>2026-04-21T12:33:38.477Z</time></trkpt><trkpt lat="42.0254612" lon="11.9503298"><ele>7.0</ele><time>2026-04-21T12:33:39.477Z</time></trkpt><trkpt lat="42.0253823" lon="11.9505248"><ele>7.0</ele><time>2026-04-21T12:33:40.479Z</time></trkpt><trkpt lat="42.0253102" lon="11.9507108"><ele>7.0</ele><time>2026-04-21T12:33:41.486Z</time></trkpt><trkpt lat="42.0252515" lon="11.9508635"><ele>7.0</ele><time>2026-04-21T12:33:42.485Z</time></trkpt><trkpt lat="42.0252053" lon="11.95098"><ele>7.333333333333334</ele><time>2026-04-21T12:33:43.485Z</time></trkpt><trkpt lat="42.0251685" lon="11.9510705"><ele>7.666666666666667</ele><time>2026-04-21T12:33:44.479Z</time></trkpt><trkpt lat="42.025119" lon="11.9511987"><ele>8.0</ele><time>2026-04-21T12:33:46.478Z</time></trkpt><trkpt lat="42.0250798" lon="11.9512923"><ele>8.333333333333334</ele><time>2026-04-21T12:33:48.477Z</time></trkpt><trkpt lat="42.0250485" lon="11.9513663"><ele>8.666666666666666</ele><time>2026-04-21T12:34:38.477Z</time></trkpt><trkpt lat="42.0250068" lon="11.9514742"><ele>9.0</ele><time>2026-04-21T12:34:40.491Z</time></trkpt><trkpt lat="42.0249652" lon="11.9515822"><ele>8.75</ele><time>2026-04-21T12:34:41.482Z</time></trkpt><trkpt lat="42.0249127" lon="11.9517137"><ele>8.5</ele><time>2026-04-21T12:34:42.481Z</time></trkpt><trkpt lat="42.0248533" lon="11.9518583"><ele>8.25</ele><time>2026-04-21T12:34:43.478Z</time></trkpt><trkpt lat="42.0247923" lon="11.9520092"><ele>8.0</ele><time>2026-04-21T12:34:44.473Z</time></trkpt><trkpt lat="42.0247288" lon="11.9521675"><ele>8.0</ele><time>2026-04-21T12:34:45.47Z</time></trkpt><trkpt lat="42.0246597" lon="11.9523313"><ele>8.0</ele><time>2026-04-21T12:34:46.479Z</time></trkpt><trkpt lat="42.024591" lon="11.9524975"><ele>8.0</ele><time>2026-04-21T12:34:47.476Z</time></trkpt><trkpt lat="42.0245247" lon="11.9526596"><ele>8.0</ele><time>2026-04-21T12:34:48.476Z</time></trkpt><trkpt lat="42.0244605" lon="11.952815"><ele>7.75</ele><time>2026-04-21T12:34:49.469Z</time></trkpt><trkpt lat="42.0243985" lon="11.9529651"><ele>7.5</ele><time>2026-04-21T12:34:50.48Z</time></trkpt><trkpt lat="42.0243413" lon="11.953109"><ele>7.25</ele><time>2026-04-21T12:34:51.475Z</time></trkpt><trkpt lat="42.0242857" lon="11.9532508"><ele>7.0</ele><time>2026-04-21T12:34:52.479Z</time></trkpt><trkpt lat="42.0242275" lon="11.9533952"><ele>7.0</ele><time>2026-04-21T12:34:53.473Z</time></trkpt><trkpt lat="42.024165" lon="11.953547"><ele>7.0</ele><time>2026-04-21T12:34:54.471Z</time></trkpt><trkpt lat="42.0240998" lon="11.9537077"><ele>7.0</ele><time>2026-04-21T12:34:55.469Z</time></trkpt><trkpt lat="42.0240343" lon="11.9538705"><ele>7.0</ele><time>2026-04-21T12:34:56.478Z</time></trkpt><trkpt lat="42.0239685" lon="11.9540301"><ele>7.25</ele><time>2026-04-21T12:34:57.474Z</time></trkpt><trkpt lat="42.0239023" lon="11.9541921"><ele>7.5</ele><time>2026-04-21T12:34:58.475Z</time></trkpt><trkpt lat="42.023832" lon="11.9543581"><ele>7.75</ele><time>2026-04-21T12:34:59.477Z</time></trkpt><trkpt lat="42.0237617" lon="11.9545293"><ele>8.0</ele><time>2026-04-21T12:35:00.483Z</time></trkpt><trkpt lat="42.0236877" lon="11.9547125"><ele>8.333333333333332</ele><time>2026-04-21T12:35:01.479Z</time></trkpt><trkpt lat="42.0236088" lon="11.954908"><ele>8.666666666666666</ele><time>2026-04-21T12:35:02.47Z</time></trkpt><trkpt lat="42.0235268" lon="11.9551085"><ele>9.0</ele><time>2026-04-21T12:35:03.481Z</time></trkpt><trkpt lat="42.0234448" lon="11.9553145"><ele>9.0</ele><time>2026-04-21T12:35:04.477Z</time></trkpt><trkpt lat="42.0233613" lon="11.9555253"><ele>9.0</ele><time>2026-04-21T12:35:05.479Z</time></trkpt><trkpt lat="42.023281" lon="11.9557365"><ele>9.0</ele><time>2026-04-21T12:35:06.484Z</time></trkpt><trkpt lat="42.0232022" lon="11.9559396"><ele>9.333333333333334</ele><time>2026-04-21T12:35:07.485Z</time></trkpt><trkpt lat="42.0231235" lon="11.9561356"><ele>9.666666666666668</ele><time>2026-04-21T12:35:08.477Z</time></trkpt><trkpt lat="42.0230455" lon="11.9563253"><ele>10.0</ele><time>2026-04-21T12:35:09.483Z</time></trkpt><trkpt lat="42.0229675" lon="11.9565181"><ele>9.666666666666668</ele><time>2026-04-21T12:35:10.471Z</time></trkpt><trkpt lat="42.0228895" lon="11.9567183"><ele>9.333333333333334</ele><time>2026-04-21T12:35:11.471Z</time></trkpt><trkpt lat="42.0228105" lon="11.9569225"><ele>9.0</ele><time>2026-04-21T12:35:12.471Z</time></trkpt><trkpt lat="42.0227273" lon="11.957127"><ele>9.0</ele><time>2026-04-21T12:35:13.47Z</time></trkpt><trkpt lat="42.0226443" lon="11.9573315"><ele>9.0</ele><time>2026-04-21T12:35:14.472Z</time></trkpt><trkpt lat="42.0225637" lon="11.95754"><ele>9.0</ele><time>2026-04-21T12:35:15.471Z</time></trkpt><trkpt lat="42.0224822" lon="11.957753"><ele>9.333333333333334</ele><time>2026-04-21T12:35:16.483Z</time></trkpt><trkpt lat="42.022397" lon="11.9579771"><ele>9.666666666666668</ele><time>2026-04-21T12:35:17.495Z</time></trkpt><trkpt lat="42.0223053" lon="11.9582101"><ele>10.0</ele><time>2026-04-21T12:35:18.48Z</time></trkpt><trkpt lat="42.0222088" lon="11.958448"><ele>10.0</ele><time>2026-04-21T12:35:19.48Z</time></trkpt><trkpt lat="42.0221135" lon="11.9586798"><ele>10.0</ele><time>2026-04-21T12:35:20.476Z</time></trkpt><trkpt lat="42.0220183" lon="11.9589037"><ele>10.0</ele><time>2026-04-21T12:35:21.477Z</time></trkpt><trkpt lat="42.0219243" lon="11.959118"><ele>9.666666666666668</ele><time>2026-04-21T12:35:22.484Z</time></trkpt><trkpt lat="42.0218328" lon="11.9593268"><ele>9.333333333333334</ele><time>2026-04-21T12:35:23.472Z</time></trkpt><trkpt lat="42.0217447" lon="11.9595338"><ele>9.0</ele><time>2026-04-21T12:35:24.479Z</time></trkpt><trkpt lat="42.0216568" lon="11.9597445"><ele>7.666666666666667</ele><time>2026-04-21T12:35:25.474Z</time></trkpt><trkpt lat="42.0215688" lon="11.9599588"><ele>6.333333333333334</ele><time>2026-04-21T12:35:26.476Z</time></trkpt><trkpt lat="42.0214797" lon="11.9601763"><ele>5.0</ele><time>2026-04-21T12:35:27.478Z</time></trkpt><trkpt lat="42.0213918" lon="11.9603963"><ele>5.0</ele><time>2026-04-21T12:35:28.478Z</time></trkpt><trkpt lat="42.0213018" lon="11.960616"><ele>5.0</ele><time>2026-04-21T12:35:29.478Z</time></trkpt><trkpt lat="42.021212" lon="11.960836"><ele>5.0</ele><time>2026-04-21T12:35:30.48Z</time></trkpt><trkpt lat="42.0211215" lon="11.9610546"><ele>5.0</ele><time>2026-04-21T12:35:31.478Z</time></trkpt><trkpt lat="42.0210315" lon="11.9612735"><ele>5.0</ele><time>2026-04-21T12:35:32.475Z</time></trkpt><trkpt lat="42.0209432" lon="11.9614915"><ele>5.0</ele><time>2026-04-21T12:35:33.483Z</time></trkpt><trkpt lat="42.0208555" lon="11.9617088"><ele>5.333333333333334</ele><time>2026-04-21T12:35:34.483Z</time></trkpt><trkpt lat="42.0207688" lon="11.9619257"><ele>5.666666666666667</ele><time>2026-04-21T12:35:35.489Z</time></trkpt><trkpt lat="42.0206835" lon="11.9621411"><ele>6.0</ele><time>2026-04-21T12:35:36.481Z</time></trkpt><trkpt lat="42.0205993" lon="11.9623575"><ele>6.333333333333334</ele><time>2026-04-21T12:35:37.476Z</time></trkpt><trkpt lat="42.0205132" lon="11.9625763"><ele>6.666666666666667</ele><time>2026-04-21T12:35:38.479Z</time></trkpt><trkpt lat="42.0204258" lon="11.9628015"><ele>7.0</ele><time>2026-04-21T12:35:39.478Z</time></trkpt><trkpt lat="42.0203402" lon="11.9630325"><ele>7.0</ele><time>2026-04-21T12:35:40.478Z</time></trkpt><trkpt lat="42.0202552" lon="11.9632663"><ele>7.0</ele><time>2026-04-21T12:35:41.478Z</time></trkpt><trkpt lat="42.0201717" lon="11.9635072"><ele>7.0</ele><time>2026-04-21T12:35:42.475Z</time></trkpt><trkpt lat="42.0200855" lon="11.9637453"><ele>6.666666666666667</ele><time>2026-04-21T12:35:43.477Z</time></trkpt><trkpt lat="42.0200003" lon="11.9639818"><ele>6.333333333333334</ele><time>2026-04-21T12:35:44.479Z</time></trkpt><trkpt lat="42.0199208" lon="11.9642178"><ele>6.0</ele><time>2026-04-21T12:35:45.479Z</time></trkpt><trkpt lat="42.0198427" lon="11.9644568"><ele>6.0</ele><time>2026-04-21T12:35:46.478Z</time></trkpt><trkpt lat="42.019763" lon="11.9646968"><ele>6.0</ele><time>2026-04-21T12:35:47.476Z</time></trkpt><trkpt lat="42.019682" lon="11.964934"><ele>6.0</ele><time>2026-04-21T12:35:48.485Z</time></trkpt><trkpt lat="42.0196037" lon="11.9651625"><ele>6.333333333333334</ele><time>2026-04-21T12:35:49.487Z</time></trkpt><trkpt lat="42.0195293" lon="11.9653795"><ele>6.666666666666667</ele><time>2026-04-21T12:35:50.486Z</time></trkpt><trkpt lat="42.0194565" lon="11.965596"><ele>7.0</ele><time>2026-04-21T12:35:51.485Z</time></trkpt><trkpt lat="42.019381" lon="11.9658193"><ele>7.0</ele><time>2026-04-21T12:35:52.482Z</time></trkpt><trkpt lat="42.0193008" lon="11.9660495"><ele>7.0</ele><time>2026-04-21T12:35:53.489Z</time></trkpt><trkpt lat="42.019214" lon="11.9662773"><ele>7.0</ele><time>2026-04-21T12:35:54.484Z</time></trkpt><trkpt lat="42.0191205" lon="11.9665091"><ele>6.666666666666667</ele><time>2026-04-21T12:35:55.479Z</time></trkpt><trkpt lat="42.0190203" lon="11.9667492"><ele>6.333333333333334</ele><time>2026-04-21T12:35:56.481Z</time></trkpt><trkpt lat="42.018915" lon="11.9669967"><ele>6.0</ele><time>2026-04-21T12:35:57.482Z</time></trkpt><trkpt lat="42.0188052" lon="11.9672493"><ele>6.0</ele><time>2026-04-21T12:35:58.483Z</time></trkpt><trkpt lat="42.0186932" lon="11.9675043"><ele>6.0</ele><time>2026-04-21T12:35:59.481Z</time></trkpt><trkpt lat="42.01858" lon="11.9677627"><ele>6.0</ele><time>2026-04-21T12:36:00.484Z</time></trkpt><trkpt lat="42.0184688" lon="11.9680235"><ele>6.666666666666666</ele><time>2026-04-21T12:36:01.481Z</time></trkpt><trkpt lat="42.0183583" lon="11.9682816"><ele>7.333333333333333</ele><time>2026-04-21T12:36:02.481Z</time></trkpt><trkpt lat="42.0182492" lon="11.9685363"><ele>8.0</ele><time>2026-04-21T12:36:03.482Z</time></trkpt><trkpt lat="42.0181407" lon="11.9687855"><ele>8.0</ele><time>2026-04-21T12:36:04.493Z</time></trkpt><trkpt lat="42.0180327" lon="11.969033"><ele>8.0</ele><time>2026-04-21T12:36:05.482Z</time></trkpt><trkpt lat="42.0179252" lon="11.9692775"><ele>8.0</ele><time>2026-04-21T12:36:06.476Z</time></trkpt><trkpt lat="42.0178187" lon="11.9695207"><ele>8.666666666666666</ele><time>2026-04-21T12:36:07.482Z</time></trkpt><trkpt lat="42.0177125" lon="11.9697617"><ele>9.333333333333334</ele><time>2026-04-21T12:36:08.483Z</time></trkpt><trkpt lat="42.0176095" lon="11.9700026"><ele>10.0</ele><time>2026-04-21T12:36:09.477Z</time></trkpt><trkpt lat="42.017506" lon="11.9702428"><ele>10.0</ele><time>2026-04-21T12:36:10.482Z</time></trkpt><trkpt lat="42.0173993" lon="11.970488"><ele>10.0</ele><time>2026-04-21T12:36:11.478Z</time></trkpt><trkpt lat="42.0172905" lon="11.9707365"><ele>10.0</ele><time>2026-04-21T12:36:12.486Z</time></trkpt><trkpt lat="42.0171827" lon="11.9709938"><ele>8.5</ele><time>2026-04-21T12:36:13.48Z</time></trkpt><trkpt lat="42.0170742" lon="11.9712581"><ele>7.0</ele><time>2026-04-21T12:36:14.476Z</time></trkpt><trkpt lat="42.0169653" lon="11.971525"><ele>7.0</ele><time>2026-04-21T12:36:15.477Z</time></trkpt><trkpt lat="42.0168562" lon="11.9717902"><ele>7.0</ele><time>2026-04-21T12:36:16.476Z</time></trkpt><trkpt lat="42.0167472" lon="11.9720541"><ele>6.666666666666667</ele><time>2026-04-21T12:36:17.475Z</time></trkpt><trkpt lat="42.0166402" lon="11.9723172"><ele>6.333333333333334</ele><time>2026-04-21T12:36:18.499Z</time></trkpt><trkpt lat="42.0165345" lon="11.9725767"><ele>6.0</ele><time>2026-04-21T12:36:19.484Z</time></trkpt><trkpt lat="42.0164295" lon="11.9728347"><ele>6.0</ele><time>2026-04-21T12:36:20.478Z</time></trkpt><trkpt lat="42.0163232" lon="11.9730941"><ele>6.0</ele><time>2026-04-21T12:36:21.477Z</time></trkpt><trkpt lat="42.0162185" lon="11.9733573"><ele>6.0</ele><time>2026-04-21T12:36:22.478Z</time></trkpt><trkpt lat="42.0161152" lon="11.9736246"><ele>7.0</ele><time>2026-04-21T12:36:23.478Z</time></trkpt><trkpt lat="42.0160132" lon="11.9738948"><ele>8.0</ele><time>2026-04-21T12:36:24.516Z</time></trkpt><trkpt lat="42.0159113" lon="11.97417"><ele>9.0</ele><time>2026-04-21T12:36:25.478Z</time></trkpt><trkpt lat="42.0158082" lon="11.9744492"><ele>10.0</ele><time>2026-04-21T12:36:26.475Z</time></trkpt><trkpt lat="42.0157053" lon="11.9747341"><ele>9.5</ele><time>2026-04-21T12:36:27.481Z</time></trkpt><trkpt lat="42.0156045" lon="11.9750245"><ele>9.0</ele><time>2026-04-21T12:36:28.477Z</time></trkpt><trkpt lat="42.0155015" lon="11.9753193"><ele>9.0</ele><time>2026-04-21T12:36:29.479Z</time></trkpt><trkpt lat="42.0153967" lon="11.9756193"><ele>9.0</ele><time>2026-04-21T12:36:30.478Z</time></trkpt><trkpt lat="42.0152888" lon="11.9759198"><ele>9.0</ele><time>2026-04-21T12:36:31.478Z</time></trkpt><trkpt lat="42.015178" lon="11.9762198"><ele>9.0</ele><time>2026-04-21T12:36:32.482Z</time></trkpt><trkpt lat="42.0150625" lon="11.9765185"><ele>8.0</ele><time>2026-04-21T12:36:33.484Z</time></trkpt><trkpt lat="42.0149402" lon="11.9768139"><ele>7.0</ele><time>2026-04-21T12:36:34.478Z</time></trkpt><trkpt lat="42.0148138" lon="11.9771073"><ele>7.0</ele><time>2026-04-21T12:36:35.483Z</time></trkpt><trkpt lat="42.0146873" lon="11.9773998"><ele>7.0</ele><time>2026-04-21T12:36:36.478Z</time></trkpt><trkpt lat="42.0145625" lon="11.9776888"><ele>7.0</ele><time>2026-04-21T12:36:37.48Z</time></trkpt><trkpt lat="42.01444" lon="11.977976"><ele>7.0</ele><time>2026-04-21T12:36:38.477Z</time></trkpt><trkpt lat="42.014322" lon="11.9782632"><ele>7.5</ele><time>2026-04-21T12:36:39.478Z</time></trkpt><trkpt lat="42.0142053" lon="11.9785507"><ele>8.0</ele><time>2026-04-21T12:36:40.478Z</time></trkpt><trkpt lat="42.0140893" lon="11.9788386"><ele>8.0</ele><time>2026-04-21T12:36:41.478Z</time></trkpt><trkpt lat="42.013972" lon="11.9791248"><ele>8.0</ele><time>2026-04-21T12:36:42.476Z</time></trkpt><trkpt lat="42.0138533" lon="11.9794103"><ele>7.5</ele><time>2026-04-21T12:36:43.479Z</time></trkpt><trkpt lat="42.0137345" lon="11.9796948"><ele>7.0</ele><time>2026-04-21T12:36:44.479Z</time></trkpt><trkpt lat="42.0136175" lon="11.9799795"><ele>7.5</ele><time>2026-04-21T12:36:45.479Z</time></trkpt><trkpt lat="42.0135012" lon="11.9802635"><ele>8.0</ele><time>2026-04-21T12:36:46.492Z</time></trkpt><trkpt lat="42.0133848" lon="11.9805485"><ele>7.5</ele><time>2026-04-21T12:36:47.487Z</time></trkpt><trkpt lat="42.0132687" lon="11.980833"><ele>7.0</ele><time>2026-04-21T12:36:48.485Z</time></trkpt><trkpt lat="42.0131518" lon="11.9811201"><ele>7.0</ele><time>2026-04-21T12:36:49.48Z</time></trkpt><trkpt lat="42.0130345" lon="11.9814085"><ele>7.0</ele><time>2026-04-21T12:36:50.484Z</time></trkpt><trkpt lat="42.0129167" lon="11.9816963"><ele>7.0</ele><time>2026-04-21T12:36:51.48Z</time></trkpt><trkpt lat="42.0127998" lon="11.9819855"><ele>7.0</ele><time>2026-04-21T12:36:52.482Z</time></trkpt><trkpt lat="42.0126808" lon="11.9822752"><ele>6.5</ele><time>2026-04-21T12:36:53.481Z</time></trkpt><trkpt lat="42.0125588" lon="11.9825632"><ele>6.0</ele><time>2026-04-21T12:36:54.493Z</time></trkpt><trkpt lat="42.0124382" lon="11.9828523"><ele>5.0</ele><time>2026-04-21T12:36:55.485Z</time></trkpt><trkpt lat="42.0123182" lon="11.9831422"><ele>4.0</ele><time>2026-04-21T12:36:56.48Z</time></trkpt><trkpt lat="42.0121972" lon="11.9834318"><ele>4.0</ele><time>2026-04-21T12:36:57.483Z</time></trkpt><trkpt lat="42.0120773" lon="11.9837215"><ele>4.0</ele><time>2026-04-21T12:36:58.481Z</time></trkpt><trkpt lat="42.0119578" lon="11.9840098"><ele>4.5</ele><time>2026-04-21T12:36:59.482Z</time></trkpt><trkpt lat="42.0118392" lon="11.9842977"><ele>5.0</ele><time>2026-04-21T12:37:00.48Z</time></trkpt><trkpt lat="42.0117202" lon="11.984585"><ele>5.0</ele><time>2026-04-21T12:37:01.481Z</time></trkpt><trkpt lat="42.0116015" lon="11.984871"><ele>5.0</ele><time>2026-04-21T12:37:02.478Z</time></trkpt><trkpt lat="42.0114833" lon="11.9851568"><ele>5.0</ele><time>2026-04-21T12:37:03.48Z</time></trkpt><trkpt lat="42.0113643" lon="11.9854413"><ele>5.0</ele><time>2026-04-21T12:37:04.48Z</time></trkpt><trkpt lat="42.0112447" lon="11.9857245"><ele>6.0</ele><time>2026-04-21T12:37:05.485Z</time></trkpt><trkpt lat="42.0111238" lon="11.9860065"><ele>7.0</ele><time>2026-04-21T12:37:06.482Z</time></trkpt><trkpt lat="42.0110005" lon="11.9862848"><ele>7.0</ele><time>2026-04-21T12:37:07.483Z</time></trkpt><trkpt lat="42.010872" lon="11.9865622"><ele>7.0</ele><time>2026-04-21T12:37:08.477Z</time></trkpt><trkpt lat="42.0107392" lon="11.9868356"><ele>6.0</ele><time>2026-04-21T12:37:09.479Z</time></trkpt><trkpt lat="42.010606" lon="11.9871102"><ele>5.0</ele><time>2026-04-21T12:37:10.483Z</time></trkpt><trkpt lat="42.0104753" lon="11.9873845"><ele>6.0</ele><time>2026-04-21T12:37:11.48Z</time></trkpt><trkpt lat="42.0103463" lon="11.9876581"><ele>7.0</ele><time>2026-04-21T12:37:12.479Z</time></trkpt><trkpt lat="42.0102205" lon="11.9879346"><ele>7.0</ele><time>2026-04-21T12:37:13.481Z</time></trkpt><trkpt lat="42.0100975" lon="11.9882106"><ele>7.0</ele><time>2026-04-21T12:37:14.48Z</time></trkpt><trkpt lat="42.0099747" lon="11.9884875"><ele>7.0</ele><time>2026-04-21T12:37:15.476Z</time></trkpt><trkpt lat="42.0098525" lon="11.9887675"><ele>7.0</ele><time>2026-04-21T12:37:16.477Z</time></trkpt><trkpt lat="42.0097323" lon="11.9890505"><ele>7.5</ele><time>2026-04-21T12:37:17.483Z</time></trkpt><trkpt lat="42.0096115" lon="11.9893323"><ele>8.0</ele><time>2026-04-21T12:37:18.478Z</time></trkpt><trkpt lat="42.0094893" lon="11.9896178"><ele>8.0</ele><time>2026-04-21T12:37:19.477Z</time></trkpt><trkpt lat="42.0093645" lon="11.9899032"><ele>8.0</ele><time>2026-04-21T12:37:20.478Z</time></trkpt><trkpt lat="42.0092403" lon="11.9901903"><ele>6.5</ele><time>2026-04-21T12:37:21.479Z</time></trkpt><trkpt lat="42.009119" lon="11.9904805"><ele>5.0</ele><time>2026-04-21T12:37:22.476Z</time></trkpt><trkpt lat="42.008999" lon="11.9907716"><ele>5.0</ele><time>2026-04-21T12:37:23.48Z</time></trkpt><trkpt lat="42.0088787" lon="11.9910615"><ele>5.0</ele><time>2026-04-21T12:37:24.476Z</time></trkpt><trkpt lat="42.0087588" lon="11.99135"><ele>5.0</ele><time>2026-04-21T12:37:25.481Z</time></trkpt><trkpt lat="42.0086413" lon="11.9916358"><ele>5.0</ele><time>2026-04-21T12:37:26.482Z</time></trkpt><trkpt lat="42.0085255" lon="11.9919192"><ele>5.5</ele><time>2026-04-21T12:37:27.478Z</time></trkpt><trkpt lat="42.0084098" lon="11.9921995"><ele>6.0</ele><time>2026-04-21T12:37:28.483Z</time></trkpt><trkpt lat="42.0082938" lon="11.9924823"><ele>5.5</ele><time>2026-04-21T12:37:29.482Z</time></trkpt><trkpt lat="42.0081782" lon="11.992763"><ele>5.0</ele><time>2026-04-21T12:37:30.485Z</time></trkpt><trkpt lat="42.0080623" lon="11.9930403"><ele>5.0</ele><time>2026-04-21T12:37:31.484Z</time></trkpt><trkpt lat="42.007947" lon="11.9933163"><ele>5.0</ele><time>2026-04-21T12:37:32.479Z</time></trkpt><trkpt lat="42.0078358" lon="11.9935875"><ele>5.666666666666667</ele><time>2026-04-21T12:37:33.492Z</time></trkpt><trkpt lat="42.0077315" lon="11.9938478"><ele>6.333333333333334</ele><time>2026-04-21T12:37:34.489Z</time></trkpt><trkpt lat="42.0076288" lon="11.9941018"><ele>7.0</ele><time>2026-04-21T12:37:35.483Z</time></trkpt><trkpt lat="42.0075252" lon="11.994357"><ele>6.333333333333334</ele><time>2026-04-21T12:37:36.485Z</time></trkpt><trkpt lat="42.0074235" lon="11.9946063"><ele>5.666666666666667</ele><time>2026-04-21T12:37:37.492Z</time></trkpt><trkpt lat="42.0073267" lon="11.9948427"><ele>5.0</ele><time>2026-04-21T12:37:38.49Z</time></trkpt><trkpt lat="42.0072335" lon="11.995065"><ele>5.0</ele><time>2026-04-21T12:37:39.488Z</time></trkpt><trkpt lat="42.0071418" lon="11.9952843"><ele>5.0</ele><time>2026-04-21T12:37:40.489Z</time></trkpt><trkpt lat="42.007046" lon="11.9955113"><ele>5.0</ele><time>2026-04-21T12:37:41.487Z</time></trkpt><trkpt lat="42.0069438" lon="11.9957554"><ele>5.5</ele><time>2026-04-21T12:37:42.482Z</time></trkpt><trkpt lat="42.0068353" lon="11.996016"><ele>6.0</ele><time>2026-04-21T12:37:43.48Z</time></trkpt><trkpt lat="42.0067215" lon="11.9962885"><ele>6.0</ele><time>2026-04-21T12:37:44.481Z</time></trkpt><trkpt lat="42.0066067" lon="11.9965648"><ele>6.0</ele><time>2026-04-21T12:37:45.488Z</time></trkpt><trkpt lat="42.0064965" lon="11.9968365"><ele>6.0</ele><time>2026-04-21T12:37:46.483Z</time></trkpt><trkpt lat="42.0063907" lon="11.9971065"><ele>6.0</ele><time>2026-04-21T12:37:47.482Z</time></trkpt><trkpt lat="42.0062832" lon="11.9973763"><ele>5.5</ele><time>2026-04-21T12:37:48.483Z</time></trkpt><trkpt lat="42.0061722" lon="11.9976495"><ele>5.0</ele><time>2026-04-21T12:37:49.479Z</time></trkpt><trkpt lat="42.0060583" lon="11.9979288"><ele>5.0</ele><time>2026-04-21T12:37:50.483Z</time></trkpt><trkpt lat="42.0059422" lon="11.9982153"><ele>5.0</ele><time>2026-04-21T12:37:51.481Z</time></trkpt><trkpt lat="42.005824" lon="11.9985055"><ele>5.0</ele><time>2026-04-21T12:37:52.48Z</time></trkpt><trkpt lat="42.0057055" lon="11.9987987"><ele>5.0</ele><time>2026-04-21T12:37:53.479Z</time></trkpt><trkpt lat="42.0055865" lon="11.9990917"><ele>5.5</ele><time>2026-04-21T12:37:54.477Z</time></trkpt><trkpt lat="42.005467" lon="11.999385"><ele>6.0</ele><time>2026-04-21T12:37:55.477Z</time></trkpt><trkpt lat="42.0053475" lon="11.999679"><ele>6.0</ele><time>2026-04-21T12:37:56.477Z</time></trkpt><trkpt lat="42.0052303" lon="11.999971"><ele>6.0</ele><time>2026-04-21T12:37:57.48Z</time></trkpt><trkpt lat="42.0051153" lon="12.0002597"><ele>6.0</ele><time>2026-04-21T12:37:58.482Z</time></trkpt><trkpt lat="42.0050032" lon="12.0005417"><ele>6.0</ele><time>2026-04-21T12:37:59.479Z</time></trkpt><trkpt lat="42.004893" lon="12.0008162"><ele>6.0</ele><time>2026-04-21T12:38:00.483Z</time></trkpt><trkpt lat="42.0047847" lon="12.0010848"><ele>6.0</ele><time>2026-04-21T12:38:01.48Z</time></trkpt><trkpt lat="42.0046802" lon="12.001351"><ele>6.0</ele><time>2026-04-21T12:38:02.479Z</time></trkpt><trkpt lat="42.0045787" lon="12.0016157"><ele>6.0</ele><time>2026-04-21T12:38:03.478Z</time></trkpt><trkpt lat="42.0044793" lon="12.0018818"><ele>6.0</ele><time>2026-04-21T12:38:04.479Z</time></trkpt><trkpt lat="42.0043825" lon="12.0021497"><ele>6.0</ele><time>2026-04-21T12:38:05.481Z</time></trkpt><trkpt lat="42.0042895" lon="12.0024205"><ele>6.0</ele><time>2026-04-21T12:38:06.483Z</time></trkpt><trkpt lat="42.004202" lon="12.0026973"><ele>6.0</ele><time>2026-04-21T12:38:07.481Z</time></trkpt><trkpt lat="42.0041198" lon="12.0029782"><ele>6.0</ele><time>2026-04-21T12:38:08.476Z</time></trkpt><trkpt lat="42.004041" lon="12.0032617"><ele>6.0</ele><time>2026-04-21T12:38:09.475Z</time></trkpt><trkpt lat="42.0039675" lon="12.0035508"><ele>7.0</ele><time>2026-04-21T12:38:10.48Z</time></trkpt><trkpt lat="42.0038997" lon="12.0038452"><ele>8.0</ele><time>2026-04-21T12:38:11.479Z</time></trkpt><trkpt lat="42.0038385" lon="12.0041433"><ele>9.0</ele><time>2026-04-21T12:38:12.477Z</time></trkpt><trkpt lat="42.0037838" lon="12.0044447"><ele>10.0</ele><time>2026-04-21T12:38:13.476Z</time></trkpt><trkpt lat="42.0037345" lon="12.0047492"><ele>10.5</ele><time>2026-04-21T12:38:14.476Z</time></trkpt><trkpt lat="42.0036887" lon="12.0050567"><ele>11.0</ele><time>2026-04-21T12:38:15.49Z</time></trkpt><trkpt lat="42.0036472" lon="12.0053623"><ele>11.0</ele><time>2026-04-21T12:38:16.478Z</time></trkpt><trkpt lat="42.0036085" lon="12.0056658"><ele>11.0</ele><time>2026-04-21T12:38:17.476Z</time></trkpt><trkpt lat="42.0035702" lon="12.0059678"><ele>11.5</ele><time>2026-04-21T12:38:18.478Z</time></trkpt><trkpt lat="42.0035325" lon="12.0062678"><ele>12.0</ele><time>2026-04-21T12:38:19.48Z</time></trkpt><trkpt lat="42.0034942" lon="12.0065667"><ele>11.666666666666666</ele><time>2026-04-21T12:38:20.477Z</time></trkpt><trkpt lat="42.0034573" lon="12.006865"><ele>11.333333333333332</ele><time>2026-04-21T12:38:21.487Z</time></trkpt><trkpt lat="42.0034193" lon="12.0071618"><ele>11.0</ele><time>2026-04-21T12:38:22.473Z</time></trkpt><trkpt lat="42.003381" lon="12.007451"><ele>11.333333333333332</ele><time>2026-04-21T12:38:23.48Z</time></trkpt><trkpt lat="42.0033352" lon="12.0077375"><ele>11.666666666666666</ele><time>2026-04-21T12:38:24.479Z</time></trkpt><trkpt lat="42.0032748" lon="12.0080228"><ele>12.0</ele><time>2026-04-21T12:38:25.478Z</time></trkpt><trkpt lat="42.0031962" lon="12.0083022"><ele>11.666666666666666</ele><time>2026-04-21T12:38:26.487Z</time></trkpt><trkpt lat="42.0030995" lon="12.0085673"><ele>11.333333333333332</ele><time>2026-04-21T12:38:27.484Z</time></trkpt><trkpt lat="42.0029867" lon="12.008835"><ele>11.0</ele><time>2026-04-21T12:38:28.489Z</time></trkpt><trkpt lat="42.0028557" lon="12.009096"><ele>11.0</ele><time>2026-04-21T12:38:29.486Z</time></trkpt><trkpt lat="42.002709" lon="12.0093475"><ele>11.0</ele><time>2026-04-21T12:38:30.495Z</time></trkpt><trkpt lat="42.0025542" lon="12.0095902"><ele>11.0</ele><time>2026-04-21T12:38:31.478Z</time></trkpt><trkpt lat="42.0023985" lon="12.0098283"><ele>11.0</ele><time>2026-04-21T12:38:32.476Z</time></trkpt><trkpt lat="42.0022472" lon="12.0100572"><ele>11.0</ele><time>2026-04-21T12:38:33.481Z</time></trkpt><trkpt lat="42.0021022" lon="12.0102838"><ele>11.0</ele><time>2026-04-21T12:38:34.491Z</time></trkpt><trkpt lat="42.0019628" lon="12.010507"><ele>11.0</ele><time>2026-04-21T12:38:35.487Z</time></trkpt><trkpt lat="42.0018333" lon="12.01073"><ele>11.0</ele><time>2026-04-21T12:38:36.484Z</time></trkpt><trkpt lat="42.0017117" lon="12.0109515"><ele>11.0</ele><time>2026-04-21T12:38:37.479Z</time></trkpt><trkpt lat="42.0015982" lon="12.0111635"><ele>11.0</ele><time>2026-04-21T12:38:38.487Z</time></trkpt><trkpt lat="42.0014915" lon="12.0113642"><ele>11.0</ele><time>2026-04-21T12:38:39.476Z</time></trkpt><trkpt lat="42.0013922" lon="12.0115508"><ele>11.0</ele><time>2026-04-21T12:38:40.493Z</time></trkpt><trkpt lat="42.0012992" lon="12.0117258"><ele>11.0</ele><time>2026-04-21T12:38:41.479Z</time></trkpt><trkpt lat="42.001212" lon="12.0118898"><ele>10.75</ele><time>2026-04-21T12:38:42.485Z</time></trkpt><trkpt lat="42.0011295" lon="12.0120453"><ele>10.5</ele><time>2026-04-21T12:38:43.481Z</time></trkpt><trkpt lat="42.0010505" lon="12.0121923"><ele>10.25</ele><time>2026-04-21T12:38:44.48Z</time></trkpt><trkpt lat="42.0009797" lon="12.0123248"><ele>10.0</ele><time>2026-04-21T12:38:45.509Z</time></trkpt><trkpt lat="42.0009163" lon="12.0124338"><ele>10.0</ele><time>2026-04-21T12:38:46.486Z</time></trkpt><trkpt lat="42.0008612" lon="12.012523"><ele>10.0</ele><time>2026-04-21T12:38:47.482Z</time></trkpt><trkpt lat="42.0008137" lon="12.01259"><ele>10.0</ele><time>2026-04-21T12:38:48.478Z</time></trkpt><trkpt lat="42.0007345" lon="12.0126877"><ele>10.0</ele><time>2026-04-21T12:38:50.48Z</time></trkpt><trkpt lat="42.0006788" lon="12.0127557"><ele>10.0</ele><time>2026-04-21T12:38:52.492Z</time></trkpt><trkpt lat="42.0006207" lon="12.0128468"><ele>10.0</ele><time>2026-04-21T12:38:55.484Z</time></trkpt><trkpt lat="42.0005847" lon="12.0129183"><ele>10.0</ele><time>2026-04-21T12:38:57.486Z</time></trkpt><trkpt lat="42.000548" lon="12.0130175"><ele>10.0</ele><time>2026-04-21T12:38:59.488Z</time></trkpt></trkseg></trk></gpx>